<?xml version='1.0' encoding='UTF-8'?><gpx version="1.1" creator="JPX - https://github.com/jenetics/jpx" xmlns="http://www.topografix.com/GPX/1/1"><trk><trkseg><trkpt lat="43.421838" lon="11.1811973"><ele>174.0</ele><time>2026-04-19T05:53:42.655Z</time></trkpt><trkpt lat="43.4219315" lon="11.1812039"><ele>174.0</ele><time>2026-04-19T05:53:49.132Z</time></trkpt><trkpt lat="43.4219937" lon="11.1811809"><ele>174.0</ele><time>2026-04-19T05:54:02.141Z</time></trkpt><trkpt lat="43.4220572" lon="11.1811884"><ele>174.0</ele><time>2026-04-19T05:54:19.13Z</time></trkpt><trkpt lat="43.4221217" lon="11.1811372"><ele>174.0</ele><time>2026-04-19T05:54:28.186Z</time></trkpt><trkpt lat="43.4221866" lon="11.1811189"><ele>174.0</ele><time>2026-04-19T05:54:32.134Z</time></trkpt><trkpt lat="43.4222384" lon="11.1811911"><ele>174.0</ele><time>2026-04-19T05:54:36.168Z</time></trkpt><trkpt lat="43.4222675" lon="11.1812683"><ele>174.16666666666666</ele><time>2026-04-19T05:54:39.142Z</time></trkpt><trkpt lat="43.4223055" lon="11.1814282"><ele>174.33333333333334</ele><time>2026-04-19T05:54:43.157Z</time></trkpt><trkpt lat="43.4223215" lon="11.1815254"><ele>174.5</ele><time>2026-04-19T05:54:45.131Z</time></trkpt><trkpt lat="43.4223026" lon="11.1816152"><ele>174.66666666666669</ele><time>2026-04-19T05:54:47.122Z</time></trkpt><trkpt lat="43.4222663" lon="11.1816925"><ele>174.83333333333334</ele><time>2026-04-19T05:54:49.133Z</time></trkpt><trkpt lat="43.4222083" lon="11.181788"><ele>175.0</ele><time>2026-04-19T05:54:52.136Z</time></trkpt><trkpt lat="43.4221442" lon="11.1818791"><ele>175.0</ele><time>2026-04-19T05:54:55.132Z</time></trkpt><trkpt lat="43.4220938" lon="11.1819568"><ele>175.0</ele><time>2026-04-19T05:54:58.162Z</time></trkpt><trkpt lat="43.422104" lon="11.182067"><ele>175.0</ele><time>2026-04-19T05:55:02.139Z</time></trkpt><trkpt lat="43.422097" lon="11.1821704"><ele>175.0</ele><time>2026-04-19T05:55:05.131Z</time></trkpt><trkpt lat="43.4221074" lon="11.1822571"><ele>175.0</ele><time>2026-04-19T05:55:07.134Z</time></trkpt><trkpt lat="43.4221273" lon="11.182344"><ele>175.0</ele><time>2026-04-19T05:55:09.128Z</time></trkpt><trkpt lat="43.4221475" lon="11.1824297"><ele>175.0</ele><time>2026-04-19T05:55:11.153Z</time></trkpt><trkpt lat="43.4221736" lon="11.1825129"><ele>175.0</ele><time>2026-04-19T05:55:13.13Z</time></trkpt><trkpt lat="43.4221952" lon="11.1826025"><ele>175.0</ele><time>2026-04-19T05:55:15.143Z</time></trkpt><trkpt lat="43.4221447" lon="11.1826683"><ele>175.0</ele><time>2026-04-19T05:55:17.17Z</time></trkpt><trkpt lat="43.4220668" lon="11.1827412"><ele>175.0</ele><time>2026-04-19T05:55:19.135Z</time></trkpt><trkpt lat="43.4219978" lon="11.18282"><ele>175.0</ele><time>2026-04-19T05:55:21.134Z</time></trkpt><trkpt lat="43.4219324" lon="11.1828745"><ele>175.0</ele><time>2026-04-19T05:55:23.138Z</time></trkpt><trkpt lat="43.4218705" lon="11.1829294"><ele>175.0</ele><time>2026-04-19T05:55:25.123Z</time></trkpt><trkpt lat="43.4218008" lon="11.1829841"><ele>175.0</ele><time>2026-04-19T05:55:27.13Z</time></trkpt><trkpt lat="43.421736" lon="11.1830429"><ele>175.0</ele><time>2026-04-19T05:55:29.161Z</time></trkpt><trkpt lat="43.4216708" lon="11.1831018"><ele>175.0</ele><time>2026-04-19T05:55:31.147Z</time></trkpt><trkpt lat="43.421606" lon="11.1831659"><ele>175.0</ele><time>2026-04-19T05:55:33.124Z</time></trkpt><trkpt lat="43.4215435" lon="11.1832197"><ele>175.0</ele><time>2026-04-19T05:55:35.132Z</time></trkpt><trkpt lat="43.4214863" lon="11.1832795"><ele>175.0</ele><time>2026-04-19T05:55:37.121Z</time></trkpt><trkpt lat="43.4214243" lon="11.1833251"><ele>175.0</ele><time>2026-04-19T05:55:39.13Z</time></trkpt><trkpt lat="43.4213591" lon="11.183377"><ele>175.0</ele><time>2026-04-19T05:55:41.14Z</time></trkpt><trkpt lat="43.421296" lon="11.1834326"><ele>175.0</ele><time>2026-04-19T05:55:43.145Z</time></trkpt><trkpt lat="43.4212438" lon="11.1834956"><ele>175.0</ele><time>2026-04-19T05:55:45.13Z</time></trkpt><trkpt lat="43.4211958" lon="11.1835548"><ele>175.0</ele><time>2026-04-19T05:55:47.142Z</time></trkpt><trkpt lat="43.4211484" lon="11.1836136"><ele>175.0</ele><time>2026-04-19T05:55:49.127Z</time></trkpt><trkpt lat="43.4211038" lon="11.1836836"><ele>175.16666666666669</ele><time>2026-04-19T05:55:51.129Z</time></trkpt><trkpt lat="43.42106" lon="11.1837673"><ele>175.33333333333334</ele><time>2026-04-19T05:55:53.124Z</time></trkpt><trkpt lat="43.4210144" lon="11.1838586"><ele>175.5</ele><time>2026-04-19T05:55:55.156Z</time></trkpt><trkpt lat="43.4209603" lon="11.1839556"><ele>175.66666666666666</ele><time>2026-04-19T05:55:57.141Z</time></trkpt><trkpt lat="43.4209158" lon="11.1840649"><ele>175.83333333333331</ele><time>2026-04-19T05:55:59.152Z</time></trkpt><trkpt lat="43.4208643" lon="11.184163"><ele>176.0</ele><time>2026-04-19T05:56:01.133Z</time></trkpt><trkpt lat="43.4208118" lon="11.1842634"><ele>176.16666666666666</ele><time>2026-04-19T05:56:03.174Z</time></trkpt><trkpt lat="43.4207597" lon="11.1843571"><ele>176.33333333333331</ele><time>2026-04-19T05:56:05.147Z</time></trkpt><trkpt lat="43.4207012" lon="11.1844356"><ele>176.5</ele><time>2026-04-19T05:56:07.153Z</time></trkpt><trkpt lat="43.4206453" lon="11.1845136"><ele>176.66666666666666</ele><time>2026-04-19T05:56:09.146Z</time></trkpt><trkpt lat="43.4205979" lon="11.1846022"><ele>176.83333333333334</ele><time>2026-04-19T05:56:11.143Z</time></trkpt><trkpt lat="43.4205453" lon="11.1846983"><ele>177.0</ele><time>2026-04-19T05:56:13.15Z</time></trkpt><trkpt lat="43.4204879" lon="11.1847906"><ele>176.83333333333334</ele><time>2026-04-19T05:56:15.144Z</time></trkpt><trkpt lat="43.4204357" lon="11.1848786"><ele>176.66666666666666</ele><time>2026-04-19T05:56:17.146Z</time></trkpt><trkpt lat="43.4203849" lon="11.1849677"><ele>176.5</ele><time>2026-04-19T05:56:19.169Z</time></trkpt><trkpt lat="43.4203293" lon="11.1850576"><ele>176.33333333333331</ele><time>2026-04-19T05:56:21.145Z</time></trkpt><trkpt lat="43.4202823" lon="11.1851412"><ele>176.16666666666666</ele><time>2026-04-19T05:56:23.149Z</time></trkpt><trkpt lat="43.420237" lon="11.1852343"><ele>176.0</ele><time>2026-04-19T05:56:25.144Z</time></trkpt><trkpt lat="43.4201919" lon="11.1853334"><ele>176.0</ele><time>2026-04-19T05:56:27.139Z</time></trkpt><trkpt lat="43.4201429" lon="11.1854238"><ele>176.0</ele><time>2026-04-19T05:56:29.143Z</time></trkpt><trkpt lat="43.4200872" lon="11.1855123"><ele>176.0</ele><time>2026-04-19T05:56:31.148Z</time></trkpt><trkpt lat="43.4200369" lon="11.1856069"><ele>176.0</ele><time>2026-04-19T05:56:33.147Z</time></trkpt><trkpt lat="43.4199853" lon="11.1856932"><ele>176.0</ele><time>2026-04-19T05:56:35.143Z</time></trkpt><trkpt lat="43.4199321" lon="11.1857626"><ele>176.0</ele><time>2026-04-19T05:56:37.148Z</time></trkpt><trkpt lat="43.4198881" lon="11.1858356"><ele>176.0</ele><time>2026-04-19T05:56:39.148Z</time></trkpt><trkpt lat="43.4198468" lon="11.1859245"><ele>176.0</ele><time>2026-04-19T05:56:41.125Z</time></trkpt><trkpt lat="43.4198015" lon="11.1860174"><ele>176.0</ele><time>2026-04-19T05:56:43.125Z</time></trkpt><trkpt lat="43.4197506" lon="11.1861244"><ele>176.0</ele><time>2026-04-19T05:56:45.132Z</time></trkpt><trkpt lat="43.4196729" lon="11.1862743"><ele>176.0</ele><time>2026-04-19T05:56:48.148Z</time></trkpt><trkpt lat="43.4196197" lon="11.1863755"><ele>175.60000000000002</ele><time>2026-04-19T05:56:50.143Z</time></trkpt><trkpt lat="43.4195707" lon="11.1864925"><ele>175.2</ele><time>2026-04-19T05:56:52.127Z</time></trkpt><trkpt lat="43.4195056" lon="11.186628"><ele>174.8</ele><time>2026-04-19T05:56:54.136Z</time></trkpt><trkpt lat="43.4194328" lon="11.1867704"><ele>174.39999999999998</ele><time>2026-04-19T05:56:56.142Z</time></trkpt><trkpt lat="43.4193955" lon="11.1868466"><ele>174.0</ele><time>2026-04-19T05:56:57.133Z</time></trkpt><trkpt lat="43.4193577" lon="11.186928"><ele>174.0</ele><time>2026-04-19T05:56:58.124Z</time></trkpt><trkpt lat="43.4193191" lon="11.1870144"><ele>174.0</ele><time>2026-04-19T05:56:59.153Z</time></trkpt><trkpt lat="43.4192781" lon="11.1870963"><ele>174.0</ele><time>2026-04-19T05:57:00.153Z</time></trkpt><trkpt lat="43.4192304" lon="11.1871791"><ele>174.0</ele><time>2026-04-19T05:57:01.231Z</time></trkpt><trkpt lat="43.4191781" lon="11.1872592"><ele>174.0</ele><time>2026-04-19T05:57:02.142Z</time></trkpt><trkpt lat="43.4191155" lon="11.1873367"><ele>174.0</ele><time>2026-04-19T05:57:03.142Z</time></trkpt><trkpt lat="43.4190768" lon="11.1874194"><ele>173.66666666666666</ele><time>2026-04-19T05:57:04.15Z</time></trkpt><trkpt lat="43.4190596" lon="11.1875061"><ele>173.33333333333334</ele><time>2026-04-19T05:57:05.145Z</time></trkpt><trkpt lat="43.4190069" lon="11.1876508"><ele>173.0</ele><time>2026-04-19T05:57:07.224Z</time></trkpt><trkpt lat="43.4189635" lon="11.1877189"><ele>172.66666666666669</ele><time>2026-04-19T05:57:08.142Z</time></trkpt><trkpt lat="43.4189285" lon="11.1877917"><ele>172.33333333333334</ele><time>2026-04-19T05:57:09.143Z</time></trkpt><trkpt lat="43.4188549" lon="11.1879429"><ele>172.0</ele><time>2026-04-19T05:57:11.143Z</time></trkpt><trkpt lat="43.4188047" lon="11.1880325"><ele>172.0</ele><time>2026-04-19T05:57:12.223Z</time></trkpt><trkpt lat="43.4187562" lon="11.1881184"><ele>172.0</ele><time>2026-04-19T05:57:13.146Z</time></trkpt><trkpt lat="43.4187131" lon="11.1881945"><ele>172.0</ele><time>2026-04-19T05:57:14.159Z</time></trkpt><trkpt lat="43.4186737" lon="11.1882635"><ele>172.0</ele><time>2026-04-19T05:57:15.138Z</time></trkpt><trkpt lat="43.4185931" lon="11.1883822"><ele>172.0</ele><time>2026-04-19T05:57:17.133Z</time></trkpt><trkpt lat="43.4185128" lon="11.1885048"><ele>171.5</ele><time>2026-04-19T05:57:19.151Z</time></trkpt><trkpt lat="43.4184493" lon="11.1886407"><ele>171.0</ele><time>2026-04-19T05:57:21.213Z</time></trkpt><trkpt lat="43.4184129" lon="11.1887797"><ele>170.5</ele><time>2026-04-19T05:57:23.15Z</time></trkpt><trkpt lat="43.4183806" lon="11.1889391"><ele>170.0</ele><time>2026-04-19T05:57:25.166Z</time></trkpt><trkpt lat="43.4183442" lon="11.1890744"><ele>170.0</ele><time>2026-04-19T05:57:27.144Z</time></trkpt><trkpt lat="43.4182812" lon="11.1891802"><ele>170.0</ele><time>2026-04-19T05:57:29.139Z</time></trkpt><trkpt lat="43.4182031" lon="11.1892743"><ele>170.0</ele><time>2026-04-19T05:57:31.16Z</time></trkpt><trkpt lat="43.4181495" lon="11.1893945"><ele>170.0</ele><time>2026-04-19T05:57:33.157Z</time></trkpt><trkpt lat="43.418116" lon="11.1895286"><ele>170.0</ele><time>2026-04-19T05:57:35.146Z</time></trkpt><trkpt lat="43.4180875" lon="11.1896618"><ele>170.0</ele><time>2026-04-19T05:57:37.144Z</time></trkpt><trkpt lat="43.4180541" lon="11.1897907"><ele>170.0</ele><time>2026-04-19T05:57:39.154Z</time></trkpt><trkpt lat="43.4180031" lon="11.1898886"><ele>170.0</ele><time>2026-04-19T05:57:41.136Z</time></trkpt><trkpt lat="43.4179549" lon="11.1899874"><ele>170.0</ele><time>2026-04-19T05:57:43.141Z</time></trkpt><trkpt lat="43.4179128" lon="11.1900929"><ele>170.0</ele><time>2026-04-19T05:57:45.212Z</time></trkpt><trkpt lat="43.4178655" lon="11.1902345"><ele>170.66666666666666</ele><time>2026-04-19T05:57:47.144Z</time></trkpt><trkpt lat="43.4178197" lon="11.1903517"><ele>171.33333333333331</ele><time>2026-04-19T05:57:49.158Z</time></trkpt><trkpt lat="43.4177912" lon="11.1904357"><ele>172.0</ele><time>2026-04-19T05:57:51.209Z</time></trkpt><trkpt lat="43.4177628" lon="11.1905236"><ele>172.66666666666666</ele><time>2026-04-19T05:57:53.152Z</time></trkpt><trkpt lat="43.4177284" lon="11.1906143"><ele>173.33333333333334</ele><time>2026-04-19T05:57:55.145Z</time></trkpt><trkpt lat="43.4176898" lon="11.1906998"><ele>174.0</ele><time>2026-04-19T05:57:57.146Z</time></trkpt><trkpt lat="43.4176521" lon="11.1907889"><ele>174.33333333333334</ele><time>2026-04-19T05:57:59.155Z</time></trkpt><trkpt lat="43.4176192" lon="11.1908806"><ele>174.66666666666666</ele><time>2026-04-19T05:58:01.134Z</time></trkpt><trkpt lat="43.417587" lon="11.1909685"><ele>175.0</ele><time>2026-04-19T05:58:03.142Z</time></trkpt><trkpt lat="43.4175513" lon="11.1910581"><ele>175.33333333333331</ele><time>2026-04-19T05:58:05.157Z</time></trkpt><trkpt lat="43.4175092" lon="11.1911526"><ele>175.66666666666666</ele><time>2026-04-19T05:58:07.14Z</time></trkpt><trkpt lat="43.4174713" lon="11.1912626"><ele>176.0</ele><time>2026-04-19T05:58:09.145Z</time></trkpt><trkpt lat="43.4174254" lon="11.1913797"><ele>175.66666666666666</ele><time>2026-04-19T05:58:11.143Z</time></trkpt><trkpt lat="43.4173767" lon="11.1915104"><ele>175.33333333333331</ele><time>2026-04-19T05:58:13.141Z</time></trkpt><trkpt lat="43.417324" lon="11.1916476"><ele>175.0</ele><time>2026-04-19T05:58:15.23Z</time></trkpt><trkpt lat="43.4172959" lon="11.1917273"><ele>174.66666666666666</ele><time>2026-04-19T05:58:16.219Z</time></trkpt><trkpt lat="43.4172625" lon="11.1918099"><ele>174.33333333333334</ele><time>2026-04-19T05:58:17.132Z</time></trkpt><trkpt lat="43.4172302" lon="11.1918977"><ele>174.0</ele><time>2026-04-19T05:58:18.141Z</time></trkpt><trkpt lat="43.4171956" lon="11.1919834"><ele>174.0</ele><time>2026-04-19T05:58:19.149Z</time></trkpt><trkpt lat="43.4171623" lon="11.192069"><ele>174.0</ele><time>2026-04-19T05:58:20.147Z</time></trkpt><trkpt lat="43.4171306" lon="11.1921582"><ele>174.0</ele><time>2026-04-19T05:58:21.228Z</time></trkpt><trkpt lat="43.4170983" lon="11.1922473"><ele>174.0</ele><time>2026-04-19T05:58:22.159Z</time></trkpt><trkpt lat="43.417064" lon="11.1923367"><ele>174.0</ele><time>2026-04-19T05:58:23.132Z</time></trkpt><trkpt lat="43.4170306" lon="11.1924321"><ele>174.0</ele><time>2026-04-19T05:58:24.138Z</time></trkpt><trkpt lat="43.4170123" lon="11.1925376"><ele>174.0</ele><time>2026-04-19T05:58:25.146Z</time></trkpt><trkpt lat="43.4169999" lon="11.1926436"><ele>173.57142857142856</ele><time>2026-04-19T05:58:26.155Z</time></trkpt><trkpt lat="43.4169919" lon="11.1927469"><ele>173.14285714285714</ele><time>2026-04-19T05:58:27.14Z</time></trkpt><trkpt lat="43.4169833" lon="11.1928428"><ele>172.71428571428572</ele><time>2026-04-19T05:58:28.145Z</time></trkpt><trkpt lat="43.4169789" lon="11.1929417"><ele>172.28571428571428</ele><time>2026-04-19T05:58:29.154Z</time></trkpt><trkpt lat="43.4169755" lon="11.1930612"><ele>171.85714285714286</ele><time>2026-04-19T05:58:30.151Z</time></trkpt><trkpt lat="43.4169708" lon="11.1931574"><ele>171.42857142857142</ele><time>2026-04-19T05:58:31.22Z</time></trkpt><trkpt lat="43.4169656" lon="11.1932477"><ele>171.0</ele><time>2026-04-19T05:58:32.165Z</time></trkpt><trkpt lat="43.4169496" lon="11.1933399"><ele>170.4</ele><time>2026-04-19T05:58:33.154Z</time></trkpt><trkpt lat="43.4169162" lon="11.1934134"><ele>169.8</ele><time>2026-04-19T05:58:34.161Z</time></trkpt><trkpt lat="43.4168334" lon="11.1935381"><ele>169.20000000000002</ele><time>2026-04-19T05:58:36.154Z</time></trkpt><trkpt lat="43.4167503" lon="11.1936361"><ele>168.60000000000002</ele><time>2026-04-19T05:58:38.151Z</time></trkpt><trkpt lat="43.4166675" lon="11.1937436"><ele>168.0</ele><time>2026-04-19T05:58:40.157Z</time></trkpt><trkpt lat="43.4165977" lon="11.1938626"><ele>168.0</ele><time>2026-04-19T05:58:42.151Z</time></trkpt><trkpt lat="43.4165453" lon="11.1940012"><ele>168.0</ele><time>2026-04-19T05:58:44.156Z</time></trkpt><trkpt lat="43.4165109" lon="11.1941411"><ele>168.0</ele><time>2026-04-19T05:58:46.219Z</time></trkpt><trkpt lat="43.4164861" lon="11.1942856"><ele>168.0</ele><time>2026-04-19T05:58:48.148Z</time></trkpt><trkpt lat="43.4164693" lon="11.1944293"><ele>168.0</ele><time>2026-04-19T05:58:50.139Z</time></trkpt><trkpt lat="43.4164708" lon="11.1945712"><ele>167.8</ele><time>2026-04-19T05:58:52.233Z</time></trkpt><trkpt lat="43.4164981" lon="11.1947142"><ele>167.60000000000002</ele><time>2026-04-19T05:58:54.155Z</time></trkpt><trkpt lat="43.4165466" lon="11.1948492"><ele>167.39999999999998</ele><time>2026-04-19T05:58:56.129Z</time></trkpt><trkpt lat="43.4166026" lon="11.1949608"><ele>167.2</ele><time>2026-04-19T05:58:58.145Z</time></trkpt><trkpt lat="43.4166478" lon="11.195072"><ele>167.0</ele><time>2026-04-19T05:59:00.154Z</time></trkpt><trkpt lat="43.4166836" lon="11.195197"><ele>167.8</ele><time>2026-04-19T05:59:02.228Z</time></trkpt><trkpt lat="43.4167069" lon="11.1953293"><ele>168.6</ele><time>2026-04-19T05:59:04.14Z</time></trkpt><trkpt lat="43.4167196" lon="11.1954764"><ele>169.4</ele><time>2026-04-19T05:59:06.221Z</time></trkpt><trkpt lat="43.4167243" lon="11.195607"><ele>170.20000000000002</ele><time>2026-04-19T05:59:08.146Z</time></trkpt><trkpt lat="43.4167114" lon="11.1957434"><ele>171.0</ele><time>2026-04-19T05:59:10.146Z</time></trkpt><trkpt lat="43.4166951" lon="11.1958601"><ele>171.5</ele><time>2026-04-19T05:59:12.15Z</time></trkpt><trkpt lat="43.4166664" lon="11.1959683"><ele>172.0</ele><time>2026-04-19T05:59:14.141Z</time></trkpt><trkpt lat="43.4166292" lon="11.196078"><ele>172.5</ele><time>2026-04-19T05:59:16.134Z</time></trkpt><trkpt lat="43.4165876" lon="11.1961822"><ele>173.0</ele><time>2026-04-19T05:59:18.143Z</time></trkpt><trkpt lat="43.4165527" lon="11.1962871"><ele>173.5</ele><time>2026-04-19T05:59:20.135Z</time></trkpt><trkpt lat="43.416503" lon="11.1963927"><ele>174.0</ele><time>2026-04-19T05:59:22.204Z</time></trkpt><trkpt lat="43.4164498" lon="11.1965042"><ele>174.33333333333334</ele><time>2026-04-19T05:59:24.15Z</time></trkpt><trkpt lat="43.416424" lon="11.1966339"><ele>174.66666666666666</ele><time>2026-04-19T05:59:27.149Z</time></trkpt><trkpt lat="43.4163853" lon="11.1967389"><ele>175.0</ele><time>2026-04-19T05:59:29.145Z</time></trkpt><trkpt lat="43.4163533" lon="11.1968466"><ele>175.33333333333331</ele><time>2026-04-19T05:59:31.144Z</time></trkpt><trkpt lat="43.4163027" lon="11.1969511"><ele>175.66666666666666</ele><time>2026-04-19T05:59:33.165Z</time></trkpt><trkpt lat="43.4162491" lon="11.1970403"><ele>176.0</ele><time>2026-04-19T05:59:35.153Z</time></trkpt><trkpt lat="43.4161909" lon="11.1971239"><ele>176.0</ele><time>2026-04-19T05:59:37.221Z</time></trkpt><trkpt lat="43.4161165" lon="11.1972154"><ele>176.0</ele><time>2026-04-19T05:59:39.146Z</time></trkpt><trkpt lat="43.4160711" lon="11.1972893"><ele>176.0</ele><time>2026-04-19T05:59:41.145Z</time></trkpt><trkpt lat="43.4160219" lon="11.1973873"><ele>176.0</ele><time>2026-04-19T05:59:43.129Z</time></trkpt><trkpt lat="43.4159731" lon="11.1974687"><ele>176.0</ele><time>2026-04-19T05:59:45.131Z</time></trkpt><trkpt lat="43.4159281" lon="11.1975498"><ele>176.0</ele><time>2026-04-19T05:59:47.153Z</time></trkpt><trkpt lat="43.4158858" lon="11.1976421"><ele>176.33333333333331</ele><time>2026-04-19T05:59:49.137Z</time></trkpt><trkpt lat="43.4158438" lon="11.1977408"><ele>176.66666666666666</ele><time>2026-04-19T05:59:51.152Z</time></trkpt><trkpt lat="43.4158007" lon="11.1978416"><ele>177.0</ele><time>2026-04-19T05:59:53.161Z</time></trkpt><trkpt lat="43.4157593" lon="11.1979408"><ele>177.33333333333334</ele><time>2026-04-19T05:59:55.147Z</time></trkpt><trkpt lat="43.4157152" lon="11.1980442"><ele>177.66666666666669</ele><time>2026-04-19T05:59:57.147Z</time></trkpt><trkpt lat="43.4156678" lon="11.1981468"><ele>178.0</ele><time>2026-04-19T05:59:59.152Z</time></trkpt><trkpt lat="43.4156229" lon="11.198253"><ele>178.0</ele><time>2026-04-19T06:00:01.156Z</time></trkpt><trkpt lat="43.4155535" lon="11.1984103"><ele>178.0</ele><time>2026-04-19T06:00:04.154Z</time></trkpt><trkpt lat="43.4155112" lon="11.1985154"><ele>178.0</ele><time>2026-04-19T06:00:06.22Z</time></trkpt><trkpt lat="43.4154661" lon="11.1986196"><ele>178.0</ele><time>2026-04-19T06:00:08.142Z</time></trkpt><trkpt lat="43.415426" lon="11.1987187"><ele>178.0</ele><time>2026-04-19T06:00:10.214Z</time></trkpt><trkpt lat="43.4153759" lon="11.1988162"><ele>178.83333333333334</ele><time>2026-04-19T06:00:12.141Z</time></trkpt><trkpt lat="43.4153253" lon="11.1989251"><ele>179.66666666666669</ele><time>2026-04-19T06:00:14.148Z</time></trkpt><trkpt lat="43.4153049" lon="11.1990124"><ele>180.5</ele><time>2026-04-19T06:00:16.238Z</time></trkpt><trkpt lat="43.4152801" lon="11.1991193"><ele>181.33333333333334</ele><time>2026-04-19T06:00:18.132Z</time></trkpt><trkpt lat="43.4152605" lon="11.1992267"><ele>182.16666666666666</ele><time>2026-04-19T06:00:20.232Z</time></trkpt><trkpt lat="43.4152482" lon="11.1993384"><ele>183.0</ele><time>2026-04-19T06:00:22.151Z</time></trkpt><trkpt lat="43.4152375" lon="11.1994469"><ele>183.0</ele><time>2026-04-19T06:00:24.133Z</time></trkpt><trkpt lat="43.4152247" lon="11.199561"><ele>183.0</ele><time>2026-04-19T06:00:26.146Z</time></trkpt><trkpt lat="43.4152075" lon="11.1996825"><ele>183.0</ele><time>2026-04-19T06:00:28.146Z</time></trkpt><trkpt lat="43.4151844" lon="11.1998001"><ele>183.0</ele><time>2026-04-19T06:00:30.15Z</time></trkpt><trkpt lat="43.4151604" lon="11.199927"><ele>183.0</ele><time>2026-04-19T06:00:32.157Z</time></trkpt><trkpt lat="43.415134" lon="11.2000444"><ele>183.0</ele><time>2026-04-19T06:00:34.132Z</time></trkpt><trkpt lat="43.4151044" lon="11.2001517"><ele>182.83333333333334</ele><time>2026-04-19T06:00:36.212Z</time></trkpt><trkpt lat="43.4150701" lon="11.2002396"><ele>182.66666666666666</ele><time>2026-04-19T06:00:38.136Z</time></trkpt><trkpt lat="43.4150347" lon="11.2003578"><ele>182.5</ele><time>2026-04-19T06:00:40.153Z</time></trkpt><trkpt lat="43.4150014" lon="11.2004713"><ele>182.33333333333331</ele><time>2026-04-19T06:00:42.133Z</time></trkpt><trkpt lat="43.414963" lon="11.2005783"><ele>182.16666666666666</ele><time>2026-04-19T06:00:44.168Z</time></trkpt><trkpt lat="43.4149192" lon="11.200684"><ele>182.0</ele><time>2026-04-19T06:00:46.143Z</time></trkpt><trkpt lat="43.4148802" lon="11.2007804"><ele>182.0</ele><time>2026-04-19T06:00:48.145Z</time></trkpt><trkpt lat="43.4148331" lon="11.2008788"><ele>182.0</ele><time>2026-04-19T06:00:50.144Z</time></trkpt><trkpt lat="43.4147845" lon="11.200976"><ele>182.0</ele><time>2026-04-19T06:00:52.141Z</time></trkpt><trkpt lat="43.414732" lon="11.2010799"><ele>182.0</ele><time>2026-04-19T06:00:54.146Z</time></trkpt><trkpt lat="43.4146815" lon="11.2011853"><ele>182.0</ele><time>2026-04-19T06:00:56.14Z</time></trkpt><trkpt lat="43.4146057" lon="11.2012874"><ele>182.33333333333331</ele><time>2026-04-19T06:00:58.157Z</time></trkpt><trkpt lat="43.4145496" lon="11.2013737"><ele>182.66666666666666</ele><time>2026-04-19T06:01:00.163Z</time></trkpt><trkpt lat="43.4145099" lon="11.20148"><ele>183.0</ele><time>2026-04-19T06:01:02.147Z</time></trkpt><trkpt lat="43.4144535" lon="11.2015761"><ele>183.33333333333334</ele><time>2026-04-19T06:01:04.144Z</time></trkpt><trkpt lat="43.414399" lon="11.2016789"><ele>183.66666666666669</ele><time>2026-04-19T06:01:06.157Z</time></trkpt><trkpt lat="43.4143432" lon="11.2017836"><ele>184.0</ele><time>2026-04-19T06:01:08.143Z</time></trkpt><trkpt lat="43.4142868" lon="11.2018876"><ele>184.0</ele><time>2026-04-19T06:01:10.126Z</time></trkpt><trkpt lat="43.4142266" lon="11.2019911"><ele>184.0</ele><time>2026-04-19T06:01:12.206Z</time></trkpt><trkpt lat="43.4141573" lon="11.2020892"><ele>184.0</ele><time>2026-04-19T06:01:14.156Z</time></trkpt><trkpt lat="43.4140949" lon="11.2021789"><ele>184.0</ele><time>2026-04-19T06:01:16.205Z</time></trkpt><trkpt lat="43.4140295" lon="11.20226"><ele>184.0</ele><time>2026-04-19T06:01:18.142Z</time></trkpt><trkpt lat="43.4139642" lon="11.2023415"><ele>184.0</ele><time>2026-04-19T06:01:20.145Z</time></trkpt><trkpt lat="43.4138992" lon="11.2024199"><ele>184.0</ele><time>2026-04-19T06:01:22.209Z</time></trkpt><trkpt lat="43.4138529" lon="11.2024859"><ele>184.0</ele><time>2026-04-19T06:01:24.148Z</time></trkpt><trkpt lat="43.4137749" lon="11.2025655"><ele>184.0</ele><time>2026-04-19T06:01:26.149Z</time></trkpt><trkpt lat="43.4137164" lon="11.2026486"><ele>184.0</ele><time>2026-04-19T06:01:28.146Z</time></trkpt><trkpt lat="43.4136614" lon="11.2027182"><ele>184.0</ele><time>2026-04-19T06:01:30.155Z</time></trkpt><trkpt lat="43.4136104" lon="11.2027916"><ele>184.57142857142858</ele><time>2026-04-19T06:01:32.149Z</time></trkpt><trkpt lat="43.4135522" lon="11.2028586"><ele>185.14285714285714</ele><time>2026-04-19T06:01:34.138Z</time></trkpt><trkpt lat="43.4134996" lon="11.2029235"><ele>185.71428571428572</ele><time>2026-04-19T06:01:36.165Z</time></trkpt><trkpt lat="43.4134384" lon="11.2029857"><ele>186.28571428571428</ele><time>2026-04-19T06:01:38.156Z</time></trkpt><trkpt lat="43.4133838" lon="11.203049"><ele>186.85714285714283</ele><time>2026-04-19T06:01:40.147Z</time></trkpt><trkpt lat="43.4133271" lon="11.2031173"><ele>187.42857142857142</ele><time>2026-04-19T06:01:42.158Z</time></trkpt><trkpt lat="43.4132702" lon="11.2031831"><ele>188.0</ele><time>2026-04-19T06:01:44.147Z</time></trkpt><trkpt lat="43.4132215" lon="11.2032553"><ele>188.0</ele><time>2026-04-19T06:01:46.157Z</time></trkpt><trkpt lat="43.4131699" lon="11.2033356"><ele>188.0</ele><time>2026-04-19T06:01:48.146Z</time></trkpt><trkpt lat="43.4131122" lon="11.2034044"><ele>188.0</ele><time>2026-04-19T06:01:50.149Z</time></trkpt><trkpt lat="43.4130538" lon="11.2034759"><ele>188.0</ele><time>2026-04-19T06:01:52.146Z</time></trkpt><trkpt lat="43.4129997" lon="11.2035486"><ele>188.0</ele><time>2026-04-19T06:01:54.152Z</time></trkpt><trkpt lat="43.4129452" lon="11.2036238"><ele>188.0</ele><time>2026-04-19T06:01:56.143Z</time></trkpt><trkpt lat="43.4128897" lon="11.2037035"><ele>188.5</ele><time>2026-04-19T06:01:58.155Z</time></trkpt><trkpt lat="43.4128346" lon="11.2037832"><ele>189.0</ele><time>2026-04-19T06:02:00.148Z</time></trkpt><trkpt lat="43.412775" lon="11.2038599"><ele>189.5</ele><time>2026-04-19T06:02:02.151Z</time></trkpt><trkpt lat="43.4127227" lon="11.2039408"><ele>190.0</ele><time>2026-04-19T06:02:04.149Z</time></trkpt><trkpt lat="43.4126711" lon="11.204018"><ele>190.5</ele><time>2026-04-19T06:02:06.16Z</time></trkpt><trkpt lat="43.4126138" lon="11.2040904"><ele>191.0</ele><time>2026-04-19T06:02:08.15Z</time></trkpt><trkpt lat="43.4125638" lon="11.2041692"><ele>191.0</ele><time>2026-04-19T06:02:10.163Z</time></trkpt><trkpt lat="43.412507" lon="11.2042538"><ele>191.0</ele><time>2026-04-19T06:02:12.17Z</time></trkpt><trkpt lat="43.4124499" lon="11.2043332"><ele>191.0</ele><time>2026-04-19T06:02:14.147Z</time></trkpt><trkpt lat="43.4123938" lon="11.2044035"><ele>191.0</ele><time>2026-04-19T06:02:16.158Z</time></trkpt><trkpt lat="43.412346" lon="11.204483"><ele>191.0</ele><time>2026-04-19T06:02:18.148Z</time></trkpt><trkpt lat="43.412295" lon="11.2045622"><ele>191.0</ele><time>2026-04-19T06:02:20.147Z</time></trkpt><trkpt lat="43.4122365" lon="11.204631"><ele>191.0</ele><time>2026-04-19T06:02:22.157Z</time></trkpt><trkpt lat="43.4121862" lon="11.2047024"><ele>191.0</ele><time>2026-04-19T06:02:24.153Z</time></trkpt><trkpt lat="43.4121336" lon="11.2047775"><ele>191.0</ele><time>2026-04-19T06:02:26.161Z</time></trkpt><trkpt lat="43.4120841" lon="11.2048536"><ele>191.0</ele><time>2026-04-19T06:02:28.158Z</time></trkpt><trkpt lat="43.412031" lon="11.2049232"><ele>191.0</ele><time>2026-04-19T06:02:30.153Z</time></trkpt><trkpt lat="43.4119768" lon="11.205002"><ele>191.0</ele><time>2026-04-19T06:02:32.161Z</time></trkpt><trkpt lat="43.4119222" lon="11.2050806"><ele>191.66666666666666</ele><time>2026-04-19T06:02:34.162Z</time></trkpt><trkpt lat="43.4118693" lon="11.2051532"><ele>192.33333333333331</ele><time>2026-04-19T06:02:36.152Z</time></trkpt><trkpt lat="43.411811" lon="11.2052178"><ele>193.0</ele><time>2026-04-19T06:02:38.155Z</time></trkpt><trkpt lat="43.4117508" lon="11.2052825"><ele>193.66666666666666</ele><time>2026-04-19T06:02:40.156Z</time></trkpt><trkpt lat="43.4116828" lon="11.2053514"><ele>194.33333333333334</ele><time>2026-04-19T06:02:42.152Z</time></trkpt><trkpt lat="43.4116169" lon="11.2054222"><ele>195.0</ele><time>2026-04-19T06:02:44.147Z</time></trkpt><trkpt lat="43.4115516" lon="11.2054997"><ele>195.0</ele><time>2026-04-19T06:02:46.16Z</time></trkpt><trkpt lat="43.4114856" lon="11.2055873"><ele>195.0</ele><time>2026-04-19T06:02:48.15Z</time></trkpt><trkpt lat="43.4114201" lon="11.2056858"><ele>195.0</ele><time>2026-04-19T06:02:50.171Z</time></trkpt><trkpt lat="43.4113358" lon="11.2057903"><ele>195.0</ele><time>2026-04-19T06:02:52.152Z</time></trkpt><trkpt lat="43.4112433" lon="11.2058942"><ele>195.0</ele><time>2026-04-19T06:02:54.148Z</time></trkpt><trkpt lat="43.4111521" lon="11.2060097"><ele>194.5</ele><time>2026-04-19T06:02:56.158Z</time></trkpt><trkpt lat="43.4110607" lon="11.206113"><ele>194.0</ele><time>2026-04-19T06:02:58.157Z</time></trkpt><trkpt lat="43.410957" lon="11.2062005"><ele>193.5</ele><time>2026-04-19T06:03:00.171Z</time></trkpt><trkpt lat="43.4108466" lon="11.2062666"><ele>193.0</ele><time>2026-04-19T06:03:02.171Z</time></trkpt><trkpt lat="43.410731" lon="11.2062976"><ele>193.0</ele><time>2026-04-19T06:03:04.149Z</time></trkpt><trkpt lat="43.4104859" lon="11.2064744"><ele>193.0</ele><time>2026-04-19T06:03:09.152Z</time></trkpt><trkpt lat="43.4104475" lon="11.2066193"><ele>193.0</ele><time>2026-04-19T06:03:11.153Z</time></trkpt><trkpt lat="43.4104066" lon="11.2067629"><ele>193.0</ele><time>2026-04-19T06:03:13.145Z</time></trkpt><trkpt lat="43.4103461" lon="11.2068769"><ele>193.0</ele><time>2026-04-19T06:03:15.157Z</time></trkpt><trkpt lat="43.410269" lon="11.2069753"><ele>193.0</ele><time>2026-04-19T06:03:17.143Z</time></trkpt><trkpt lat="43.4101882" lon="11.2070523"><ele>193.0</ele><time>2026-04-19T06:03:19.144Z</time></trkpt><trkpt lat="43.4101152" lon="11.2071203"><ele>193.0</ele><time>2026-04-19T06:03:21.146Z</time></trkpt><trkpt lat="43.4100453" lon="11.2072015"><ele>193.0</ele><time>2026-04-19T06:03:23.153Z</time></trkpt><trkpt lat="43.4099728" lon="11.2072807"><ele>193.0</ele><time>2026-04-19T06:03:25.154Z</time></trkpt><trkpt lat="43.4098992" lon="11.2073697"><ele>193.0</ele><time>2026-04-19T06:03:27.165Z</time></trkpt><trkpt lat="43.4098243" lon="11.2074551"><ele>193.0</ele><time>2026-04-19T06:03:29.146Z</time></trkpt><trkpt lat="43.4097541" lon="11.2075382"><ele>193.0</ele><time>2026-04-19T06:03:31.158Z</time></trkpt><trkpt lat="43.4096907" lon="11.207621"><ele>195.66666666666666</ele><time>2026-04-19T06:03:33.145Z</time></trkpt><trkpt lat="43.4096243" lon="11.2076932"><ele>198.33333333333331</ele><time>2026-04-19T06:03:35.147Z</time></trkpt><trkpt lat="43.4095588" lon="11.2077751"><ele>201.0</ele><time>2026-04-19T06:03:37.15Z</time></trkpt><trkpt lat="43.409493" lon="11.2078624"><ele>203.66666666666669</ele><time>2026-04-19T06:03:39.158Z</time></trkpt><trkpt lat="43.409432" lon="11.2079421"><ele>206.33333333333334</ele><time>2026-04-19T06:03:41.154Z</time></trkpt><trkpt lat="43.4093669" lon="11.2080159"><ele>209.0</ele><time>2026-04-19T06:03:43.145Z</time></trkpt><trkpt lat="43.4093087" lon="11.2080681"><ele>209.00000000000003</ele><time>2026-04-19T06:03:45.148Z</time></trkpt><trkpt lat="43.4092261" lon="11.2081303"><ele>209.0</ele><time>2026-04-19T06:03:48.146Z</time></trkpt><trkpt lat="43.4091496" lon="11.2081919"><ele>209.0</ele><time>2026-04-19T06:03:51.128Z</time></trkpt><trkpt lat="43.4090766" lon="11.2082449"><ele>209.0</ele><time>2026-04-19T06:03:54.156Z</time></trkpt><trkpt lat="43.4089982" lon="11.2082887"><ele>209.00000000000003</ele><time>2026-04-19T06:03:57.149Z</time></trkpt><trkpt lat="43.4089312" lon="11.2083243"><ele>209.0</ele><time>2026-04-19T06:03:59.142Z</time></trkpt><trkpt lat="43.408847" lon="11.2083682"><ele>208.16666666666669</ele><time>2026-04-19T06:04:01.15Z</time></trkpt><trkpt lat="43.4087512" lon="11.2084322"><ele>207.33333333333334</ele><time>2026-04-19T06:04:03.151Z</time></trkpt><trkpt lat="43.4086416" lon="11.2085051"><ele>206.5</ele><time>2026-04-19T06:04:05.154Z</time></trkpt><trkpt lat="43.4085822" lon="11.208542"><ele>205.66666666666669</ele><time>2026-04-19T06:04:06.149Z</time></trkpt><trkpt lat="43.408518" lon="11.2085824"><ele>204.83333333333334</ele><time>2026-04-19T06:04:07.142Z</time></trkpt><trkpt lat="43.4084542" lon="11.208623"><ele>204.0</ele><time>2026-04-19T06:04:08.143Z</time></trkpt><trkpt lat="43.4083881" lon="11.2086647"><ele>204.0</ele><time>2026-04-19T06:04:09.142Z</time></trkpt><trkpt lat="43.4083254" lon="11.2087025"><ele>204.0</ele><time>2026-04-19T06:04:10.143Z</time></trkpt><trkpt lat="43.4082612" lon="11.2087382"><ele>204.0</ele><time>2026-04-19T06:04:11.147Z</time></trkpt><trkpt lat="43.4081986" lon="11.2087771"><ele>204.0</ele><time>2026-04-19T06:04:12.142Z</time></trkpt><trkpt lat="43.4081338" lon="11.2088147"><ele>204.0</ele><time>2026-04-19T06:04:13.151Z</time></trkpt><trkpt lat="43.4080699" lon="11.2088522"><ele>204.0</ele><time>2026-04-19T06:04:14.154Z</time></trkpt><trkpt lat="43.4080072" lon="11.2088905"><ele>204.0</ele><time>2026-04-19T06:04:15.148Z</time></trkpt><trkpt lat="43.4079425" lon="11.2089246"><ele>205.2</ele><time>2026-04-19T06:04:16.164Z</time></trkpt><trkpt lat="43.4078815" lon="11.2089591"><ele>206.39999999999998</ele><time>2026-04-19T06:04:17.146Z</time></trkpt><trkpt lat="43.4078216" lon="11.2089918"><ele>207.6</ele><time>2026-04-19T06:04:18.145Z</time></trkpt><trkpt lat="43.407708" lon="11.2090625"><ele>208.8</ele><time>2026-04-19T06:04:20.141Z</time></trkpt><trkpt lat="43.4075967" lon="11.2091315"><ele>210.0</ele><time>2026-04-19T06:04:22.15Z</time></trkpt><trkpt lat="43.4074967" lon="11.2092019"><ele>208.8</ele><time>2026-04-19T06:04:24.137Z</time></trkpt><trkpt lat="43.4073979" lon="11.2092608"><ele>207.6</ele><time>2026-04-19T06:04:26.199Z</time></trkpt><trkpt lat="43.4073022" lon="11.2093113"><ele>206.39999999999998</ele><time>2026-04-19T06:04:28.151Z</time></trkpt><trkpt lat="43.4072107" lon="11.209363"><ele>205.2</ele><time>2026-04-19T06:04:30.131Z</time></trkpt><trkpt lat="43.4071263" lon="11.2094223"><ele>204.0</ele><time>2026-04-19T06:04:32.148Z</time></trkpt><trkpt lat="43.4070402" lon="11.2094726"><ele>204.0</ele><time>2026-04-19T06:04:34.145Z</time></trkpt><trkpt lat="43.4069542" lon="11.2095232"><ele>204.0</ele><time>2026-04-19T06:04:36.141Z</time></trkpt><trkpt lat="43.4068702" lon="11.2095733"><ele>204.0</ele><time>2026-04-19T06:04:38.143Z</time></trkpt><trkpt lat="43.40678" lon="11.2096265"><ele>204.0</ele><time>2026-04-19T06:04:40.145Z</time></trkpt><trkpt lat="43.4066823" lon="11.209684"><ele>204.0</ele><time>2026-04-19T06:04:42.156Z</time></trkpt><trkpt lat="43.4065809" lon="11.2097456"><ele>204.0</ele><time>2026-04-19T06:04:44.142Z</time></trkpt><trkpt lat="43.4064782" lon="11.2098033"><ele>204.0</ele><time>2026-04-19T06:04:46.125Z</time></trkpt><trkpt lat="43.406374" lon="11.2098616"><ele>204.0</ele><time>2026-04-19T06:04:48.147Z</time></trkpt><trkpt lat="43.4062677" lon="11.2099147"><ele>204.0</ele><time>2026-04-19T06:04:50.147Z</time></trkpt><trkpt lat="43.4061658" lon="11.2099663"><ele>204.0</ele><time>2026-04-19T06:04:52.152Z</time></trkpt><trkpt lat="43.4060786" lon="11.2100311"><ele>202.0</ele><time>2026-04-19T06:04:54.143Z</time></trkpt><trkpt lat="43.4059941" lon="11.2101005"><ele>200.0</ele><time>2026-04-19T06:04:56.154Z</time></trkpt><trkpt lat="43.4059066" lon="11.2101587"><ele>198.0</ele><time>2026-04-19T06:04:58.143Z</time></trkpt><trkpt lat="43.405819" lon="11.2102062"><ele>196.0</ele><time>2026-04-19T06:05:00.151Z</time></trkpt><trkpt lat="43.4057268" lon="11.2102636"><ele>194.0</ele><time>2026-04-19T06:05:02.15Z</time></trkpt><trkpt lat="43.4056359" lon="11.2103101"><ele>194.0</ele><time>2026-04-19T06:05:04.145Z</time></trkpt><trkpt lat="43.405537" lon="11.2103538"><ele>194.0</ele><time>2026-04-19T06:05:06.146Z</time></trkpt><trkpt lat="43.4054333" lon="11.2104049"><ele>194.0</ele><time>2026-04-19T06:05:08.157Z</time></trkpt><trkpt lat="43.4053343" lon="11.2104647"><ele>194.0</ele><time>2026-04-19T06:05:10.154Z</time></trkpt><trkpt lat="43.405242" lon="11.210542"><ele>194.0</ele><time>2026-04-19T06:05:12.154Z</time></trkpt><trkpt lat="43.4051579" lon="11.2106171"><ele>194.6</ele><time>2026-04-19T06:05:14.128Z</time></trkpt><trkpt lat="43.405074" lon="11.2106864"><ele>195.2</ele><time>2026-04-19T06:05:16.148Z</time></trkpt><trkpt lat="43.40499" lon="11.2107662"><ele>195.79999999999998</ele><time>2026-04-19T06:05:18.131Z</time></trkpt><trkpt lat="43.4049101" lon="11.2108423"><ele>196.39999999999998</ele><time>2026-04-19T06:05:20.141Z</time></trkpt><trkpt lat="43.4048326" lon="11.21092"><ele>197.0</ele><time>2026-04-19T06:05:22.15Z</time></trkpt><trkpt lat="43.4047544" lon="11.2110141"><ele>197.0</ele><time>2026-04-19T06:05:24.138Z</time></trkpt><trkpt lat="43.4046733" lon="11.2111096"><ele>197.0</ele><time>2026-04-19T06:05:26.157Z</time></trkpt><trkpt lat="43.4045955" lon="11.2111827"><ele>197.0</ele><time>2026-04-19T06:05:28.161Z</time></trkpt><trkpt lat="43.4045157" lon="11.2112593"><ele>197.0</ele><time>2026-04-19T06:05:30.151Z</time></trkpt><trkpt lat="43.4044358" lon="11.2113293"><ele>197.0</ele><time>2026-04-19T06:05:32.15Z</time></trkpt><trkpt lat="43.4043649" lon="11.2114021"><ele>197.2</ele><time>2026-04-19T06:05:34.151Z</time></trkpt><trkpt lat="43.4042976" lon="11.211482"><ele>197.39999999999998</ele><time>2026-04-19T06:05:36.139Z</time></trkpt><trkpt lat="43.4042217" lon="11.2115608"><ele>197.60000000000002</ele><time>2026-04-19T06:05:38.14Z</time></trkpt><trkpt lat="43.4041377" lon="11.2116447"><ele>197.8</ele><time>2026-04-19T06:05:40.15Z</time></trkpt><trkpt lat="43.4040658" lon="11.2117211"><ele>198.0</ele><time>2026-04-19T06:05:42.148Z</time></trkpt><trkpt lat="43.4039956" lon="11.2118015"><ele>198.0</ele><time>2026-04-19T06:05:44.15Z</time></trkpt><trkpt lat="43.4039172" lon="11.2118811"><ele>198.0</ele><time>2026-04-19T06:05:46.15Z</time></trkpt><trkpt lat="43.4038342" lon="11.2119802"><ele>198.0</ele><time>2026-04-19T06:05:48.151Z</time></trkpt><trkpt lat="43.4037525" lon="11.2120903"><ele>198.0</ele><time>2026-04-19T06:05:50.165Z</time></trkpt><trkpt lat="43.40367" lon="11.2122037"><ele>198.0</ele><time>2026-04-19T06:05:52.149Z</time></trkpt><trkpt lat="43.4035868" lon="11.2123133"><ele>197.0</ele><time>2026-04-19T06:05:54.138Z</time></trkpt><trkpt lat="43.4035059" lon="11.2124325"><ele>196.0</ele><time>2026-04-19T06:05:56.147Z</time></trkpt><trkpt lat="43.4034157" lon="11.2125456"><ele>195.0</ele><time>2026-04-19T06:05:58.15Z</time></trkpt><trkpt lat="43.4033285" lon="11.212667"><ele>194.0</ele><time>2026-04-19T06:06:00.146Z</time></trkpt><trkpt lat="43.4032485" lon="11.2127852"><ele>194.0</ele><time>2026-04-19T06:06:02.137Z</time></trkpt><trkpt lat="43.4031798" lon="11.2129113"><ele>194.0</ele><time>2026-04-19T06:06:04.143Z</time></trkpt><trkpt lat="43.4031268" lon="11.2130472"><ele>194.0</ele><time>2026-04-19T06:06:06.149Z</time></trkpt><trkpt lat="43.4030803" lon="11.2131677"><ele>194.0</ele><time>2026-04-19T06:06:08.142Z</time></trkpt><trkpt lat="43.4030286" lon="11.2132888"><ele>194.0</ele><time>2026-04-19T06:06:10.15Z</time></trkpt><trkpt lat="43.40298" lon="11.2134278"><ele>196.0</ele><time>2026-04-19T06:06:12.148Z</time></trkpt><trkpt lat="43.4029065" lon="11.2135556"><ele>198.0</ele><time>2026-04-19T06:06:14.153Z</time></trkpt><trkpt lat="43.402818" lon="11.213672"><ele>200.0</ele><time>2026-04-19T06:06:16.139Z</time></trkpt><trkpt lat="43.4027653" lon="11.2137236"><ele>202.0</ele><time>2026-04-19T06:06:17.146Z</time></trkpt><trkpt lat="43.4026646" lon="11.2138276"><ele>204.0</ele><time>2026-04-19T06:06:19.125Z</time></trkpt><trkpt lat="43.4026086" lon="11.2138787"><ele>204.0</ele><time>2026-04-19T06:06:20.139Z</time></trkpt><trkpt lat="43.4025063" lon="11.213968"><ele>204.0</ele><time>2026-04-19T06:06:22.128Z</time></trkpt><trkpt lat="43.4024083" lon="11.2140499"><ele>204.0</ele><time>2026-04-19T06:06:24.149Z</time></trkpt><trkpt lat="43.4023158" lon="11.2141281"><ele>204.0</ele><time>2026-04-19T06:06:26.154Z</time></trkpt><trkpt lat="43.4022277" lon="11.2142078"><ele>205.79999999999998</ele><time>2026-04-19T06:06:28.138Z</time></trkpt><trkpt lat="43.4021378" lon="11.2142951"><ele>207.6</ele><time>2026-04-19T06:06:30.148Z</time></trkpt><trkpt lat="43.4020441" lon="11.2143754"><ele>209.4</ele><time>2026-04-19T06:06:32.15Z</time></trkpt><trkpt lat="43.4019505" lon="11.2144452"><ele>211.2</ele><time>2026-04-19T06:06:34.135Z</time></trkpt><trkpt lat="43.4018572" lon="11.2145115"><ele>213.0</ele><time>2026-04-19T06:06:36.141Z</time></trkpt><trkpt lat="43.401768" lon="11.2145754"><ele>213.0</ele><time>2026-04-19T06:06:38.139Z</time></trkpt><trkpt lat="43.4016783" lon="11.2146274"><ele>213.0</ele><time>2026-04-19T06:06:40.143Z</time></trkpt><trkpt lat="43.401588" lon="11.2146762"><ele>213.0</ele><time>2026-04-19T06:06:42.14Z</time></trkpt><trkpt lat="43.4014993" lon="11.2147285"><ele>213.0</ele><time>2026-04-19T06:06:44.143Z</time></trkpt><trkpt lat="43.4014151" lon="11.2147786"><ele>213.0</ele><time>2026-04-19T06:06:46.143Z</time></trkpt><trkpt lat="43.4013319" lon="11.2148212"><ele>211.5</ele><time>2026-04-19T06:06:48.149Z</time></trkpt><trkpt lat="43.4012508" lon="11.2148624"><ele>210.0</ele><time>2026-04-19T06:06:50.142Z</time></trkpt><trkpt lat="43.4011679" lon="11.2149034"><ele>208.5</ele><time>2026-04-19T06:06:52.147Z</time></trkpt><trkpt lat="43.4010871" lon="11.2149458"><ele>207.0</ele><time>2026-04-19T06:06:54.142Z</time></trkpt><trkpt lat="43.4010073" lon="11.2149769"><ele>205.5</ele><time>2026-04-19T06:06:56.14Z</time></trkpt><trkpt lat="43.4009303" lon="11.2150041"><ele>204.0</ele><time>2026-04-19T06:06:58.143Z</time></trkpt><trkpt lat="43.4008531" lon="11.2150371"><ele>204.0</ele><time>2026-04-19T06:07:00.138Z</time></trkpt><trkpt lat="43.4007774" lon="11.2150787"><ele>204.0</ele><time>2026-04-19T06:07:02.136Z</time></trkpt><trkpt lat="43.4006994" lon="11.2151257"><ele>204.0</ele><time>2026-04-19T06:07:04.137Z</time></trkpt><trkpt lat="43.4006246" lon="11.2151728"><ele>204.0</ele><time>2026-04-19T06:07:06.149Z</time></trkpt><trkpt lat="43.4005542" lon="11.2152183"><ele>204.0</ele><time>2026-04-19T06:07:08.141Z</time></trkpt><trkpt lat="43.4004749" lon="11.2152705"><ele>204.0</ele><time>2026-04-19T06:07:10.145Z</time></trkpt><trkpt lat="43.4003927" lon="11.2153222"><ele>206.0</ele><time>2026-04-19T06:07:12.146Z</time></trkpt><trkpt lat="43.4003144" lon="11.2153775"><ele>208.0</ele><time>2026-04-19T06:07:14.139Z</time></trkpt><trkpt lat="43.4002358" lon="11.2154302"><ele>210.0</ele><time>2026-04-19T06:07:16.138Z</time></trkpt><trkpt lat="43.4001588" lon="11.2154711"><ele>212.0</ele><time>2026-04-19T06:07:18.143Z</time></trkpt><trkpt lat="43.4000788" lon="11.2155164"><ele>214.0</ele><time>2026-04-19T06:07:20.14Z</time></trkpt><trkpt lat="43.3999946" lon="11.2155573"><ele>216.0</ele><time>2026-04-19T06:07:22.144Z</time></trkpt><trkpt lat="43.3999097" lon="11.215597"><ele>216.0</ele><time>2026-04-19T06:07:24.152Z</time></trkpt><trkpt lat="43.3998204" lon="11.2156321"><ele>216.00000000000003</ele><time>2026-04-19T06:07:26.143Z</time></trkpt><trkpt lat="43.3997239" lon="11.2156524"><ele>216.00000000000003</ele><time>2026-04-19T06:07:28.155Z</time></trkpt><trkpt lat="43.3996232" lon="11.2156567"><ele>216.0</ele><time>2026-04-19T06:07:30.141Z</time></trkpt><trkpt lat="43.3995143" lon="11.2156478"><ele>216.0</ele><time>2026-04-19T06:07:32.135Z</time></trkpt><trkpt lat="43.3994051" lon="11.2156309"><ele>213.75</ele><time>2026-04-19T06:07:34.148Z</time></trkpt><trkpt lat="43.3992819" lon="11.2156329"><ele>211.5</ele><time>2026-04-19T06:07:36.145Z</time></trkpt><trkpt lat="43.3991649" lon="11.2156135"><ele>209.25</ele><time>2026-04-19T06:07:38.134Z</time></trkpt><trkpt lat="43.3990474" lon="11.2156093"><ele>207.0</ele><time>2026-04-19T06:07:40.14Z</time></trkpt><trkpt lat="43.3989255" lon="11.2156314"><ele>204.33333333333334</ele><time>2026-04-19T06:07:42.145Z</time></trkpt><trkpt lat="43.3988093" lon="11.215692"><ele>201.66666666666666</ele><time>2026-04-19T06:07:44.139Z</time></trkpt><trkpt lat="43.3986923" lon="11.2157646"><ele>199.0</ele><time>2026-04-19T06:07:46.145Z</time></trkpt><trkpt lat="43.3986331" lon="11.2158035"><ele>196.33333333333331</ele><time>2026-04-19T06:07:47.153Z</time></trkpt><trkpt lat="43.3985765" lon="11.2158452"><ele>193.66666666666666</ele><time>2026-04-19T06:07:48.124Z</time></trkpt><trkpt lat="43.3985185" lon="11.215886"><ele>191.0</ele><time>2026-04-19T06:07:49.149Z</time></trkpt><trkpt lat="43.398461" lon="11.2159254"><ele>191.0</ele><time>2026-04-19T06:07:50.142Z</time></trkpt><trkpt lat="43.3983424" lon="11.2159821"><ele>191.0</ele><time>2026-04-19T06:07:52.152Z</time></trkpt><trkpt lat="43.3982197" lon="11.216027"><ele>191.0</ele><time>2026-04-19T06:07:54.15Z</time></trkpt><trkpt lat="43.3981569" lon="11.2160451"><ele>191.0</ele><time>2026-04-19T06:07:55.158Z</time></trkpt><trkpt lat="43.3980332" lon="11.216075"><ele>191.0</ele><time>2026-04-19T06:07:57.145Z</time></trkpt><trkpt lat="43.3979133" lon="11.2160988"><ele>191.5</ele><time>2026-04-19T06:07:59.153Z</time></trkpt><trkpt lat="43.3977948" lon="11.2161266"><ele>192.0</ele><time>2026-04-19T06:08:01.153Z</time></trkpt><trkpt lat="43.3976782" lon="11.2161516"><ele>192.5</ele><time>2026-04-19T06:08:03.154Z</time></trkpt><trkpt lat="43.3975633" lon="11.216178"><ele>193.0</ele><time>2026-04-19T06:08:05.156Z</time></trkpt><trkpt lat="43.3974505" lon="11.2162053"><ele>193.0</ele><time>2026-04-19T06:08:07.15Z</time></trkpt><trkpt lat="43.3973392" lon="11.2162308"><ele>193.0</ele><time>2026-04-19T06:08:09.147Z</time></trkpt><trkpt lat="43.3972265" lon="11.2162571"><ele>193.0</ele><time>2026-04-19T06:08:11.158Z</time></trkpt><trkpt lat="43.3971172" lon="11.2162768"><ele>193.0</ele><time>2026-04-19T06:08:13.143Z</time></trkpt><trkpt lat="43.3970135" lon="11.2162957"><ele>193.0</ele><time>2026-04-19T06:08:15.152Z</time></trkpt><trkpt lat="43.3969066" lon="11.2163232"><ele>193.0</ele><time>2026-04-19T06:08:17.142Z</time></trkpt><trkpt lat="43.3968061" lon="11.2163595"><ele>193.0</ele><time>2026-04-19T06:08:19.15Z</time></trkpt><trkpt lat="43.3967046" lon="11.2163921"><ele>193.0</ele><time>2026-04-19T06:08:21.145Z</time></trkpt><trkpt lat="43.3966022" lon="11.2164168"><ele>193.0</ele><time>2026-04-19T06:08:23.155Z</time></trkpt><trkpt lat="43.396504" lon="11.2164439"><ele>193.0</ele><time>2026-04-19T06:08:25.147Z</time></trkpt><trkpt lat="43.3964072" lon="11.2164687"><ele>193.2</ele><time>2026-04-19T06:08:27.149Z</time></trkpt><trkpt lat="43.3963147" lon="11.2164927"><ele>193.4</ele><time>2026-04-19T06:08:29.141Z</time></trkpt><trkpt lat="43.3962162" lon="11.2165139"><ele>193.6</ele><time>2026-04-19T06:08:31.153Z</time></trkpt><trkpt lat="43.3961219" lon="11.2165373"><ele>193.79999999999998</ele><time>2026-04-19T06:08:33.149Z</time></trkpt><trkpt lat="43.3960284" lon="11.216556"><ele>194.0</ele><time>2026-04-19T06:08:35.15Z</time></trkpt><trkpt lat="43.3959368" lon="11.2165758"><ele>194.0</ele><time>2026-04-19T06:08:37.149Z</time></trkpt><trkpt lat="43.3958429" lon="11.2165969"><ele>194.0</ele><time>2026-04-19T06:08:39.143Z</time></trkpt><trkpt lat="43.3957515" lon="11.2166176"><ele>194.0</ele><time>2026-04-19T06:08:41.152Z</time></trkpt><trkpt lat="43.3956609" lon="11.2166415"><ele>194.0</ele><time>2026-04-19T06:08:43.153Z</time></trkpt><trkpt lat="43.3955764" lon="11.2166672"><ele>194.0</ele><time>2026-04-19T06:08:45.151Z</time></trkpt><trkpt lat="43.3954927" lon="11.2166901"><ele>194.2</ele><time>2026-04-19T06:08:47.152Z</time></trkpt><trkpt lat="43.3954087" lon="11.2167191"><ele>194.39999999999998</ele><time>2026-04-19T06:08:49.141Z</time></trkpt><trkpt lat="43.3953164" lon="11.2167572"><ele>194.6</ele><time>2026-04-19T06:08:51.154Z</time></trkpt><trkpt lat="43.3952253" lon="11.2168014"><ele>194.8</ele><time>2026-04-19T06:08:53.155Z</time></trkpt><trkpt lat="43.3951415" lon="11.2168401"><ele>195.0</ele><time>2026-04-19T06:08:55.212Z</time></trkpt><trkpt lat="43.395054" lon="11.2168883"><ele>195.0</ele><time>2026-04-19T06:08:57.142Z</time></trkpt><trkpt lat="43.3949716" lon="11.2169451"><ele>195.0</ele><time>2026-04-19T06:08:59.159Z</time></trkpt><trkpt lat="43.3948755" lon="11.2169967"><ele>195.0</ele><time>2026-04-19T06:09:01.135Z</time></trkpt><trkpt lat="43.3947982" lon="11.2170539"><ele>195.0</ele><time>2026-04-19T06:09:03.127Z</time></trkpt><trkpt lat="43.39472" lon="11.2171134"><ele>195.0</ele><time>2026-04-19T06:09:05.147Z</time></trkpt><trkpt lat="43.3946417" lon="11.2171846"><ele>195.2</ele><time>2026-04-19T06:09:07.211Z</time></trkpt><trkpt lat="43.394554" lon="11.2172522"><ele>195.4</ele><time>2026-04-19T06:09:09.142Z</time></trkpt><trkpt lat="43.3944776" lon="11.2173098"><ele>195.60000000000002</ele><time>2026-04-19T06:09:11.125Z</time></trkpt><trkpt lat="43.3943926" lon="11.2173891"><ele>195.8</ele><time>2026-04-19T06:09:13.144Z</time></trkpt><trkpt lat="43.3943106" lon="11.2174688"><ele>196.0</ele><time>2026-04-19T06:09:15.16Z</time></trkpt><trkpt lat="43.3942282" lon="11.2175409"><ele>196.20000000000002</ele><time>2026-04-19T06:09:17.163Z</time></trkpt><trkpt lat="43.3941478" lon="11.2176238"><ele>196.4</ele><time>2026-04-19T06:09:19.146Z</time></trkpt><trkpt lat="43.3940628" lon="11.2177132"><ele>196.6</ele><time>2026-04-19T06:09:21.143Z</time></trkpt><trkpt lat="43.3939781" lon="11.2177948"><ele>196.8</ele><time>2026-04-19T06:09:23.137Z</time></trkpt><trkpt lat="43.3938867" lon="11.2178624"><ele>197.0</ele><time>2026-04-19T06:09:25.151Z</time></trkpt><trkpt lat="43.3938006" lon="11.2179212"><ele>197.2</ele><time>2026-04-19T06:09:27.129Z</time></trkpt><trkpt lat="43.3937226" lon="11.2179806"><ele>197.39999999999998</ele><time>2026-04-19T06:09:29.141Z</time></trkpt><trkpt lat="43.3936385" lon="11.2179956"><ele>197.60000000000002</ele><time>2026-04-19T06:09:31.132Z</time></trkpt><trkpt lat="43.3935451" lon="11.2179464"><ele>197.8</ele><time>2026-04-19T06:09:33.14Z</time></trkpt><trkpt lat="43.3934526" lon="11.2178803"><ele>198.0</ele><time>2026-04-19T06:09:35.123Z</time></trkpt><trkpt lat="43.3933628" lon="11.2178622"><ele>198.0</ele><time>2026-04-19T06:09:37.206Z</time></trkpt><trkpt lat="43.3932815" lon="11.2179004"><ele>198.0</ele><time>2026-04-19T06:09:39.13Z</time></trkpt><trkpt lat="43.3932319" lon="11.217972"><ele>198.0</ele><time>2026-04-19T06:09:41.121Z</time></trkpt><trkpt lat="43.3931983" lon="11.2180533"><ele>198.0</ele><time>2026-04-19T06:09:43.178Z</time></trkpt><trkpt lat="43.3931702" lon="11.218137"><ele>198.0</ele><time>2026-04-19T06:09:45.149Z</time></trkpt><trkpt lat="43.393163" lon="11.2182342"><ele>198.0</ele><time>2026-04-19T06:09:47.155Z</time></trkpt><trkpt lat="43.3931711" lon="11.2183346"><ele>198.0</ele><time>2026-04-19T06:09:49.15Z</time></trkpt><trkpt lat="43.3931754" lon="11.2184264"><ele>198.66666666666666</ele><time>2026-04-19T06:09:51.144Z</time></trkpt><trkpt lat="43.3931457" lon="11.2185514"><ele>199.33333333333331</ele><time>2026-04-19T06:09:54.142Z</time></trkpt><trkpt lat="43.3931128" lon="11.2186286"><ele>200.0</ele><time>2026-04-19T06:09:56.154Z</time></trkpt><trkpt lat="43.3930633" lon="11.2186857"><ele>200.66666666666666</ele><time>2026-04-19T06:09:58.147Z</time></trkpt><trkpt lat="43.3929968" lon="11.2187622"><ele>201.33333333333331</ele><time>2026-04-19T06:10:01.127Z</time></trkpt><trkpt lat="43.3929279" lon="11.2188357"><ele>202.0</ele><time>2026-04-19T06:10:04.128Z</time></trkpt><trkpt lat="43.3928549" lon="11.2188955"><ele>202.66666666666666</ele><time>2026-04-19T06:10:07.226Z</time></trkpt><trkpt lat="43.392778" lon="11.218967"><ele>203.33333333333331</ele><time>2026-04-19T06:10:10.15Z</time></trkpt><trkpt lat="43.3927203" lon="11.2190212"><ele>204.0</ele><time>2026-04-19T06:10:12.147Z</time></trkpt><trkpt lat="43.3926647" lon="11.2190731"><ele>204.66666666666669</ele><time>2026-04-19T06:10:14.151Z</time></trkpt><trkpt lat="43.3926072" lon="11.2191355"><ele>205.33333333333334</ele><time>2026-04-19T06:10:16.141Z</time></trkpt><trkpt lat="43.3925469" lon="11.2191914"><ele>206.0</ele><time>2026-04-19T06:10:18.152Z</time></trkpt><trkpt lat="43.3924855" lon="11.2192504"><ele>206.28571428571428</ele><time>2026-04-19T06:10:20.152Z</time></trkpt><trkpt lat="43.3924278" lon="11.2192958"><ele>206.57142857142856</ele><time>2026-04-19T06:10:22.149Z</time></trkpt><trkpt lat="43.3923591" lon="11.2193167"><ele>206.85714285714283</ele><time>2026-04-19T06:10:24.143Z</time></trkpt><trkpt lat="43.3922905" lon="11.2193287"><ele>207.14285714285714</ele><time>2026-04-19T06:10:26.152Z</time></trkpt><trkpt lat="43.3922237" lon="11.2193325"><ele>207.42857142857144</ele><time>2026-04-19T06:10:28.129Z</time></trkpt><trkpt lat="43.3921568" lon="11.2193318"><ele>207.7142857142857</ele><time>2026-04-19T06:10:30.131Z</time></trkpt><trkpt lat="43.3920898" lon="11.219333"><ele>208.0</ele><time>2026-04-19T06:10:32.141Z</time></trkpt><trkpt lat="43.3920231" lon="11.2193309"><ele>209.16666666666666</ele><time>2026-04-19T06:10:34.147Z</time></trkpt><trkpt lat="43.391958" lon="11.219345"><ele>210.33333333333331</ele><time>2026-04-19T06:10:36.141Z</time></trkpt><trkpt lat="43.3918945" lon="11.2193592"><ele>211.5</ele><time>2026-04-19T06:10:38.151Z</time></trkpt><trkpt lat="43.3917997" lon="11.2193688"><ele>212.66666666666669</ele><time>2026-04-19T06:10:41.147Z</time></trkpt><trkpt lat="43.3917099" lon="11.2194033"><ele>213.83333333333334</ele><time>2026-04-19T06:10:44.149Z</time></trkpt><trkpt lat="43.3916461" lon="11.2194487"><ele>215.0</ele><time>2026-04-19T06:10:46.149Z</time></trkpt><trkpt lat="43.3915729" lon="11.2195164"><ele>215.00000000000003</ele><time>2026-04-19T06:10:48.153Z</time></trkpt><trkpt lat="43.3914939" lon="11.2195868"><ele>215.0</ele><time>2026-04-19T06:10:50.147Z</time></trkpt><trkpt lat="43.3914198" lon="11.2196412"><ele>215.0</ele><time>2026-04-19T06:10:52.15Z</time></trkpt><trkpt lat="43.391348" lon="11.2196956"><ele>215.0</ele><time>2026-04-19T06:10:54.142Z</time></trkpt><trkpt lat="43.3912792" lon="11.2197423"><ele>215.00000000000003</ele><time>2026-04-19T06:10:56.22Z</time></trkpt><trkpt lat="43.3912148" lon="11.2197893"><ele>215.0</ele><time>2026-04-19T06:10:58.141Z</time></trkpt><trkpt lat="43.3911525" lon="11.2198215"><ele>214.85714285714286</ele><time>2026-04-19T06:11:00.148Z</time></trkpt><trkpt lat="43.3910796" lon="11.2198361"><ele>214.71428571428572</ele><time>2026-04-19T06:11:02.143Z</time></trkpt><trkpt lat="43.3910095" lon="11.2198426"><ele>214.57142857142858</ele><time>2026-04-19T06:11:04.141Z</time></trkpt><trkpt lat="43.3909379" lon="11.2198547"><ele>214.42857142857144</ele><time>2026-04-19T06:11:06.155Z</time></trkpt><trkpt lat="43.3908714" lon="11.2198617"><ele>214.28571428571428</ele><time>2026-04-19T06:11:08.148Z</time></trkpt><trkpt lat="43.3908067" lon="11.2198679"><ele>214.14285714285717</ele><time>2026-04-19T06:11:10.156Z</time></trkpt><trkpt lat="43.390741" lon="11.2198702"><ele>214.0</ele><time>2026-04-19T06:11:12.137Z</time></trkpt><trkpt lat="43.3906781" lon="11.2198778"><ele>213.99999999999997</ele><time>2026-04-19T06:11:14.135Z</time></trkpt><trkpt lat="43.3906114" lon="11.2198684"><ele>214.0</ele><time>2026-04-19T06:11:16.137Z</time></trkpt><trkpt lat="43.3905362" lon="11.2198744"><ele>214.0</ele><time>2026-04-19T06:11:19.144Z</time></trkpt><trkpt lat="43.3904497" lon="11.2198707"><ele>214.0</ele><time>2026-04-19T06:11:22.231Z</time></trkpt><trkpt lat="43.3903624" lon="11.2198857"><ele>213.99999999999997</ele><time>2026-04-19T06:11:25.123Z</time></trkpt><trkpt lat="43.3902811" lon="11.2198991"><ele>214.0</ele><time>2026-04-19T06:11:28.128Z</time></trkpt><trkpt lat="43.3901978" lon="11.2199269"><ele>214.66666666666666</ele><time>2026-04-19T06:11:31.145Z</time></trkpt><trkpt lat="43.3901169" lon="11.2199645"><ele>215.33333333333331</ele><time>2026-04-19T06:11:34.135Z</time></trkpt><trkpt lat="43.3900324" lon="11.2200111"><ele>216.0</ele><time>2026-04-19T06:11:37.137Z</time></trkpt><trkpt lat="43.3899493" lon="11.220065"><ele>216.66666666666669</ele><time>2026-04-19T06:11:40.148Z</time></trkpt><trkpt lat="43.389893" lon="11.2201087"><ele>217.33333333333334</ele><time>2026-04-19T06:11:42.151Z</time></trkpt><trkpt lat="43.3898115" lon="11.2201673"><ele>218.0</ele><time>2026-04-19T06:11:45.141Z</time></trkpt><trkpt lat="43.389757" lon="11.2202169"><ele>218.00000000000003</ele><time>2026-04-19T06:11:47.144Z</time></trkpt><trkpt lat="43.3896995" lon="11.2202685"><ele>218.0</ele><time>2026-04-19T06:11:49.143Z</time></trkpt><trkpt lat="43.389642" lon="11.2203209"><ele>218.0</ele><time>2026-04-19T06:11:51.127Z</time></trkpt><trkpt lat="43.3895583" lon="11.2204091"><ele>218.0</ele><time>2026-04-19T06:11:54.143Z</time></trkpt><trkpt lat="43.3894944" lon="11.2204763"><ele>218.00000000000003</ele><time>2026-04-19T06:11:56.143Z</time></trkpt><trkpt lat="43.3894308" lon="11.2205203"><ele>218.0</ele><time>2026-04-19T06:11:59.124Z</time></trkpt><trkpt lat="43.389356" lon="11.2205842"><ele>217.8</ele><time>2026-04-19T06:12:02.215Z</time></trkpt><trkpt lat="43.3892372" lon="11.2206229"><ele>217.60000000000002</ele><time>2026-04-19T06:12:07.214Z</time></trkpt><trkpt lat="43.3891584" lon="11.2207399"><ele>217.39999999999998</ele><time>2026-04-19T06:12:08.123Z</time></trkpt><trkpt lat="43.3890929" lon="11.2208102"><ele>217.2</ele><time>2026-04-19T06:12:12.139Z</time></trkpt><trkpt lat="43.3890371" lon="11.2208643"><ele>217.0</ele><time>2026-04-19T06:12:14.127Z</time></trkpt><trkpt lat="43.3889826" lon="11.2209115"><ele>217.66666666666666</ele><time>2026-04-19T06:12:16.15Z</time></trkpt><trkpt lat="43.3889053" lon="11.2209905"><ele>218.33333333333331</ele><time>2026-04-19T06:12:19.118Z</time></trkpt><trkpt lat="43.3888414" lon="11.2210673"><ele>219.0</ele><time>2026-04-19T06:12:22.13Z</time></trkpt><trkpt lat="43.3887688" lon="11.2211581"><ele>219.66666666666669</ele><time>2026-04-19T06:12:25.146Z</time></trkpt><trkpt lat="43.3887069" lon="11.2212278"><ele>220.33333333333334</ele><time>2026-04-19T06:12:28.136Z</time></trkpt><trkpt lat="43.3886355" lon="11.2213033"><ele>221.0</ele><time>2026-04-19T06:12:31.136Z</time></trkpt><trkpt lat="43.3885618" lon="11.2213838"><ele>221.00000000000003</ele><time>2026-04-19T06:12:34.121Z</time></trkpt><trkpt lat="43.3885095" lon="11.2214372"><ele>221.0</ele><time>2026-04-19T06:12:36.142Z</time></trkpt><trkpt lat="43.3884542" lon="11.221493"><ele>221.0</ele><time>2026-04-19T06:12:38.119Z</time></trkpt><trkpt lat="43.3884029" lon="11.221549"><ele>221.0</ele><time>2026-04-19T06:12:40.118Z</time></trkpt><trkpt lat="43.3883523" lon="11.2216107"><ele>221.0</ele><time>2026-04-19T06:12:42.143Z</time></trkpt><trkpt lat="43.3882984" lon="11.2216694"><ele>221.00000000000003</ele><time>2026-04-19T06:12:44.12Z</time></trkpt><trkpt lat="43.3882271" lon="11.2217394"><ele>221.0</ele><time>2026-04-19T06:12:47.131Z</time></trkpt><trkpt lat="43.3881628" lon="11.221799"><ele>221.33333333333334</ele><time>2026-04-19T06:12:50.141Z</time></trkpt><trkpt lat="43.3880976" lon="11.2218714"><ele>221.66666666666669</ele><time>2026-04-19T06:12:53.135Z</time></trkpt><trkpt lat="43.3880238" lon="11.2219491"><ele>222.0</ele><time>2026-04-19T06:12:56.139Z</time></trkpt><trkpt lat="43.3879508" lon="11.2220248"><ele>222.33333333333331</ele><time>2026-04-19T06:12:59.116Z</time></trkpt><trkpt lat="43.3878799" lon="11.2221039"><ele>222.66666666666666</ele><time>2026-04-19T06:13:02.141Z</time></trkpt><trkpt lat="43.3878311" lon="11.2221638"><ele>223.0</ele><time>2026-04-19T06:13:04.139Z</time></trkpt><trkpt lat="43.3877716" lon="11.2222435"><ele>223.99999999999997</ele><time>2026-04-19T06:13:07.145Z</time></trkpt><trkpt lat="43.3877045" lon="11.2223254"><ele>225.0</ele><time>2026-04-19T06:13:10.15Z</time></trkpt><trkpt lat="43.3876489" lon="11.222389"><ele>226.0</ele><time>2026-04-19T06:13:12.129Z</time></trkpt><trkpt lat="43.3875835" lon="11.2224613"><ele>227.0</ele><time>2026-04-19T06:13:14.144Z</time></trkpt><trkpt lat="43.3875248" lon="11.2225371"><ele>227.99999999999997</ele><time>2026-04-19T06:13:16.131Z</time></trkpt><trkpt lat="43.3874652" lon="11.2226196"><ele>229.0</ele><time>2026-04-19T06:13:18.125Z</time></trkpt><trkpt lat="43.3874049" lon="11.2226858"><ele>228.99999999999997</ele><time>2026-04-19T06:13:20.12Z</time></trkpt><trkpt lat="43.3873386" lon="11.2227567"><ele>229.0</ele><time>2026-04-19T06:13:22.151Z</time></trkpt><trkpt lat="43.3872739" lon="11.222839"><ele>229.0</ele><time>2026-04-19T06:13:24.135Z</time></trkpt><trkpt lat="43.3872111" lon="11.2229167"><ele>229.0</ele><time>2026-04-19T06:13:26.123Z</time></trkpt><trkpt lat="43.3871524" lon="11.2229895"><ele>228.99999999999997</ele><time>2026-04-19T06:13:28.128Z</time></trkpt><trkpt lat="43.3870914" lon="11.2230622"><ele>229.0</ele><time>2026-04-19T06:13:30.123Z</time></trkpt><trkpt lat="43.3870321" lon="11.2231367"><ele>228.66666666666666</ele><time>2026-04-19T06:13:32.119Z</time></trkpt><trkpt lat="43.3869714" lon="11.2232046"><ele>228.33333333333331</ele><time>2026-04-19T06:13:34.156Z</time></trkpt><trkpt lat="43.3869183" lon="11.2232769"><ele>228.0</ele><time>2026-04-19T06:13:36.136Z</time></trkpt><trkpt lat="43.386857" lon="11.2233548"><ele>227.66666666666669</ele><time>2026-04-19T06:13:38.206Z</time></trkpt><trkpt lat="43.3868004" lon="11.2234326"><ele>227.33333333333334</ele><time>2026-04-19T06:13:40.151Z</time></trkpt><trkpt lat="43.3867403" lon="11.2235137"><ele>227.0</ele><time>2026-04-19T06:13:42.212Z</time></trkpt><trkpt lat="43.3866834" lon="11.2236104"><ele>227.0</ele><time>2026-04-19T06:13:44.139Z</time></trkpt><trkpt lat="43.3865993" lon="11.2237224"><ele>227.0</ele><time>2026-04-19T06:13:46.224Z</time></trkpt><trkpt lat="43.3865159" lon="11.2238263"><ele>227.0</ele><time>2026-04-19T06:13:48.135Z</time></trkpt><trkpt lat="43.3864693" lon="11.2238889"><ele>227.0</ele><time>2026-04-19T06:13:49.153Z</time></trkpt><trkpt lat="43.3864149" lon="11.2239864"><ele>227.0</ele><time>2026-04-19T06:13:51.215Z</time></trkpt><trkpt lat="43.3863567" lon="11.2240603"><ele>228.00000000000003</ele><time>2026-04-19T06:13:53.139Z</time></trkpt><trkpt lat="43.3863182" lon="11.2241737"><ele>229.0</ele><time>2026-04-19T06:13:56.131Z</time></trkpt><trkpt lat="43.3862671" lon="11.2242811"><ele>230.0</ele><time>2026-04-19T06:13:59.14Z</time></trkpt><trkpt lat="43.3862185" lon="11.2243452"><ele>231.0</ele><time>2026-04-19T06:14:01.152Z</time></trkpt><trkpt lat="43.3861627" lon="11.224434"><ele>232.00000000000003</ele><time>2026-04-19T06:14:04.148Z</time></trkpt><trkpt lat="43.3861087" lon="11.2245323"><ele>233.0</ele><time>2026-04-19T06:14:07.16Z</time></trkpt><trkpt lat="43.386055" lon="11.2246201"><ele>233.00000000000003</ele><time>2026-04-19T06:14:10.126Z</time></trkpt><trkpt lat="43.386018" lon="11.2246912"><ele>233.0</ele><time>2026-04-19T06:14:12.204Z</time></trkpt><trkpt lat="43.3859491" lon="11.2247643"><ele>233.0</ele><time>2026-04-19T06:14:14.14Z</time></trkpt><trkpt lat="43.3859166" lon="11.224854"><ele>233.0</ele><time>2026-04-19T06:14:17.143Z</time></trkpt><trkpt lat="43.3858786" lon="11.2249496"><ele>233.00000000000003</ele><time>2026-04-19T06:14:20.15Z</time></trkpt><trkpt lat="43.3858402" lon="11.2250449"><ele>233.0</ele><time>2026-04-19T06:14:23.147Z</time></trkpt><trkpt lat="43.3858213" lon="11.2251598"><ele>233.66666666666669</ele><time>2026-04-19T06:14:26.206Z</time></trkpt><trkpt lat="43.3857863" lon="11.225267"><ele>234.33333333333334</ele><time>2026-04-19T06:14:30.216Z</time></trkpt><trkpt lat="43.3857703" lon="11.2253647"><ele>235.0</ele><time>2026-04-19T06:14:33.139Z</time></trkpt><trkpt lat="43.3857614" lon="11.2254544"><ele>235.66666666666669</ele><time>2026-04-19T06:14:35.139Z</time></trkpt><trkpt lat="43.385754" lon="11.2255783"><ele>236.33333333333334</ele><time>2026-04-19T06:14:38.156Z</time></trkpt><trkpt lat="43.3857285" lon="11.2256944"><ele>237.0</ele><time>2026-04-19T06:14:41.145Z</time></trkpt><trkpt lat="43.3857103" lon="11.2258128"><ele>237.83333333333334</ele><time>2026-04-19T06:14:44.141Z</time></trkpt><trkpt lat="43.3856861" lon="11.2259229"><ele>238.66666666666669</ele><time>2026-04-19T06:14:47.218Z</time></trkpt><trkpt lat="43.3856623" lon="11.2260228"><ele>239.5</ele><time>2026-04-19T06:14:50.14Z</time></trkpt><trkpt lat="43.3856377" lon="11.2261268"><ele>240.33333333333334</ele><time>2026-04-19T06:14:53.212Z</time></trkpt><trkpt lat="43.3856121" lon="11.2262526"><ele>241.16666666666669</ele><time>2026-04-19T06:14:56.209Z</time></trkpt><trkpt lat="43.3855913" lon="11.2263763"><ele>242.0</ele><time>2026-04-19T06:14:59.141Z</time></trkpt><trkpt lat="43.3855959" lon="11.2264666"><ele>241.83333333333334</ele><time>2026-04-19T06:15:01.217Z</time></trkpt><trkpt lat="43.3855869" lon="11.2265554"><ele>241.66666666666669</ele><time>2026-04-19T06:15:03.136Z</time></trkpt><trkpt lat="43.3855706" lon="11.2266728"><ele>241.5</ele><time>2026-04-19T06:15:06.203Z</time></trkpt><trkpt lat="43.3855506" lon="11.2268064"><ele>241.33333333333331</ele><time>2026-04-19T06:15:09.134Z</time></trkpt><trkpt lat="43.3855389" lon="11.2268926"><ele>241.16666666666666</ele><time>2026-04-19T06:15:11.144Z</time></trkpt><trkpt lat="43.3855196" lon="11.2270186"><ele>241.0</ele><time>2026-04-19T06:15:14.148Z</time></trkpt><trkpt lat="43.3854979" lon="11.2271019"><ele>240.99999999999997</ele><time>2026-04-19T06:15:16.145Z</time></trkpt><trkpt lat="43.3854813" lon="11.2271861"><ele>241.0</ele><time>2026-04-19T06:15:18.144Z</time></trkpt><trkpt lat="43.3854585" lon="11.2272824"><ele>241.0</ele><time>2026-04-19T06:15:20.145Z</time></trkpt><trkpt lat="43.3854133" lon="11.2273871"><ele>241.0</ele><time>2026-04-19T06:15:22.215Z</time></trkpt><trkpt lat="43.3853852" lon="11.2275119"><ele>240.99999999999997</ele><time>2026-04-19T06:15:24.151Z</time></trkpt><trkpt lat="43.3853846" lon="11.2276425"><ele>241.0</ele><time>2026-04-19T06:15:26.122Z</time></trkpt><trkpt lat="43.3853595" lon="11.2277639"><ele>240.60000000000002</ele><time>2026-04-19T06:15:28.216Z</time></trkpt><trkpt lat="43.3853416" lon="11.2278698"><ele>240.20000000000002</ele><time>2026-04-19T06:15:30.134Z</time></trkpt><trkpt lat="43.3853264" lon="11.2279979"><ele>239.79999999999998</ele><time>2026-04-19T06:15:32.198Z</time></trkpt><trkpt lat="43.3852881" lon="11.2281294"><ele>239.39999999999998</ele><time>2026-04-19T06:15:34.149Z</time></trkpt><trkpt lat="43.3852767" lon="11.2282687"><ele>239.0</ele><time>2026-04-19T06:15:36.198Z</time></trkpt><trkpt lat="43.3852449" lon="11.2284002"><ele>238.66666666666669</ele><time>2026-04-19T06:15:38.219Z</time></trkpt><trkpt lat="43.3852038" lon="11.2285416"><ele>238.33333333333334</ele><time>2026-04-19T06:15:40.145Z</time></trkpt><trkpt lat="43.3852008" lon="11.2286489"><ele>238.0</ele><time>2026-04-19T06:15:41.213Z</time></trkpt><trkpt lat="43.3852008" lon="11.2287467"><ele>237.66666666666669</ele><time>2026-04-19T06:15:42.219Z</time></trkpt><trkpt lat="43.385195" lon="11.2288339"><ele>237.33333333333334</ele><time>2026-04-19T06:15:43.146Z</time></trkpt><trkpt lat="43.385188" lon="11.2289275"><ele>237.0</ele><time>2026-04-19T06:15:44.137Z</time></trkpt><trkpt lat="43.385181" lon="11.2290198"><ele>236.85714285714283</ele><time>2026-04-19T06:15:45.147Z</time></trkpt><trkpt lat="43.3851736" lon="11.229111"><ele>236.71428571428572</ele><time>2026-04-19T06:15:46.151Z</time></trkpt><trkpt lat="43.3851686" lon="11.2292058"><ele>236.57142857142856</ele><time>2026-04-19T06:15:47.137Z</time></trkpt><trkpt lat="43.3851599" lon="11.2292989"><ele>236.42857142857142</ele><time>2026-04-19T06:15:48.149Z</time></trkpt><trkpt lat="43.3851502" lon="11.2293887"><ele>236.28571428571428</ele><time>2026-04-19T06:15:49.156Z</time></trkpt><trkpt lat="43.3851461" lon="11.2294867"><ele>236.14285714285714</ele><time>2026-04-19T06:15:50.146Z</time></trkpt><trkpt lat="43.3851387" lon="11.2295837"><ele>236.0</ele><time>2026-04-19T06:15:51.119Z</time></trkpt><trkpt lat="43.3851275" lon="11.2296726"><ele>236.0</ele><time>2026-04-19T06:15:52.201Z</time></trkpt><trkpt lat="43.3851163" lon="11.2297624"><ele>236.0</ele><time>2026-04-19T06:15:53.142Z</time></trkpt><trkpt lat="43.3851045" lon="11.2298569"><ele>236.0</ele><time>2026-04-19T06:15:54.137Z</time></trkpt><trkpt lat="43.3850971" lon="11.2299487"><ele>236.0</ele><time>2026-04-19T06:15:55.138Z</time></trkpt><trkpt lat="43.3850981" lon="11.2300546"><ele>236.0</ele><time>2026-04-19T06:15:56.137Z</time></trkpt><trkpt lat="43.3850944" lon="11.2301545"><ele>236.0</ele><time>2026-04-19T06:15:57.213Z</time></trkpt><trkpt lat="43.3850887" lon="11.2302469"><ele>236.0</ele><time>2026-04-19T06:15:58.209Z</time></trkpt><trkpt lat="43.3850782" lon="11.2303379"><ele>236.00000000000003</ele><time>2026-04-19T06:15:59.145Z</time></trkpt><trkpt lat="43.3850702" lon="11.2304317"><ele>236.0</ele><time>2026-04-19T06:16:00.129Z</time></trkpt><trkpt lat="43.3850589" lon="11.2305192"><ele>236.0</ele><time>2026-04-19T06:16:01.139Z</time></trkpt><trkpt lat="43.3850473" lon="11.2306074"><ele>236.0</ele><time>2026-04-19T06:16:02.12Z</time></trkpt><trkpt lat="43.3850287" lon="11.2307786"><ele>236.00000000000003</ele><time>2026-04-19T06:16:04.144Z</time></trkpt><trkpt lat="43.3850245" lon="11.2308659"><ele>236.0</ele><time>2026-04-19T06:16:05.137Z</time></trkpt><trkpt lat="43.3850168" lon="11.2309588"><ele>235.83333333333334</ele><time>2026-04-19T06:16:06.207Z</time></trkpt><trkpt lat="43.3849931" lon="11.2310626"><ele>235.66666666666669</ele><time>2026-04-19T06:16:07.217Z</time></trkpt><trkpt lat="43.3849714" lon="11.2311605"><ele>235.5</ele><time>2026-04-19T06:16:08.138Z</time></trkpt><trkpt lat="43.3849656" lon="11.2312479"><ele>235.33333333333331</ele><time>2026-04-19T06:16:09.149Z</time></trkpt><trkpt lat="43.3849582" lon="11.2314006"><ele>235.16666666666666</ele><time>2026-04-19T06:16:11.225Z</time></trkpt><trkpt lat="43.3849582" lon="11.2315468"><ele>235.0</ele><time>2026-04-19T06:16:13.14Z</time></trkpt><trkpt lat="43.3849633" lon="11.2317136"><ele>234.7142857142857</ele><time>2026-04-19T06:16:15.143Z</time></trkpt><trkpt lat="43.3849709" lon="11.2318079"><ele>234.4285714285714</ele><time>2026-04-19T06:16:16.139Z</time></trkpt><trkpt lat="43.3849805" lon="11.2319002"><ele>234.14285714285714</ele><time>2026-04-19T06:16:17.143Z</time></trkpt><trkpt lat="43.3849903" lon="11.2319986"><ele>233.85714285714283</ele><time>2026-04-19T06:16:18.14Z</time></trkpt><trkpt lat="43.3850018" lon="11.2321012"><ele>233.57142857142856</ele><time>2026-04-19T06:16:19.134Z</time></trkpt><trkpt lat="43.3850118" lon="11.2322085"><ele>233.28571428571428</ele><time>2026-04-19T06:16:20.122Z</time></trkpt><trkpt lat="43.3850232" lon="11.2323194"><ele>233.0</ele><time>2026-04-19T06:16:21.151Z</time></trkpt><trkpt lat="43.385036" lon="11.2324373"><ele>232.0</ele><time>2026-04-19T06:16:22.148Z</time></trkpt><trkpt lat="43.3850528" lon="11.2325604"><ele>231.0</ele><time>2026-04-19T06:16:23.135Z</time></trkpt><trkpt lat="43.3850672" lon="11.2326831"><ele>230.0</ele><time>2026-04-19T06:16:24.133Z</time></trkpt><trkpt lat="43.3850877" lon="11.232805"><ele>229.0</ele><time>2026-04-19T06:16:25.171Z</time></trkpt><trkpt lat="43.3851143" lon="11.2329215"><ele>228.0</ele><time>2026-04-19T06:16:26.149Z</time></trkpt><trkpt lat="43.3851502" lon="11.2330335"><ele>227.33333333333334</ele><time>2026-04-19T06:16:27.232Z</time></trkpt><trkpt lat="43.3851915" lon="11.2331394"><ele>226.66666666666669</ele><time>2026-04-19T06:16:28.205Z</time></trkpt><trkpt lat="43.385229" lon="11.2332477"><ele>226.0</ele><time>2026-04-19T06:16:29.125Z</time></trkpt><trkpt lat="43.385267" lon="11.2333639"><ele>225.33333333333334</ele><time>2026-04-19T06:16:30.143Z</time></trkpt><trkpt lat="43.3853029" lon="11.233478"><ele>224.66666666666669</ele><time>2026-04-19T06:16:31.156Z</time></trkpt><trkpt lat="43.3853359" lon="11.2335879"><ele>224.0</ele><time>2026-04-19T06:16:32.151Z</time></trkpt><trkpt lat="43.3853685" lon="11.2336943"><ele>224.00000000000003</ele><time>2026-04-19T06:16:33.129Z</time></trkpt><trkpt lat="43.3854004" lon="11.2337995"><ele>224.0</ele><time>2026-04-19T06:16:34.158Z</time></trkpt><trkpt lat="43.385433" lon="11.2339048"><ele>224.0</ele><time>2026-04-19T06:16:35.146Z</time></trkpt><trkpt lat="43.3854672" lon="11.234012"><ele>224.0</ele><time>2026-04-19T06:16:36.231Z</time></trkpt><trkpt lat="43.3854968" lon="11.2341098"><ele>224.00000000000003</ele><time>2026-04-19T06:16:37.156Z</time></trkpt><trkpt lat="43.3855291" lon="11.2342113"><ele>224.0</ele><time>2026-04-19T06:16:38.142Z</time></trkpt><trkpt lat="43.3855621" lon="11.2343096"><ele>223.50000000000003</ele><time>2026-04-19T06:16:39.147Z</time></trkpt><trkpt lat="43.3855929" lon="11.2344065"><ele>223.0</ele><time>2026-04-19T06:16:40.15Z</time></trkpt><trkpt lat="43.3856221" lon="11.2345048"><ele>222.5</ele><time>2026-04-19T06:16:41.21Z</time></trkpt><trkpt lat="43.385645" lon="11.2345873"><ele>222.0</ele><time>2026-04-19T06:16:42.209Z</time></trkpt><trkpt lat="43.3856934" lon="11.2347485"><ele>221.50000000000003</ele><time>2026-04-19T06:16:44.143Z</time></trkpt><trkpt lat="43.3857163" lon="11.2348393"><ele>221.0</ele><time>2026-04-19T06:16:45.151Z</time></trkpt><trkpt lat="43.3857317" lon="11.2349363"><ele>221.00000000000003</ele><time>2026-04-19T06:16:46.138Z</time></trkpt><trkpt lat="43.3857593" lon="11.2350299"><ele>221.0</ele><time>2026-04-19T06:16:47.141Z</time></trkpt><trkpt lat="43.3857933" lon="11.2351192"><ele>221.0</ele><time>2026-04-19T06:16:48.147Z</time></trkpt><trkpt lat="43.3858266" lon="11.2352056"><ele>221.0</ele><time>2026-04-19T06:16:49.145Z</time></trkpt><trkpt lat="43.3858565" lon="11.2352942"><ele>221.0</ele><time>2026-04-19T06:16:50.134Z</time></trkpt><trkpt lat="43.3858865" lon="11.2353845"><ele>221.00000000000003</ele><time>2026-04-19T06:16:51.144Z</time></trkpt><trkpt lat="43.3859161" lon="11.2354783"><ele>221.0</ele><time>2026-04-19T06:16:52.135Z</time></trkpt><trkpt lat="43.3859456" lon="11.2355649"><ele>221.50000000000003</ele><time>2026-04-19T06:16:53.126Z</time></trkpt><trkpt lat="43.3859746" lon="11.2356507"><ele>222.0</ele><time>2026-04-19T06:16:54.152Z</time></trkpt><trkpt lat="43.3860044" lon="11.2357341"><ele>222.5</ele><time>2026-04-19T06:16:55.136Z</time></trkpt><trkpt lat="43.3860303" lon="11.2358236"><ele>223.0</ele><time>2026-04-19T06:16:56.149Z</time></trkpt><trkpt lat="43.3860538" lon="11.2359045"><ele>223.50000000000003</ele><time>2026-04-19T06:16:57.143Z</time></trkpt><trkpt lat="43.386078" lon="11.2359858"><ele>224.0</ele><time>2026-04-19T06:16:58.153Z</time></trkpt><trkpt lat="43.3861229" lon="11.2361401"><ele>224.0</ele><time>2026-04-19T06:17:00.123Z</time></trkpt><trkpt lat="43.3861452" lon="11.2362231"><ele>223.99999999999997</ele><time>2026-04-19T06:17:01.141Z</time></trkpt><trkpt lat="43.3861973" lon="11.2363651"><ele>223.99999999999997</ele><time>2026-04-19T06:17:03.157Z</time></trkpt><trkpt lat="43.3862321" lon="11.2364977"><ele>224.0</ele><time>2026-04-19T06:17:05.145Z</time></trkpt><trkpt lat="43.3862288" lon="11.2366307"><ele>224.0</ele><time>2026-04-19T06:17:07.148Z</time></trkpt><trkpt lat="43.3862004" lon="11.2367427"><ele>224.83333333333334</ele><time>2026-04-19T06:17:09.136Z</time></trkpt><trkpt lat="43.3861626" lon="11.2368273"><ele>225.66666666666669</ele><time>2026-04-19T06:17:11.128Z</time></trkpt><trkpt lat="43.3861071" lon="11.2369131"><ele>226.5</ele><time>2026-04-19T06:17:13.208Z</time></trkpt><trkpt lat="43.3860418" lon="11.2370019"><ele>227.33333333333331</ele><time>2026-04-19T06:17:15.131Z</time></trkpt><trkpt lat="43.3859737" lon="11.2370863"><ele>228.16666666666666</ele><time>2026-04-19T06:17:17.141Z</time></trkpt><trkpt lat="43.3859086" lon="11.2371651"><ele>229.0</ele><time>2026-04-19T06:17:19.129Z</time></trkpt><trkpt lat="43.385848" lon="11.2372327"><ele>228.99999999999997</ele><time>2026-04-19T06:17:21.14Z</time></trkpt><trkpt lat="43.3857785" lon="11.2372906"><ele>229.0</ele><time>2026-04-19T06:17:23.164Z</time></trkpt><trkpt lat="43.3857151" lon="11.2373525"><ele>229.0</ele><time>2026-04-19T06:17:25.141Z</time></trkpt><trkpt lat="43.3856433" lon="11.2374107"><ele>229.0</ele><time>2026-04-19T06:17:27.138Z</time></trkpt><trkpt lat="43.3855705" lon="11.2374663"><ele>228.99999999999997</ele><time>2026-04-19T06:17:29.144Z</time></trkpt><trkpt lat="43.3855065" lon="11.2375166"><ele>229.0</ele><time>2026-04-19T06:17:31.145Z</time></trkpt><trkpt lat="43.3854439" lon="11.237572"><ele>230.66666666666666</ele><time>2026-04-19T06:17:33.134Z</time></trkpt><trkpt lat="43.3853819" lon="11.2376235"><ele>232.33333333333331</ele><time>2026-04-19T06:17:35.136Z</time></trkpt><trkpt lat="43.3853043" lon="11.2376686"><ele>234.0</ele><time>2026-04-19T06:17:38.148Z</time></trkpt><trkpt lat="43.3852411" lon="11.2377317"><ele>235.66666666666669</ele><time>2026-04-19T06:17:40.132Z</time></trkpt><trkpt lat="43.3851952" lon="11.2377967"><ele>237.33333333333334</ele><time>2026-04-19T06:17:42.206Z</time></trkpt><trkpt lat="43.3851195" lon="11.2378597"><ele>239.0</ele><time>2026-04-19T06:17:45.137Z</time></trkpt><trkpt lat="43.385038" lon="11.2379006"><ele>239.00000000000003</ele><time>2026-04-19T06:17:48.213Z</time></trkpt><trkpt lat="43.38497" lon="11.2379353"><ele>239.0</ele><time>2026-04-19T06:17:51.136Z</time></trkpt><trkpt lat="43.3849115" lon="11.2379789"><ele>239.0</ele><time>2026-04-19T06:17:53.212Z</time></trkpt><trkpt lat="43.3848725" lon="11.2380496"><ele>239.0</ele><time>2026-04-19T06:17:55.134Z</time></trkpt><trkpt lat="43.3848088" lon="11.2381252"><ele>239.00000000000003</ele><time>2026-04-19T06:17:58.22Z</time></trkpt><trkpt lat="43.3847347" lon="11.2382045"><ele>239.0</ele><time>2026-04-19T06:18:01.162Z</time></trkpt><trkpt lat="43.3846756" lon="11.2382576"><ele>239.83333333333334</ele><time>2026-04-19T06:18:03.141Z</time></trkpt><trkpt lat="43.3846185" lon="11.2383007"><ele>240.66666666666669</ele><time>2026-04-19T06:18:05.133Z</time></trkpt><trkpt lat="43.3845439" lon="11.238368"><ele>241.5</ele><time>2026-04-19T06:18:08.149Z</time></trkpt><trkpt lat="43.3844685" lon="11.2384288"><ele>242.33333333333331</ele><time>2026-04-19T06:18:11.116Z</time></trkpt><trkpt lat="43.3844127" lon="11.2384952"><ele>243.16666666666666</ele><time>2026-04-19T06:18:14.15Z</time></trkpt><trkpt lat="43.3843353" lon="11.2385596"><ele>244.0</ele><time>2026-04-19T06:18:17.155Z</time></trkpt><trkpt lat="43.3842681" lon="11.2385626"><ele>243.99999999999997</ele><time>2026-04-19T06:18:19.141Z</time></trkpt><trkpt lat="43.3842033" lon="11.2386222"><ele>244.0</ele><time>2026-04-19T06:18:22.143Z</time></trkpt><trkpt lat="43.3841443" lon="11.2386766"><ele>244.0</ele><time>2026-04-19T06:18:25.148Z</time></trkpt><trkpt lat="43.3840733" lon="11.2387501"><ele>244.0</ele><time>2026-04-19T06:18:28.138Z</time></trkpt><trkpt lat="43.3839998" lon="11.2388246"><ele>243.99999999999997</ele><time>2026-04-19T06:18:31.124Z</time></trkpt><trkpt lat="43.3839377" lon="11.2389019"><ele>244.0</ele><time>2026-04-19T06:18:34.137Z</time></trkpt><trkpt lat="43.3838957" lon="11.2389673"><ele>243.33333333333331</ele><time>2026-04-19T06:18:36.139Z</time></trkpt><trkpt lat="43.3838291" lon="11.2390369"><ele>242.66666666666666</ele><time>2026-04-19T06:18:39.142Z</time></trkpt><trkpt lat="43.3837489" lon="11.2390925"><ele>242.0</ele><time>2026-04-19T06:18:42.147Z</time></trkpt><trkpt lat="43.3836761" lon="11.2391467"><ele>241.33333333333331</ele><time>2026-04-19T06:18:45.155Z</time></trkpt><trkpt lat="43.3836172" lon="11.2391928"><ele>240.66666666666666</ele><time>2026-04-19T06:18:47.221Z</time></trkpt><trkpt lat="43.3835405" lon="11.2392558"><ele>240.0</ele><time>2026-04-19T06:18:50.148Z</time></trkpt><trkpt lat="43.3834672" lon="11.2393205"><ele>240.0</ele><time>2026-04-19T06:18:53.206Z</time></trkpt><trkpt lat="43.3833927" lon="11.2393717"><ele>240.0</ele><time>2026-04-19T06:18:56.202Z</time></trkpt><trkpt lat="43.3833351" lon="11.2394235"><ele>240.0</ele><time>2026-04-19T06:18:59.126Z</time></trkpt><trkpt lat="43.3832094" lon="11.2395431"><ele>240.0</ele><time>2026-04-19T06:19:02.219Z</time></trkpt><trkpt lat="43.3831729" lon="11.2396298"><ele>240.0</ele><time>2026-04-19T06:19:06.139Z</time></trkpt><trkpt lat="43.3831018" lon="11.2397003"><ele>240.0</ele><time>2026-04-19T06:19:09.138Z</time></trkpt><trkpt lat="43.3830417" lon="11.2397672"><ele>240.0</ele><time>2026-04-19T06:19:12.151Z</time></trkpt><trkpt lat="43.3829775" lon="11.2398442"><ele>240.0</ele><time>2026-04-19T06:19:15.158Z</time></trkpt><trkpt lat="43.3829315" lon="11.2399364"><ele>240.0</ele><time>2026-04-19T06:19:18.138Z</time></trkpt><trkpt lat="43.3828892" lon="11.240051"><ele>240.0</ele><time>2026-04-19T06:19:21.149Z</time></trkpt><trkpt lat="43.3828363" lon="11.2401895"><ele>240.5</ele><time>2026-04-19T06:19:25.146Z</time></trkpt><trkpt lat="43.3827976" lon="11.2402965"><ele>241.0</ele><time>2026-04-19T06:19:28.224Z</time></trkpt><trkpt lat="43.3827529" lon="11.2404022"><ele>241.5</ele><time>2026-04-19T06:19:30.129Z</time></trkpt><trkpt lat="43.3827248" lon="11.2404997"><ele>242.0</ele><time>2026-04-19T06:19:32.124Z</time></trkpt><trkpt lat="43.3827001" lon="11.2405919"><ele>242.5</ele><time>2026-04-19T06:19:34.145Z</time></trkpt><trkpt lat="43.382671" lon="11.240689"><ele>243.0</ele><time>2026-04-19T06:19:36.129Z</time></trkpt><trkpt lat="43.3826422" lon="11.2407927"><ele>243.0</ele><time>2026-04-19T06:19:38.229Z</time></trkpt><trkpt lat="43.3826085" lon="11.2408905"><ele>243.0</ele><time>2026-04-19T06:19:40.135Z</time></trkpt><trkpt lat="43.3825718" lon="11.2409979"><ele>243.0</ele><time>2026-04-19T06:19:42.213Z</time></trkpt><trkpt lat="43.3825348" lon="11.2411086"><ele>243.0</ele><time>2026-04-19T06:19:44.126Z</time></trkpt><trkpt lat="43.382498" lon="11.2412179"><ele>243.0</ele><time>2026-04-19T06:19:46.152Z</time></trkpt><trkpt lat="43.3824592" lon="11.241334"><ele>243.0</ele><time>2026-04-19T06:19:48.148Z</time></trkpt><trkpt lat="43.3824167" lon="11.2414593"><ele>241.8</ele><time>2026-04-19T06:19:50.151Z</time></trkpt><trkpt lat="43.3823736" lon="11.2415876"><ele>240.60000000000002</ele><time>2026-04-19T06:19:52.139Z</time></trkpt><trkpt lat="43.3823211" lon="11.241723"><ele>239.39999999999998</ele><time>2026-04-19T06:19:54.154Z</time></trkpt><trkpt lat="43.3822692" lon="11.2418542"><ele>238.2</ele><time>2026-04-19T06:19:56.18Z</time></trkpt><trkpt lat="43.3822263" lon="11.2419914"><ele>237.0</ele><time>2026-04-19T06:19:58.215Z</time></trkpt><trkpt lat="43.3821885" lon="11.2421321"><ele>236.83333333333334</ele><time>2026-04-19T06:20:00.149Z</time></trkpt><trkpt lat="43.3821342" lon="11.2422747"><ele>236.66666666666669</ele><time>2026-04-19T06:20:02.211Z</time></trkpt><trkpt lat="43.382072" lon="11.2423999"><ele>236.5</ele><time>2026-04-19T06:20:04.126Z</time></trkpt><trkpt lat="43.3820438" lon="11.2424874"><ele>236.33333333333334</ele><time>2026-04-19T06:20:05.149Z</time></trkpt><trkpt lat="43.3820319" lon="11.2425782"><ele>236.16666666666669</ele><time>2026-04-19T06:20:06.144Z</time></trkpt><trkpt lat="43.3820151" lon="11.2426672"><ele>236.0</ele><time>2026-04-19T06:20:07.202Z</time></trkpt><trkpt lat="43.3819725" lon="11.242807"><ele>236.4</ele><time>2026-04-19T06:20:09.136Z</time></trkpt><trkpt lat="43.381942" lon="11.242938"><ele>236.8</ele><time>2026-04-19T06:20:11.207Z</time></trkpt><trkpt lat="43.3819096" lon="11.2430286"><ele>237.20000000000002</ele><time>2026-04-19T06:20:13.128Z</time></trkpt><trkpt lat="43.3819329" lon="11.2431627"><ele>237.60000000000002</ele><time>2026-04-19T06:20:15.14Z</time></trkpt><trkpt lat="43.3819699" lon="11.2433015"><ele>238.0</ele><time>2026-04-19T06:20:17.142Z</time></trkpt><trkpt lat="43.3820141" lon="11.2434122"><ele>238.0</ele><time>2026-04-19T06:20:19.157Z</time></trkpt><trkpt lat="43.3820537" lon="11.2435162"><ele>238.0</ele><time>2026-04-19T06:20:21.139Z</time></trkpt><trkpt lat="43.3821029" lon="11.2436165"><ele>238.0</ele><time>2026-04-19T06:20:23.145Z</time></trkpt><trkpt lat="43.3821622" lon="11.2437134"><ele>238.0</ele><time>2026-04-19T06:20:25.144Z</time></trkpt><trkpt lat="43.3822162" lon="11.2438137"><ele>238.0</ele><time>2026-04-19T06:20:27.137Z</time></trkpt><trkpt lat="43.3822736" lon="11.243917"><ele>238.2</ele><time>2026-04-19T06:20:29.155Z</time></trkpt><trkpt lat="43.3823211" lon="11.2440327"><ele>238.4</ele><time>2026-04-19T06:20:31.143Z</time></trkpt><trkpt lat="43.382353" lon="11.24417"><ele>238.59999999999997</ele><time>2026-04-19T06:20:33.136Z</time></trkpt><trkpt lat="43.382375" lon="11.2443224"><ele>238.79999999999998</ele><time>2026-04-19T06:20:35.158Z</time></trkpt><trkpt lat="43.3823722" lon="11.2444805"><ele>239.0</ele><time>2026-04-19T06:20:37.142Z</time></trkpt><trkpt lat="43.3823557" lon="11.2446134"><ele>239.00000000000003</ele><time>2026-04-19T06:20:39.138Z</time></trkpt><trkpt lat="43.3823016" lon="11.24471"><ele>239.0</ele><time>2026-04-19T06:20:41.199Z</time></trkpt><trkpt lat="43.3822468" lon="11.2448464"><ele>239.0</ele><time>2026-04-19T06:20:43.209Z</time></trkpt><trkpt lat="43.382209" lon="11.2449173"><ele>239.0</ele><time>2026-04-19T06:20:44.164Z</time></trkpt><trkpt lat="43.3821688" lon="11.2449917"><ele>239.00000000000003</ele><time>2026-04-19T06:20:45.141Z</time></trkpt><trkpt lat="43.3821116" lon="11.2450509"><ele>239.0</ele><time>2026-04-19T06:20:46.142Z</time></trkpt><trkpt lat="43.3820542" lon="11.2450933"><ele>239.33333333333334</ele><time>2026-04-19T06:20:47.138Z</time></trkpt><trkpt lat="43.381944" lon="11.2451688"><ele>239.66666666666669</ele><time>2026-04-19T06:20:49.123Z</time></trkpt><trkpt lat="43.3818816" lon="11.2452001"><ele>240.0</ele><time>2026-04-19T06:20:50.134Z</time></trkpt><trkpt lat="43.3818137" lon="11.2452172"><ele>240.33333333333331</ele><time>2026-04-19T06:20:51.137Z</time></trkpt><trkpt lat="43.3817473" lon="11.2452465"><ele>240.66666666666666</ele><time>2026-04-19T06:20:52.193Z</time></trkpt><trkpt lat="43.3816807" lon="11.245264"><ele>241.0</ele><time>2026-04-19T06:20:53.208Z</time></trkpt><trkpt lat="43.3816149" lon="11.245284"><ele>241.0</ele><time>2026-04-19T06:20:54.137Z</time></trkpt><trkpt lat="43.3815495" lon="11.2453042"><ele>241.00000000000003</ele><time>2026-04-19T06:20:55.147Z</time></trkpt><trkpt lat="43.3814405" lon="11.2453616"><ele>241.00000000000003</ele><time>2026-04-19T06:20:57.127Z</time></trkpt><trkpt lat="43.3813325" lon="11.2454408"><ele>241.0</ele><time>2026-04-19T06:20:59.135Z</time></trkpt><trkpt lat="43.3812773" lon="11.2454862"><ele>241.0</ele><time>2026-04-19T06:21:00.124Z</time></trkpt><trkpt lat="43.3811725" lon="11.2455663"><ele>240.71428571428572</ele><time>2026-04-19T06:21:02.152Z</time></trkpt><trkpt lat="43.3811178" lon="11.2456113"><ele>240.42857142857144</ele><time>2026-04-19T06:21:03.142Z</time></trkpt><trkpt lat="43.3810635" lon="11.2456687"><ele>240.14285714285717</ele><time>2026-04-19T06:21:04.142Z</time></trkpt><trkpt lat="43.3810096" lon="11.2457244"><ele>239.8571428571429</ele><time>2026-04-19T06:21:05.153Z</time></trkpt><trkpt lat="43.3809535" lon="11.2457796"><ele>239.57142857142858</ele><time>2026-04-19T06:21:06.14Z</time></trkpt><trkpt lat="43.3808972" lon="11.2458323"><ele>239.28571428571433</ele><time>2026-04-19T06:21:07.117Z</time></trkpt><trkpt lat="43.3808386" lon="11.2458842"><ele>239.00000000000003</ele><time>2026-04-19T06:21:08.187Z</time></trkpt><trkpt lat="43.3807782" lon="11.2459284"><ele>239.00000000000003</ele><time>2026-04-19T06:21:09.136Z</time></trkpt><trkpt lat="43.3807138" lon="11.2459751"><ele>239.0</ele><time>2026-04-19T06:21:10.142Z</time></trkpt><trkpt lat="43.380646" lon="11.2460131"><ele>239.00000000000003</ele><time>2026-04-19T06:21:11.139Z</time></trkpt><trkpt lat="43.3805816" lon="11.2460401"><ele>239.00000000000003</ele><time>2026-04-19T06:21:12.193Z</time></trkpt><trkpt lat="43.3805152" lon="11.2460692"><ele>239.0</ele><time>2026-04-19T06:21:13.209Z</time></trkpt><trkpt lat="43.3804447" lon="11.2460996"><ele>239.00000000000003</ele><time>2026-04-19T06:21:14.146Z</time></trkpt><trkpt lat="43.3803787" lon="11.246132"><ele>239.00000000000003</ele><time>2026-04-19T06:21:15.139Z</time></trkpt><trkpt lat="43.3803125" lon="11.2461527"><ele>240.39999999999998</ele><time>2026-04-19T06:21:16.119Z</time></trkpt><trkpt lat="43.3802441" lon="11.2461683"><ele>241.79999999999998</ele><time>2026-04-19T06:21:17.212Z</time></trkpt><trkpt lat="43.3801262" lon="11.2461756"><ele>243.20000000000002</ele><time>2026-04-19T06:21:19.12Z</time></trkpt><trkpt lat="43.3800207" lon="11.246149"><ele>244.60000000000002</ele><time>2026-04-19T06:21:21.201Z</time></trkpt><trkpt lat="43.3799267" lon="11.2461113"><ele>246.0</ele><time>2026-04-19T06:21:23.221Z</time></trkpt><trkpt lat="43.3798142" lon="11.246113"><ele>246.0</ele><time>2026-04-19T06:21:25.14Z</time></trkpt><trkpt lat="43.3796909" lon="11.2461447"><ele>246.00000000000003</ele><time>2026-04-19T06:21:27.213Z</time></trkpt><trkpt lat="43.3796275" lon="11.2461767"><ele>246.00000000000003</ele><time>2026-04-19T06:21:28.206Z</time></trkpt><trkpt lat="43.3795665" lon="11.2462066"><ele>246.0</ele><time>2026-04-19T06:21:29.119Z</time></trkpt><trkpt lat="43.379452" lon="11.2462718"><ele>246.0</ele><time>2026-04-19T06:21:31.212Z</time></trkpt><trkpt lat="43.3793476" lon="11.2463435"><ele>246.4</ele><time>2026-04-19T06:21:33.2Z</time></trkpt><trkpt lat="43.3792514" lon="11.2464238"><ele>246.8</ele><time>2026-04-19T06:21:35.142Z</time></trkpt><trkpt lat="43.3791622" lon="11.2465137"><ele>247.20000000000002</ele><time>2026-04-19T06:21:37.149Z</time></trkpt><trkpt lat="43.3790786" lon="11.2465955"><ele>247.60000000000002</ele><time>2026-04-19T06:21:39.151Z</time></trkpt><trkpt lat="43.3789921" lon="11.2466853"><ele>248.0</ele><time>2026-04-19T06:21:41.153Z</time></trkpt><trkpt lat="43.3789113" lon="11.2467772"><ele>250.4</ele><time>2026-04-19T06:21:43.141Z</time></trkpt><trkpt lat="43.378833" lon="11.2468699"><ele>252.8</ele><time>2026-04-19T06:21:45.131Z</time></trkpt><trkpt lat="43.378758" lon="11.246956"><ele>255.2</ele><time>2026-04-19T06:21:47.211Z</time></trkpt><trkpt lat="43.378674" lon="11.2470377"><ele>257.6</ele><time>2026-04-19T06:21:49.116Z</time></trkpt><trkpt lat="43.3786147" lon="11.2471196"><ele>260.0</ele><time>2026-04-19T06:21:51.206Z</time></trkpt><trkpt lat="43.3785496" lon="11.2472096"><ele>257.83333333333337</ele><time>2026-04-19T06:21:53.205Z</time></trkpt><trkpt lat="43.3784911" lon="11.247309"><ele>255.66666666666669</ele><time>2026-04-19T06:21:55.131Z</time></trkpt><trkpt lat="43.3784377" lon="11.2474158"><ele>253.5</ele><time>2026-04-19T06:21:57.206Z</time></trkpt><trkpt lat="43.3783919" lon="11.2475033"><ele>251.33333333333331</ele><time>2026-04-19T06:21:59.149Z</time></trkpt><trkpt lat="43.3783404" lon="11.2476004"><ele>249.16666666666666</ele><time>2026-04-19T06:22:01.196Z</time></trkpt><trkpt lat="43.3782973" lon="11.2476927"><ele>247.0</ele><time>2026-04-19T06:22:03.207Z</time></trkpt><trkpt lat="43.3782477" lon="11.2477745"><ele>246.99999999999997</ele><time>2026-04-19T06:22:05.144Z</time></trkpt><trkpt lat="43.3781855" lon="11.247871"><ele>247.0</ele><time>2026-04-19T06:22:07.218Z</time></trkpt><trkpt lat="43.378138" lon="11.2479806"><ele>247.0</ele><time>2026-04-19T06:22:09.145Z</time></trkpt><trkpt lat="43.3780768" lon="11.2480751"><ele>247.0</ele><time>2026-04-19T06:22:11.136Z</time></trkpt><trkpt lat="43.3780299" lon="11.2481663"><ele>246.99999999999997</ele><time>2026-04-19T06:22:13.139Z</time></trkpt><trkpt lat="43.3779842" lon="11.2482628"><ele>247.0</ele><time>2026-04-19T06:22:15.127Z</time></trkpt><trkpt lat="43.3779422" lon="11.2483659"><ele>248.16666666666666</ele><time>2026-04-19T06:22:17.137Z</time></trkpt><trkpt lat="43.3778919" lon="11.2484603"><ele>249.33333333333331</ele><time>2026-04-19T06:22:19.13Z</time></trkpt><trkpt lat="43.3778412" lon="11.248543"><ele>250.5</ele><time>2026-04-19T06:22:21.128Z</time></trkpt><trkpt lat="43.3777779" lon="11.2486219"><ele>251.66666666666669</ele><time>2026-04-19T06:22:23.208Z</time></trkpt><trkpt lat="43.3777009" lon="11.2486864"><ele>252.83333333333334</ele><time>2026-04-19T06:22:25.148Z</time></trkpt><trkpt lat="43.3776404" lon="11.2487694"><ele>254.0</ele><time>2026-04-19T06:22:27.212Z</time></trkpt><trkpt lat="43.3775678" lon="11.2488325"><ele>254.00000000000003</ele><time>2026-04-19T06:22:30.131Z</time></trkpt><trkpt lat="43.3774857" lon="11.2488877"><ele>254.0</ele><time>2026-04-19T06:22:33.207Z</time></trkpt><trkpt lat="43.3774145" lon="11.2489193"><ele>254.0</ele><time>2026-04-19T06:22:36.204Z</time></trkpt><trkpt lat="43.3773426" lon="11.2489413"><ele>254.0</ele><time>2026-04-19T06:22:39.117Z</time></trkpt><trkpt lat="43.3772776" lon="11.2489551"><ele>254.00000000000003</ele><time>2026-04-19T06:22:41.198Z</time></trkpt><trkpt lat="43.377202" lon="11.2489596"><ele>254.0</ele><time>2026-04-19T06:22:44.127Z</time></trkpt><trkpt lat="43.3771249" lon="11.2489772"><ele>254.00000000000003</ele><time>2026-04-19T06:22:47.139Z</time></trkpt><trkpt lat="43.3770388" lon="11.2490011"><ele>254.0</ele><time>2026-04-19T06:22:50.136Z</time></trkpt><trkpt lat="43.3769654" lon="11.2490318"><ele>254.0</ele><time>2026-04-19T06:22:52.136Z</time></trkpt><trkpt lat="43.376894" lon="11.2490628"><ele>254.0</ele><time>2026-04-19T06:22:54.135Z</time></trkpt><trkpt lat="43.3768285" lon="11.249117"><ele>254.00000000000003</ele><time>2026-04-19T06:22:56.143Z</time></trkpt><trkpt lat="43.3767505" lon="11.249193"><ele>254.0</ele><time>2026-04-19T06:22:58.157Z</time></trkpt><trkpt lat="43.3766648" lon="11.24926"><ele>254.00000000000003</ele><time>2026-04-19T06:23:00.139Z</time></trkpt><trkpt lat="43.3766072" lon="11.2493379"><ele>254.0</ele><time>2026-04-19T06:23:02.204Z</time></trkpt><trkpt lat="43.3765583" lon="11.2494169"><ele>254.0</ele><time>2026-04-19T06:23:04.12Z</time></trkpt><trkpt lat="43.3765242" lon="11.2494999"><ele>254.0</ele><time>2026-04-19T06:23:06.214Z</time></trkpt><trkpt lat="43.3764551" lon="11.2495857"><ele>254.00000000000003</ele><time>2026-04-19T06:23:09.127Z</time></trkpt><trkpt lat="43.3764102" lon="11.2496594"><ele>254.0</ele><time>2026-04-19T06:23:11.204Z</time></trkpt><trkpt lat="43.376366" lon="11.2497305"><ele>257.1666666666667</ele><time>2026-04-19T06:23:14.141Z</time></trkpt><trkpt lat="43.3763226" lon="11.2498398"><ele>260.33333333333337</ele><time>2026-04-19T06:23:17.212Z</time></trkpt><trkpt lat="43.3762917" lon="11.2499278"><ele>263.5</ele><time>2026-04-19T06:23:19.127Z</time></trkpt><trkpt lat="43.3762584" lon="11.2500227"><ele>266.6666666666667</ele><time>2026-04-19T06:23:21.196Z</time></trkpt><trkpt lat="43.3761993" lon="11.2500776"><ele>269.8333333333333</ele><time>2026-04-19T06:23:23.158Z</time></trkpt><trkpt lat="43.3761449" lon="11.2501493"><ele>273.0</ele><time>2026-04-19T06:23:25.141Z</time></trkpt><trkpt lat="43.3761029" lon="11.2502507"><ele>273.0</ele><time>2026-04-19T06:23:27.139Z</time></trkpt><trkpt lat="43.3760767" lon="11.2503411"><ele>273.0</ele><time>2026-04-19T06:23:29.139Z</time></trkpt><trkpt lat="43.3760435" lon="11.2504218"><ele>273.0</ele><time>2026-04-19T06:23:31.137Z</time></trkpt><trkpt lat="43.3760125" lon="11.2505055"><ele>273.0</ele><time>2026-04-19T06:23:33.146Z</time></trkpt><trkpt lat="43.3759872" lon="11.2505861"><ele>273.0</ele><time>2026-04-19T06:23:35.143Z</time></trkpt><trkpt lat="43.3759618" lon="11.2506712"><ele>273.0</ele><time>2026-04-19T06:23:37.199Z</time></trkpt><trkpt lat="43.3759331" lon="11.2507555"><ele>273.0</ele><time>2026-04-19T06:23:40.129Z</time></trkpt><trkpt lat="43.3759164" lon="11.2508473"><ele>271.6666666666667</ele><time>2026-04-19T06:23:42.196Z</time></trkpt><trkpt lat="43.3759022" lon="11.2509353"><ele>270.3333333333333</ele><time>2026-04-19T06:23:44.117Z</time></trkpt><trkpt lat="43.3758662" lon="11.2510429"><ele>269.0</ele><time>2026-04-19T06:23:47.21Z</time></trkpt><trkpt lat="43.3758484" lon="11.2511544"><ele>267.66666666666663</ele><time>2026-04-19T06:23:50.129Z</time></trkpt><trkpt lat="43.3758332" lon="11.2512725"><ele>266.3333333333333</ele><time>2026-04-19T06:23:53.201Z</time></trkpt><trkpt lat="43.3758277" lon="11.25138"><ele>265.0</ele><time>2026-04-19T06:23:56.199Z</time></trkpt><trkpt lat="43.3758417" lon="11.2514768"><ele>264.3333333333333</ele><time>2026-04-19T06:23:58.121Z</time></trkpt><trkpt lat="43.3758463" lon="11.2515642"><ele>263.66666666666663</ele><time>2026-04-19T06:24:00.137Z</time></trkpt><trkpt lat="43.3758343" lon="11.2516807"><ele>263.0</ele><time>2026-04-19T06:24:03.135Z</time></trkpt><trkpt lat="43.3758198" lon="11.2517969"><ele>262.3333333333333</ele><time>2026-04-19T06:24:06.109Z</time></trkpt><trkpt lat="43.3758053" lon="11.251904"><ele>261.6666666666667</ele><time>2026-04-19T06:24:09.128Z</time></trkpt><trkpt lat="43.3757851" lon="11.2520192"><ele>261.0</ele><time>2026-04-19T06:24:12.193Z</time></trkpt><trkpt lat="43.3757398" lon="11.252085"><ele>261.0</ele><time>2026-04-19T06:24:15.143Z</time></trkpt><trkpt lat="43.3757072" lon="11.2521682"><ele>261.0</ele><time>2026-04-19T06:24:18.194Z</time></trkpt><trkpt lat="43.3757048" lon="11.2522666"><ele>261.0</ele><time>2026-04-19T06:24:22.202Z</time></trkpt><trkpt lat="43.375681" lon="11.2523653"><ele>261.0</ele><time>2026-04-19T06:24:25.137Z</time></trkpt><trkpt lat="43.375655" lon="11.2524468"><ele>261.0</ele><time>2026-04-19T06:24:29.136Z</time></trkpt><trkpt lat="43.3756161" lon="11.2525385"><ele>261.0</ele><time>2026-04-19T06:24:33.141Z</time></trkpt><trkpt lat="43.3755655" lon="11.2526151"><ele>261.0</ele><time>2026-04-19T06:24:36.136Z</time></trkpt><trkpt lat="43.3755303" lon="11.252689"><ele>264.6666666666667</ele><time>2026-04-19T06:24:39.142Z</time></trkpt><trkpt lat="43.3754893" lon="11.2527558"><ele>268.3333333333333</ele><time>2026-04-19T06:24:42.131Z</time></trkpt><trkpt lat="43.3754552" lon="11.2528307"><ele>272.0</ele><time>2026-04-19T06:24:45.129Z</time></trkpt><trkpt lat="43.375392" lon="11.2529105"><ele>275.66666666666663</ele><time>2026-04-19T06:24:49.124Z</time></trkpt><trkpt lat="43.3753305" lon="11.2529871"><ele>279.3333333333333</ele><time>2026-04-19T06:24:52.109Z</time></trkpt><trkpt lat="43.3752833" lon="11.2530646"><ele>283.0</ele><time>2026-04-19T06:24:55.15Z</time></trkpt><trkpt lat="43.3752009" lon="11.2531019"><ele>280.8571428571429</ele><time>2026-04-19T06:24:58.132Z</time></trkpt><trkpt lat="43.3751461" lon="11.2531526"><ele>278.7142857142857</ele><time>2026-04-19T06:25:01.196Z</time></trkpt><trkpt lat="43.3750824" lon="11.2532073"><ele>276.57142857142856</ele><time>2026-04-19T06:25:04.11Z</time></trkpt><trkpt lat="43.3750171" lon="11.253261"><ele>274.42857142857144</ele><time>2026-04-19T06:25:07.208Z</time></trkpt><trkpt lat="43.3749724" lon="11.2533554"><ele>272.2857142857143</ele><time>2026-04-19T06:25:12.147Z</time></trkpt><trkpt lat="43.3749126" lon="11.2533943"><ele>270.14285714285717</ele><time>2026-04-19T06:25:15.135Z</time></trkpt><trkpt lat="43.3748476" lon="11.253425"><ele>268.0</ele><time>2026-04-19T06:25:18.204Z</time></trkpt><trkpt lat="43.3747861" lon="11.253468"><ele>268.0</ele><time>2026-04-19T06:25:21.136Z</time></trkpt><trkpt lat="43.3747221" lon="11.2535176"><ele>268.0</ele><time>2026-04-19T06:25:24.111Z</time></trkpt><trkpt lat="43.3746653" lon="11.2535612"><ele>268.0</ele><time>2026-04-19T06:25:27.2Z</time></trkpt><trkpt lat="43.3746178" lon="11.2536206"><ele>268.0</ele><time>2026-04-19T06:25:29.114Z</time></trkpt><trkpt lat="43.3745541" lon="11.2536841"><ele>268.0</ele><time>2026-04-19T06:25:32.205Z</time></trkpt><trkpt lat="43.3744889" lon="11.253774"><ele>268.0</ele><time>2026-04-19T06:25:35.137Z</time></trkpt><trkpt lat="43.3744378" lon="11.253857"><ele>267.8333333333333</ele><time>2026-04-19T06:25:38.126Z</time></trkpt><trkpt lat="43.3743743" lon="11.2539323"><ele>267.66666666666663</ele><time>2026-04-19T06:25:41.124Z</time></trkpt><trkpt lat="43.3743272" lon="11.2539987"><ele>267.5</ele><time>2026-04-19T06:25:43.137Z</time></trkpt><trkpt lat="43.3742628" lon="11.2540798"><ele>267.3333333333333</ele><time>2026-04-19T06:25:46.132Z</time></trkpt><trkpt lat="43.3742021" lon="11.2541573"><ele>267.1666666666667</ele><time>2026-04-19T06:25:49.136Z</time></trkpt><trkpt lat="43.3741395" lon="11.2542345"><ele>267.0</ele><time>2026-04-19T06:25:52.132Z</time></trkpt><trkpt lat="43.374067" lon="11.2543197"><ele>267.0</ele><time>2026-04-19T06:25:55.139Z</time></trkpt><trkpt lat="43.3739977" lon="11.254411"><ele>267.0</ele><time>2026-04-19T06:25:58.14Z</time></trkpt><trkpt lat="43.3739451" lon="11.2544761"><ele>267.0</ele><time>2026-04-19T06:26:00.153Z</time></trkpt><trkpt lat="43.373893" lon="11.2545387"><ele>267.0</ele><time>2026-04-19T06:26:02.197Z</time></trkpt><trkpt lat="43.3738247" lon="11.2545981"><ele>267.0</ele><time>2026-04-19T06:26:05.133Z</time></trkpt><trkpt lat="43.3737619" lon="11.2546973"><ele>267.0</ele><time>2026-04-19T06:26:07.209Z</time></trkpt><trkpt lat="43.3737048" lon="11.2547736"><ele>266.8333333333333</ele><time>2026-04-19T06:26:09.126Z</time></trkpt><trkpt lat="43.3736482" lon="11.25485"><ele>266.6666666666667</ele><time>2026-04-19T06:26:11.198Z</time></trkpt><trkpt lat="43.3735901" lon="11.254913"><ele>266.5</ele><time>2026-04-19T06:26:13.203Z</time></trkpt><trkpt lat="43.3735213" lon="11.2549984"><ele>266.33333333333337</ele><time>2026-04-19T06:26:16.144Z</time></trkpt><trkpt lat="43.3734556" lon="11.2550354"><ele>266.1666666666667</ele><time>2026-04-19T06:26:18.199Z</time></trkpt><trkpt lat="43.3734" lon="11.2550793"><ele>266.0</ele><time>2026-04-19T06:26:20.155Z</time></trkpt><trkpt lat="43.3733165" lon="11.2551327"><ele>266.0</ele><time>2026-04-19T06:26:23.143Z</time></trkpt><trkpt lat="43.3732355" lon="11.2551519"><ele>266.0</ele><time>2026-04-19T06:26:26.144Z</time></trkpt><trkpt lat="43.3731716" lon="11.2551653"><ele>266.0</ele><time>2026-04-19T06:26:28.14Z</time></trkpt><trkpt lat="43.3730843" lon="11.2551669"><ele>266.0</ele><time>2026-04-19T06:26:31.131Z</time></trkpt><trkpt lat="43.3730052" lon="11.2551565"><ele>266.0</ele><time>2026-04-19T06:26:34.137Z</time></trkpt><trkpt lat="43.3729316" lon="11.2551425"><ele>266.0</ele><time>2026-04-19T06:26:37.135Z</time></trkpt><trkpt lat="43.3728506" lon="11.2551161"><ele>266.42857142857144</ele><time>2026-04-19T06:26:40.124Z</time></trkpt><trkpt lat="43.3727769" lon="11.2550652"><ele>266.8571428571429</ele><time>2026-04-19T06:26:43.208Z</time></trkpt><trkpt lat="43.3727141" lon="11.2550057"><ele>267.2857142857143</ele><time>2026-04-19T06:26:46.225Z</time></trkpt><trkpt lat="43.3726425" lon="11.2549956"><ele>267.7142857142857</ele><time>2026-04-19T06:26:48.199Z</time></trkpt><trkpt lat="43.3725803" lon="11.2549769"><ele>268.14285714285717</ele><time>2026-04-19T06:26:50.133Z</time></trkpt><trkpt lat="43.3725072" lon="11.2549603"><ele>268.57142857142856</ele><time>2026-04-19T06:26:53.214Z</time></trkpt><trkpt lat="43.3724342" lon="11.2549519"><ele>269.0</ele><time>2026-04-19T06:26:56.205Z</time></trkpt><trkpt lat="43.3723697" lon="11.2549524"><ele>269.0</ele><time>2026-04-19T06:26:58.129Z</time></trkpt><trkpt lat="43.3722861" lon="11.2549377"><ele>269.0</ele><time>2026-04-19T06:27:01.129Z</time></trkpt><trkpt lat="43.3721984" lon="11.2549274"><ele>269.0</ele><time>2026-04-19T06:27:04.134Z</time></trkpt><trkpt lat="43.3721093" lon="11.254913"><ele>269.0</ele><time>2026-04-19T06:27:07.13Z</time></trkpt><trkpt lat="43.3720255" lon="11.2549063"><ele>269.0</ele><time>2026-04-19T06:27:10.132Z</time></trkpt><trkpt lat="43.371938" lon="11.2549044"><ele>269.0</ele><time>2026-04-19T06:27:13.201Z</time></trkpt><trkpt lat="43.3718534" lon="11.2548976"><ele>269.33333333333337</ele><time>2026-04-19T06:27:16.197Z</time></trkpt><trkpt lat="43.3717881" lon="11.2548981"><ele>269.6666666666667</ele><time>2026-04-19T06:27:18.212Z</time></trkpt><trkpt lat="43.3717078" lon="11.2549045"><ele>270.0</ele><time>2026-04-19T06:27:20.132Z</time></trkpt><trkpt lat="43.3716211" lon="11.2548768"><ele>270.3333333333333</ele><time>2026-04-19T06:27:24.128Z</time></trkpt><trkpt lat="43.3715412" lon="11.2548737"><ele>270.66666666666663</ele><time>2026-04-19T06:27:27.206Z</time></trkpt><trkpt lat="43.3714757" lon="11.2548981"><ele>271.0</ele><time>2026-04-19T06:27:29.131Z</time></trkpt><trkpt lat="43.3713957" lon="11.2548905"><ele>272.3333333333333</ele><time>2026-04-19T06:27:32.202Z</time></trkpt><trkpt lat="43.371308" lon="11.2548137"><ele>273.66666666666663</ele><time>2026-04-19T06:27:34.128Z</time></trkpt><trkpt lat="43.3712352" lon="11.2548368"><ele>275.0</ele><time>2026-04-19T06:27:38.131Z</time></trkpt><trkpt lat="43.3711699" lon="11.2548311"><ele>276.3333333333333</ele><time>2026-04-19T06:27:41.134Z</time></trkpt><trkpt lat="43.3710968" lon="11.254818"><ele>277.6666666666667</ele><time>2026-04-19T06:27:44.128Z</time></trkpt><trkpt lat="43.3710155" lon="11.2548176"><ele>279.0</ele><time>2026-04-19T06:27:47.138Z</time></trkpt><trkpt lat="43.3709372" lon="11.2548059"><ele>279.0</ele><time>2026-04-19T06:27:50.13Z</time></trkpt><trkpt lat="43.3708484" lon="11.2548064"><ele>279.0</ele><time>2026-04-19T06:27:53.144Z</time></trkpt><trkpt lat="43.3707685" lon="11.2547976"><ele>279.0</ele><time>2026-04-19T06:27:56.14Z</time></trkpt><trkpt lat="43.3706846" lon="11.2547909"><ele>279.0</ele><time>2026-04-19T06:27:59.135Z</time></trkpt><trkpt lat="43.3706028" lon="11.2547773"><ele>279.0</ele><time>2026-04-19T06:28:02.137Z</time></trkpt><trkpt lat="43.3705188" lon="11.2547608"><ele>279.0</ele><time>2026-04-19T06:28:05.141Z</time></trkpt><trkpt lat="43.3704287" lon="11.2547537"><ele>278.0</ele><time>2026-04-19T06:28:08.128Z</time></trkpt><trkpt lat="43.3703418" lon="11.2547427"><ele>277.0</ele><time>2026-04-19T06:28:11.129Z</time></trkpt><trkpt lat="43.3702477" lon="11.2547281"><ele>276.0</ele><time>2026-04-19T06:28:14.117Z</time></trkpt><trkpt lat="43.3701615" lon="11.2547047"><ele>275.0</ele><time>2026-04-19T06:28:17.13Z</time></trkpt><trkpt lat="43.3700711" lon="11.2546815"><ele>274.0</ele><time>2026-04-19T06:28:20.13Z</time></trkpt><trkpt lat="43.3699811" lon="11.254649"><ele>274.0</ele><time>2026-04-19T06:28:23.143Z</time></trkpt><trkpt lat="43.3699202" lon="11.2546263"><ele>274.0</ele><time>2026-04-19T06:28:25.137Z</time></trkpt><trkpt lat="43.3698402" lon="11.2545849"><ele>274.0</ele><time>2026-04-19T06:28:28.134Z</time></trkpt><trkpt lat="43.3697576" lon="11.254549"><ele>274.0</ele><time>2026-04-19T06:28:31.149Z</time></trkpt><trkpt lat="43.3696758" lon="11.2545157"><ele>274.0</ele><time>2026-04-19T06:28:34.139Z</time></trkpt><trkpt lat="43.3696055" lon="11.2544845"><ele>274.0</ele><time>2026-04-19T06:28:37.131Z</time></trkpt><trkpt lat="43.3695274" lon="11.2544445"><ele>275.8333333333333</ele><time>2026-04-19T06:28:40.123Z</time></trkpt><trkpt lat="43.3694535" lon="11.2543964"><ele>277.66666666666663</ele><time>2026-04-19T06:28:43.135Z</time></trkpt><trkpt lat="43.3693697" lon="11.2543513"><ele>279.5</ele><time>2026-04-19T06:28:46.195Z</time></trkpt><trkpt lat="43.3692849" lon="11.2543048"><ele>281.3333333333333</ele><time>2026-04-19T06:28:49.133Z</time></trkpt><trkpt lat="43.369224" lon="11.2542767"><ele>283.1666666666667</ele><time>2026-04-19T06:28:51.126Z</time></trkpt><trkpt lat="43.369138" lon="11.2542436"><ele>285.0</ele><time>2026-04-19T06:28:54.151Z</time></trkpt><trkpt lat="43.3690541" lon="11.2542183"><ele>285.0</ele><time>2026-04-19T06:28:57.134Z</time></trkpt><trkpt lat="43.3689627" lon="11.2541944"><ele>285.0</ele><time>2026-04-19T06:29:00.129Z</time></trkpt><trkpt lat="43.3688994" lon="11.254185"><ele>285.0</ele><time>2026-04-19T06:29:02.135Z</time></trkpt><trkpt lat="43.3688369" lon="11.254198"><ele>285.0</ele><time>2026-04-19T06:29:04.124Z</time></trkpt><trkpt lat="43.3687644" lon="11.2542058"><ele>285.0</ele><time>2026-04-19T06:29:06.206Z</time></trkpt><trkpt lat="43.3686951" lon="11.2541736"><ele>285.0</ele><time>2026-04-19T06:29:08.193Z</time></trkpt><trkpt lat="43.3686126" lon="11.2541844"><ele>285.0</ele><time>2026-04-19T06:29:11.14Z</time></trkpt><trkpt lat="43.368545" lon="11.2542048"><ele>285.5</ele><time>2026-04-19T06:29:14.142Z</time></trkpt><trkpt lat="43.3684684" lon="11.2541996"><ele>286.0</ele><time>2026-04-19T06:29:17.208Z</time></trkpt><trkpt lat="43.3683822" lon="11.2542131"><ele>286.5</ele><time>2026-04-19T06:29:20.131Z</time></trkpt><trkpt lat="43.3683064" lon="11.2542324"><ele>287.0</ele><time>2026-04-19T06:29:22.144Z</time></trkpt><trkpt lat="43.3682182" lon="11.2542316"><ele>287.5</ele><time>2026-04-19T06:29:25.132Z</time></trkpt><trkpt lat="43.3681344" lon="11.2542355"><ele>288.0</ele><time>2026-04-19T06:29:28.127Z</time></trkpt><trkpt lat="43.3680551" lon="11.2542361"><ele>288.1666666666667</ele><time>2026-04-19T06:29:31.142Z</time></trkpt><trkpt lat="43.3679921" lon="11.2542424"><ele>288.3333333333333</ele><time>2026-04-19T06:29:33.142Z</time></trkpt><trkpt lat="43.3679285" lon="11.2542497"><ele>288.5</ele><time>2026-04-19T06:29:35.135Z</time></trkpt><trkpt lat="43.3678274" lon="11.254264"><ele>288.66666666666663</ele><time>2026-04-19T06:29:38.208Z</time></trkpt><trkpt lat="43.3677604" lon="11.2542924"><ele>288.8333333333333</ele><time>2026-04-19T06:29:41.213Z</time></trkpt><trkpt lat="43.3676609" lon="11.2543127"><ele>289.0</ele><time>2026-04-19T06:29:44.125Z</time></trkpt><trkpt lat="43.367575" lon="11.2542936"><ele>289.0</ele><time>2026-04-19T06:29:46.21Z</time></trkpt><trkpt lat="43.3674854" lon="11.2542852"><ele>289.0</ele><time>2026-04-19T06:29:49.136Z</time></trkpt><trkpt lat="43.3674107" lon="11.2542807"><ele>289.0</ele><time>2026-04-19T06:29:52.198Z</time></trkpt><trkpt lat="43.3673367" lon="11.2542765"><ele>289.0</ele><time>2026-04-19T06:29:55.118Z</time></trkpt><trkpt lat="43.3672588" lon="11.2542676"><ele>289.0</ele><time>2026-04-19T06:29:58.133Z</time></trkpt><trkpt lat="43.3671828" lon="11.2542505"><ele>289.0</ele><time>2026-04-19T06:30:01.131Z</time></trkpt><trkpt lat="43.3670913" lon="11.25425"><ele>289.3333333333333</ele><time>2026-04-19T06:30:04.131Z</time></trkpt><trkpt lat="43.36701" lon="11.2542416"><ele>289.66666666666663</ele><time>2026-04-19T06:30:07.13Z</time></trkpt><trkpt lat="43.3669316" lon="11.2542269"><ele>290.0</ele><time>2026-04-19T06:30:10.138Z</time></trkpt><trkpt lat="43.3668392" lon="11.2542163"><ele>290.3333333333333</ele><time>2026-04-19T06:30:13.212Z</time></trkpt><trkpt lat="43.3667754" lon="11.2542124"><ele>290.6666666666667</ele><time>2026-04-19T06:30:15.144Z</time></trkpt><trkpt lat="43.3666975" lon="11.2542041"><ele>291.0</ele><time>2026-04-19T06:30:18.112Z</time></trkpt><trkpt lat="43.3666145" lon="11.2541998"><ele>291.0</ele><time>2026-04-19T06:30:21.113Z</time></trkpt><trkpt lat="43.3665371" lon="11.2542014"><ele>291.0</ele><time>2026-04-19T06:30:24.116Z</time></trkpt><trkpt lat="43.3664572" lon="11.2541761"><ele>291.0</ele><time>2026-04-19T06:30:27.207Z</time></trkpt><trkpt lat="43.3663841" lon="11.2541431"><ele>291.0</ele><time>2026-04-19T06:30:30.125Z</time></trkpt><trkpt lat="43.3663117" lon="11.2541418"><ele>291.0</ele><time>2026-04-19T06:30:33.205Z</time></trkpt><trkpt lat="43.366224" lon="11.2541407"><ele>291.0</ele><time>2026-04-19T06:30:36.142Z</time></trkpt><trkpt lat="43.3661562" lon="11.2541343"><ele>291.6666666666667</ele><time>2026-04-19T06:30:38.144Z</time></trkpt><trkpt lat="43.3660684" lon="11.2541257"><ele>292.3333333333333</ele><time>2026-04-19T06:30:41.139Z</time></trkpt><trkpt lat="43.3659751" lon="11.2541267"><ele>293.0</ele><time>2026-04-19T06:30:44.15Z</time></trkpt><trkpt lat="43.3658865" lon="11.2541183"><ele>293.66666666666663</ele><time>2026-04-19T06:30:47.206Z</time></trkpt><trkpt lat="43.3658225" lon="11.2541313"><ele>294.3333333333333</ele><time>2026-04-19T06:30:49.133Z</time></trkpt><trkpt lat="43.3657549" lon="11.2541467"><ele>295.0</ele><time>2026-04-19T06:30:51.21Z</time></trkpt><trkpt lat="43.3656931" lon="11.254186"><ele>295.0</ele><time>2026-04-19T06:30:53.213Z</time></trkpt><trkpt lat="43.3656016" lon="11.2542067"><ele>295.0</ele><time>2026-04-19T06:30:56.192Z</time></trkpt><trkpt lat="43.3655342" lon="11.2542195"><ele>295.0</ele><time>2026-04-19T06:30:58.196Z</time></trkpt><trkpt lat="43.3654538" lon="11.2543081"><ele>295.0</ele><time>2026-04-19T06:31:01.132Z</time></trkpt><trkpt lat="43.3653928" lon="11.2543327"><ele>295.0</ele><time>2026-04-19T06:31:03.197Z</time></trkpt><trkpt lat="43.3653162" lon="11.2543678"><ele>295.0</ele><time>2026-04-19T06:31:06.208Z</time></trkpt><trkpt lat="43.3652296" lon="11.2544127"><ele>293.8</ele><time>2026-04-19T06:31:09.126Z</time></trkpt><trkpt lat="43.3651735" lon="11.2544638"><ele>292.6</ele><time>2026-04-19T06:31:11.14Z</time></trkpt><trkpt lat="43.36508" lon="11.2545349"><ele>291.4</ele><time>2026-04-19T06:31:13.138Z</time></trkpt><trkpt lat="43.3649927" lon="11.2546187"><ele>290.2</ele><time>2026-04-19T06:31:15.117Z</time></trkpt><trkpt lat="43.364907" lon="11.2546981"><ele>289.0</ele><time>2026-04-19T06:31:17.138Z</time></trkpt><trkpt lat="43.3648105" lon="11.254781"><ele>288.2</ele><time>2026-04-19T06:31:19.146Z</time></trkpt><trkpt lat="43.3647135" lon="11.2548767"><ele>287.4</ele><time>2026-04-19T06:31:21.114Z</time></trkpt><trkpt lat="43.364611" lon="11.2549742"><ele>286.6</ele><time>2026-04-19T06:31:23.214Z</time></trkpt><trkpt lat="43.3645123" lon="11.2550661"><ele>285.8</ele><time>2026-04-19T06:31:25.137Z</time></trkpt><trkpt lat="43.364458" lon="11.2551195"><ele>285.0</ele><time>2026-04-19T06:31:26.139Z</time></trkpt><trkpt lat="43.3644016" lon="11.2551692"><ele>285.0</ele><time>2026-04-19T06:31:27.22Z</time></trkpt><trkpt lat="43.3643456" lon="11.2552235"><ele>285.0</ele><time>2026-04-19T06:31:28.208Z</time></trkpt><trkpt lat="43.3642957" lon="11.2552774"><ele>285.0</ele><time>2026-04-19T06:31:29.118Z</time></trkpt><trkpt lat="43.3642432" lon="11.2553319"><ele>285.0</ele><time>2026-04-19T06:31:30.137Z</time></trkpt><trkpt lat="43.3641901" lon="11.2553889"><ele>285.0</ele><time>2026-04-19T06:31:31.198Z</time></trkpt><trkpt lat="43.3641371" lon="11.2554443"><ele>285.0</ele><time>2026-04-19T06:31:32.201Z</time></trkpt><trkpt lat="43.3638927" lon="11.2555459"><ele>284.1666666666667</ele><time>2026-04-19T06:31:36.204Z</time></trkpt><trkpt lat="43.3638297" lon="11.2555175"><ele>283.3333333333333</ele><time>2026-04-19T06:31:37.131Z</time></trkpt><trkpt lat="43.3637421" lon="11.2555244"><ele>282.5</ele><time>2026-04-19T06:31:38.127Z</time></trkpt><trkpt lat="43.3636617" lon="11.2555239"><ele>281.66666666666663</ele><time>2026-04-19T06:31:39.135Z</time></trkpt><trkpt lat="43.363578" lon="11.255515"><ele>280.8333333333333</ele><time>2026-04-19T06:31:40.128Z</time></trkpt><trkpt lat="43.363501" lon="11.2554993"><ele>280.0</ele><time>2026-04-19T06:31:41.108Z</time></trkpt><trkpt lat="43.3634218" lon="11.2554762"><ele>280.0</ele><time>2026-04-19T06:31:42.223Z</time></trkpt><trkpt lat="43.3633496" lon="11.2554512"><ele>280.0</ele><time>2026-04-19T06:31:43.203Z</time></trkpt><trkpt lat="43.3632739" lon="11.2554233"><ele>280.0</ele><time>2026-04-19T06:31:44.15Z</time></trkpt><trkpt lat="43.3631957" lon="11.2553982"><ele>280.0</ele><time>2026-04-19T06:31:45.125Z</time></trkpt><trkpt lat="43.3631186" lon="11.2553746"><ele>280.0</ele><time>2026-04-19T06:31:46.139Z</time></trkpt><trkpt lat="43.3630396" lon="11.2553549"><ele>280.0</ele><time>2026-04-19T06:31:47.14Z</time></trkpt><trkpt lat="43.362959" lon="11.2553383"><ele>279.5</ele><time>2026-04-19T06:31:48.139Z</time></trkpt><trkpt lat="43.3628783" lon="11.2553294"><ele>279.0</ele><time>2026-04-19T06:31:49.143Z</time></trkpt><trkpt lat="43.3627955" lon="11.2553325"><ele>278.5</ele><time>2026-04-19T06:31:50.133Z</time></trkpt><trkpt lat="43.362715" lon="11.2553581"><ele>278.0</ele><time>2026-04-19T06:31:51.118Z</time></trkpt><trkpt lat="43.362637" lon="11.2554028"><ele>277.5</ele><time>2026-04-19T06:31:52.142Z</time></trkpt><trkpt lat="43.3625645" lon="11.2554678"><ele>277.0</ele><time>2026-04-19T06:31:53.134Z</time></trkpt><trkpt lat="43.3624987" lon="11.2555473"><ele>276.8333333333333</ele><time>2026-04-19T06:31:54.141Z</time></trkpt><trkpt lat="43.3624387" lon="11.2556329"><ele>276.66666666666663</ele><time>2026-04-19T06:31:55.133Z</time></trkpt><trkpt lat="43.3623786" lon="11.2557221"><ele>276.5</ele><time>2026-04-19T06:31:56.133Z</time></trkpt><trkpt lat="43.3623225" lon="11.2558149"><ele>276.3333333333333</ele><time>2026-04-19T06:31:57.131Z</time></trkpt><trkpt lat="43.3622668" lon="11.2559147"><ele>276.1666666666667</ele><time>2026-04-19T06:31:58.201Z</time></trkpt><trkpt lat="43.3622182" lon="11.2560197"><ele>276.0</ele><time>2026-04-19T06:31:59.124Z</time></trkpt><trkpt lat="43.3621685" lon="11.2561331"><ele>275.5</ele><time>2026-04-19T06:32:00.125Z</time></trkpt><trkpt lat="43.3621238" lon="11.2562435"><ele>275.0</ele><time>2026-04-19T06:32:01.124Z</time></trkpt><trkpt lat="43.362082" lon="11.2563514"><ele>274.5</ele><time>2026-04-19T06:32:02.131Z</time></trkpt><trkpt lat="43.3620404" lon="11.2564518"><ele>274.0</ele><time>2026-04-19T06:32:03.121Z</time></trkpt><trkpt lat="43.3619933" lon="11.2565322"><ele>273.5</ele><time>2026-04-19T06:32:04.138Z</time></trkpt><trkpt lat="43.3619468" lon="11.2565965"><ele>273.0</ele><time>2026-04-19T06:32:05.157Z</time></trkpt><trkpt lat="43.3619042" lon="11.2566758"><ele>273.0</ele><time>2026-04-19T06:32:06.125Z</time></trkpt><trkpt lat="43.3618716" lon="11.256774"><ele>273.0</ele><time>2026-04-19T06:32:07.213Z</time></trkpt><trkpt lat="43.361843" lon="11.2568638"><ele>273.0</ele><time>2026-04-19T06:32:08.13Z</time></trkpt><trkpt lat="43.361811" lon="11.2569522"><ele>273.0</ele><time>2026-04-19T06:32:09.158Z</time></trkpt><trkpt lat="43.3617402" lon="11.2571081"><ele>273.0</ele><time>2026-04-19T06:32:11.142Z</time></trkpt><trkpt lat="43.3617038" lon="11.2571975"><ele>273.0</ele><time>2026-04-19T06:32:12.208Z</time></trkpt><trkpt lat="43.3616713" lon="11.2572911"><ele>273.0</ele><time>2026-04-19T06:32:13.133Z</time></trkpt><trkpt lat="43.3616346" lon="11.2573793"><ele>273.0</ele><time>2026-04-19T06:32:14.114Z</time></trkpt><trkpt lat="43.3615905" lon="11.2574646"><ele>273.0</ele><time>2026-04-19T06:32:15.135Z</time></trkpt><trkpt lat="43.3615459" lon="11.2575423"><ele>273.0</ele><time>2026-04-19T06:32:16.142Z</time></trkpt><trkpt lat="43.3615013" lon="11.257619"><ele>273.0</ele><time>2026-04-19T06:32:17.21Z</time></trkpt><trkpt lat="43.3614586" lon="11.2576895"><ele>273.0</ele><time>2026-04-19T06:32:18.128Z</time></trkpt><trkpt lat="43.3614121" lon="11.2577584"><ele>273.0</ele><time>2026-04-19T06:32:19.138Z</time></trkpt><trkpt lat="43.361364" lon="11.2578237"><ele>272.85714285714283</ele><time>2026-04-19T06:32:20.136Z</time></trkpt><trkpt lat="43.3613148" lon="11.2578851"><ele>272.7142857142857</ele><time>2026-04-19T06:32:21.143Z</time></trkpt><trkpt lat="43.3612664" lon="11.2579466"><ele>272.57142857142856</ele><time>2026-04-19T06:32:22.125Z</time></trkpt><trkpt lat="43.3612168" lon="11.2580125"><ele>272.42857142857144</ele><time>2026-04-19T06:32:23.134Z</time></trkpt><trkpt lat="43.3611692" lon="11.2580767"><ele>272.2857142857143</ele><time>2026-04-19T06:32:24.134Z</time></trkpt><trkpt lat="43.3611193" lon="11.2581374"><ele>272.1428571428571</ele><time>2026-04-19T06:32:25.15Z</time></trkpt><trkpt lat="43.3610717" lon="11.2581989"><ele>272.0</ele><time>2026-04-19T06:32:26.13Z</time></trkpt><trkpt lat="43.3610248" lon="11.2582585"><ele>272.33333333333337</ele><time>2026-04-19T06:32:27.136Z</time></trkpt><trkpt lat="43.3609771" lon="11.2583177"><ele>272.6666666666667</ele><time>2026-04-19T06:32:28.15Z</time></trkpt><trkpt lat="43.3609314" lon="11.2583789"><ele>273.0</ele><time>2026-04-19T06:32:29.146Z</time></trkpt><trkpt lat="43.360884" lon="11.2584373"><ele>273.3333333333333</ele><time>2026-04-19T06:32:30.135Z</time></trkpt><trkpt lat="43.360835" lon="11.258496"><ele>273.66666666666663</ele><time>2026-04-19T06:32:31.236Z</time></trkpt><trkpt lat="43.3607454" lon="11.2586107"><ele>274.0</ele><time>2026-04-19T06:32:33.132Z</time></trkpt><trkpt lat="43.3606491" lon="11.2587195"><ele>274.0</ele><time>2026-04-19T06:32:35.136Z</time></trkpt><trkpt lat="43.3605546" lon="11.2588221"><ele>274.0</ele><time>2026-04-19T06:32:37.13Z</time></trkpt><trkpt lat="43.3604461" lon="11.258892"><ele>274.0</ele><time>2026-04-19T06:32:39.132Z</time></trkpt><trkpt lat="43.3603349" lon="11.2589443"><ele>274.0</ele><time>2026-04-19T06:32:41.127Z</time></trkpt><trkpt lat="43.3602239" lon="11.2589676"><ele>274.59999999999997</ele><time>2026-04-19T06:32:43.141Z</time></trkpt><trkpt lat="43.3601206" lon="11.2589837"><ele>275.2</ele><time>2026-04-19T06:32:45.139Z</time></trkpt><trkpt lat="43.3600201" lon="11.2590142"><ele>275.79999999999995</ele><time>2026-04-19T06:32:47.126Z</time></trkpt><trkpt lat="43.3599214" lon="11.2590531"><ele>276.4</ele><time>2026-04-19T06:32:49.134Z</time></trkpt><trkpt lat="43.3598151" lon="11.2590975"><ele>277.0</ele><time>2026-04-19T06:32:51.136Z</time></trkpt><trkpt lat="43.359709" lon="11.2591435"><ele>275.25</ele><time>2026-04-19T06:32:53.121Z</time></trkpt><trkpt lat="43.3595957" lon="11.2591992"><ele>273.5</ele><time>2026-04-19T06:32:55.129Z</time></trkpt><trkpt lat="43.3594809" lon="11.2592673"><ele>271.75</ele><time>2026-04-19T06:32:57.144Z</time></trkpt><trkpt lat="43.3593661" lon="11.2593387"><ele>270.0</ele><time>2026-04-19T06:32:59.143Z</time></trkpt><trkpt lat="43.359259" lon="11.2594184"><ele>270.0</ele><time>2026-04-19T06:33:01.129Z</time></trkpt><trkpt lat="43.3591543" lon="11.2595091"><ele>270.0</ele><time>2026-04-19T06:33:03.14Z</time></trkpt><trkpt lat="43.3590482" lon="11.2595994"><ele>270.0</ele><time>2026-04-19T06:33:05.136Z</time></trkpt><trkpt lat="43.3589945" lon="11.2596509"><ele>270.0</ele><time>2026-04-19T06:33:06.134Z</time></trkpt><trkpt lat="43.3589442" lon="11.2597056"><ele>270.0</ele><time>2026-04-19T06:33:07.148Z</time></trkpt><trkpt lat="43.3588953" lon="11.2597608"><ele>270.0</ele><time>2026-04-19T06:33:08.129Z</time></trkpt><trkpt lat="43.3587989" lon="11.2598665"><ele>270.0</ele><time>2026-04-19T06:33:10.145Z</time></trkpt><trkpt lat="43.3586984" lon="11.2599687"><ele>270.0</ele><time>2026-04-19T06:33:12.137Z</time></trkpt><trkpt lat="43.3585974" lon="11.2600656"><ele>270.0</ele><time>2026-04-19T06:33:14.144Z</time></trkpt><trkpt lat="43.3584986" lon="11.260164"><ele>270.0</ele><time>2026-04-19T06:33:16.129Z</time></trkpt><trkpt lat="43.3584068" lon="11.260267"><ele>270.0</ele><time>2026-04-19T06:33:18.206Z</time></trkpt><trkpt lat="43.3583201" lon="11.2603845"><ele>270.0</ele><time>2026-04-19T06:33:20.136Z</time></trkpt><trkpt lat="43.3582767" lon="11.2604487"><ele>270.0</ele><time>2026-04-19T06:33:21.223Z</time></trkpt><trkpt lat="43.3581875" lon="11.2605754"><ele>270.0</ele><time>2026-04-19T06:33:23.139Z</time></trkpt><trkpt lat="43.3581326" lon="11.2606402"><ele>270.0</ele><time>2026-04-19T06:33:24.137Z</time></trkpt><trkpt lat="43.3580831" lon="11.2607144"><ele>270.2857142857143</ele><time>2026-04-19T06:33:25.143Z</time></trkpt><trkpt lat="43.3580437" lon="11.2607889"><ele>270.57142857142856</ele><time>2026-04-19T06:33:26.123Z</time></trkpt><trkpt lat="43.3580047" lon="11.2608661"><ele>270.85714285714283</ele><time>2026-04-19T06:33:27.176Z</time></trkpt><trkpt lat="43.357966" lon="11.2609375"><ele>271.1428571428571</ele><time>2026-04-19T06:33:28.145Z</time></trkpt><trkpt lat="43.3579246" lon="11.2610069"><ele>271.42857142857144</ele><time>2026-04-19T06:33:29.14Z</time></trkpt><trkpt lat="43.3578815" lon="11.2610738"><ele>271.71428571428567</ele><time>2026-04-19T06:33:30.124Z</time></trkpt><trkpt lat="43.357835" lon="11.2611414"><ele>272.0</ele><time>2026-04-19T06:33:31.131Z</time></trkpt><trkpt lat="43.3577896" lon="11.2612025"><ele>271.83333333333337</ele><time>2026-04-19T06:33:32.144Z</time></trkpt><trkpt lat="43.3577436" lon="11.2612635"><ele>271.6666666666667</ele><time>2026-04-19T06:33:33.145Z</time></trkpt><trkpt lat="43.3576959" lon="11.2613208"><ele>271.5</ele><time>2026-04-19T06:33:34.135Z</time></trkpt><trkpt lat="43.3576477" lon="11.2613768"><ele>271.3333333333333</ele><time>2026-04-19T06:33:35.125Z</time></trkpt><trkpt lat="43.3575985" lon="11.261432"><ele>271.16666666666663</ele><time>2026-04-19T06:33:36.143Z</time></trkpt><trkpt lat="43.3574982" lon="11.261541"><ele>271.0</ele><time>2026-04-19T06:33:38.131Z</time></trkpt><trkpt lat="43.3573971" lon="11.2616483"><ele>271.0</ele><time>2026-04-19T06:33:40.124Z</time></trkpt><trkpt lat="43.3573445" lon="11.2616995"><ele>271.0</ele><time>2026-04-19T06:33:41.133Z</time></trkpt><trkpt lat="43.3572968" lon="11.2617563"><ele>271.0</ele><time>2026-04-19T06:33:42.119Z</time></trkpt><trkpt lat="43.3572426" lon="11.2618142"><ele>271.0</ele><time>2026-04-19T06:33:43.133Z</time></trkpt><trkpt lat="43.3571402" lon="11.2619109"><ele>271.0</ele><time>2026-04-19T06:33:45.13Z</time></trkpt><trkpt lat="43.357047" lon="11.2619974"><ele>271.0</ele><time>2026-04-19T06:33:47.14Z</time></trkpt><trkpt lat="43.3569961" lon="11.2620486"><ele>270.40000000000003</ele><time>2026-04-19T06:33:48.213Z</time></trkpt><trkpt lat="43.3568952" lon="11.2621255"><ele>269.8</ele><time>2026-04-19T06:33:50.14Z</time></trkpt><trkpt lat="43.3567863" lon="11.2621872"><ele>269.20000000000005</ele><time>2026-04-19T06:33:52.111Z</time></trkpt><trkpt lat="43.3567252" lon="11.2622214"><ele>268.6</ele><time>2026-04-19T06:33:53.174Z</time></trkpt><trkpt lat="43.3566149" lon="11.2622709"><ele>268.0</ele><time>2026-04-19T06:33:55.139Z</time></trkpt><trkpt lat="43.3565034" lon="11.2623149"><ele>268.8</ele><time>2026-04-19T06:33:57.139Z</time></trkpt><trkpt lat="43.3563901" lon="11.2623419"><ele>269.6</ele><time>2026-04-19T06:33:59.128Z</time></trkpt><trkpt lat="43.3562788" lon="11.2623611"><ele>270.4</ele><time>2026-04-19T06:34:01.126Z</time></trkpt><trkpt lat="43.3561812" lon="11.2623722"><ele>271.2</ele><time>2026-04-19T06:34:03.137Z</time></trkpt><trkpt lat="43.356075" lon="11.2623781"><ele>272.0</ele><time>2026-04-19T06:34:05.128Z</time></trkpt><trkpt lat="43.3559646" lon="11.262403"><ele>272.0</ele><time>2026-04-19T06:34:07.142Z</time></trkpt><trkpt lat="43.3558641" lon="11.2624066"><ele>272.0</ele><time>2026-04-19T06:34:09.133Z</time></trkpt><trkpt lat="43.3557686" lon="11.26242"><ele>272.0</ele><time>2026-04-19T06:34:11.129Z</time></trkpt><trkpt lat="43.3556685" lon="11.2624351"><ele>272.0</ele><time>2026-04-19T06:34:13.134Z</time></trkpt><trkpt lat="43.3555696" lon="11.2624562"><ele>272.0</ele><time>2026-04-19T06:34:15.137Z</time></trkpt><trkpt lat="43.3554765" lon="11.2624733"><ele>272.0</ele><time>2026-04-19T06:34:17.148Z</time></trkpt><trkpt lat="43.3553799" lon="11.2624975"><ele>272.0</ele><time>2026-04-19T06:34:19.145Z</time></trkpt><trkpt lat="43.3552795" lon="11.2625283"><ele>272.0</ele><time>2026-04-19T06:34:21.131Z</time></trkpt><trkpt lat="43.3551828" lon="11.2625641"><ele>272.0</ele><time>2026-04-19T06:34:23.128Z</time></trkpt><trkpt lat="43.3550923" lon="11.2625978"><ele>272.0</ele><time>2026-04-19T06:34:25.141Z</time></trkpt><trkpt lat="43.355005" lon="11.2626351"><ele>272.0</ele><time>2026-04-19T06:34:27.142Z</time></trkpt><trkpt lat="43.3549241" lon="11.2626677"><ele>272.0</ele><time>2026-04-19T06:34:29.13Z</time></trkpt><trkpt lat="43.3548395" lon="11.2627031"><ele>272.0</ele><time>2026-04-19T06:34:31.135Z</time></trkpt><trkpt lat="43.3547514" lon="11.2627362"><ele>272.0</ele><time>2026-04-19T06:34:33.141Z</time></trkpt><trkpt lat="43.3546539" lon="11.2627862"><ele>272.0</ele><time>2026-04-19T06:34:35.134Z</time></trkpt><trkpt lat="43.3545554" lon="11.2628407"><ele>271.25</ele><time>2026-04-19T06:34:37.13Z</time></trkpt><trkpt lat="43.3544579" lon="11.2629087"><ele>270.5</ele><time>2026-04-19T06:34:39.142Z</time></trkpt><trkpt lat="43.3543603" lon="11.2629895"><ele>269.75</ele><time>2026-04-19T06:34:41.132Z</time></trkpt><trkpt lat="43.3542603" lon="11.2630686"><ele>269.0</ele><time>2026-04-19T06:34:43.129Z</time></trkpt><trkpt lat="43.3541619" lon="11.2631523"><ele>269.4</ele><time>2026-04-19T06:34:45.127Z</time></trkpt><trkpt lat="43.3540672" lon="11.2632322"><ele>269.79999999999995</ele><time>2026-04-19T06:34:47.115Z</time></trkpt><trkpt lat="43.3539649" lon="11.2632917"><ele>270.20000000000005</ele><time>2026-04-19T06:34:49.13Z</time></trkpt><trkpt lat="43.3538631" lon="11.2633531"><ele>270.6</ele><time>2026-04-19T06:34:51.138Z</time></trkpt><trkpt lat="43.3537688" lon="11.2634166"><ele>271.0</ele><time>2026-04-19T06:34:53.206Z</time></trkpt><trkpt lat="43.3536761" lon="11.2634755"><ele>271.0</ele><time>2026-04-19T06:34:55.13Z</time></trkpt><trkpt lat="43.3536001" lon="11.2635601"><ele>271.0</ele><time>2026-04-19T06:34:57.12Z</time></trkpt><trkpt lat="43.3535352" lon="11.2636371"><ele>271.0</ele><time>2026-04-19T06:34:59.144Z</time></trkpt><trkpt lat="43.3534684" lon="11.2637394"><ele>271.0</ele><time>2026-04-19T06:35:01.144Z</time></trkpt><trkpt lat="43.3534108" lon="11.2638497"><ele>271.0</ele><time>2026-04-19T06:35:03.208Z</time></trkpt><trkpt lat="43.3533592" lon="11.2639661"><ele>272.66666666666663</ele><time>2026-04-19T06:35:05.137Z</time></trkpt><trkpt lat="43.3533078" lon="11.2640704"><ele>274.3333333333333</ele><time>2026-04-19T06:35:07.126Z</time></trkpt><trkpt lat="43.3532602" lon="11.2641674"><ele>276.0</ele><time>2026-04-19T06:35:09.131Z</time></trkpt><trkpt lat="43.3532109" lon="11.2642643"><ele>277.6666666666667</ele><time>2026-04-19T06:35:11.146Z</time></trkpt><trkpt lat="43.3531631" lon="11.2643562"><ele>279.33333333333337</ele><time>2026-04-19T06:35:13.125Z</time></trkpt><trkpt lat="43.3531166" lon="11.2644522"><ele>281.0</ele><time>2026-04-19T06:35:15.135Z</time></trkpt><trkpt lat="43.3530694" lon="11.2645492"><ele>279.6666666666667</ele><time>2026-04-19T06:35:17.133Z</time></trkpt><trkpt lat="43.3530202" lon="11.2646399"><ele>278.33333333333337</ele><time>2026-04-19T06:35:19.124Z</time></trkpt><trkpt lat="43.352971" lon="11.2647245"><ele>277.0</ele><time>2026-04-19T06:35:21.123Z</time></trkpt><trkpt lat="43.3529266" lon="11.2648117"><ele>275.6666666666667</ele><time>2026-04-19T06:35:23.141Z</time></trkpt><trkpt lat="43.3528874" lon="11.2649037"><ele>274.3333333333333</ele><time>2026-04-19T06:35:25.131Z</time></trkpt><trkpt lat="43.3528483" lon="11.2649895"><ele>273.0</ele><time>2026-04-19T06:35:27.138Z</time></trkpt><trkpt lat="43.3528118" lon="11.2650779"><ele>273.0</ele><time>2026-04-19T06:35:29.133Z</time></trkpt><trkpt lat="43.3527805" lon="11.2651619"><ele>273.0</ele><time>2026-04-19T06:35:31.142Z</time></trkpt><trkpt lat="43.352738" lon="11.2652315"><ele>273.0</ele><time>2026-04-19T06:35:33.202Z</time></trkpt><trkpt lat="43.3527024" lon="11.2653181"><ele>273.0</ele><time>2026-04-19T06:35:35.135Z</time></trkpt><trkpt lat="43.3526826" lon="11.2654094"><ele>273.0</ele><time>2026-04-19T06:35:37.203Z</time></trkpt><trkpt lat="43.3526658" lon="11.2655229"><ele>273.0</ele><time>2026-04-19T06:35:39.132Z</time></trkpt><trkpt lat="43.3526282" lon="11.2656751"><ele>273.6</ele><time>2026-04-19T06:35:42.122Z</time></trkpt><trkpt lat="43.3525989" lon="11.2658058"><ele>274.20000000000005</ele><time>2026-04-19T06:35:44.129Z</time></trkpt><trkpt lat="43.3525737" lon="11.2659315"><ele>274.8</ele><time>2026-04-19T06:35:46.131Z</time></trkpt><trkpt lat="43.3525391" lon="11.2660485"><ele>275.40000000000003</ele><time>2026-04-19T06:35:48.198Z</time></trkpt><trkpt lat="43.3525049" lon="11.2661776"><ele>276.0</ele><time>2026-04-19T06:35:50.132Z</time></trkpt><trkpt lat="43.3524604" lon="11.2662953"><ele>276.0</ele><time>2026-04-19T06:35:52.132Z</time></trkpt><trkpt lat="43.3524309" lon="11.2664115"><ele>276.0</ele><time>2026-04-19T06:35:54.136Z</time></trkpt><trkpt lat="43.3523998" lon="11.2665345"><ele>276.0</ele><time>2026-04-19T06:35:56.136Z</time></trkpt><trkpt lat="43.3523723" lon="11.2666644"><ele>276.0</ele><time>2026-04-19T06:35:58.132Z</time></trkpt><trkpt lat="43.3523369" lon="11.2667891"><ele>276.0</ele><time>2026-04-19T06:36:00.128Z</time></trkpt><trkpt lat="43.352306" lon="11.2669116"><ele>276.0</ele><time>2026-04-19T06:36:02.13Z</time></trkpt><trkpt lat="43.3522782" lon="11.2670387"><ele>276.0</ele><time>2026-04-19T06:36:04.131Z</time></trkpt><trkpt lat="43.3522435" lon="11.2671591"><ele>276.0</ele><time>2026-04-19T06:36:06.197Z</time></trkpt><trkpt lat="43.3522171" lon="11.2672774"><ele>276.0</ele><time>2026-04-19T06:36:08.138Z</time></trkpt><trkpt lat="43.352179" lon="11.2674161"><ele>276.0</ele><time>2026-04-19T06:36:10.134Z</time></trkpt><trkpt lat="43.3521412" lon="11.2675441"><ele>275.6</ele><time>2026-04-19T06:36:12.217Z</time></trkpt><trkpt lat="43.3520982" lon="11.2676615"><ele>275.20000000000005</ele><time>2026-04-19T06:36:14.144Z</time></trkpt><trkpt lat="43.3520604" lon="11.2677895"><ele>274.79999999999995</ele><time>2026-04-19T06:36:16.132Z</time></trkpt><trkpt lat="43.3520197" lon="11.2679165"><ele>274.4</ele><time>2026-04-19T06:36:18.128Z</time></trkpt><trkpt lat="43.3519781" lon="11.2680334"><ele>274.0</ele><time>2026-04-19T06:36:20.147Z</time></trkpt><trkpt lat="43.3519526" lon="11.268141"><ele>274.66666666666663</ele><time>2026-04-19T06:36:22.132Z</time></trkpt><trkpt lat="43.3519245" lon="11.2682534"><ele>275.3333333333333</ele><time>2026-04-19T06:36:24.136Z</time></trkpt><trkpt lat="43.3518989" lon="11.2683679"><ele>276.0</ele><time>2026-04-19T06:36:26.132Z</time></trkpt><trkpt lat="43.3518902" lon="11.2684799"><ele>276.6666666666667</ele><time>2026-04-19T06:36:28.138Z</time></trkpt><trkpt lat="43.351889" lon="11.2685844"><ele>277.33333333333337</ele><time>2026-04-19T06:36:30.133Z</time></trkpt><trkpt lat="43.3518945" lon="11.2686842"><ele>278.0</ele><time>2026-04-19T06:36:32.141Z</time></trkpt><trkpt lat="43.3519008" lon="11.2687784"><ele>278.0</ele><time>2026-04-19T06:36:34.142Z</time></trkpt><trkpt lat="43.3519082" lon="11.2688653"><ele>278.0</ele><time>2026-04-19T06:36:36.133Z</time></trkpt><trkpt lat="43.3519208" lon="11.2689886"><ele>278.0</ele><time>2026-04-19T06:36:39.132Z</time></trkpt><trkpt lat="43.3519385" lon="11.2690725"><ele>278.0</ele><time>2026-04-19T06:36:41.139Z</time></trkpt><trkpt lat="43.3519536" lon="11.269197"><ele>278.0</ele><time>2026-04-19T06:36:44.119Z</time></trkpt><trkpt lat="43.3519687" lon="11.269313"><ele>278.0</ele><time>2026-04-19T06:36:47.112Z</time></trkpt><trkpt lat="43.3519895" lon="11.2694072"><ele>278.5</ele><time>2026-04-19T06:36:50.138Z</time></trkpt><trkpt lat="43.3520081" lon="11.2695135"><ele>279.0</ele><time>2026-04-19T06:36:53.13Z</time></trkpt><trkpt lat="43.3520372" lon="11.2696202"><ele>279.5</ele><time>2026-04-19T06:36:56.144Z</time></trkpt><trkpt lat="43.3520521" lon="11.269731"><ele>280.0</ele><time>2026-04-19T06:36:59.141Z</time></trkpt><trkpt lat="43.352047" lon="11.2698459"><ele>280.5</ele><time>2026-04-19T06:37:02.137Z</time></trkpt><trkpt lat="43.3520264" lon="11.2699488"><ele>281.0</ele><time>2026-04-19T06:37:05.133Z</time></trkpt><trkpt lat="43.3519941" lon="11.2700352"><ele>281.5714285714286</ele><time>2026-04-19T06:37:08.125Z</time></trkpt><trkpt lat="43.3519465" lon="11.2701004"><ele>282.14285714285717</ele><time>2026-04-19T06:37:11.13Z</time></trkpt><trkpt lat="43.3518727" lon="11.2701461"><ele>282.7142857142857</ele><time>2026-04-19T06:37:15.142Z</time></trkpt><trkpt lat="43.3517923" lon="11.2701659"><ele>283.28571428571433</ele><time>2026-04-19T06:37:19.128Z</time></trkpt><trkpt lat="43.3517263" lon="11.2701715"><ele>283.8571428571429</ele><time>2026-04-19T06:37:22.131Z</time></trkpt><trkpt lat="43.3516612" lon="11.2701837"><ele>284.42857142857144</ele><time>2026-04-19T06:37:25.131Z</time></trkpt><trkpt lat="43.3515919" lon="11.2702002"><ele>285.0</ele><time>2026-04-19T06:37:28.196Z</time></trkpt><trkpt lat="43.3515099" lon="11.2702142"><ele>285.0</ele><time>2026-04-19T06:37:32.214Z</time></trkpt><trkpt lat="43.3514409" lon="11.270219"><ele>285.0</ele><time>2026-04-19T06:37:35.134Z</time></trkpt><trkpt lat="43.351377" lon="11.2702195"><ele>285.0</ele><time>2026-04-19T06:37:38.128Z</time></trkpt><trkpt lat="43.3513135" lon="11.2702224"><ele>285.0</ele><time>2026-04-19T06:37:41.128Z</time></trkpt><trkpt lat="43.3512505" lon="11.270234"><ele>285.0</ele><time>2026-04-19T06:37:44.121Z</time></trkpt><trkpt lat="43.3511843" lon="11.2702337"><ele>285.0</ele><time>2026-04-19T06:37:47.133Z</time></trkpt><trkpt lat="43.3511136" lon="11.2702482"><ele>285.0</ele><time>2026-04-19T06:37:50.129Z</time></trkpt><trkpt lat="43.3510382" lon="11.2702639"><ele>285.1666666666667</ele><time>2026-04-19T06:37:53.129Z</time></trkpt><trkpt lat="43.3509598" lon="11.2702719"><ele>285.3333333333333</ele><time>2026-04-19T06:37:56.145Z</time></trkpt><trkpt lat="43.3508709" lon="11.2702735"><ele>285.5</ele><time>2026-04-19T06:37:59.126Z</time></trkpt><trkpt lat="43.3507863" lon="11.2702972"><ele>285.66666666666663</ele><time>2026-04-19T06:38:02.131Z</time></trkpt><trkpt lat="43.3507146" lon="11.2702991"><ele>285.8333333333333</ele><time>2026-04-19T06:38:05.142Z</time></trkpt><trkpt lat="43.3506461" lon="11.2703112"><ele>286.0</ele><time>2026-04-19T06:38:08.195Z</time></trkpt><trkpt lat="43.3505779" lon="11.2703217"><ele>286.71428571428567</ele><time>2026-04-19T06:38:11.124Z</time></trkpt><trkpt lat="43.3505084" lon="11.2703256"><ele>287.42857142857144</ele><time>2026-04-19T06:38:14.111Z</time></trkpt><trkpt lat="43.3504367" lon="11.2703384"><ele>288.1428571428571</ele><time>2026-04-19T06:38:17.143Z</time></trkpt><trkpt lat="43.3503664" lon="11.2703513"><ele>288.85714285714283</ele><time>2026-04-19T06:38:20.136Z</time></trkpt><trkpt lat="43.3502974" lon="11.2703595"><ele>289.57142857142856</ele><time>2026-04-19T06:38:23.146Z</time></trkpt><trkpt lat="43.3502193" lon="11.2703666"><ele>290.2857142857143</ele><time>2026-04-19T06:38:26.112Z</time></trkpt><trkpt lat="43.3501478" lon="11.2703544"><ele>291.0</ele><time>2026-04-19T06:38:29.124Z</time></trkpt><trkpt lat="43.3500822" lon="11.270342"><ele>291.0</ele><time>2026-04-19T06:38:32.127Z</time></trkpt><trkpt lat="43.3500112" lon="11.2703176"><ele>291.0</ele><time>2026-04-19T06:38:35.139Z</time></trkpt><trkpt lat="43.3499399" lon="11.2702787"><ele>291.0</ele><time>2026-04-19T06:38:38.126Z</time></trkpt><trkpt lat="43.349871" lon="11.2702337"><ele>291.0</ele><time>2026-04-19T06:38:41.129Z</time></trkpt><trkpt lat="43.3498111" lon="11.2701889"><ele>291.0</ele><time>2026-04-19T06:38:44.129Z</time></trkpt><trkpt lat="43.3497386" lon="11.2701388"><ele>291.0</ele><time>2026-04-19T06:38:47.132Z</time></trkpt><trkpt lat="43.3496698" lon="11.2701019"><ele>291.0</ele><time>2026-04-19T06:38:50.146Z</time></trkpt><trkpt lat="43.3496083" lon="11.2700698"><ele>291.42857142857144</ele><time>2026-04-19T06:38:53.127Z</time></trkpt><trkpt lat="43.3495305" lon="11.2700504"><ele>291.85714285714283</ele><time>2026-04-19T06:38:56.139Z</time></trkpt><trkpt lat="43.3494475" lon="11.2700612"><ele>292.2857142857143</ele><time>2026-04-19T06:38:59.134Z</time></trkpt><trkpt lat="43.3493793" lon="11.2701066"><ele>292.7142857142857</ele><time>2026-04-19T06:39:02.12Z</time></trkpt><trkpt lat="43.3493211" lon="11.2701585"><ele>293.1428571428571</ele><time>2026-04-19T06:39:05.133Z</time></trkpt><trkpt lat="43.3492778" lon="11.2702332"><ele>293.57142857142856</ele><time>2026-04-19T06:39:08.218Z</time></trkpt><trkpt lat="43.349247" lon="11.2703224"><ele>294.0</ele><time>2026-04-19T06:39:11.127Z</time></trkpt><trkpt lat="43.3492216" lon="11.2704131"><ele>294.0</ele><time>2026-04-19T06:39:14.123Z</time></trkpt><trkpt lat="43.3491977" lon="11.2705056"><ele>294.0</ele><time>2026-04-19T06:39:17.128Z</time></trkpt><trkpt lat="43.3491968" lon="11.2706176"><ele>294.0</ele><time>2026-04-19T06:39:20.142Z</time></trkpt><trkpt lat="43.3491996" lon="11.2707223"><ele>294.0</ele><time>2026-04-19T06:39:23.208Z</time></trkpt><trkpt lat="43.3492" lon="11.2708282"><ele>294.0</ele><time>2026-04-19T06:39:26.133Z</time></trkpt><trkpt lat="43.3492032" lon="11.2709367"><ele>294.0</ele><time>2026-04-19T06:39:29.125Z</time></trkpt><trkpt lat="43.3491988" lon="11.2710328"><ele>294.6666666666667</ele><time>2026-04-19T06:39:32.11Z</time></trkpt><trkpt lat="43.3491914" lon="11.2711353"><ele>295.3333333333333</ele><time>2026-04-19T06:39:35.127Z</time></trkpt><trkpt lat="43.3491784" lon="11.2712404"><ele>296.0</ele><time>2026-04-19T06:39:38.133Z</time></trkpt><trkpt lat="43.3491412" lon="11.271314"><ele>296.66666666666663</ele><time>2026-04-19T06:39:41.135Z</time></trkpt><trkpt lat="43.3491269" lon="11.2714149"><ele>297.3333333333333</ele><time>2026-04-19T06:39:44.139Z</time></trkpt><trkpt lat="43.3490953" lon="11.2715158"><ele>298.0</ele><time>2026-04-19T06:39:47.113Z</time></trkpt><trkpt lat="43.3490662" lon="11.2716176"><ele>298.8333333333333</ele><time>2026-04-19T06:39:50.124Z</time></trkpt><trkpt lat="43.349036" lon="11.2717217"><ele>299.66666666666663</ele><time>2026-04-19T06:39:53.129Z</time></trkpt><trkpt lat="43.3490073" lon="11.2718199"><ele>300.5</ele><time>2026-04-19T06:39:56.134Z</time></trkpt><trkpt lat="43.3489745" lon="11.2719136"><ele>301.3333333333333</ele><time>2026-04-19T06:39:59.142Z</time></trkpt><trkpt lat="43.3489374" lon="11.2720031"><ele>302.1666666666667</ele><time>2026-04-19T06:40:02.134Z</time></trkpt><trkpt lat="43.3489187" lon="11.2720915"><ele>303.0</ele><time>2026-04-19T06:40:05.128Z</time></trkpt><trkpt lat="43.3488838" lon="11.2721982"><ele>303.42857142857144</ele><time>2026-04-19T06:40:09.142Z</time></trkpt><trkpt lat="43.3488515" lon="11.2722874"><ele>303.85714285714283</ele><time>2026-04-19T06:40:12.14Z</time></trkpt><trkpt lat="43.3488334" lon="11.2723793"><ele>304.2857142857143</ele><time>2026-04-19T06:40:15.135Z</time></trkpt><trkpt lat="43.3488118" lon="11.2724783"><ele>304.7142857142857</ele><time>2026-04-19T06:40:18.133Z</time></trkpt><trkpt lat="43.3487855" lon="11.2725858"><ele>305.14285714285717</ele><time>2026-04-19T06:40:21.142Z</time></trkpt><trkpt lat="43.3487551" lon="11.2726835"><ele>305.57142857142856</ele><time>2026-04-19T06:40:24.132Z</time></trkpt><trkpt lat="43.3487258" lon="11.2727678"><ele>306.0</ele><time>2026-04-19T06:40:27.125Z</time></trkpt><trkpt lat="43.348672" lon="11.2728429"><ele>306.0</ele><time>2026-04-19T06:40:30.134Z</time></trkpt><trkpt lat="43.3486106" lon="11.272908"><ele>306.0</ele><time>2026-04-19T06:40:33.13Z</time></trkpt><trkpt lat="43.3485396" lon="11.2729652"><ele>306.0</ele><time>2026-04-19T06:40:36.142Z</time></trkpt><trkpt lat="43.3484681" lon="11.2730075"><ele>306.0</ele><time>2026-04-19T06:40:39.142Z</time></trkpt><trkpt lat="43.3484014" lon="11.2730486"><ele>306.0</ele><time>2026-04-19T06:40:42.134Z</time></trkpt><trkpt lat="43.348329" lon="11.2730802"><ele>306.0</ele><time>2026-04-19T06:40:45.147Z</time></trkpt><trkpt lat="43.3482593" lon="11.2731153"><ele>306.7142857142857</ele><time>2026-04-19T06:40:48.135Z</time></trkpt><trkpt lat="43.3481915" lon="11.2731569"><ele>307.42857142857144</ele><time>2026-04-19T06:40:51.13Z</time></trkpt><trkpt lat="43.348137" lon="11.2732106"><ele>308.1428571428571</ele><time>2026-04-19T06:40:54.143Z</time></trkpt><trkpt lat="43.3480936" lon="11.2732794"><ele>308.8571428571429</ele><time>2026-04-19T06:40:57.13Z</time></trkpt><trkpt lat="43.3480718" lon="11.2733733"><ele>309.5714285714286</ele><time>2026-04-19T06:41:00.127Z</time></trkpt><trkpt lat="43.3480593" lon="11.2734774"><ele>310.2857142857143</ele><time>2026-04-19T06:41:03.127Z</time></trkpt><trkpt lat="43.3480625" lon="11.27359"><ele>311.0</ele><time>2026-04-19T06:41:06.124Z</time></trkpt><trkpt lat="43.3480795" lon="11.2736997"><ele>311.0</ele><time>2026-04-19T06:41:09.129Z</time></trkpt><trkpt lat="43.3481141" lon="11.2737827"><ele>311.0</ele><time>2026-04-19T06:41:12.128Z</time></trkpt><trkpt lat="43.3481544" lon="11.2738658"><ele>311.0</ele><time>2026-04-19T06:41:15.13Z</time></trkpt><trkpt lat="43.3482052" lon="11.2739391"><ele>311.0</ele><time>2026-04-19T06:41:18.136Z</time></trkpt><trkpt lat="43.3482456" lon="11.2740127"><ele>311.0</ele><time>2026-04-19T06:41:21.144Z</time></trkpt><trkpt lat="43.3482976" lon="11.2741082"><ele>311.0</ele><time>2026-04-19T06:41:24.115Z</time></trkpt><trkpt lat="43.3483633" lon="11.2741844"><ele>311.4285714285714</ele><time>2026-04-19T06:41:27.205Z</time></trkpt><trkpt lat="43.3484205" lon="11.2742589"><ele>311.8571428571429</ele><time>2026-04-19T06:41:30.137Z</time></trkpt><trkpt lat="43.3484737" lon="11.2743279"><ele>312.2857142857143</ele><time>2026-04-19T06:41:33.136Z</time></trkpt><trkpt lat="43.3485113" lon="11.2744252"><ele>312.71428571428567</ele><time>2026-04-19T06:41:36.117Z</time></trkpt><trkpt lat="43.34856" lon="11.2744891"><ele>313.1428571428571</ele><time>2026-04-19T06:41:39.144Z</time></trkpt><trkpt lat="43.3486172" lon="11.2745607"><ele>313.57142857142856</ele><time>2026-04-19T06:41:42.139Z</time></trkpt><trkpt lat="43.3486714" lon="11.2746264"><ele>314.0</ele><time>2026-04-19T06:41:45.137Z</time></trkpt><trkpt lat="43.3487208" lon="11.2747064"><ele>314.1428571428571</ele><time>2026-04-19T06:41:48.142Z</time></trkpt><trkpt lat="43.3487568" lon="11.2747826"><ele>314.2857142857143</ele><time>2026-04-19T06:41:50.124Z</time></trkpt><trkpt lat="43.3488025" lon="11.2748777"><ele>314.42857142857144</ele><time>2026-04-19T06:41:53.119Z</time></trkpt><trkpt lat="43.3488354" lon="11.2749621"><ele>314.57142857142856</ele><time>2026-04-19T06:41:56.127Z</time></trkpt><trkpt lat="43.3488652" lon="11.2750504"><ele>314.7142857142857</ele><time>2026-04-19T06:41:59.13Z</time></trkpt><trkpt lat="43.3488788" lon="11.2751377"><ele>314.85714285714283</ele><time>2026-04-19T06:42:02.12Z</time></trkpt><trkpt lat="43.3488812" lon="11.2752304"><ele>315.0</ele><time>2026-04-19T06:42:05.128Z</time></trkpt><trkpt lat="43.3488795" lon="11.2753412"><ele>315.0</ele><time>2026-04-19T06:42:08.2Z</time></trkpt><trkpt lat="43.3488828" lon="11.2754507"><ele>315.0</ele><time>2026-04-19T06:42:11.142Z</time></trkpt><trkpt lat="43.3488584" lon="11.2755481"><ele>315.0</ele><time>2026-04-19T06:42:14.136Z</time></trkpt><trkpt lat="43.3488304" lon="11.2756568"><ele>315.0</ele><time>2026-04-19T06:42:17.131Z</time></trkpt><trkpt lat="43.3488164" lon="11.2757725"><ele>315.0</ele><time>2026-04-19T06:42:20.139Z</time></trkpt><trkpt lat="43.3488216" lon="11.2758828"><ele>315.0</ele><time>2026-04-19T06:42:23.22Z</time></trkpt><trkpt lat="43.3488132" lon="11.275977"><ele>315.6</ele><time>2026-04-19T06:42:26.15Z</time></trkpt><trkpt lat="43.348766" lon="11.2760778"><ele>316.2</ele><time>2026-04-19T06:42:29.135Z</time></trkpt><trkpt lat="43.3487288" lon="11.2761874"><ele>316.8</ele><time>2026-04-19T06:42:32.121Z</time></trkpt><trkpt lat="43.3486924" lon="11.2763052"><ele>317.4</ele><time>2026-04-19T06:42:35.143Z</time></trkpt><trkpt lat="43.3486558" lon="11.2764196"><ele>318.0</ele><time>2026-04-19T06:42:38.223Z</time></trkpt><trkpt lat="43.3486059" lon="11.2765258"><ele>318.5</ele><time>2026-04-19T06:42:41.129Z</time></trkpt><trkpt lat="43.3485642" lon="11.2765945"><ele>319.0</ele><time>2026-04-19T06:42:43.139Z</time></trkpt><trkpt lat="43.3485248" lon="11.2766628"><ele>319.5</ele><time>2026-04-19T06:42:45.16Z</time></trkpt><trkpt lat="43.3484764" lon="11.276762"><ele>320.0</ele><time>2026-04-19T06:42:48.144Z</time></trkpt><trkpt lat="43.348435" lon="11.2768277"><ele>320.5</ele><time>2026-04-19T06:42:50.145Z</time></trkpt><trkpt lat="43.3483847" lon="11.276924"><ele>321.0</ele><time>2026-04-19T06:42:53.142Z</time></trkpt><trkpt lat="43.3483258" lon="11.2770217"><ele>321.0</ele><time>2026-04-19T06:42:56.129Z</time></trkpt><trkpt lat="43.348263" lon="11.2771139"><ele>321.0</ele><time>2026-04-19T06:42:59.142Z</time></trkpt><trkpt lat="43.3482059" lon="11.2772098"><ele>321.0</ele><time>2026-04-19T06:43:02.2Z</time></trkpt><trkpt lat="43.3481275" lon="11.2772844"><ele>321.0</ele><time>2026-04-19T06:43:04.134Z</time></trkpt><trkpt lat="43.3480865" lon="11.2773854"><ele>321.0</ele><time>2026-04-19T06:43:07.202Z</time></trkpt><trkpt lat="43.3480374" lon="11.2774435"><ele>321.0</ele><time>2026-04-19T06:43:09.122Z</time></trkpt><trkpt lat="43.3479876" lon="11.2775185"><ele>321.8333333333333</ele><time>2026-04-19T06:43:12.134Z</time></trkpt><trkpt lat="43.3479454" lon="11.2776209"><ele>322.6666666666667</ele><time>2026-04-19T06:43:15.132Z</time></trkpt><trkpt lat="43.3478962" lon="11.2777226"><ele>323.5</ele><time>2026-04-19T06:43:18.142Z</time></trkpt><trkpt lat="43.3478444" lon="11.2778153"><ele>324.33333333333337</ele><time>2026-04-19T06:43:21.138Z</time></trkpt><trkpt lat="43.3477944" lon="11.2778888"><ele>325.1666666666667</ele><time>2026-04-19T06:43:24.127Z</time></trkpt><trkpt lat="43.3477504" lon="11.2779564"><ele>326.0</ele><time>2026-04-19T06:43:27.133Z</time></trkpt><trkpt lat="43.3477064" lon="11.278032"><ele>326.5714285714286</ele><time>2026-04-19T06:43:30.127Z</time></trkpt><trkpt lat="43.3476638" lon="11.2781039"><ele>327.1428571428571</ele><time>2026-04-19T06:43:33.13Z</time></trkpt><trkpt lat="43.3476191" lon="11.2781804"><ele>327.7142857142857</ele><time>2026-04-19T06:43:36.123Z</time></trkpt><trkpt lat="43.3475723" lon="11.2782504"><ele>328.28571428571433</ele><time>2026-04-19T06:43:39.134Z</time></trkpt><trkpt lat="43.347525" lon="11.278321"><ele>328.8571428571429</ele><time>2026-04-19T06:43:42.146Z</time></trkpt><trkpt lat="43.3474787" lon="11.27839"><ele>329.42857142857144</ele><time>2026-04-19T06:43:45.13Z</time></trkpt><trkpt lat="43.3474345" lon="11.2784602"><ele>330.0</ele><time>2026-04-19T06:43:48.12Z</time></trkpt><trkpt lat="43.3473838" lon="11.2785355"><ele>330.0</ele><time>2026-04-19T06:43:51.129Z</time></trkpt><trkpt lat="43.3473267" lon="11.2786032"><ele>330.0</ele><time>2026-04-19T06:43:54.139Z</time></trkpt><trkpt lat="43.3472801" lon="11.2786707"><ele>330.0</ele><time>2026-04-19T06:43:57.207Z</time></trkpt><trkpt lat="43.347154" lon="11.2788227"><ele>330.0</ele><time>2026-04-19T06:44:02.135Z</time></trkpt><trkpt lat="43.347133" lon="11.2789079"><ele>330.0</ele><time>2026-04-19T06:44:06.126Z</time></trkpt><trkpt lat="43.3470814" lon="11.2790026"><ele>331.0</ele><time>2026-04-19T06:44:09.17Z</time></trkpt><trkpt lat="43.3470198" lon="11.279098"><ele>332.0</ele><time>2026-04-19T06:44:12.212Z</time></trkpt><trkpt lat="43.346947" lon="11.279188"><ele>333.0</ele><time>2026-04-19T06:44:15.12Z</time></trkpt><trkpt lat="43.3469049" lon="11.2792564"><ele>334.0</ele><time>2026-04-19T06:44:17.208Z</time></trkpt><trkpt lat="43.3468434" lon="11.2793106"><ele>335.0</ele><time>2026-04-19T06:44:20.112Z</time></trkpt><trkpt lat="43.3467685" lon="11.2793694"><ele>336.0</ele><time>2026-04-19T06:44:23.128Z</time></trkpt><trkpt lat="43.346709" lon="11.2794149"><ele>336.0</ele><time>2026-04-19T06:44:25.154Z</time></trkpt><trkpt lat="43.3466566" lon="11.2794904"><ele>336.0</ele><time>2026-04-19T06:44:28.128Z</time></trkpt><trkpt lat="43.3466003" lon="11.2795542"><ele>336.0</ele><time>2026-04-19T06:44:31.133Z</time></trkpt><trkpt lat="43.34654" lon="11.2795942"><ele>336.0</ele><time>2026-04-19T06:44:35.142Z</time></trkpt><trkpt lat="43.3464827" lon="11.2796319"><ele>336.0</ele><time>2026-04-19T06:44:38.143Z</time></trkpt><trkpt lat="43.346428" lon="11.2796771"><ele>336.0</ele><time>2026-04-19T06:44:41.122Z</time></trkpt><trkpt lat="43.3463707" lon="11.2797181"><ele>336.0</ele><time>2026-04-19T06:44:44.148Z</time></trkpt><trkpt lat="43.3462901" lon="11.2797548"><ele>337.2857142857143</ele><time>2026-04-19T06:44:48.201Z</time></trkpt><trkpt lat="43.346209" lon="11.2798098"><ele>338.57142857142856</ele><time>2026-04-19T06:44:53.217Z</time></trkpt><trkpt lat="43.3461504" lon="11.2798656"><ele>339.8571428571429</ele><time>2026-04-19T06:44:55.144Z</time></trkpt><trkpt lat="43.3460845" lon="11.279874"><ele>341.1428571428571</ele><time>2026-04-19T06:44:58.198Z</time></trkpt><trkpt lat="43.3460211" lon="11.2798661"><ele>342.42857142857144</ele><time>2026-04-19T06:45:01.208Z</time></trkpt><trkpt lat="43.3459488" lon="11.2798587"><ele>343.7142857142857</ele><time>2026-04-19T06:45:04.121Z</time></trkpt><trkpt lat="43.3458662" lon="11.2798535"><ele>345.0</ele><time>2026-04-19T06:45:08.206Z</time></trkpt><trkpt lat="43.3456874" lon="11.2799157"><ele>345.0</ele><time>2026-04-19T06:45:12.125Z</time></trkpt><trkpt lat="43.3457626" lon="11.2798997"><ele>345.0</ele><time>2026-04-19T06:45:13.129Z</time></trkpt><trkpt lat="43.3457025" lon="11.2798738"><ele>345.0</ele><time>2026-04-19T06:45:16.13Z</time></trkpt><trkpt lat="43.3456255" lon="11.2798909"><ele>345.0</ele><time>2026-04-19T06:45:19.141Z</time></trkpt><trkpt lat="43.3455623" lon="11.2799245"><ele>345.0</ele><time>2026-04-19T06:45:22.14Z</time></trkpt><trkpt lat="43.345501" lon="11.2799565"><ele>345.0</ele><time>2026-04-19T06:45:27.21Z</time></trkpt><trkpt lat="43.3454283" lon="11.2800149"><ele>345.0</ele><time>2026-04-19T06:45:30.128Z</time></trkpt><trkpt lat="43.3453673" lon="11.2800906"><ele>344.4</ele><time>2026-04-19T06:45:33.124Z</time></trkpt><trkpt lat="43.3453228" lon="11.2801617"><ele>343.8</ele><time>2026-04-19T06:45:35.134Z</time></trkpt><trkpt lat="43.3452385" lon="11.2802484"><ele>343.20000000000005</ele><time>2026-04-19T06:45:37.118Z</time></trkpt><trkpt lat="43.3451466" lon="11.2803275"><ele>342.6</ele><time>2026-04-19T06:45:39.135Z</time></trkpt><trkpt lat="43.3450454" lon="11.2804154"><ele>342.0</ele><time>2026-04-19T06:45:41.148Z</time></trkpt><trkpt lat="43.344991" lon="11.2804633"><ele>341.99999999999994</ele><time>2026-04-19T06:45:42.133Z</time></trkpt><trkpt lat="43.3449356" lon="11.2805132"><ele>342.0</ele><time>2026-04-19T06:45:43.196Z</time></trkpt><trkpt lat="43.3448814" lon="11.2805657"><ele>342.0</ele><time>2026-04-19T06:45:44.141Z</time></trkpt><trkpt lat="43.3448264" lon="11.2806119"><ele>342.0</ele><time>2026-04-19T06:45:45.139Z</time></trkpt><trkpt lat="43.3447633" lon="11.2806508"><ele>342.0</ele><time>2026-04-19T06:45:46.134Z</time></trkpt><trkpt lat="43.3447027" lon="11.2806878"><ele>341.99999999999994</ele><time>2026-04-19T06:45:47.136Z</time></trkpt><trkpt lat="43.3446378" lon="11.2807239"><ele>342.0</ele><time>2026-04-19T06:45:48.128Z</time></trkpt><trkpt lat="43.3445732" lon="11.2807644"><ele>341.4285714285714</ele><time>2026-04-19T06:45:49.137Z</time></trkpt><trkpt lat="43.344507" lon="11.2808038"><ele>340.85714285714283</ele><time>2026-04-19T06:45:50.131Z</time></trkpt><trkpt lat="43.344444" lon="11.2808467"><ele>340.2857142857143</ele><time>2026-04-19T06:45:51.13Z</time></trkpt><trkpt lat="43.3443863" lon="11.2808893"><ele>339.71428571428567</ele><time>2026-04-19T06:45:52.133Z</time></trkpt><trkpt lat="43.3443238" lon="11.2809368"><ele>339.1428571428571</ele><time>2026-04-19T06:45:53.13Z</time></trkpt><trkpt lat="43.3442613" lon="11.2809784"><ele>338.57142857142856</ele><time>2026-04-19T06:45:54.148Z</time></trkpt><trkpt lat="43.3442005" lon="11.2810208"><ele>338.0</ele><time>2026-04-19T06:45:55.129Z</time></trkpt><trkpt lat="43.3441385" lon="11.2810659"><ele>338.0</ele><time>2026-04-19T06:45:56.12Z</time></trkpt><trkpt lat="43.34408" lon="11.2811093"><ele>338.0</ele><time>2026-04-19T06:45:57.135Z</time></trkpt><trkpt lat="43.3440237" lon="11.2811528"><ele>338.0</ele><time>2026-04-19T06:45:58.211Z</time></trkpt><trkpt lat="43.3439177" lon="11.2812473"><ele>338.0</ele><time>2026-04-19T06:46:00.125Z</time></trkpt><trkpt lat="43.3438663" lon="11.2812998"><ele>338.0</ele><time>2026-04-19T06:46:01.138Z</time></trkpt><trkpt lat="43.3437853" lon="11.2814293"><ele>338.0</ele><time>2026-04-19T06:46:03.194Z</time></trkpt><trkpt lat="43.3437214" lon="11.281581"><ele>338.2</ele><time>2026-04-19T06:46:05.141Z</time></trkpt><trkpt lat="43.3436933" lon="11.2816623"><ele>338.4</ele><time>2026-04-19T06:46:06.146Z</time></trkpt><trkpt lat="43.3436673" lon="11.281744"><ele>338.59999999999997</ele><time>2026-04-19T06:46:07.13Z</time></trkpt><trkpt lat="43.343616" lon="11.2819027"><ele>338.79999999999995</ele><time>2026-04-19T06:46:09.108Z</time></trkpt><trkpt lat="43.3435863" lon="11.2820541"><ele>339.0</ele><time>2026-04-19T06:46:11.137Z</time></trkpt><trkpt lat="43.3435801" lon="11.2822122"><ele>339.0</ele><time>2026-04-19T06:46:13.141Z</time></trkpt><trkpt lat="43.3435828" lon="11.2823775"><ele>339.0</ele><time>2026-04-19T06:46:15.143Z</time></trkpt><trkpt lat="43.3435856" lon="11.2824681"><ele>339.0</ele><time>2026-04-19T06:46:16.133Z</time></trkpt><trkpt lat="43.3436264" lon="11.282607"><ele>339.0</ele><time>2026-04-19T06:46:18.138Z</time></trkpt><trkpt lat="43.3436702" lon="11.2827457"><ele>339.0</ele><time>2026-04-19T06:46:20.128Z</time></trkpt><trkpt lat="43.3437081" lon="11.2828929"><ele>339.0</ele><time>2026-04-19T06:46:22.135Z</time></trkpt><trkpt lat="43.3437457" lon="11.2830407"><ele>339.0</ele><time>2026-04-19T06:46:24.135Z</time></trkpt><trkpt lat="43.3437873" lon="11.2831644"><ele>339.0</ele><time>2026-04-19T06:46:26.133Z</time></trkpt><trkpt lat="43.3438277" lon="11.2832942"><ele>339.0</ele><time>2026-04-19T06:46:28.133Z</time></trkpt><trkpt lat="43.3438586" lon="11.2834217"><ele>339.0</ele><time>2026-04-19T06:46:30.146Z</time></trkpt><trkpt lat="43.3438851" lon="11.2835433"><ele>339.2</ele><time>2026-04-19T06:46:32.129Z</time></trkpt><trkpt lat="43.3439085" lon="11.2836515"><ele>339.4</ele><time>2026-04-19T06:46:34.113Z</time></trkpt><trkpt lat="43.3439362" lon="11.2837548"><ele>339.6</ele><time>2026-04-19T06:46:36.197Z</time></trkpt><trkpt lat="43.3439818" lon="11.2838873"><ele>339.8</ele><time>2026-04-19T06:46:38.209Z</time></trkpt><trkpt lat="43.3440274" lon="11.2840162"><ele>340.0</ele><time>2026-04-19T06:46:40.145Z</time></trkpt><trkpt lat="43.3440645" lon="11.2841421"><ele>340.0</ele><time>2026-04-19T06:46:42.136Z</time></trkpt><trkpt lat="43.3441001" lon="11.2842635"><ele>340.0</ele><time>2026-04-19T06:46:44.129Z</time></trkpt><trkpt lat="43.3441216" lon="11.2843983"><ele>340.0</ele><time>2026-04-19T06:46:46.136Z</time></trkpt><trkpt lat="43.3441379" lon="11.2845254"><ele>340.0</ele><time>2026-04-19T06:46:48.201Z</time></trkpt><trkpt lat="43.3441414" lon="11.2846582"><ele>340.0</ele><time>2026-04-19T06:46:50.147Z</time></trkpt><trkpt lat="43.3441316" lon="11.2847995"><ele>340.2</ele><time>2026-04-19T06:46:52.205Z</time></trkpt><trkpt lat="43.3441299" lon="11.2849169"><ele>340.4</ele><time>2026-04-19T06:46:54.117Z</time></trkpt><trkpt lat="43.3441222" lon="11.2850436"><ele>340.6</ele><time>2026-04-19T06:46:56.134Z</time></trkpt><trkpt lat="43.3441033" lon="11.2851724"><ele>340.8</ele><time>2026-04-19T06:46:58.129Z</time></trkpt><trkpt lat="43.3440733" lon="11.2852983"><ele>341.0</ele><time>2026-04-19T06:47:00.135Z</time></trkpt><trkpt lat="43.3440383" lon="11.2854164"><ele>341.0</ele><time>2026-04-19T06:47:02.137Z</time></trkpt><trkpt lat="43.3439994" lon="11.2855279"><ele>341.0</ele><time>2026-04-19T06:47:04.123Z</time></trkpt><trkpt lat="43.3439585" lon="11.2856383"><ele>341.0</ele><time>2026-04-19T06:47:06.135Z</time></trkpt><trkpt lat="43.3439128" lon="11.2857409"><ele>341.0</ele><time>2026-04-19T06:47:08.132Z</time></trkpt><trkpt lat="43.3438892" lon="11.2858428"><ele>341.0</ele><time>2026-04-19T06:47:10.127Z</time></trkpt><trkpt lat="43.3438994" lon="11.2859541"><ele>341.0</ele><time>2026-04-19T06:47:12.129Z</time></trkpt><trkpt lat="43.343935" lon="11.286057"><ele>341.33333333333337</ele><time>2026-04-19T06:47:14.146Z</time></trkpt><trkpt lat="43.3439614" lon="11.2861633"><ele>341.6666666666667</ele><time>2026-04-19T06:47:16.145Z</time></trkpt><trkpt lat="43.343979" lon="11.2862699"><ele>342.0</ele><time>2026-04-19T06:47:18.135Z</time></trkpt><trkpt lat="43.3439938" lon="11.2863766"><ele>342.3333333333333</ele><time>2026-04-19T06:47:20.153Z</time></trkpt><trkpt lat="43.3440095" lon="11.2864781"><ele>342.66666666666663</ele><time>2026-04-19T06:47:22.143Z</time></trkpt><trkpt lat="43.3440142" lon="11.2865825"><ele>343.0</ele><time>2026-04-19T06:47:24.2Z</time></trkpt><trkpt lat="43.3440022" lon="11.2866714"><ele>344.0</ele><time>2026-04-19T06:47:26.132Z</time></trkpt><trkpt lat="43.3439776" lon="11.2867724"><ele>345.0</ele><time>2026-04-19T06:47:28.196Z</time></trkpt><trkpt lat="43.3439517" lon="11.2868764"><ele>346.0</ele><time>2026-04-19T06:47:30.136Z</time></trkpt><trkpt lat="43.3439328" lon="11.2869963"><ele>347.0</ele><time>2026-04-19T06:47:33.131Z</time></trkpt><trkpt lat="43.3439235" lon="11.2871243"><ele>348.0</ele><time>2026-04-19T06:47:36.133Z</time></trkpt><trkpt lat="43.3439121" lon="11.2872281"><ele>349.0</ele><time>2026-04-19T06:47:38.136Z</time></trkpt><trkpt lat="43.3439022" lon="11.2873243"><ele>350.5</ele><time>2026-04-19T06:47:40.15Z</time></trkpt><trkpt lat="43.3438932" lon="11.2874232"><ele>352.0</ele><time>2026-04-19T06:47:42.143Z</time></trkpt><trkpt lat="43.3438976" lon="11.2875227"><ele>353.5</ele><time>2026-04-19T06:47:44.11Z</time></trkpt><trkpt lat="43.3439022" lon="11.2876247"><ele>355.0</ele><time>2026-04-19T06:47:46.129Z</time></trkpt><trkpt lat="43.3439005" lon="11.2877199"><ele>356.5</ele><time>2026-04-19T06:47:48.204Z</time></trkpt><trkpt lat="43.3439031" lon="11.2878493"><ele>358.0</ele><time>2026-04-19T06:47:51.125Z</time></trkpt><trkpt lat="43.3439218" lon="11.2879447"><ele>358.0</ele><time>2026-04-19T06:47:53.208Z</time></trkpt><trkpt lat="43.3439283" lon="11.2880522"><ele>358.0</ele><time>2026-04-19T06:47:56.131Z</time></trkpt><trkpt lat="43.3439467" lon="11.2881582"><ele>358.0</ele><time>2026-04-19T06:47:59.201Z</time></trkpt><trkpt lat="43.343962" lon="11.2882629"><ele>358.0</ele><time>2026-04-19T06:48:02.206Z</time></trkpt><trkpt lat="43.3439684" lon="11.2883743"><ele>358.0</ele><time>2026-04-19T06:48:05.12Z</time></trkpt><trkpt lat="43.3439984" lon="11.2884573"><ele>358.0</ele><time>2026-04-19T06:48:08.138Z</time></trkpt><trkpt lat="43.3440258" lon="11.2885443"><ele>357.66666666666663</ele><time>2026-04-19T06:48:11.142Z</time></trkpt><trkpt lat="43.3440486" lon="11.2886285"><ele>357.3333333333333</ele><time>2026-04-19T06:48:14.13Z</time></trkpt><trkpt lat="43.344078" lon="11.2887132"><ele>357.0</ele><time>2026-04-19T06:48:17.14Z</time></trkpt><trkpt lat="43.3441031" lon="11.2887979"><ele>356.6666666666667</ele><time>2026-04-19T06:48:20.146Z</time></trkpt><trkpt lat="43.3441278" lon="11.2888807"><ele>356.33333333333337</ele><time>2026-04-19T06:48:23.124Z</time></trkpt><trkpt lat="43.3441529" lon="11.2889652"><ele>356.0</ele><time>2026-04-19T06:48:26.113Z</time></trkpt><trkpt lat="43.3441971" lon="11.2891472"><ele>355.99999999999994</ele><time>2026-04-19T06:48:32.2Z</time></trkpt><trkpt lat="43.3442087" lon="11.2892338"><ele>356.0</ele><time>2026-04-19T06:48:36.135Z</time></trkpt><trkpt lat="43.3442324" lon="11.2893178"><ele>356.0</ele><time>2026-04-19T06:48:39.2Z</time></trkpt><trkpt lat="43.3442642" lon="11.2894126"><ele>356.0</ele><time>2026-04-19T06:48:43.212Z</time></trkpt><trkpt lat="43.3442733" lon="11.2895232"><ele>356.0</ele><time>2026-04-19T06:48:48.144Z</time></trkpt><trkpt lat="43.3443137" lon="11.2895988"><ele>355.99999999999994</ele><time>2026-04-19T06:48:52.132Z</time></trkpt><trkpt lat="43.3443334" lon="11.289692"><ele>356.0</ele><time>2026-04-19T06:48:56.117Z</time></trkpt><trkpt lat="43.344367" lon="11.2897757"><ele>356.6666666666667</ele><time>2026-04-19T06:49:00.118Z</time></trkpt><trkpt lat="43.3444019" lon="11.2898808"><ele>357.33333333333337</ele><time>2026-04-19T06:49:04.213Z</time></trkpt><trkpt lat="43.3444274" lon="11.289964"><ele>358.0</ele><time>2026-04-19T06:49:07.198Z</time></trkpt><trkpt lat="43.3444462" lon="11.2900725"><ele>358.6666666666667</ele><time>2026-04-19T06:49:11.128Z</time></trkpt><trkpt lat="43.344481" lon="11.290152"><ele>359.3333333333333</ele><time>2026-04-19T06:49:14.199Z</time></trkpt><trkpt lat="43.3445094" lon="11.2902592"><ele>360.0</ele><time>2026-04-19T06:49:17.118Z</time></trkpt><trkpt lat="43.3445386" lon="11.2903448"><ele>360.0</ele><time>2026-04-19T06:49:20.112Z</time></trkpt><trkpt lat="43.3445642" lon="11.2904315"><ele>360.0</ele><time>2026-04-19T06:49:23.131Z</time></trkpt><trkpt lat="43.3445969" lon="11.2905213"><ele>360.0</ele><time>2026-04-19T06:49:26.127Z</time></trkpt><trkpt lat="43.3446251" lon="11.2906065"><ele>360.0</ele><time>2026-04-19T06:49:29.14Z</time></trkpt><trkpt lat="43.3446522" lon="11.2906906"><ele>360.0</ele><time>2026-04-19T06:49:32.198Z</time></trkpt><trkpt lat="43.3446545" lon="11.2908122"><ele>360.0</ele><time>2026-04-19T06:49:37.138Z</time></trkpt><trkpt lat="43.3446871" lon="11.2908903"><ele>360.0</ele><time>2026-04-19T06:49:39.132Z</time></trkpt><trkpt lat="43.3447246" lon="11.2909977"><ele>360.57142857142856</ele><time>2026-04-19T06:49:42.196Z</time></trkpt><trkpt lat="43.3447366" lon="11.2911095"><ele>361.14285714285717</ele><time>2026-04-19T06:49:44.204Z</time></trkpt><trkpt lat="43.3447819" lon="11.291181"><ele>361.7142857142857</ele><time>2026-04-19T06:49:47.129Z</time></trkpt><trkpt lat="43.3448128" lon="11.2912824"><ele>362.2857142857143</ele><time>2026-04-19T06:49:50.139Z</time></trkpt><trkpt lat="43.3448242" lon="11.2913761"><ele>362.8571428571429</ele><time>2026-04-19T06:49:53.147Z</time></trkpt><trkpt lat="43.3448524" lon="11.2914649"><ele>363.42857142857144</ele><time>2026-04-19T06:49:56.132Z</time></trkpt><trkpt lat="43.3448797" lon="11.2915528"><ele>364.0</ele><time>2026-04-19T06:49:59.137Z</time></trkpt><trkpt lat="43.3449106" lon="11.2916451"><ele>364.14285714285717</ele><time>2026-04-19T06:50:02.113Z</time></trkpt><trkpt lat="43.3449397" lon="11.2917433"><ele>364.2857142857143</ele><time>2026-04-19T06:50:05.141Z</time></trkpt><trkpt lat="43.3449623" lon="11.2918375"><ele>364.42857142857144</ele><time>2026-04-19T06:50:08.212Z</time></trkpt><trkpt lat="43.3449864" lon="11.2919245"><ele>364.57142857142856</ele><time>2026-04-19T06:50:11.137Z</time></trkpt><trkpt lat="43.344993" lon="11.2920271"><ele>364.7142857142857</ele><time>2026-04-19T06:50:15.134Z</time></trkpt><trkpt lat="43.3450249" lon="11.2921134"><ele>364.8571428571429</ele><time>2026-04-19T06:50:18.137Z</time></trkpt><trkpt lat="43.3450581" lon="11.2921961"><ele>365.0</ele><time>2026-04-19T06:50:21.129Z</time></trkpt><trkpt lat="43.3450785" lon="11.2922794"><ele>366.1666666666667</ele><time>2026-04-19T06:50:24.202Z</time></trkpt><trkpt lat="43.3450906" lon="11.2923864"><ele>367.33333333333337</ele><time>2026-04-19T06:50:27.136Z</time></trkpt><trkpt lat="43.3451202" lon="11.2924928"><ele>368.5</ele><time>2026-04-19T06:50:32.136Z</time></trkpt><trkpt lat="43.345161" lon="11.2925894"><ele>369.6666666666667</ele><time>2026-04-19T06:50:35.139Z</time></trkpt><trkpt lat="43.3451885" lon="11.2927003"><ele>370.8333333333333</ele><time>2026-04-19T06:50:38.14Z</time></trkpt><trkpt lat="43.3452122" lon="11.2927889"><ele>372.0</ele><time>2026-04-19T06:50:40.128Z</time></trkpt><trkpt lat="43.3452338" lon="11.2928855"><ele>372.0</ele><time>2026-04-19T06:50:42.128Z</time></trkpt><trkpt lat="43.345265" lon="11.2930124"><ele>372.0</ele><time>2026-04-19T06:50:44.133Z</time></trkpt><trkpt lat="43.3453044" lon="11.2931485"><ele>372.0</ele><time>2026-04-19T06:50:46.139Z</time></trkpt><trkpt lat="43.345334" lon="11.293297"><ele>372.0</ele><time>2026-04-19T06:50:48.194Z</time></trkpt><trkpt lat="43.3453645" lon="11.293453"><ele>372.0</ele><time>2026-04-19T06:50:50.131Z</time></trkpt><trkpt lat="43.3453966" lon="11.293619"><ele>372.1666666666667</ele><time>2026-04-19T06:50:52.137Z</time></trkpt><trkpt lat="43.3454111" lon="11.293706"><ele>372.3333333333333</ele><time>2026-04-19T06:50:53.103Z</time></trkpt><trkpt lat="43.345423" lon="11.2937951"><ele>372.5</ele><time>2026-04-19T06:50:54.222Z</time></trkpt><trkpt lat="43.3454489" lon="11.2939786"><ele>372.66666666666663</ele><time>2026-04-19T06:50:56.107Z</time></trkpt><trkpt lat="43.3454585" lon="11.2940747"><ele>372.8333333333333</ele><time>2026-04-19T06:50:57.117Z</time></trkpt><trkpt lat="43.3454676" lon="11.2941746"><ele>373.0</ele><time>2026-04-19T06:50:58.191Z</time></trkpt><trkpt lat="43.3454739" lon="11.2942756"><ele>371.3333333333333</ele><time>2026-04-19T06:50:59.135Z</time></trkpt><trkpt lat="43.3454795" lon="11.2943805"><ele>369.66666666666663</ele><time>2026-04-19T06:51:00.149Z</time></trkpt><trkpt lat="43.3454827" lon="11.294485"><ele>368.0</ele><time>2026-04-19T06:51:01.132Z</time></trkpt><trkpt lat="43.3454831" lon="11.2945901"><ele>366.3333333333333</ele><time>2026-04-19T06:51:02.206Z</time></trkpt><trkpt lat="43.34548" lon="11.2946994"><ele>364.6666666666667</ele><time>2026-04-19T06:51:03.208Z</time></trkpt><trkpt lat="43.3454698" lon="11.2948074"><ele>363.0</ele><time>2026-04-19T06:51:04.205Z</time></trkpt><trkpt lat="43.3454533" lon="11.29492"><ele>362.1666666666667</ele><time>2026-04-19T06:51:05.111Z</time></trkpt><trkpt lat="43.3454344" lon="11.2950304"><ele>361.3333333333333</ele><time>2026-04-19T06:51:06.119Z</time></trkpt><trkpt lat="43.3454091" lon="11.2951371"><ele>360.5</ele><time>2026-04-19T06:51:07.122Z</time></trkpt><trkpt lat="43.3453837" lon="11.2952448"><ele>359.66666666666663</ele><time>2026-04-19T06:51:08.124Z</time></trkpt><trkpt lat="43.3453583" lon="11.2953477"><ele>358.8333333333333</ele><time>2026-04-19T06:51:09.122Z</time></trkpt><trkpt lat="43.3453339" lon="11.2954407"><ele>358.0</ele><time>2026-04-19T06:51:10.135Z</time></trkpt><trkpt lat="43.3453104" lon="11.2955336"><ele>358.42857142857144</ele><time>2026-04-19T06:51:11.133Z</time></trkpt><trkpt lat="43.3452893" lon="11.2956175"><ele>358.8571428571429</ele><time>2026-04-19T06:51:12.128Z</time></trkpt><trkpt lat="43.3452649" lon="11.2956997"><ele>359.28571428571433</ele><time>2026-04-19T06:51:13.127Z</time></trkpt><trkpt lat="43.3452359" lon="11.2958649"><ele>359.7142857142857</ele><time>2026-04-19T06:51:15.13Z</time></trkpt><trkpt lat="43.3452205" lon="11.2959522"><ele>360.1428571428571</ele><time>2026-04-19T06:51:16.144Z</time></trkpt><trkpt lat="43.3452054" lon="11.2960374"><ele>360.5714285714286</ele><time>2026-04-19T06:51:17.147Z</time></trkpt><trkpt lat="43.3451911" lon="11.2961235"><ele>361.0</ele><time>2026-04-19T06:51:18.133Z</time></trkpt><trkpt lat="43.3451761" lon="11.2962124"><ele>361.0</ele><time>2026-04-19T06:51:19.137Z</time></trkpt><trkpt lat="43.3451635" lon="11.2962992"><ele>361.0</ele><time>2026-04-19T06:51:20.134Z</time></trkpt><trkpt lat="43.34515" lon="11.2963849"><ele>361.0</ele><time>2026-04-19T06:51:21.137Z</time></trkpt><trkpt lat="43.3451262" lon="11.2965563"><ele>361.0</ele><time>2026-04-19T06:51:23.136Z</time></trkpt><trkpt lat="43.3451291" lon="11.2966478"><ele>361.0</ele><time>2026-04-19T06:51:24.135Z</time></trkpt><trkpt lat="43.3451306" lon="11.2967401"><ele>361.0</ele><time>2026-04-19T06:51:25.145Z</time></trkpt><trkpt lat="43.3451086" lon="11.2968848"><ele>362.0</ele><time>2026-04-19T06:51:27.131Z</time></trkpt><trkpt lat="43.3450805" lon="11.2969633"><ele>363.0</ele><time>2026-04-19T06:51:28.204Z</time></trkpt><trkpt lat="43.3450509" lon="11.2970421"><ele>364.0</ele><time>2026-04-19T06:51:29.201Z</time></trkpt><trkpt lat="43.3450181" lon="11.2971972"><ele>365.0</ele><time>2026-04-19T06:51:31.135Z</time></trkpt><trkpt lat="43.3449917" lon="11.2973624"><ele>366.0</ele><time>2026-04-19T06:51:33.215Z</time></trkpt><trkpt lat="43.344971" lon="11.2974468"><ele>367.0</ele><time>2026-04-19T06:51:34.21Z</time></trkpt><trkpt lat="43.3449345" lon="11.2975996"><ele>367.0</ele><time>2026-04-19T06:51:36.131Z</time></trkpt><trkpt lat="43.3449117" lon="11.2976863"><ele>367.0</ele><time>2026-04-19T06:51:37.19Z</time></trkpt><trkpt lat="43.344891" lon="11.2977795"><ele>367.0</ele><time>2026-04-19T06:51:38.197Z</time></trkpt><trkpt lat="43.3448579" lon="11.2978736"><ele>367.0</ele><time>2026-04-19T06:51:39.199Z</time></trkpt><trkpt lat="43.3448238" lon="11.2979742"><ele>367.0</ele><time>2026-04-19T06:51:40.104Z</time></trkpt><trkpt lat="43.3447853" lon="11.2980756"><ele>367.0</ele><time>2026-04-19T06:51:41.111Z</time></trkpt><trkpt lat="43.344738" lon="11.2981632"><ele>365.8333333333333</ele><time>2026-04-19T06:51:42.12Z</time></trkpt><trkpt lat="43.3446836" lon="11.2982368"><ele>364.66666666666663</ele><time>2026-04-19T06:51:43.13Z</time></trkpt><trkpt lat="43.3446287" lon="11.2983185"><ele>363.5</ele><time>2026-04-19T06:51:44.135Z</time></trkpt><trkpt lat="43.3445887" lon="11.298419"><ele>362.3333333333333</ele><time>2026-04-19T06:51:45.115Z</time></trkpt><trkpt lat="43.34458" lon="11.2985314"><ele>361.1666666666667</ele><time>2026-04-19T06:51:46.141Z</time></trkpt><trkpt lat="43.3445825" lon="11.2986516"><ele>360.0</ele><time>2026-04-19T06:51:47.135Z</time></trkpt><trkpt lat="43.3445882" lon="11.2987656"><ele>360.0</ele><time>2026-04-19T06:51:48.137Z</time></trkpt><trkpt lat="43.3445857" lon="11.2988801"><ele>360.0</ele><time>2026-04-19T06:51:49.145Z</time></trkpt><trkpt lat="43.3445789" lon="11.2989891"><ele>360.0</ele><time>2026-04-19T06:51:50.132Z</time></trkpt><trkpt lat="43.3445736" lon="11.2991012"><ele>360.0</ele><time>2026-04-19T06:51:51.128Z</time></trkpt><trkpt lat="43.3445701" lon="11.2992151"><ele>360.0</ele><time>2026-04-19T06:51:52.126Z</time></trkpt><trkpt lat="43.3445652" lon="11.29933"><ele>360.0</ele><time>2026-04-19T06:51:53.201Z</time></trkpt><trkpt lat="43.3445609" lon="11.2994377"><ele>359.4285714285714</ele><time>2026-04-19T06:51:54.197Z</time></trkpt><trkpt lat="43.3445547" lon="11.2995413"><ele>358.8571428571429</ele><time>2026-04-19T06:51:55.119Z</time></trkpt><trkpt lat="43.3445474" lon="11.2996469"><ele>358.2857142857143</ele><time>2026-04-19T06:51:56.144Z</time></trkpt><trkpt lat="43.3445427" lon="11.2997485"><ele>357.71428571428567</ele><time>2026-04-19T06:51:57.133Z</time></trkpt><trkpt lat="43.34454" lon="11.2998465"><ele>357.1428571428571</ele><time>2026-04-19T06:51:58.198Z</time></trkpt><trkpt lat="43.3445382" lon="11.2999422"><ele>356.57142857142856</ele><time>2026-04-19T06:51:59.205Z</time></trkpt><trkpt lat="43.3445361" lon="11.3000346"><ele>356.0</ele><time>2026-04-19T06:52:00.124Z</time></trkpt><trkpt lat="43.3445362" lon="11.3001337"><ele>354.99999999999994</ele><time>2026-04-19T06:52:01.116Z</time></trkpt><trkpt lat="43.344534" lon="11.3002284"><ele>354.0</ele><time>2026-04-19T06:52:02.13Z</time></trkpt><trkpt lat="43.3445272" lon="11.3003241"><ele>353.0</ele><time>2026-04-19T06:52:03.128Z</time></trkpt><trkpt lat="43.3445185" lon="11.3004179"><ele>352.0</ele><time>2026-04-19T06:52:04.119Z</time></trkpt><trkpt lat="43.3445072" lon="11.3005098"><ele>351.0</ele><time>2026-04-19T06:52:05.129Z</time></trkpt><trkpt lat="43.3444978" lon="11.3006047"><ele>349.99999999999994</ele><time>2026-04-19T06:52:06.137Z</time></trkpt><trkpt lat="43.344486" lon="11.3007001"><ele>349.0</ele><time>2026-04-19T06:52:07.148Z</time></trkpt><trkpt lat="43.3444724" lon="11.3007955"><ele>348.99999999999994</ele><time>2026-04-19T06:52:08.128Z</time></trkpt><trkpt lat="43.3444579" lon="11.300891"><ele>349.0</ele><time>2026-04-19T06:52:09.129Z</time></trkpt><trkpt lat="43.3444425" lon="11.3009871"><ele>349.0</ele><time>2026-04-19T06:52:10.14Z</time></trkpt><trkpt lat="43.3444222" lon="11.3010834"><ele>349.0</ele><time>2026-04-19T06:52:11.108Z</time></trkpt><trkpt lat="43.3443992" lon="11.3011869"><ele>349.0</ele><time>2026-04-19T06:52:12.195Z</time></trkpt><trkpt lat="43.344378" lon="11.3012876"><ele>348.99999999999994</ele><time>2026-04-19T06:52:13.206Z</time></trkpt><trkpt lat="43.3443581" lon="11.3013899"><ele>349.0</ele><time>2026-04-19T06:52:14.124Z</time></trkpt><trkpt lat="43.3443367" lon="11.3014977"><ele>350.0</ele><time>2026-04-19T06:52:15.122Z</time></trkpt><trkpt lat="43.3443131" lon="11.3016072"><ele>351.0</ele><time>2026-04-19T06:52:16.152Z</time></trkpt><trkpt lat="43.3442906" lon="11.3017137"><ele>352.0</ele><time>2026-04-19T06:52:17.142Z</time></trkpt><trkpt lat="43.3442696" lon="11.3018241"><ele>353.0</ele><time>2026-04-19T06:52:18.195Z</time></trkpt><trkpt lat="43.3442479" lon="11.3019422"><ele>354.0</ele><time>2026-04-19T06:52:19.124Z</time></trkpt><trkpt lat="43.3442216" lon="11.302067"><ele>355.0</ele><time>2026-04-19T06:52:20.13Z</time></trkpt><trkpt lat="43.3441889" lon="11.3021774"><ele>354.8333333333333</ele><time>2026-04-19T06:52:21.128Z</time></trkpt><trkpt lat="43.3441563" lon="11.3022901"><ele>354.66666666666663</ele><time>2026-04-19T06:52:22.198Z</time></trkpt><trkpt lat="43.3441315" lon="11.3024066"><ele>354.5</ele><time>2026-04-19T06:52:23.197Z</time></trkpt><trkpt lat="43.3441148" lon="11.3025048"><ele>354.3333333333333</ele><time>2026-04-19T06:52:24.12Z</time></trkpt><trkpt lat="43.3440947" lon="11.3026139"><ele>354.1666666666667</ele><time>2026-04-19T06:52:25.147Z</time></trkpt><trkpt lat="43.3440788" lon="11.3027328"><ele>354.0</ele><time>2026-04-19T06:52:26.133Z</time></trkpt><trkpt lat="43.3440577" lon="11.30286"><ele>354.0</ele><time>2026-04-19T06:52:27.207Z</time></trkpt><trkpt lat="43.344041" lon="11.302984"><ele>354.0</ele><time>2026-04-19T06:52:28.207Z</time></trkpt><trkpt lat="43.3440449" lon="11.3030998"><ele>354.0</ele><time>2026-04-19T06:52:29.124Z</time></trkpt><trkpt lat="43.3440358" lon="11.3032305"><ele>354.0</ele><time>2026-04-19T06:52:30.11Z</time></trkpt><trkpt lat="43.3440079" lon="11.3033692"><ele>354.0</ele><time>2026-04-19T06:52:31.126Z</time></trkpt><trkpt lat="43.3439781" lon="11.3035051"><ele>353.79999999999995</ele><time>2026-04-19T06:52:32.219Z</time></trkpt><trkpt lat="43.3439428" lon="11.3036329"><ele>353.59999999999997</ele><time>2026-04-19T06:52:33.202Z</time></trkpt><trkpt lat="43.343918" lon="11.3037633"><ele>353.4</ele><time>2026-04-19T06:52:34.194Z</time></trkpt><trkpt lat="43.3438981" lon="11.3038838"><ele>353.2</ele><time>2026-04-19T06:52:35.113Z</time></trkpt><trkpt lat="43.3438751" lon="11.304009"><ele>353.0</ele><time>2026-04-19T06:52:36.128Z</time></trkpt><trkpt lat="43.3438441" lon="11.3041568"><ele>350.4</ele><time>2026-04-19T06:52:37.13Z</time></trkpt><trkpt lat="43.3438056" lon="11.3043129"><ele>347.79999999999995</ele><time>2026-04-19T06:52:38.111Z</time></trkpt><trkpt lat="43.3437712" lon="11.304456"><ele>345.2</ele><time>2026-04-19T06:52:39.137Z</time></trkpt><trkpt lat="43.3437468" lon="11.304597"><ele>342.6</ele><time>2026-04-19T06:52:40.142Z</time></trkpt><trkpt lat="43.343722" lon="11.3047357"><ele>340.0</ele><time>2026-04-19T06:52:41.127Z</time></trkpt><trkpt lat="43.3437024" lon="11.3048768"><ele>339.4</ele><time>2026-04-19T06:52:42.144Z</time></trkpt><trkpt lat="43.3436822" lon="11.3050136"><ele>338.8</ele><time>2026-04-19T06:52:43.139Z</time></trkpt><trkpt lat="43.3436553" lon="11.3051428"><ele>338.20000000000005</ele><time>2026-04-19T06:52:44.129Z</time></trkpt><trkpt lat="43.3436184" lon="11.3052646"><ele>337.6</ele><time>2026-04-19T06:52:45.151Z</time></trkpt><trkpt lat="43.3435773" lon="11.3053712"><ele>337.0</ele><time>2026-04-19T06:52:46.135Z</time></trkpt><trkpt lat="43.3435272" lon="11.3054704"><ele>337.0</ele><time>2026-04-19T06:52:47.146Z</time></trkpt><trkpt lat="43.3434739" lon="11.3055595"><ele>337.0</ele><time>2026-04-19T06:52:48.113Z</time></trkpt><trkpt lat="43.3434193" lon="11.3056375"><ele>337.0</ele><time>2026-04-19T06:52:49.21Z</time></trkpt><trkpt lat="43.34336" lon="11.3056897"><ele>337.0</ele><time>2026-04-19T06:52:50.12Z</time></trkpt><trkpt lat="43.3432887" lon="11.3057213"><ele>337.0</ele><time>2026-04-19T06:52:51.129Z</time></trkpt><trkpt lat="43.3432225" lon="11.3057367"><ele>337.0</ele><time>2026-04-19T06:52:52.207Z</time></trkpt><trkpt lat="43.343098" lon="11.305719"><ele>336.8333333333333</ele><time>2026-04-19T06:52:54.197Z</time></trkpt><trkpt lat="43.3430404" lon="11.3056826"><ele>336.66666666666663</ele><time>2026-04-19T06:52:55.125Z</time></trkpt><trkpt lat="43.3429422" lon="11.305588"><ele>336.5</ele><time>2026-04-19T06:52:57.186Z</time></trkpt><trkpt lat="43.3428892" lon="11.3055344"><ele>336.3333333333333</ele><time>2026-04-19T06:52:58.204Z</time></trkpt><trkpt lat="43.3428315" lon="11.3054846"><ele>336.1666666666667</ele><time>2026-04-19T06:52:59.142Z</time></trkpt><trkpt lat="43.3427198" lon="11.3055595"><ele>336.0</ele><time>2026-04-19T06:53:01.126Z</time></trkpt><trkpt lat="43.3426897" lon="11.3056443"><ele>336.0</ele><time>2026-04-19T06:53:02.138Z</time></trkpt><trkpt lat="43.3426861" lon="11.3057398"><ele>336.0</ele><time>2026-04-19T06:53:03.215Z</time></trkpt><trkpt lat="43.3427053" lon="11.3058773"><ele>336.0</ele><time>2026-04-19T06:53:05.142Z</time></trkpt><trkpt lat="43.3428254" lon="11.3059401"><ele>336.0</ele><time>2026-04-19T06:53:07.147Z</time></trkpt><trkpt lat="43.3428899" lon="11.3059436"><ele>336.0</ele><time>2026-04-19T06:53:08.107Z</time></trkpt><trkpt lat="43.3429546" lon="11.3059403"><ele>336.0</ele><time>2026-04-19T06:53:09.231Z</time></trkpt><trkpt lat="43.3430729" lon="11.3059118"><ele>336.6</ele><time>2026-04-19T06:53:11.136Z</time></trkpt><trkpt lat="43.3431839" lon="11.3058967"><ele>337.20000000000005</ele><time>2026-04-19T06:53:13.129Z</time></trkpt><trkpt lat="43.343299" lon="11.3059276"><ele>337.79999999999995</ele><time>2026-04-19T06:53:15.155Z</time></trkpt><trkpt lat="43.3434064" lon="11.3059913"><ele>338.4</ele><time>2026-04-19T06:53:17.136Z</time></trkpt><trkpt lat="43.3434964" lon="11.3060576"><ele>339.0</ele><time>2026-04-19T06:53:19.148Z</time></trkpt><trkpt lat="43.3435824" lon="11.3061314"><ele>339.0</ele><time>2026-04-19T06:53:21.13Z</time></trkpt><trkpt lat="43.3436746" lon="11.3062051"><ele>339.0</ele><time>2026-04-19T06:53:23.142Z</time></trkpt><trkpt lat="43.3437673" lon="11.3062738"><ele>339.0</ele><time>2026-04-19T06:53:25.141Z</time></trkpt><trkpt lat="43.3438546" lon="11.3063432"><ele>339.0</ele><time>2026-04-19T06:53:27.177Z</time></trkpt><trkpt lat="43.3439418" lon="11.3064095"><ele>339.0</ele><time>2026-04-19T06:53:29.135Z</time></trkpt><trkpt lat="43.3440212" lon="11.3064814"><ele>339.0</ele><time>2026-04-19T06:53:31.129Z</time></trkpt><trkpt lat="43.3441041" lon="11.306538"><ele>339.0</ele><time>2026-04-19T06:53:33.14Z</time></trkpt><trkpt lat="43.3441914" lon="11.3065962"><ele>339.0</ele><time>2026-04-19T06:53:35.125Z</time></trkpt><trkpt lat="43.3442659" lon="11.3066779"><ele>339.0</ele><time>2026-04-19T06:53:37.127Z</time></trkpt><trkpt lat="43.344317" lon="11.306787"><ele>339.0</ele><time>2026-04-19T06:53:39.208Z</time></trkpt><trkpt lat="43.3443473" lon="11.3069203"><ele>339.0</ele><time>2026-04-19T06:53:41.135Z</time></trkpt><trkpt lat="43.3444084" lon="11.3070214"><ele>339.0</ele><time>2026-04-19T06:53:43.202Z</time></trkpt><trkpt lat="43.3444816" lon="11.3070925"><ele>339.0</ele><time>2026-04-19T06:53:45.125Z</time></trkpt><trkpt lat="43.3445974" lon="11.3070896"><ele>339.0</ele><time>2026-04-19T06:53:47.22Z</time></trkpt><trkpt lat="43.3446622" lon="11.3070857"><ele>339.0</ele><time>2026-04-19T06:53:48.141Z</time></trkpt><trkpt lat="43.3447765" lon="11.3071016"><ele>339.4</ele><time>2026-04-19T06:53:50.114Z</time></trkpt><trkpt lat="43.3448678" lon="11.307156"><ele>339.79999999999995</ele><time>2026-04-19T06:53:52.142Z</time></trkpt><trkpt lat="43.3449497" lon="11.3072257"><ele>340.20000000000005</ele><time>2026-04-19T06:53:54.146Z</time></trkpt><trkpt lat="43.3450281" lon="11.307293"><ele>340.6</ele><time>2026-04-19T06:53:56.141Z</time></trkpt><trkpt lat="43.3450993" lon="11.3073549"><ele>341.0</ele><time>2026-04-19T06:53:58.146Z</time></trkpt><trkpt lat="43.3451749" lon="11.3074096"><ele>341.0</ele><time>2026-04-19T06:54:00.12Z</time></trkpt><trkpt lat="43.3452507" lon="11.3074661"><ele>341.0</ele><time>2026-04-19T06:54:02.204Z</time></trkpt><trkpt lat="43.345418" lon="11.3076145"><ele>341.0</ele><time>2026-04-19T06:54:07.113Z</time></trkpt><trkpt lat="43.3454868" lon="11.3076474"><ele>341.0</ele><time>2026-04-19T06:54:09.194Z</time></trkpt><trkpt lat="43.3455649" lon="11.3077272"><ele>341.83333333333337</ele><time>2026-04-19T06:54:11.126Z</time></trkpt><trkpt lat="43.3456437" lon="11.3077831"><ele>342.6666666666667</ele><time>2026-04-19T06:54:13.12Z</time></trkpt><trkpt lat="43.3457104" lon="11.3078313"><ele>343.5</ele><time>2026-04-19T06:54:15.142Z</time></trkpt><trkpt lat="43.3457745" lon="11.3078838"><ele>344.3333333333333</ele><time>2026-04-19T06:54:17.11Z</time></trkpt><trkpt lat="43.3458354" lon="11.3079276"><ele>345.16666666666663</ele><time>2026-04-19T06:54:19.215Z</time></trkpt><trkpt lat="43.3459217" lon="11.3079777"><ele>346.0</ele><time>2026-04-19T06:54:22.108Z</time></trkpt><trkpt lat="43.3459789" lon="11.3080194"><ele>347.16666666666663</ele><time>2026-04-19T06:54:24.131Z</time></trkpt><trkpt lat="43.3460518" lon="11.3080805"><ele>348.3333333333333</ele><time>2026-04-19T06:54:27.146Z</time></trkpt><trkpt lat="43.346127" lon="11.3081322"><ele>349.5</ele><time>2026-04-19T06:54:30.15Z</time></trkpt><trkpt lat="43.3462053" lon="11.3081917"><ele>350.6666666666667</ele><time>2026-04-19T06:54:33.129Z</time></trkpt><trkpt lat="43.3462847" lon="11.3082305"><ele>351.83333333333337</ele><time>2026-04-19T06:54:36.124Z</time></trkpt><trkpt lat="43.3463509" lon="11.3082691"><ele>353.0</ele><time>2026-04-19T06:54:39.134Z</time></trkpt><trkpt lat="43.3464298" lon="11.3083275"><ele>353.1666666666667</ele><time>2026-04-19T06:54:43.132Z</time></trkpt><trkpt lat="43.3464896" lon="11.3083845"><ele>353.33333333333337</ele><time>2026-04-19T06:54:46.141Z</time></trkpt><trkpt lat="43.3465562" lon="11.3084465"><ele>353.5</ele><time>2026-04-19T06:54:49.145Z</time></trkpt><trkpt lat="43.3466091" lon="11.3085085"><ele>353.6666666666667</ele><time>2026-04-19T06:54:52.123Z</time></trkpt><trkpt lat="43.3466639" lon="11.3085663"><ele>353.8333333333333</ele><time>2026-04-19T06:54:55.135Z</time></trkpt><trkpt lat="43.3467281" lon="11.3086378"><ele>354.0</ele><time>2026-04-19T06:54:59.131Z</time></trkpt><trkpt lat="43.3467981" lon="11.3087086"><ele>354.0</ele><time>2026-04-19T06:55:03.138Z</time></trkpt><trkpt lat="43.3468628" lon="11.3087746"><ele>354.0</ele><time>2026-04-19T06:55:07.134Z</time></trkpt><trkpt lat="43.3469157" lon="11.3088435"><ele>354.0</ele><time>2026-04-19T06:55:11.141Z</time></trkpt><trkpt lat="43.3469708" lon="11.3089141"><ele>354.0</ele><time>2026-04-19T06:55:15.137Z</time></trkpt><trkpt lat="43.3470231" lon="11.3089989"><ele>354.0</ele><time>2026-04-19T06:55:19.15Z</time></trkpt><trkpt lat="43.3470607" lon="11.3090776"><ele>354.0</ele><time>2026-04-19T06:55:22.144Z</time></trkpt><trkpt lat="43.3470768" lon="11.3091898"><ele>354.42857142857144</ele><time>2026-04-19T06:55:26.147Z</time></trkpt><trkpt lat="43.3470974" lon="11.3092743"><ele>354.85714285714283</ele><time>2026-04-19T06:55:29.134Z</time></trkpt><trkpt lat="43.3471296" lon="11.3093503"><ele>355.2857142857143</ele><time>2026-04-19T06:55:32.14Z</time></trkpt><trkpt lat="43.3471874" lon="11.3094071"><ele>355.7142857142857</ele><time>2026-04-19T06:55:35.143Z</time></trkpt><trkpt lat="43.3472656" lon="11.309437"><ele>356.1428571428571</ele><time>2026-04-19T06:55:38.13Z</time></trkpt><trkpt lat="43.3473316" lon="11.3094608"><ele>356.57142857142856</ele><time>2026-04-19T06:55:40.138Z</time></trkpt><trkpt lat="43.3474054" lon="11.3094927"><ele>357.0</ele><time>2026-04-19T06:55:42.134Z</time></trkpt><trkpt lat="43.3474535" lon="11.3095508"><ele>357.0</ele><time>2026-04-19T06:55:44.131Z</time></trkpt><trkpt lat="43.3474979" lon="11.3096216"><ele>357.0</ele><time>2026-04-19T06:55:46.144Z</time></trkpt><trkpt lat="43.3475475" lon="11.3096968"><ele>357.0</ele><time>2026-04-19T06:55:48.138Z</time></trkpt><trkpt lat="43.3475965" lon="11.309768"><ele>357.0</ele><time>2026-04-19T06:55:50.126Z</time></trkpt><trkpt lat="43.3476449" lon="11.3098377"><ele>357.0</ele><time>2026-04-19T06:55:52.223Z</time></trkpt><trkpt lat="43.3476914" lon="11.3099102"><ele>357.0</ele><time>2026-04-19T06:55:54.131Z</time></trkpt><trkpt lat="43.3477292" lon="11.3099842"><ele>357.0</ele><time>2026-04-19T06:55:56.124Z</time></trkpt><trkpt lat="43.3477932" lon="11.3100868"><ele>357.0</ele><time>2026-04-19T06:55:59.142Z</time></trkpt><trkpt lat="43.3478386" lon="11.3101554"><ele>357.0</ele><time>2026-04-19T06:56:01.123Z</time></trkpt><trkpt lat="43.3478931" lon="11.3102229"><ele>357.0</ele><time>2026-04-19T06:56:03.106Z</time></trkpt><trkpt lat="43.3479502" lon="11.3103119"><ele>357.0</ele><time>2026-04-19T06:56:06.132Z</time></trkpt><trkpt lat="43.3479856" lon="11.3103855"><ele>357.0</ele><time>2026-04-19T06:56:08.201Z</time></trkpt><trkpt lat="43.3480245" lon="11.3104591"><ele>357.0</ele><time>2026-04-19T06:56:10.117Z</time></trkpt><trkpt lat="43.3480634" lon="11.3105526"><ele>357.0</ele><time>2026-04-19T06:56:12.133Z</time></trkpt><trkpt lat="43.3481024" lon="11.3106504"><ele>358.14285714285717</ele><time>2026-04-19T06:56:14.146Z</time></trkpt><trkpt lat="43.3481349" lon="11.3107432"><ele>359.2857142857143</ele><time>2026-04-19T06:56:16.145Z</time></trkpt><trkpt lat="43.3481734" lon="11.3108232"><ele>360.42857142857144</ele><time>2026-04-19T06:56:18.138Z</time></trkpt><trkpt lat="43.3482133" lon="11.3109002"><ele>361.57142857142856</ele><time>2026-04-19T06:56:20.128Z</time></trkpt><trkpt lat="43.3482547" lon="11.3109827"><ele>362.7142857142857</ele><time>2026-04-19T06:56:22.148Z</time></trkpt><trkpt lat="43.3482911" lon="11.3110659"><ele>363.8571428571429</ele><time>2026-04-19T06:56:24.128Z</time></trkpt><trkpt lat="43.3483295" lon="11.3111538"><ele>365.0</ele><time>2026-04-19T06:56:26.132Z</time></trkpt><trkpt lat="43.3483739" lon="11.3112381"><ele>365.00000000000006</ele><time>2026-04-19T06:56:28.123Z</time></trkpt><trkpt lat="43.3484186" lon="11.3113191"><ele>365.0</ele><time>2026-04-19T06:56:30.133Z</time></trkpt><trkpt lat="43.3484524" lon="11.3113978"><ele>365.0</ele><time>2026-04-19T06:56:32.127Z</time></trkpt><trkpt lat="43.3484967" lon="11.3115042"><ele>365.0</ele><time>2026-04-19T06:56:35.117Z</time></trkpt><trkpt lat="43.3485298" lon="11.311578"><ele>365.0</ele><time>2026-04-19T06:56:37.128Z</time></trkpt><trkpt lat="43.3485663" lon="11.3116514"><ele>365.00000000000006</ele><time>2026-04-19T06:56:39.218Z</time></trkpt><trkpt lat="43.3486048" lon="11.3117199"><ele>365.0</ele><time>2026-04-19T06:56:41.124Z</time></trkpt><trkpt lat="43.3486622" lon="11.3118097"><ele>365.6666666666667</ele><time>2026-04-19T06:56:44.213Z</time></trkpt><trkpt lat="43.3487173" lon="11.3118853"><ele>366.33333333333337</ele><time>2026-04-19T06:56:47.132Z</time></trkpt><trkpt lat="43.348772" lon="11.3119542"><ele>367.0</ele><time>2026-04-19T06:56:50.129Z</time></trkpt><trkpt lat="43.3488278" lon="11.3120223"><ele>367.6666666666667</ele><time>2026-04-19T06:56:53.131Z</time></trkpt><trkpt lat="43.3488853" lon="11.3120934"><ele>368.3333333333333</ele><time>2026-04-19T06:56:56.136Z</time></trkpt><trkpt lat="43.3489453" lon="11.3121609"><ele>369.0</ele><time>2026-04-19T06:56:59.127Z</time></trkpt><trkpt lat="43.349001" lon="11.3122377"><ele>368.2</ele><time>2026-04-19T06:57:02.142Z</time></trkpt><trkpt lat="43.3490413" lon="11.3123284"><ele>367.4</ele><time>2026-04-19T06:57:05.119Z</time></trkpt><trkpt lat="43.3490791" lon="11.3124621"><ele>366.6</ele><time>2026-04-19T06:57:08.125Z</time></trkpt><trkpt lat="43.3490811" lon="11.3125505"><ele>365.8</ele><time>2026-04-19T06:57:09.214Z</time></trkpt><trkpt lat="43.3490988" lon="11.3127077"><ele>365.0</ele><time>2026-04-19T06:57:11.135Z</time></trkpt><trkpt lat="43.3491768" lon="11.3128258"><ele>365.0</ele><time>2026-04-19T06:57:13.129Z</time></trkpt><trkpt lat="43.349245" lon="11.3128759"><ele>365.0</ele><time>2026-04-19T06:57:14.137Z</time></trkpt><trkpt lat="43.3493197" lon="11.3129261"><ele>365.0</ele><time>2026-04-19T06:57:15.129Z</time></trkpt><trkpt lat="43.3494297" lon="11.3128153"><ele>365.0</ele><time>2026-04-19T06:57:17.19Z</time></trkpt><trkpt lat="43.3494738" lon="11.3127253"><ele>365.0</ele><time>2026-04-19T06:57:18.191Z</time></trkpt><trkpt lat="43.3495421" lon="11.3125905"><ele>365.0</ele><time>2026-04-19T06:57:20.133Z</time></trkpt><trkpt lat="43.3496218" lon="11.3124779"><ele>365.0</ele><time>2026-04-19T06:57:22.137Z</time></trkpt><trkpt lat="43.349704" lon="11.31241"><ele>365.0</ele><time>2026-04-19T06:57:24.111Z</time></trkpt><trkpt lat="43.3497984" lon="11.3123884"><ele>365.0</ele><time>2026-04-19T06:57:26.14Z</time></trkpt><trkpt lat="43.3498996" lon="11.3124016"><ele>365.0</ele><time>2026-04-19T06:57:28.136Z</time></trkpt><trkpt lat="43.3500307" lon="11.3124328"><ele>364.1666666666667</ele><time>2026-04-19T06:57:30.136Z</time></trkpt><trkpt lat="43.3501034" lon="11.3124513"><ele>363.33333333333337</ele><time>2026-04-19T06:57:31.125Z</time></trkpt><trkpt lat="43.3501777" lon="11.3124691"><ele>362.5</ele><time>2026-04-19T06:57:32.13Z</time></trkpt><trkpt lat="43.3502578" lon="11.3124856"><ele>361.6666666666667</ele><time>2026-04-19T06:57:33.217Z</time></trkpt><trkpt lat="43.350338" lon="11.3125053"><ele>360.8333333333333</ele><time>2026-04-19T06:57:34.201Z</time></trkpt><trkpt lat="43.3504225" lon="11.3125265"><ele>360.0</ele><time>2026-04-19T06:57:35.129Z</time></trkpt><trkpt lat="43.3505117" lon="11.3125506"><ele>359.3333333333333</ele><time>2026-04-19T06:57:36.131Z</time></trkpt><trkpt lat="43.3505997" lon="11.3125717"><ele>358.6666666666667</ele><time>2026-04-19T06:57:37.13Z</time></trkpt><trkpt lat="43.3506891" lon="11.3125919"><ele>358.0</ele><time>2026-04-19T06:57:38.133Z</time></trkpt><trkpt lat="43.3507773" lon="11.3126072"><ele>357.33333333333337</ele><time>2026-04-19T06:57:39.116Z</time></trkpt><trkpt lat="43.3508655" lon="11.3126172"><ele>356.6666666666667</ele><time>2026-04-19T06:57:40.121Z</time></trkpt><trkpt lat="43.3509485" lon="11.3126308"><ele>356.0</ele><time>2026-04-19T06:57:41.119Z</time></trkpt><trkpt lat="43.3510308" lon="11.3126559"><ele>356.0</ele><time>2026-04-19T06:57:42.113Z</time></trkpt><trkpt lat="43.3511148" lon="11.3126883"><ele>356.0</ele><time>2026-04-19T06:57:43.146Z</time></trkpt><trkpt lat="43.3512006" lon="11.3127194"><ele>356.0</ele><time>2026-04-19T06:57:44.203Z</time></trkpt><trkpt lat="43.3512804" lon="11.3127426"><ele>356.0</ele><time>2026-04-19T06:57:45.122Z</time></trkpt><trkpt lat="43.3513603" lon="11.3127671"><ele>356.0</ele><time>2026-04-19T06:57:46.137Z</time></trkpt><trkpt lat="43.3514341" lon="11.312792"><ele>356.0</ele><time>2026-04-19T06:57:47.13Z</time></trkpt><trkpt lat="43.3515174" lon="11.3128181"><ele>356.5</ele><time>2026-04-19T06:57:48.128Z</time></trkpt><trkpt lat="43.3515969" lon="11.3128453"><ele>357.0</ele><time>2026-04-19T06:57:49.114Z</time></trkpt><trkpt lat="43.3516604" lon="11.3128767"><ele>357.5</ele><time>2026-04-19T06:57:50.136Z</time></trkpt><trkpt lat="43.3517837" lon="11.3129055"><ele>358.0</ele><time>2026-04-19T06:57:52.205Z</time></trkpt><trkpt lat="43.3518467" lon="11.3129103"><ele>358.5</ele><time>2026-04-19T06:57:53.129Z</time></trkpt><trkpt lat="43.351912" lon="11.3129139"><ele>359.0</ele><time>2026-04-19T06:57:54.133Z</time></trkpt><trkpt lat="43.3520356" lon="11.3129028"><ele>359.0</ele><time>2026-04-19T06:57:56.117Z</time></trkpt><trkpt lat="43.3521021" lon="11.31291"><ele>359.0</ele><time>2026-04-19T06:57:57.12Z</time></trkpt><trkpt lat="43.3522174" lon="11.3129199"><ele>359.0</ele><time>2026-04-19T06:57:59.132Z</time></trkpt><trkpt lat="43.3523272" lon="11.3129291"><ele>359.0</ele><time>2026-04-19T06:58:01.13Z</time></trkpt><trkpt lat="43.3524308" lon="11.3129412"><ele>359.0</ele><time>2026-04-19T06:58:03.124Z</time></trkpt><trkpt lat="43.3525635" lon="11.3129674"><ele>359.1666666666667</ele><time>2026-04-19T06:58:05.124Z</time></trkpt><trkpt lat="43.3526417" lon="11.3129852"><ele>359.33333333333337</ele><time>2026-04-19T06:58:06.145Z</time></trkpt><trkpt lat="43.3527249" lon="11.3130034"><ele>359.5</ele><time>2026-04-19T06:58:07.128Z</time></trkpt><trkpt lat="43.3528117" lon="11.3130202"><ele>359.6666666666667</ele><time>2026-04-19T06:58:08.127Z</time></trkpt><trkpt lat="43.3529016" lon="11.3130404"><ele>359.8333333333333</ele><time>2026-04-19T06:58:09.123Z</time></trkpt><trkpt lat="43.3529943" lon="11.3130562"><ele>360.0</ele><time>2026-04-19T06:58:10.126Z</time></trkpt><trkpt lat="43.3530849" lon="11.3130743"><ele>358.1666666666667</ele><time>2026-04-19T06:58:11.132Z</time></trkpt><trkpt lat="43.3531754" lon="11.3130922"><ele>356.3333333333333</ele><time>2026-04-19T06:58:12.124Z</time></trkpt><trkpt lat="43.3532649" lon="11.3131127"><ele>354.5</ele><time>2026-04-19T06:58:13.111Z</time></trkpt><trkpt lat="43.3533533" lon="11.3131359"><ele>352.66666666666663</ele><time>2026-04-19T06:58:14.216Z</time></trkpt><trkpt lat="43.3534372" lon="11.3131606"><ele>350.8333333333333</ele><time>2026-04-19T06:58:15.176Z</time></trkpt><trkpt lat="43.3535214" lon="11.3131858"><ele>349.0</ele><time>2026-04-19T06:58:16.126Z</time></trkpt><trkpt lat="43.353607" lon="11.3132119"><ele>349.0</ele><time>2026-04-19T06:58:17.115Z</time></trkpt><trkpt lat="43.3536906" lon="11.3132426"><ele>349.0</ele><time>2026-04-19T06:58:18.209Z</time></trkpt><trkpt lat="43.3537678" lon="11.3132716"><ele>349.0</ele><time>2026-04-19T06:58:19.127Z</time></trkpt><trkpt lat="43.3538479" lon="11.3133039"><ele>349.0</ele><time>2026-04-19T06:58:20.142Z</time></trkpt><trkpt lat="43.353926" lon="11.3133371"><ele>349.0</ele><time>2026-04-19T06:58:21.134Z</time></trkpt><trkpt lat="43.3540024" lon="11.3133767"><ele>349.0</ele><time>2026-04-19T06:58:22.22Z</time></trkpt><trkpt lat="43.3540729" lon="11.3134157"><ele>348.8333333333333</ele><time>2026-04-19T06:58:23.127Z</time></trkpt><trkpt lat="43.3541439" lon="11.3134505"><ele>348.66666666666663</ele><time>2026-04-19T06:58:24.12Z</time></trkpt><trkpt lat="43.3542037" lon="11.3134805"><ele>348.5</ele><time>2026-04-19T06:58:25.13Z</time></trkpt><trkpt lat="43.3542736" lon="11.3135235"><ele>348.3333333333333</ele><time>2026-04-19T06:58:26.124Z</time></trkpt><trkpt lat="43.35435" lon="11.3135725"><ele>348.1666666666667</ele><time>2026-04-19T06:58:27.135Z</time></trkpt><trkpt lat="43.3544293" lon="11.3136246"><ele>348.0</ele><time>2026-04-19T06:58:28.112Z</time></trkpt><trkpt lat="43.3545032" lon="11.3136698"><ele>348.0</ele><time>2026-04-19T06:58:29.131Z</time></trkpt><trkpt lat="43.3545745" lon="11.3137116"><ele>348.0</ele><time>2026-04-19T06:58:30.125Z</time></trkpt><trkpt lat="43.3546441" lon="11.313753"><ele>348.0</ele><time>2026-04-19T06:58:31.113Z</time></trkpt><trkpt lat="43.3547099" lon="11.3137941"><ele>348.0</ele><time>2026-04-19T06:58:32.117Z</time></trkpt><trkpt lat="43.354771" lon="11.3138338"><ele>348.0</ele><time>2026-04-19T06:58:33.132Z</time></trkpt><trkpt lat="43.3548328" lon="11.3138743"><ele>348.0</ele><time>2026-04-19T06:58:34.113Z</time></trkpt><trkpt lat="43.3548945" lon="11.3139112"><ele>348.0</ele><time>2026-04-19T06:58:35.127Z</time></trkpt><trkpt lat="43.3550068" lon="11.3139764"><ele>348.79999999999995</ele><time>2026-04-19T06:58:37.128Z</time></trkpt><trkpt lat="43.3550637" lon="11.3140167"><ele>349.6</ele><time>2026-04-19T06:58:38.138Z</time></trkpt><trkpt lat="43.3551811" lon="11.3140869"><ele>350.4</ele><time>2026-04-19T06:58:40.122Z</time></trkpt><trkpt lat="43.3552426" lon="11.3141254"><ele>351.20000000000005</ele><time>2026-04-19T06:58:41.139Z</time></trkpt><trkpt lat="43.3553027" lon="11.3141654"><ele>352.0</ele><time>2026-04-19T06:58:42.196Z</time></trkpt><trkpt lat="43.3554113" lon="11.3142508"><ele>352.0</ele><time>2026-04-19T06:58:44.137Z</time></trkpt><trkpt lat="43.3555074" lon="11.3143135"><ele>352.0</ele><time>2026-04-19T06:58:46.137Z</time></trkpt><trkpt lat="43.3556247" lon="11.3143793"><ele>352.0</ele><time>2026-04-19T06:58:48.132Z</time></trkpt><trkpt lat="43.3556878" lon="11.3144112"><ele>352.0</ele><time>2026-04-19T06:58:49.218Z</time></trkpt><trkpt lat="43.3557877" lon="11.3144989"><ele>352.0</ele><time>2026-04-19T06:58:51.128Z</time></trkpt><trkpt lat="43.3558483" lon="11.3145298"><ele>351.6</ele><time>2026-04-19T06:58:52.139Z</time></trkpt><trkpt lat="43.3559696" lon="11.314583"><ele>351.20000000000005</ele><time>2026-04-19T06:58:54.217Z</time></trkpt><trkpt lat="43.3560814" lon="11.3146258"><ele>350.8</ele><time>2026-04-19T06:58:56.133Z</time></trkpt><trkpt lat="43.3561789" lon="11.3146614"><ele>350.4</ele><time>2026-04-19T06:58:58.11Z</time></trkpt><trkpt lat="43.3562593" lon="11.3146922"><ele>350.0</ele><time>2026-04-19T06:59:00.137Z</time></trkpt><trkpt lat="43.3563389" lon="11.3147279"><ele>350.4</ele><time>2026-04-19T06:59:02.127Z</time></trkpt><trkpt lat="43.3564118" lon="11.314745"><ele>350.8</ele><time>2026-04-19T06:59:04.188Z</time></trkpt><trkpt lat="43.3564953" lon="11.3147566"><ele>351.20000000000005</ele><time>2026-04-19T06:59:06.129Z</time></trkpt><trkpt lat="43.3565902" lon="11.3147572"><ele>351.6</ele><time>2026-04-19T06:59:08.126Z</time></trkpt><trkpt lat="43.3566978" lon="11.3147594"><ele>352.0</ele><time>2026-04-19T06:59:10.138Z</time></trkpt><trkpt lat="43.3568151" lon="11.3147537"><ele>352.0</ele><time>2026-04-19T06:59:12.128Z</time></trkpt><trkpt lat="43.3569382" lon="11.314756"><ele>352.0</ele><time>2026-04-19T06:59:14.127Z</time></trkpt><trkpt lat="43.357002" lon="11.3147602"><ele>352.0</ele><time>2026-04-19T06:59:15.13Z</time></trkpt><trkpt lat="43.3570678" lon="11.3147626"><ele>352.0</ele><time>2026-04-19T06:59:16.129Z</time></trkpt><trkpt lat="43.3571348" lon="11.3147651"><ele>352.0</ele><time>2026-04-19T06:59:17.131Z</time></trkpt><trkpt lat="43.3572003" lon="11.314768"><ele>352.0</ele><time>2026-04-19T06:59:18.194Z</time></trkpt><trkpt lat="43.3573183" lon="11.3147667"><ele>351.8333333333333</ele><time>2026-04-19T06:59:20.143Z</time></trkpt><trkpt lat="43.3573943" lon="11.3147655"><ele>351.66666666666663</ele><time>2026-04-19T06:59:21.124Z</time></trkpt><trkpt lat="43.3574823" lon="11.3147704"><ele>351.5</ele><time>2026-04-19T06:59:22.22Z</time></trkpt><trkpt lat="43.3575601" lon="11.3147728"><ele>351.3333333333333</ele><time>2026-04-19T06:59:23.133Z</time></trkpt><trkpt lat="43.3576418" lon="11.3147699"><ele>351.1666666666667</ele><time>2026-04-19T06:59:24.207Z</time></trkpt><trkpt lat="43.3577208" lon="11.3147606"><ele>351.0</ele><time>2026-04-19T06:59:25.125Z</time></trkpt><trkpt lat="43.3578025" lon="11.3147557"><ele>351.00000000000006</ele><time>2026-04-19T06:59:26.129Z</time></trkpt><trkpt lat="43.3578805" lon="11.3147578"><ele>351.0</ele><time>2026-04-19T06:59:27.13Z</time></trkpt><trkpt lat="43.3579608" lon="11.3147618"><ele>351.0</ele><time>2026-04-19T06:59:28.121Z</time></trkpt><trkpt lat="43.358036" lon="11.3147618"><ele>351.0</ele><time>2026-04-19T06:59:29.122Z</time></trkpt><trkpt lat="43.3581083" lon="11.3147652"><ele>351.0</ele><time>2026-04-19T06:59:30.144Z</time></trkpt><trkpt lat="43.3581759" lon="11.3147668"><ele>351.00000000000006</ele><time>2026-04-19T06:59:31.135Z</time></trkpt><trkpt lat="43.3582419" lon="11.3147685"><ele>351.0</ele><time>2026-04-19T06:59:32.134Z</time></trkpt><trkpt lat="43.358309" lon="11.3147673"><ele>350.5</ele><time>2026-04-19T06:59:33.22Z</time></trkpt><trkpt lat="43.3584189" lon="11.3148271"><ele>350.0</ele><time>2026-04-19T06:59:35.116Z</time></trkpt><trkpt lat="43.3584722" lon="11.3148887"><ele>349.5</ele><time>2026-04-19T06:59:36.127Z</time></trkpt><trkpt lat="43.3585239" lon="11.3149553"><ele>349.0</ele><time>2026-04-19T06:59:37.194Z</time></trkpt><trkpt lat="43.3585772" lon="11.3150216"><ele>348.5</ele><time>2026-04-19T06:59:38.205Z</time></trkpt><trkpt lat="43.3586302" lon="11.3150811"><ele>348.0</ele><time>2026-04-19T06:59:39.203Z</time></trkpt><trkpt lat="43.3586798" lon="11.3151406"><ele>348.0</ele><time>2026-04-19T06:59:40.112Z</time></trkpt><trkpt lat="43.3587508" lon="11.3152536"><ele>348.0</ele><time>2026-04-19T06:59:42.109Z</time></trkpt><trkpt lat="43.3588143" lon="11.3153823"><ele>348.0</ele><time>2026-04-19T06:59:44.13Z</time></trkpt><trkpt lat="43.3588928" lon="11.3154791"><ele>348.0</ele><time>2026-04-19T06:59:46.126Z</time></trkpt><trkpt lat="43.3589673" lon="11.31557"><ele>348.0</ele><time>2026-04-19T06:59:48.121Z</time></trkpt><trkpt lat="43.3590325" lon="11.3156581"><ele>347.8333333333333</ele><time>2026-04-19T06:59:50.119Z</time></trkpt><trkpt lat="43.3590938" lon="11.3157356"><ele>347.6666666666667</ele><time>2026-04-19T06:59:52.122Z</time></trkpt><trkpt lat="43.3591465" lon="11.315811"><ele>347.5</ele><time>2026-04-19T06:59:54.2Z</time></trkpt><trkpt lat="43.3592006" lon="11.3158852"><ele>347.33333333333337</ele><time>2026-04-19T06:59:56.135Z</time></trkpt><trkpt lat="43.3592514" lon="11.3159674"><ele>347.1666666666667</ele><time>2026-04-19T06:59:58.197Z</time></trkpt><trkpt lat="43.3592885" lon="11.3160646"><ele>347.0</ele><time>2026-04-19T07:00:00.132Z</time></trkpt><trkpt lat="43.359309" lon="11.3161636"><ele>347.0</ele><time>2026-04-19T07:00:02.124Z</time></trkpt><trkpt lat="43.3593244" lon="11.3162637"><ele>347.0</ele><time>2026-04-19T07:00:04.201Z</time></trkpt><trkpt lat="43.3593385" lon="11.31639"><ele>347.0</ele><time>2026-04-19T07:00:06.135Z</time></trkpt><trkpt lat="43.3593251" lon="11.3165138"><ele>347.0</ele><time>2026-04-19T07:00:09.217Z</time></trkpt><trkpt lat="43.3592993" lon="11.316618"><ele>347.0</ele><time>2026-04-19T07:00:11.13Z</time></trkpt><trkpt lat="43.3592922" lon="11.316724"><ele>347.0</ele><time>2026-04-19T07:00:13.187Z</time></trkpt><trkpt lat="43.3592887" lon="11.3168457"><ele>347.0</ele><time>2026-04-19T07:00:15.11Z</time></trkpt><trkpt lat="43.3592826" lon="11.3169763"><ele>347.0</ele><time>2026-04-19T07:00:17.133Z</time></trkpt><trkpt lat="43.3592893" lon="11.3171086"><ele>347.0</ele><time>2026-04-19T07:00:19.133Z</time></trkpt><trkpt lat="43.3593082" lon="11.3172522"><ele>347.0</ele><time>2026-04-19T07:00:21.14Z</time></trkpt><trkpt lat="43.3593495" lon="11.3174108"><ele>347.0</ele><time>2026-04-19T07:00:23.13Z</time></trkpt><trkpt lat="43.3593743" lon="11.3174959"><ele>347.6666666666667</ele><time>2026-04-19T07:00:24.149Z</time></trkpt><trkpt lat="43.3594054" lon="11.3175838"><ele>348.33333333333337</ele><time>2026-04-19T07:00:25.123Z</time></trkpt><trkpt lat="43.3594429" lon="11.3176714"><ele>349.0</ele><time>2026-04-19T07:00:26.115Z</time></trkpt><trkpt lat="43.3594844" lon="11.3177616"><ele>349.6666666666667</ele><time>2026-04-19T07:00:27.142Z</time></trkpt><trkpt lat="43.3595257" lon="11.3178533"><ele>350.3333333333333</ele><time>2026-04-19T07:00:28.132Z</time></trkpt><trkpt lat="43.3595694" lon="11.3179498"><ele>351.0</ele><time>2026-04-19T07:00:29.114Z</time></trkpt><trkpt lat="43.3596147" lon="11.3180537"><ele>351.20000000000005</ele><time>2026-04-19T07:00:30.126Z</time></trkpt><trkpt lat="43.3596606" lon="11.3181583"><ele>351.40000000000003</ele><time>2026-04-19T07:00:31.147Z</time></trkpt><trkpt lat="43.359709" lon="11.3182656"><ele>351.6</ele><time>2026-04-19T07:00:32.193Z</time></trkpt><trkpt lat="43.3597573" lon="11.3183742"><ele>351.8</ele><time>2026-04-19T07:00:33.186Z</time></trkpt><trkpt lat="43.3598061" lon="11.3184906"><ele>352.0</ele><time>2026-04-19T07:00:34.209Z</time></trkpt><trkpt lat="43.3598299" lon="11.3186007"><ele>348.8</ele><time>2026-04-19T07:00:35.116Z</time></trkpt><trkpt lat="43.3598342" lon="11.3187076"><ele>345.6</ele><time>2026-04-19T07:00:36.136Z</time></trkpt><trkpt lat="43.3598423" lon="11.3188282"><ele>342.40000000000003</ele><time>2026-04-19T07:00:37.186Z</time></trkpt><trkpt lat="43.3598664" lon="11.3189556"><ele>339.20000000000005</ele><time>2026-04-19T07:00:38.117Z</time></trkpt><trkpt lat="43.3598759" lon="11.3190981"><ele>336.0</ele><time>2026-04-19T07:00:39.21Z</time></trkpt><trkpt lat="43.3598623" lon="11.3192456"><ele>335.6</ele><time>2026-04-19T07:00:40.135Z</time></trkpt><trkpt lat="43.359849" lon="11.3193905"><ele>335.20000000000005</ele><time>2026-04-19T07:00:41.138Z</time></trkpt><trkpt lat="43.3598629" lon="11.3195381"><ele>334.79999999999995</ele><time>2026-04-19T07:00:42.187Z</time></trkpt><trkpt lat="43.3599001" lon="11.3196576"><ele>334.4</ele><time>2026-04-19T07:00:43.197Z</time></trkpt><trkpt lat="43.3599538" lon="11.3197564"><ele>334.0</ele><time>2026-04-19T07:00:44.128Z</time></trkpt><trkpt lat="43.3600171" lon="11.3198423"><ele>333.42857142857144</ele><time>2026-04-19T07:00:45.119Z</time></trkpt><trkpt lat="43.3600734" lon="11.3199191"><ele>332.8571428571429</ele><time>2026-04-19T07:00:46.123Z</time></trkpt><trkpt lat="43.360111" lon="11.3199987"><ele>332.28571428571433</ele><time>2026-04-19T07:00:47.118Z</time></trkpt><trkpt lat="43.3601237" lon="11.3200966"><ele>331.7142857142857</ele><time>2026-04-19T07:00:48.223Z</time></trkpt><trkpt lat="43.3601072" lon="11.3201861"><ele>331.14285714285717</ele><time>2026-04-19T07:00:49.197Z</time></trkpt><trkpt lat="43.3600563" lon="11.3202499"><ele>330.5714285714286</ele><time>2026-04-19T07:00:50.122Z</time></trkpt><trkpt lat="43.3599769" lon="11.3202538"><ele>330.0</ele><time>2026-04-19T07:00:51.129Z</time></trkpt><trkpt lat="43.3598992" lon="11.3202248"><ele>329.5</ele><time>2026-04-19T07:00:52.201Z</time></trkpt><trkpt lat="43.359682" lon="11.3202948"><ele>329.0</ele><time>2026-04-19T07:00:56.122Z</time></trkpt><trkpt lat="43.3595342" lon="11.3202293"><ele>328.5</ele><time>2026-04-19T07:00:57.144Z</time></trkpt><trkpt lat="43.3595171" lon="11.3203197"><ele>328.0</ele><time>2026-04-19T07:00:59.124Z</time></trkpt><trkpt lat="43.3595479" lon="11.3204138"><ele>328.0</ele><time>2026-04-19T07:01:00.124Z</time></trkpt><trkpt lat="43.3595924" lon="11.3205125"><ele>328.0</ele><time>2026-04-19T07:01:01.135Z</time></trkpt><trkpt lat="43.3596426" lon="11.3206079"><ele>328.0</ele><time>2026-04-19T07:01:02.127Z</time></trkpt><trkpt lat="43.3597049" lon="11.320701"><ele>328.0</ele><time>2026-04-19T07:01:03.146Z</time></trkpt><trkpt lat="43.3597733" lon="11.3207892"><ele>328.0</ele><time>2026-04-19T07:01:04.136Z</time></trkpt><trkpt lat="43.3598454" lon="11.3208651"><ele>328.0</ele><time>2026-04-19T07:01:05.136Z</time></trkpt><trkpt lat="43.3599256" lon="11.3209285"><ele>326.79999999999995</ele><time>2026-04-19T07:01:06.129Z</time></trkpt><trkpt lat="43.3600152" lon="11.3209764"><ele>325.6</ele><time>2026-04-19T07:01:07.135Z</time></trkpt><trkpt lat="43.3601091" lon="11.3210198"><ele>324.4</ele><time>2026-04-19T07:01:08.197Z</time></trkpt><trkpt lat="43.3601981" lon="11.3210519"><ele>323.20000000000005</ele><time>2026-04-19T07:01:09.126Z</time></trkpt><trkpt lat="43.3603013" lon="11.3210771"><ele>322.0</ele><time>2026-04-19T07:01:10.144Z</time></trkpt><trkpt lat="43.3604068" lon="11.3210798"><ele>322.0</ele><time>2026-04-19T07:01:11.137Z</time></trkpt><trkpt lat="43.3605053" lon="11.3210656"><ele>322.0</ele><time>2026-04-19T07:01:12.205Z</time></trkpt><trkpt lat="43.3605903" lon="11.3210407"><ele>322.0</ele><time>2026-04-19T07:01:13.199Z</time></trkpt><trkpt lat="43.3606733" lon="11.3210126"><ele>322.0</ele><time>2026-04-19T07:01:14.202Z</time></trkpt><trkpt lat="43.3607551" lon="11.3210099"><ele>322.0</ele><time>2026-04-19T07:01:15.127Z</time></trkpt><trkpt lat="43.3608178" lon="11.3210716"><ele>322.0</ele><time>2026-04-19T07:01:16.132Z</time></trkpt><trkpt lat="43.3608645" lon="11.3211881"><ele>320.8</ele><time>2026-04-19T07:01:17.13Z</time></trkpt><trkpt lat="43.3608644" lon="11.321323"><ele>319.6</ele><time>2026-04-19T07:01:18.109Z</time></trkpt><trkpt lat="43.3608505" lon="11.321463"><ele>318.40000000000003</ele><time>2026-04-19T07:01:19.212Z</time></trkpt><trkpt lat="43.3608302" lon="11.3215934"><ele>317.20000000000005</ele><time>2026-04-19T07:01:20.133Z</time></trkpt><trkpt lat="43.3608202" lon="11.3217234"><ele>316.0</ele><time>2026-04-19T07:01:21.108Z</time></trkpt><trkpt lat="43.3608373" lon="11.3218494"><ele>315.0</ele><time>2026-04-19T07:01:22.184Z</time></trkpt><trkpt lat="43.3608737" lon="11.3219645"><ele>314.0</ele><time>2026-04-19T07:01:23.196Z</time></trkpt><trkpt lat="43.3609201" lon="11.3220684"><ele>313.0</ele><time>2026-04-19T07:01:24.199Z</time></trkpt><trkpt lat="43.3609609" lon="11.3221737"><ele>312.0</ele><time>2026-04-19T07:01:25.138Z</time></trkpt><trkpt lat="43.3610022" lon="11.3223036"><ele>311.0</ele><time>2026-04-19T07:01:26.127Z</time></trkpt><trkpt lat="43.3610297" lon="11.3224395"><ele>310.2</ele><time>2026-04-19T07:01:27.179Z</time></trkpt><trkpt lat="43.3610653" lon="11.3225626"><ele>309.40000000000003</ele><time>2026-04-19T07:01:28.13Z</time></trkpt><trkpt lat="43.3611033" lon="11.3226827"><ele>308.6</ele><time>2026-04-19T07:01:29.129Z</time></trkpt><trkpt lat="43.3611461" lon="11.3227973"><ele>307.8</ele><time>2026-04-19T07:01:30.131Z</time></trkpt><trkpt lat="43.3611971" lon="11.3229053"><ele>307.0</ele><time>2026-04-19T07:01:31.136Z</time></trkpt><trkpt lat="43.3612534" lon="11.3230044"><ele>306.5</ele><time>2026-04-19T07:01:32.13Z</time></trkpt><trkpt lat="43.3613169" lon="11.3230881"><ele>306.0</ele><time>2026-04-19T07:01:33.145Z</time></trkpt><trkpt lat="43.3613783" lon="11.3231685"><ele>305.5</ele><time>2026-04-19T07:01:34.129Z</time></trkpt><trkpt lat="43.3614371" lon="11.3232451"><ele>305.0</ele><time>2026-04-19T07:01:35.137Z</time></trkpt><trkpt lat="43.3614918" lon="11.3233157"><ele>304.5</ele><time>2026-04-19T07:01:36.139Z</time></trkpt><trkpt lat="43.3615468" lon="11.3233876"><ele>304.0</ele><time>2026-04-19T07:01:37.129Z</time></trkpt><trkpt lat="43.3616028" lon="11.3234538"><ele>304.0</ele><time>2026-04-19T07:01:38.146Z</time></trkpt><trkpt lat="43.3616582" lon="11.3235097"><ele>304.0</ele><time>2026-04-19T07:01:39.137Z</time></trkpt><trkpt lat="43.361709" lon="11.323569"><ele>304.0</ele><time>2026-04-19T07:01:40.143Z</time></trkpt><trkpt lat="43.3617989" lon="11.3236834"><ele>304.0</ele><time>2026-04-19T07:01:42.131Z</time></trkpt><trkpt lat="43.36189" lon="11.3237817"><ele>304.0</ele><time>2026-04-19T07:01:44.133Z</time></trkpt><trkpt lat="43.36198" lon="11.3238735"><ele>304.4</ele><time>2026-04-19T07:01:46.138Z</time></trkpt><trkpt lat="43.362057" lon="11.3239702"><ele>304.79999999999995</ele><time>2026-04-19T07:01:48.226Z</time></trkpt><trkpt lat="43.3621261" lon="11.3240578"><ele>305.20000000000005</ele><time>2026-04-19T07:01:50.136Z</time></trkpt><trkpt lat="43.3621953" lon="11.3241428"><ele>305.6</ele><time>2026-04-19T07:01:52.146Z</time></trkpt><trkpt lat="43.362257" lon="11.3242293"><ele>306.0</ele><time>2026-04-19T07:01:54.2Z</time></trkpt><trkpt lat="43.3623329" lon="11.32432"><ele>306.8</ele><time>2026-04-19T07:01:56.134Z</time></trkpt><trkpt lat="43.3624017" lon="11.3243911"><ele>307.6</ele><time>2026-04-19T07:01:58.21Z</time></trkpt><trkpt lat="43.3624666" lon="11.3244748"><ele>308.4</ele><time>2026-04-19T07:02:00.129Z</time></trkpt><trkpt lat="43.3625379" lon="11.3245712"><ele>309.2</ele><time>2026-04-19T07:02:02.199Z</time></trkpt><trkpt lat="43.362611" lon="11.3246598"><ele>310.0</ele><time>2026-04-19T07:02:04.202Z</time></trkpt><trkpt lat="43.3626807" lon="11.3247471"><ele>310.16666666666663</ele><time>2026-04-19T07:02:06.134Z</time></trkpt><trkpt lat="43.3627451" lon="11.3248597"><ele>310.3333333333333</ele><time>2026-04-19T07:02:08.129Z</time></trkpt><trkpt lat="43.3628202" lon="11.3249936"><ele>310.5</ele><time>2026-04-19T07:02:10.135Z</time></trkpt><trkpt lat="43.3628602" lon="11.3250683"><ele>310.6666666666667</ele><time>2026-04-19T07:02:11.136Z</time></trkpt><trkpt lat="43.362902" lon="11.3251455"><ele>310.83333333333337</ele><time>2026-04-19T07:02:12.137Z</time></trkpt><trkpt lat="43.3629453" lon="11.3252236"><ele>311.0</ele><time>2026-04-19T07:02:13.112Z</time></trkpt><trkpt lat="43.3629907" lon="11.3253055"><ele>310.6</ele><time>2026-04-19T07:02:14.14Z</time></trkpt><trkpt lat="43.3630375" lon="11.3253893"><ele>310.20000000000005</ele><time>2026-04-19T07:02:15.127Z</time></trkpt><trkpt lat="43.3630844" lon="11.325476"><ele>309.79999999999995</ele><time>2026-04-19T07:02:16.136Z</time></trkpt><trkpt lat="43.3631335" lon="11.3255625"><ele>309.4</ele><time>2026-04-19T07:02:17.204Z</time></trkpt><trkpt lat="43.3631866" lon="11.325661"><ele>309.0</ele><time>2026-04-19T07:02:19.185Z</time></trkpt><trkpt lat="43.3632351" lon="11.3258246"><ele>309.0</ele><time>2026-04-19T07:02:21.144Z</time></trkpt><trkpt lat="43.3632867" lon="11.3259646"><ele>309.0</ele><time>2026-04-19T07:02:22.112Z</time></trkpt><trkpt lat="43.3633326" lon="11.3260919"><ele>309.0</ele><time>2026-04-19T07:02:23.189Z</time></trkpt><trkpt lat="43.3633634" lon="11.3262186"><ele>309.0</ele><time>2026-04-19T07:02:24.123Z</time></trkpt><trkpt lat="43.3633899" lon="11.3263438"><ele>309.0</ele><time>2026-04-19T07:02:25.124Z</time></trkpt><trkpt lat="43.3634382" lon="11.3264612"><ele>308.4</ele><time>2026-04-19T07:02:26.141Z</time></trkpt><trkpt lat="43.3635004" lon="11.3265748"><ele>307.79999999999995</ele><time>2026-04-19T07:02:27.135Z</time></trkpt><trkpt lat="43.3635612" lon="11.3266896"><ele>307.20000000000005</ele><time>2026-04-19T07:02:28.198Z</time></trkpt><trkpt lat="43.3635965" lon="11.3267933"><ele>306.6</ele><time>2026-04-19T07:02:29.15Z</time></trkpt><trkpt lat="43.3636289" lon="11.326899"><ele>306.0</ele><time>2026-04-19T07:02:30.123Z</time></trkpt><trkpt lat="43.3636553" lon="11.3270193"><ele>306.0</ele><time>2026-04-19T07:02:31.125Z</time></trkpt><trkpt lat="43.363651" lon="11.327154"><ele>306.0</ele><time>2026-04-19T07:02:32.125Z</time></trkpt><trkpt lat="43.363619" lon="11.327284"><ele>306.0</ele><time>2026-04-19T07:02:33.132Z</time></trkpt><trkpt lat="43.3635571" lon="11.3273915"><ele>306.0</ele><time>2026-04-19T07:02:34.208Z</time></trkpt><trkpt lat="43.3634698" lon="11.3274793"><ele>306.0</ele><time>2026-04-19T07:02:35.135Z</time></trkpt><trkpt lat="43.3633809" lon="11.3275471"><ele>305.8</ele><time>2026-04-19T07:02:36.127Z</time></trkpt><trkpt lat="43.3632984" lon="11.3276107"><ele>305.6</ele><time>2026-04-19T07:02:37.127Z</time></trkpt><trkpt lat="43.3632126" lon="11.32767"><ele>305.4</ele><time>2026-04-19T07:02:38.199Z</time></trkpt><trkpt lat="43.3631281" lon="11.3277371"><ele>305.2</ele><time>2026-04-19T07:02:39.204Z</time></trkpt><trkpt lat="43.3630487" lon="11.3278086"><ele>305.0</ele><time>2026-04-19T07:02:40.12Z</time></trkpt><trkpt lat="43.3629619" lon="11.3278863"><ele>305.0</ele><time>2026-04-19T07:02:41.135Z</time></trkpt><trkpt lat="43.3628786" lon="11.3279611"><ele>305.0</ele><time>2026-04-19T07:02:42.116Z</time></trkpt><trkpt lat="43.3627955" lon="11.3280386"><ele>305.0</ele><time>2026-04-19T07:02:43.129Z</time></trkpt><trkpt lat="43.3627127" lon="11.3281176"><ele>305.0</ele><time>2026-04-19T07:02:44.127Z</time></trkpt><trkpt lat="43.3626322" lon="11.3282053"><ele>305.0</ele><time>2026-04-19T07:02:45.129Z</time></trkpt><trkpt lat="43.3625542" lon="11.3282946"><ele>303.2</ele><time>2026-04-19T07:02:46.122Z</time></trkpt><trkpt lat="43.3624738" lon="11.328385"><ele>301.4</ele><time>2026-04-19T07:02:47.134Z</time></trkpt><trkpt lat="43.3623946" lon="11.3284775"><ele>299.6</ele><time>2026-04-19T07:02:48.126Z</time></trkpt><trkpt lat="43.3623275" lon="11.328586"><ele>297.8</ele><time>2026-04-19T07:02:49.112Z</time></trkpt><trkpt lat="43.3622867" lon="11.3287212"><ele>296.0</ele><time>2026-04-19T07:02:50.148Z</time></trkpt><trkpt lat="43.3622826" lon="11.3288632"><ele>294.6</ele><time>2026-04-19T07:02:51.124Z</time></trkpt><trkpt lat="43.3623081" lon="11.3290006"><ele>293.20000000000005</ele><time>2026-04-19T07:02:52.126Z</time></trkpt><trkpt lat="43.3623643" lon="11.3291131"><ele>291.79999999999995</ele><time>2026-04-19T07:02:53.125Z</time></trkpt><trkpt lat="43.3624496" lon="11.3291603"><ele>290.4</ele><time>2026-04-19T07:02:54.129Z</time></trkpt><trkpt lat="43.3625441" lon="11.3291517"><ele>289.0</ele><time>2026-04-19T07:02:55.125Z</time></trkpt><trkpt lat="43.3626321" lon="11.3290905"><ele>289.0</ele><time>2026-04-19T07:02:56.126Z</time></trkpt><trkpt lat="43.3626984" lon="11.3289933"><ele>289.0</ele><time>2026-04-19T07:02:57.136Z</time></trkpt><trkpt lat="43.3627591" lon="11.3288849"><ele>289.0</ele><time>2026-04-19T07:02:58.19Z</time></trkpt><trkpt lat="43.3628119" lon="11.328786"><ele>289.0</ele><time>2026-04-19T07:02:59.116Z</time></trkpt><trkpt lat="43.3631336" lon="11.3287697"><ele>289.4</ele><time>2026-04-19T07:03:02.202Z</time></trkpt><trkpt lat="43.3632099" lon="11.328821"><ele>289.79999999999995</ele><time>2026-04-19T07:03:03.171Z</time></trkpt><trkpt lat="43.3633024" lon="11.3289001"><ele>290.20000000000005</ele><time>2026-04-19T07:03:04.133Z</time></trkpt><trkpt lat="43.3633816" lon="11.3290251"><ele>290.6</ele><time>2026-04-19T07:03:05.122Z</time></trkpt><trkpt lat="43.3634515" lon="11.3291436"><ele>291.0</ele><time>2026-04-19T07:03:06.132Z</time></trkpt><trkpt lat="43.3635005" lon="11.329283"><ele>288.5</ele><time>2026-04-19T07:03:07.135Z</time></trkpt><trkpt lat="43.363546" lon="11.3294453"><ele>286.0</ele><time>2026-04-19T07:03:08.119Z</time></trkpt><trkpt lat="43.3636008" lon="11.3295965"><ele>283.5</ele><time>2026-04-19T07:03:09.137Z</time></trkpt><trkpt lat="43.363667" lon="11.3297364"><ele>281.0</ele><time>2026-04-19T07:03:10.148Z</time></trkpt><trkpt lat="43.3637356" lon="11.3298699"><ele>280.0</ele><time>2026-04-19T07:03:11.179Z</time></trkpt><trkpt lat="43.3638028" lon="11.3299972"><ele>279.0</ele><time>2026-04-19T07:03:12.144Z</time></trkpt><trkpt lat="43.3638677" lon="11.3301206"><ele>278.0</ele><time>2026-04-19T07:03:13.144Z</time></trkpt><trkpt lat="43.3639396" lon="11.3302305"><ele>277.0</ele><time>2026-04-19T07:03:14.13Z</time></trkpt><trkpt lat="43.3640199" lon="11.3303205"><ele>276.0</ele><time>2026-04-19T07:03:15.179Z</time></trkpt><trkpt lat="43.3641104" lon="11.3303644"><ele>276.0</ele><time>2026-04-19T07:03:16.112Z</time></trkpt><trkpt lat="43.3642134" lon="11.3303802"><ele>276.0</ele><time>2026-04-19T07:03:17.128Z</time></trkpt><trkpt lat="43.3643264" lon="11.330386"><ele>276.0</ele><time>2026-04-19T07:03:18.124Z</time></trkpt><trkpt lat="43.3644424" lon="11.3304001"><ele>276.0</ele><time>2026-04-19T07:03:19.128Z</time></trkpt><trkpt lat="43.364559" lon="11.3304163"><ele>276.0</ele><time>2026-04-19T07:03:20.124Z</time></trkpt><trkpt lat="43.3646759" lon="11.3304274"><ele>276.0</ele><time>2026-04-19T07:03:21.132Z</time></trkpt><trkpt lat="43.3647982" lon="11.3304294"><ele>276.0</ele><time>2026-04-19T07:03:22.137Z</time></trkpt><trkpt lat="43.3649183" lon="11.3304206"><ele>276.0</ele><time>2026-04-19T07:03:23.127Z</time></trkpt><trkpt lat="43.3650388" lon="11.3304104"><ele>274.6</ele><time>2026-04-19T07:03:24.113Z</time></trkpt><trkpt lat="43.3651556" lon="11.330402"><ele>273.20000000000005</ele><time>2026-04-19T07:03:25.104Z</time></trkpt><trkpt lat="43.3652697" lon="11.3303942"><ele>271.79999999999995</ele><time>2026-04-19T07:03:26.138Z</time></trkpt><trkpt lat="43.3653754" lon="11.3303896"><ele>270.4</ele><time>2026-04-19T07:03:27.139Z</time></trkpt><trkpt lat="43.3654806" lon="11.3304019"><ele>269.0</ele><time>2026-04-19T07:03:28.133Z</time></trkpt><trkpt lat="43.3655804" lon="11.3304442"><ele>267.25</ele><time>2026-04-19T07:03:29.213Z</time></trkpt><trkpt lat="43.3656646" lon="11.3305229"><ele>265.5</ele><time>2026-04-19T07:03:30.12Z</time></trkpt><trkpt lat="43.3657413" lon="11.3306458"><ele>263.75</ele><time>2026-04-19T07:03:31.128Z</time></trkpt><trkpt lat="43.3657981" lon="11.3308014"><ele>262.0</ele><time>2026-04-19T07:03:32.125Z</time></trkpt><trkpt lat="43.3658428" lon="11.3309633"><ele>260.25</ele><time>2026-04-19T07:03:33.211Z</time></trkpt><trkpt lat="43.3658762" lon="11.3311198"><ele>258.5</ele><time>2026-04-19T07:03:34.113Z</time></trkpt><trkpt lat="43.3659103" lon="11.3312846"><ele>256.75</ele><time>2026-04-19T07:03:35.133Z</time></trkpt><trkpt lat="43.3659408" lon="11.3314443"><ele>255.0</ele><time>2026-04-19T07:03:36.132Z</time></trkpt><trkpt lat="43.3659711" lon="11.3316006"><ele>254.4</ele><time>2026-04-19T07:03:37.142Z</time></trkpt><trkpt lat="43.3660031" lon="11.331756"><ele>253.8</ele><time>2026-04-19T07:03:38.207Z</time></trkpt><trkpt lat="43.3660343" lon="11.3319034"><ele>253.2</ele><time>2026-04-19T07:03:39.207Z</time></trkpt><trkpt lat="43.3660506" lon="11.33205"><ele>252.6</ele><time>2026-04-19T07:03:40.117Z</time></trkpt><trkpt lat="43.3660555" lon="11.3322011"><ele>252.0</ele><time>2026-04-19T07:03:41.133Z</time></trkpt><trkpt lat="43.3660941" lon="11.3323236"><ele>251.6</ele><time>2026-04-19T07:03:42.13Z</time></trkpt><trkpt lat="43.3661562" lon="11.3324439"><ele>251.2</ele><time>2026-04-19T07:03:43.203Z</time></trkpt><trkpt lat="43.3662182" lon="11.3325563"><ele>250.8</ele><time>2026-04-19T07:03:44.2Z</time></trkpt><trkpt lat="43.3662757" lon="11.3326633"><ele>250.4</ele><time>2026-04-19T07:03:45.124Z</time></trkpt><trkpt lat="43.3663322" lon="11.3327657"><ele>250.0</ele><time>2026-04-19T07:03:46.126Z</time></trkpt><trkpt lat="43.3663865" lon="11.332866"><ele>249.83333333333331</ele><time>2026-04-19T07:03:47.126Z</time></trkpt><trkpt lat="43.366439" lon="11.3329657"><ele>249.66666666666666</ele><time>2026-04-19T07:03:48.169Z</time></trkpt><trkpt lat="43.3664902" lon="11.3330539"><ele>249.5</ele><time>2026-04-19T07:03:49.135Z</time></trkpt><trkpt lat="43.3665496" lon="11.3331319"><ele>249.33333333333331</ele><time>2026-04-19T07:03:50.132Z</time></trkpt><trkpt lat="43.3666156" lon="11.3331989"><ele>249.16666666666666</ele><time>2026-04-19T07:03:51.114Z</time></trkpt><trkpt lat="43.3666888" lon="11.3332487"><ele>249.0</ele><time>2026-04-19T07:03:52.125Z</time></trkpt><trkpt lat="43.366763" lon="11.3332932"><ele>249.42857142857142</ele><time>2026-04-19T07:03:53.132Z</time></trkpt><trkpt lat="43.3668358" lon="11.3333274"><ele>249.85714285714283</ele><time>2026-04-19T07:03:54.145Z</time></trkpt><trkpt lat="43.366905" lon="11.3333574"><ele>250.28571428571428</ele><time>2026-04-19T07:03:55.139Z</time></trkpt><trkpt lat="43.3669791" lon="11.3333844"><ele>250.71428571428572</ele><time>2026-04-19T07:03:56.118Z</time></trkpt><trkpt lat="43.3670521" lon="11.3334019"><ele>251.14285714285714</ele><time>2026-04-19T07:03:57.135Z</time></trkpt><trkpt lat="43.3671209" lon="11.3334146"><ele>251.57142857142856</ele><time>2026-04-19T07:03:58.144Z</time></trkpt><trkpt lat="43.3671907" lon="11.3334222"><ele>252.0</ele><time>2026-04-19T07:03:59.133Z</time></trkpt><trkpt lat="43.367261" lon="11.3334293"><ele>252.2</ele><time>2026-04-19T07:04:00.125Z</time></trkpt><trkpt lat="43.3673272" lon="11.3334395"><ele>252.39999999999998</ele><time>2026-04-19T07:04:01.109Z</time></trkpt><trkpt lat="43.3673908" lon="11.3334507"><ele>252.60000000000002</ele><time>2026-04-19T07:04:02.129Z</time></trkpt><trkpt lat="43.3675064" lon="11.3334781"><ele>252.8</ele><time>2026-04-19T07:04:04.122Z</time></trkpt><trkpt lat="43.3676151" lon="11.3334962"><ele>253.0</ele><time>2026-04-19T07:04:06.144Z</time></trkpt><trkpt lat="43.3677117" lon="11.3335205"><ele>252.99999999999997</ele><time>2026-04-19T07:04:08.135Z</time></trkpt><trkpt lat="43.3678041" lon="11.3335364"><ele>253.0</ele><time>2026-04-19T07:04:10.141Z</time></trkpt><trkpt lat="43.3678926" lon="11.3335579"><ele>253.0</ele><time>2026-04-19T07:04:12.148Z</time></trkpt><trkpt lat="43.3679772" lon="11.3335814"><ele>253.0</ele><time>2026-04-19T07:04:14.151Z</time></trkpt><trkpt lat="43.3680551" lon="11.3336032"><ele>252.99999999999997</ele><time>2026-04-19T07:04:16.134Z</time></trkpt><trkpt lat="43.368134" lon="11.3336182"><ele>253.0</ele><time>2026-04-19T07:04:18.115Z</time></trkpt><trkpt lat="43.3682053" lon="11.3336279"><ele>253.66666666666666</ele><time>2026-04-19T07:04:20.131Z</time></trkpt><trkpt lat="43.3682836" lon="11.3336532"><ele>254.33333333333331</ele><time>2026-04-19T07:04:22.142Z</time></trkpt><trkpt lat="43.3683719" lon="11.3336609"><ele>255.0</ele><time>2026-04-19T07:04:25.129Z</time></trkpt><trkpt lat="43.3684542" lon="11.3336911"><ele>255.66666666666669</ele><time>2026-04-19T07:04:27.129Z</time></trkpt><trkpt lat="43.3685281" lon="11.3337043"><ele>256.33333333333337</ele><time>2026-04-19T07:04:29.125Z</time></trkpt><trkpt lat="43.3685988" lon="11.3337177"><ele>257.0</ele><time>2026-04-19T07:04:31.128Z</time></trkpt><trkpt lat="43.3686691" lon="11.3337361"><ele>257.0</ele><time>2026-04-19T07:04:33.148Z</time></trkpt><trkpt lat="43.368763" lon="11.3337617"><ele>257.0</ele><time>2026-04-19T07:04:36.136Z</time></trkpt><trkpt lat="43.3688288" lon="11.3337721"><ele>257.0</ele><time>2026-04-19T07:04:38.131Z</time></trkpt><trkpt lat="43.3689158" lon="11.3337943"><ele>257.0</ele><time>2026-04-19T07:04:41.129Z</time></trkpt><trkpt lat="43.3689979" lon="11.3338192"><ele>257.0</ele><time>2026-04-19T07:04:44.123Z</time></trkpt><trkpt lat="43.3690759" lon="11.3338317"><ele>257.0</ele><time>2026-04-19T07:04:47.133Z</time></trkpt><trkpt lat="43.3691437" lon="11.3338604"><ele>257.57142857142856</ele><time>2026-04-19T07:04:50.13Z</time></trkpt><trkpt lat="43.3692121" lon="11.3338868"><ele>258.14285714285717</ele><time>2026-04-19T07:04:53.116Z</time></trkpt><trkpt lat="43.3692872" lon="11.3339136"><ele>258.7142857142857</ele><time>2026-04-19T07:04:57.125Z</time></trkpt><trkpt lat="43.3693487" lon="11.3339365"><ele>259.2857142857143</ele><time>2026-04-19T07:05:01.128Z</time></trkpt><trkpt lat="43.3694089" lon="11.3339705"><ele>259.85714285714283</ele><time>2026-04-19T07:05:04.126Z</time></trkpt><trkpt lat="43.3694849" lon="11.3340043"><ele>260.42857142857144</ele><time>2026-04-19T07:05:08.138Z</time></trkpt><trkpt lat="43.3695571" lon="11.33404"><ele>261.0</ele><time>2026-04-19T07:05:12.126Z</time></trkpt><trkpt lat="43.3696213" lon="11.3340689"><ele>261.0</ele><time>2026-04-19T07:05:16.123Z</time></trkpt><trkpt lat="43.3696869" lon="11.3340985"><ele>261.0</ele><time>2026-04-19T07:05:20.12Z</time></trkpt><trkpt lat="43.3697496" lon="11.3341163"><ele>261.0</ele><time>2026-04-19T07:05:24.13Z</time></trkpt><trkpt lat="43.3698194" lon="11.3341596"><ele>261.0</ele><time>2026-04-19T07:05:29.136Z</time></trkpt><trkpt lat="43.3698729" lon="11.3342116"><ele>261.0</ele><time>2026-04-19T07:05:33.215Z</time></trkpt><trkpt lat="43.3699375" lon="11.334213"><ele>261.0</ele><time>2026-04-19T07:05:37.134Z</time></trkpt><trkpt lat="43.3700078" lon="11.3342405"><ele>261.0</ele><time>2026-04-19T07:05:42.148Z</time></trkpt><trkpt lat="43.3700692" lon="11.3342731"><ele>262.14285714285717</ele><time>2026-04-19T07:05:46.13Z</time></trkpt><trkpt lat="43.3701333" lon="11.3343036"><ele>263.2857142857143</ele><time>2026-04-19T07:05:50.129Z</time></trkpt><trkpt lat="43.3702041" lon="11.334326"><ele>264.42857142857144</ele><time>2026-04-19T07:05:54.12Z</time></trkpt><trkpt lat="43.3702662" lon="11.3343456"><ele>265.57142857142856</ele><time>2026-04-19T07:05:58.192Z</time></trkpt><trkpt lat="43.370331" lon="11.3344045"><ele>266.7142857142857</ele><time>2026-04-19T07:06:03.127Z</time></trkpt><trkpt lat="43.3703947" lon="11.3344301"><ele>267.8571428571429</ele><time>2026-04-19T07:06:07.122Z</time></trkpt><trkpt lat="43.3704604" lon="11.3344559"><ele>269.0</ele><time>2026-04-19T07:06:11.121Z</time></trkpt><trkpt lat="43.3705232" lon="11.3344825"><ele>270.0</ele><time>2026-04-19T07:06:15.137Z</time></trkpt><trkpt lat="43.3705854" lon="11.3345157"><ele>271.0</ele><time>2026-04-19T07:06:20.131Z</time></trkpt><trkpt lat="43.3706514" lon="11.3345506"><ele>272.0</ele><time>2026-04-19T07:06:25.137Z</time></trkpt><trkpt lat="43.3707252" lon="11.3345797"><ele>273.0</ele><time>2026-04-19T07:06:29.123Z</time></trkpt><trkpt lat="43.3707957" lon="11.3345484"><ele>274.0</ele><time>2026-04-19T07:06:36.136Z</time></trkpt><trkpt lat="43.3708656" lon="11.3346121"><ele>275.0</ele><time>2026-04-19T07:06:39.127Z</time></trkpt><trkpt lat="43.3709204" lon="11.3346581"><ele>276.0</ele><time>2026-04-19T07:06:42.118Z</time></trkpt><trkpt lat="43.3709845" lon="11.3347002"><ele>276.0</ele><time>2026-04-19T07:06:47.121Z</time></trkpt><trkpt lat="43.3710644" lon="11.334719"><ele>276.0</ele><time>2026-04-19T07:06:51.119Z</time></trkpt><trkpt lat="43.3711258" lon="11.3347633"><ele>276.0</ele><time>2026-04-19T07:06:55.126Z</time></trkpt><trkpt lat="43.3711932" lon="11.3348111"><ele>276.0</ele><time>2026-04-19T07:07:00.12Z</time></trkpt><trkpt lat="43.3712538" lon="11.3348455"><ele>276.0</ele><time>2026-04-19T07:07:04.185Z</time></trkpt><trkpt lat="43.3713175" lon="11.3348794"><ele>276.0</ele><time>2026-04-19T07:07:08.123Z</time></trkpt><trkpt lat="43.3713783" lon="11.3349107"><ele>276.0</ele><time>2026-04-19T07:07:12.133Z</time></trkpt><trkpt lat="43.3714415" lon="11.3349409"><ele>277.14285714285717</ele><time>2026-04-19T07:07:16.145Z</time></trkpt><trkpt lat="43.3715023" lon="11.3349732"><ele>278.28571428571433</ele><time>2026-04-19T07:07:20.147Z</time></trkpt><trkpt lat="43.371574" lon="11.3350135"><ele>279.42857142857144</ele><time>2026-04-19T07:07:25.137Z</time></trkpt><trkpt lat="43.3716406" lon="11.3350478"><ele>280.57142857142856</ele><time>2026-04-19T07:07:29.127Z</time></trkpt><trkpt lat="43.3717062" lon="11.3350792"><ele>281.71428571428567</ele><time>2026-04-19T07:07:33.124Z</time></trkpt><trkpt lat="43.3717781" lon="11.3351088"><ele>282.85714285714283</ele><time>2026-04-19T07:07:37.136Z</time></trkpt><trkpt lat="43.3718471" lon="11.3351446"><ele>284.0</ele><time>2026-04-19T07:07:41.132Z</time></trkpt><trkpt lat="43.3719112" lon="11.3351774"><ele>284.0</ele><time>2026-04-19T07:07:45.127Z</time></trkpt><trkpt lat="43.3719837" lon="11.3352092"><ele>284.0</ele><time>2026-04-19T07:07:49.121Z</time></trkpt><trkpt lat="43.3720565" lon="11.3352351"><ele>284.0</ele><time>2026-04-19T07:07:53.141Z</time></trkpt><trkpt lat="43.372124" lon="11.3352637"><ele>284.0</ele><time>2026-04-19T07:07:57.129Z</time></trkpt><trkpt lat="43.3721985" lon="11.3353023"><ele>284.0</ele><time>2026-04-19T07:08:01.133Z</time></trkpt><trkpt lat="43.372274" lon="11.3353359"><ele>284.0</ele><time>2026-04-19T07:08:05.134Z</time></trkpt><trkpt lat="43.3723447" lon="11.3353704"><ele>284.1666666666667</ele><time>2026-04-19T07:08:09.127Z</time></trkpt><trkpt lat="43.3724155" lon="11.3354098"><ele>284.33333333333337</ele><time>2026-04-19T07:08:13.124Z</time></trkpt><trkpt lat="43.3724855" lon="11.3354517"><ele>284.5</ele><time>2026-04-19T07:08:17.128Z</time></trkpt><trkpt lat="43.372561" lon="11.335487"><ele>284.6666666666667</ele><time>2026-04-19T07:08:21.14Z</time></trkpt><trkpt lat="43.3726295" lon="11.335537"><ele>284.8333333333333</ele><time>2026-04-19T07:08:25.134Z</time></trkpt><trkpt lat="43.3726989" lon="11.3355851"><ele>285.0</ele><time>2026-04-19T07:08:29.129Z</time></trkpt><trkpt lat="43.3727625" lon="11.3356257"><ele>285.0</ele><time>2026-04-19T07:08:33.132Z</time></trkpt><trkpt lat="43.3728275" lon="11.3356694"><ele>285.0</ele><time>2026-04-19T07:08:37.111Z</time></trkpt><trkpt lat="43.3728981" lon="11.3357116"><ele>285.0</ele><time>2026-04-19T07:08:41.128Z</time></trkpt><trkpt lat="43.3729677" lon="11.3357389"><ele>285.0</ele><time>2026-04-19T07:08:45.14Z</time></trkpt><trkpt lat="43.3730398" lon="11.335781"><ele>285.0</ele><time>2026-04-19T07:08:49.133Z</time></trkpt><trkpt lat="43.3731051" lon="11.3358052"><ele>285.0</ele><time>2026-04-19T07:08:52.181Z</time></trkpt><trkpt lat="43.3731858" lon="11.3358307"><ele>286.3333333333333</ele><time>2026-04-19T07:08:54.144Z</time></trkpt><trkpt lat="43.3732721" lon="11.3358329"><ele>287.6666666666667</ele><time>2026-04-19T07:08:58.131Z</time></trkpt><trkpt lat="43.3733486" lon="11.335809"><ele>289.0</ele><time>2026-04-19T07:09:01.124Z</time></trkpt><trkpt lat="43.3734223" lon="11.3358696"><ele>290.33333333333337</ele><time>2026-04-19T07:09:04.135Z</time></trkpt><trkpt lat="43.3735046" lon="11.3358943"><ele>291.6666666666667</ele><time>2026-04-19T07:09:07.131Z</time></trkpt><trkpt lat="43.3735914" lon="11.3359278"><ele>293.0</ele><time>2026-04-19T07:09:10.135Z</time></trkpt><trkpt lat="43.3736538" lon="11.3359408"><ele>293.0</ele><time>2026-04-19T07:09:12.218Z</time></trkpt><trkpt lat="43.3737444" lon="11.3359527"><ele>293.0</ele><time>2026-04-19T07:09:15.129Z</time></trkpt><trkpt lat="43.3738364" lon="11.3359637"><ele>293.0</ele><time>2026-04-19T07:09:18.155Z</time></trkpt><trkpt lat="43.3739282" lon="11.335977"><ele>293.0</ele><time>2026-04-19T07:09:21.134Z</time></trkpt><trkpt lat="43.3740186" lon="11.3359872"><ele>293.0</ele><time>2026-04-19T07:09:24.221Z</time></trkpt><trkpt lat="43.3741062" lon="11.3359994"><ele>293.5</ele><time>2026-04-19T07:09:27.135Z</time></trkpt><trkpt lat="43.3741699" lon="11.3360107"><ele>294.0</ele><time>2026-04-19T07:09:29.184Z</time></trkpt><trkpt lat="43.3742353" lon="11.3360241"><ele>294.5</ele><time>2026-04-19T07:09:31.124Z</time></trkpt><trkpt lat="43.374323" lon="11.3360192"><ele>295.0</ele><time>2026-04-19T07:09:34.227Z</time></trkpt><trkpt lat="43.3743866" lon="11.3360294"><ele>295.5</ele><time>2026-04-19T07:09:36.127Z</time></trkpt><trkpt lat="43.3744789" lon="11.3360432"><ele>296.0</ele><time>2026-04-19T07:09:39.131Z</time></trkpt><trkpt lat="43.3745705" lon="11.3360557"><ele>296.0</ele><time>2026-04-19T07:09:42.13Z</time></trkpt><trkpt lat="43.3746594" lon="11.3360678"><ele>296.0</ele><time>2026-04-19T07:09:45.128Z</time></trkpt><trkpt lat="43.3747493" lon="11.3360795"><ele>296.0</ele><time>2026-04-19T07:09:48.197Z</time></trkpt><trkpt lat="43.3748334" lon="11.3360927"><ele>296.0</ele><time>2026-04-19T07:09:51.12Z</time></trkpt><trkpt lat="43.3748965" lon="11.3361028"><ele>296.0</ele><time>2026-04-19T07:09:53.129Z</time></trkpt><trkpt lat="43.3749604" lon="11.3361142"><ele>296.0</ele><time>2026-04-19T07:09:55.14Z</time></trkpt><trkpt lat="43.375052" lon="11.336135"><ele>296.2857142857143</ele><time>2026-04-19T07:09:58.135Z</time></trkpt><trkpt lat="43.3751147" lon="11.3361556"><ele>296.57142857142856</ele><time>2026-04-19T07:10:00.124Z</time></trkpt><trkpt lat="43.3751795" lon="11.336175"><ele>296.85714285714283</ele><time>2026-04-19T07:10:02.125Z</time></trkpt><trkpt lat="43.3752404" lon="11.3361978"><ele>297.1428571428571</ele><time>2026-04-19T07:10:04.206Z</time></trkpt><trkpt lat="43.3753041" lon="11.3362238"><ele>297.4285714285714</ele><time>2026-04-19T07:10:06.143Z</time></trkpt><trkpt lat="43.375375" lon="11.3362483"><ele>297.7142857142857</ele><time>2026-04-19T07:10:08.126Z</time></trkpt><trkpt lat="43.3754474" lon="11.3362702"><ele>298.0</ele><time>2026-04-19T07:10:10.138Z</time></trkpt><trkpt lat="43.375535" lon="11.3363137"><ele>297.66666666666663</ele><time>2026-04-19T07:10:13.154Z</time></trkpt><trkpt lat="43.3755985" lon="11.3363525"><ele>297.3333333333333</ele><time>2026-04-19T07:10:15.13Z</time></trkpt><trkpt lat="43.3756665" lon="11.3363831"><ele>297.0</ele><time>2026-04-19T07:10:17.115Z</time></trkpt><trkpt lat="43.3757407" lon="11.3364223"><ele>296.6666666666667</ele><time>2026-04-19T07:10:19.127Z</time></trkpt><trkpt lat="43.3758139" lon="11.3364602"><ele>296.33333333333337</ele><time>2026-04-19T07:10:21.114Z</time></trkpt><trkpt lat="43.3758922" lon="11.3364992"><ele>296.0</ele><time>2026-04-19T07:10:23.133Z</time></trkpt><trkpt lat="43.3760088" lon="11.3365626"><ele>296.0</ele><time>2026-04-19T07:10:26.134Z</time></trkpt><trkpt lat="43.3760865" lon="11.3366056"><ele>296.0</ele><time>2026-04-19T07:10:28.205Z</time></trkpt><trkpt lat="43.3761653" lon="11.3366573"><ele>296.0</ele><time>2026-04-19T07:10:30.118Z</time></trkpt><trkpt lat="43.3762406" lon="11.3367147"><ele>296.0</ele><time>2026-04-19T07:10:32.127Z</time></trkpt><trkpt lat="43.3763279" lon="11.3367475"><ele>296.0</ele><time>2026-04-19T07:10:34.205Z</time></trkpt><trkpt lat="43.3764217" lon="11.3367761"><ele>296.0</ele><time>2026-04-19T07:10:36.128Z</time></trkpt><trkpt lat="43.3765183" lon="11.33684"><ele>296.25</ele><time>2026-04-19T07:10:38.194Z</time></trkpt><trkpt lat="43.3766147" lon="11.3369197"><ele>296.5</ele><time>2026-04-19T07:10:40.137Z</time></trkpt><trkpt lat="43.3767145" lon="11.3370071"><ele>296.75</ele><time>2026-04-19T07:10:42.134Z</time></trkpt><trkpt lat="43.3768123" lon="11.3370811"><ele>297.0</ele><time>2026-04-19T07:10:44.199Z</time></trkpt><trkpt lat="43.3769138" lon="11.3371647"><ele>297.0</ele><time>2026-04-19T07:10:46.112Z</time></trkpt><trkpt lat="43.3769679" lon="11.3372153"><ele>297.0</ele><time>2026-04-19T07:10:47.133Z</time></trkpt><trkpt lat="43.3770604" lon="11.3373135"><ele>297.0</ele><time>2026-04-19T07:10:49.14Z</time></trkpt><trkpt lat="43.3771374" lon="11.3373996"><ele>297.0</ele><time>2026-04-19T07:10:51.143Z</time></trkpt><trkpt lat="43.3772062" lon="11.337469"><ele>297.0</ele><time>2026-04-19T07:10:53.131Z</time></trkpt><trkpt lat="43.377278" lon="11.3375467"><ele>297.2857142857143</ele><time>2026-04-19T07:10:56.124Z</time></trkpt><trkpt lat="43.3773313" lon="11.3376268"><ele>297.5714285714286</ele><time>2026-04-19T07:10:59.123Z</time></trkpt><trkpt lat="43.3773763" lon="11.3377076"><ele>297.8571428571429</ele><time>2026-04-19T07:11:03.131Z</time></trkpt><trkpt lat="43.3774191" lon="11.3377827"><ele>298.14285714285717</ele><time>2026-04-19T07:11:07.111Z</time></trkpt><trkpt lat="43.3774649" lon="11.3378586"><ele>298.42857142857144</ele><time>2026-04-19T07:11:11.136Z</time></trkpt><trkpt lat="43.377506" lon="11.3379352"><ele>298.7142857142857</ele><time>2026-04-19T07:11:15.129Z</time></trkpt><trkpt lat="43.3775453" lon="11.3380073"><ele>299.0</ele><time>2026-04-19T07:11:19.142Z</time></trkpt><trkpt lat="43.3775904" lon="11.338096"><ele>299.57142857142856</ele><time>2026-04-19T07:11:24.133Z</time></trkpt><trkpt lat="43.3776361" lon="11.3381791"><ele>300.14285714285717</ele><time>2026-04-19T07:11:28.127Z</time></trkpt><trkpt lat="43.3776774" lon="11.3382484"><ele>300.7142857142857</ele><time>2026-04-19T07:11:32.141Z</time></trkpt><trkpt lat="43.3777217" lon="11.3383278"><ele>301.2857142857143</ele><time>2026-04-19T07:11:36.139Z</time></trkpt><trkpt lat="43.3777646" lon="11.3383982"><ele>301.85714285714283</ele><time>2026-04-19T07:11:40.12Z</time></trkpt><trkpt lat="43.3778065" lon="11.3384777"><ele>302.42857142857144</ele><time>2026-04-19T07:11:45.115Z</time></trkpt><trkpt lat="43.3778455" lon="11.3385549"><ele>303.0</ele><time>2026-04-19T07:11:50.124Z</time></trkpt><trkpt lat="43.3778815" lon="11.3386336"><ele>303.0</ele><time>2026-04-19T07:11:55.133Z</time></trkpt><trkpt lat="43.3779226" lon="11.3387091"><ele>303.0</ele><time>2026-04-19T07:12:00.14Z</time></trkpt><trkpt lat="43.3779595" lon="11.3387807"><ele>303.0</ele><time>2026-04-19T07:12:05.126Z</time></trkpt><trkpt lat="43.3780042" lon="11.3388567"><ele>303.0</ele><time>2026-04-19T07:12:10.147Z</time></trkpt><trkpt lat="43.3780498" lon="11.3389235"><ele>303.0</ele><time>2026-04-19T07:12:15.13Z</time></trkpt><trkpt lat="43.3780982" lon="11.3389891"><ele>303.0</ele><time>2026-04-19T07:12:20.132Z</time></trkpt><trkpt lat="43.3781501" lon="11.3390407"><ele>303.0</ele><time>2026-04-19T07:12:25.125Z</time></trkpt><trkpt lat="43.3782104" lon="11.3391039"><ele>305.42857142857144</ele><time>2026-04-19T07:12:30.127Z</time></trkpt><trkpt lat="43.3782671" lon="11.3391562"><ele>307.85714285714283</ele><time>2026-04-19T07:12:35.133Z</time></trkpt><trkpt lat="43.3783257" lon="11.3392"><ele>310.2857142857143</ele><time>2026-04-19T07:12:40.142Z</time></trkpt><trkpt lat="43.3783825" lon="11.3392527"><ele>312.7142857142857</ele><time>2026-04-19T07:12:45.118Z</time></trkpt><trkpt lat="43.3784479" lon="11.3393071"><ele>315.14285714285717</ele><time>2026-04-19T07:12:51.123Z</time></trkpt><trkpt lat="43.3785098" lon="11.3393538"><ele>317.57142857142856</ele><time>2026-04-19T07:12:57.14Z</time></trkpt><trkpt lat="43.3785667" lon="11.3394072"><ele>320.0</ele><time>2026-04-19T07:13:03.138Z</time></trkpt><trkpt lat="43.3786235" lon="11.3394452"><ele>320.0</ele><time>2026-04-19T07:13:08.129Z</time></trkpt><trkpt lat="43.3786836" lon="11.3394826"><ele>320.0</ele><time>2026-04-19T07:13:13.12Z</time></trkpt><trkpt lat="43.3787471" lon="11.339535"><ele>320.0</ele><time>2026-04-19T07:13:19.133Z</time></trkpt><trkpt lat="43.3788045" lon="11.3395805"><ele>320.0</ele><time>2026-04-19T07:13:24.128Z</time></trkpt><trkpt lat="43.3788635" lon="11.3396318"><ele>320.0</ele><time>2026-04-19T07:13:29.148Z</time></trkpt><trkpt lat="43.3789221" lon="11.3396742"><ele>320.0</ele><time>2026-04-19T07:13:34.13Z</time></trkpt><trkpt lat="43.3789812" lon="11.3397215"><ele>320.0</ele><time>2026-04-19T07:13:39.133Z</time></trkpt><trkpt lat="43.3790452" lon="11.3397753"><ele>321.85714285714283</ele><time>2026-04-19T07:13:44.112Z</time></trkpt><trkpt lat="43.3791072" lon="11.3398241"><ele>323.7142857142857</ele><time>2026-04-19T07:13:49.132Z</time></trkpt><trkpt lat="43.3791712" lon="11.339867"><ele>325.57142857142856</ele><time>2026-04-19T07:13:54.13Z</time></trkpt><trkpt lat="43.3792356" lon="11.3399177"><ele>327.42857142857144</ele><time>2026-04-19T07:13:59.139Z</time></trkpt><trkpt lat="43.3792997" lon="11.3399737"><ele>329.2857142857143</ele><time>2026-04-19T07:14:04.136Z</time></trkpt><trkpt lat="43.3793673" lon="11.3400273"><ele>331.14285714285717</ele><time>2026-04-19T07:14:09.123Z</time></trkpt><trkpt lat="43.3794344" lon="11.3400764"><ele>333.0</ele><time>2026-04-19T07:14:13.13Z</time></trkpt><trkpt lat="43.3794984" lon="11.3401249"><ele>333.0</ele><time>2026-04-19T07:14:17.133Z</time></trkpt><trkpt lat="43.3795678" lon="11.3401802"><ele>333.0</ele><time>2026-04-19T07:14:22.135Z</time></trkpt><trkpt lat="43.3796297" lon="11.340224"><ele>333.0</ele><time>2026-04-19T07:14:26.132Z</time></trkpt><trkpt lat="43.3796903" lon="11.3402738"><ele>333.0</ele><time>2026-04-19T07:14:30.148Z</time></trkpt><trkpt lat="43.3797484" lon="11.3403226"><ele>333.0</ele><time>2026-04-19T07:14:34.126Z</time></trkpt><trkpt lat="43.379809" lon="11.3403704"><ele>333.0</ele><time>2026-04-19T07:14:38.125Z</time></trkpt><trkpt lat="43.3798661" lon="11.340419"><ele>333.0</ele><time>2026-04-19T07:14:42.149Z</time></trkpt><trkpt lat="43.3799248" lon="11.3404657"><ele>334.0</ele><time>2026-04-19T07:14:46.137Z</time></trkpt><trkpt lat="43.3799565" lon="11.3405614"><ele>335.0</ele><time>2026-04-19T07:14:53.207Z</time></trkpt><trkpt lat="43.3800207" lon="11.3405892"><ele>336.0</ele><time>2026-04-19T07:14:56.128Z</time></trkpt><trkpt lat="43.3800858" lon="11.3406144"><ele>337.0</ele><time>2026-04-19T07:14:59.125Z</time></trkpt><trkpt lat="43.3801594" lon="11.3406499"><ele>338.0</ele><time>2026-04-19T07:15:03.128Z</time></trkpt><trkpt lat="43.3802257" lon="11.3406944"><ele>339.0</ele><time>2026-04-19T07:15:07.141Z</time></trkpt><trkpt lat="43.3802952" lon="11.3407446"><ele>340.0</ele><time>2026-04-19T07:15:11.128Z</time></trkpt><trkpt lat="43.3803587" lon="11.3407913"><ele>340.0</ele><time>2026-04-19T07:15:15.119Z</time></trkpt><trkpt lat="43.380416" lon="11.3408333"><ele>340.0</ele><time>2026-04-19T07:15:19.134Z</time></trkpt><trkpt lat="43.380483" lon="11.3408762"><ele>340.0</ele><time>2026-04-19T07:15:24.148Z</time></trkpt><trkpt lat="43.380556" lon="11.340903"><ele>340.0</ele><time>2026-04-19T07:15:28.137Z</time></trkpt><trkpt lat="43.3806288" lon="11.3409427"><ele>340.0</ele><time>2026-04-19T07:15:32.134Z</time></trkpt><trkpt lat="43.3806962" lon="11.3409784"><ele>340.0</ele><time>2026-04-19T07:15:36.133Z</time></trkpt><trkpt lat="43.380777" lon="11.3409996"><ele>340.0</ele><time>2026-04-19T07:15:41.149Z</time></trkpt><trkpt lat="43.3808398" lon="11.341014"><ele>341.0</ele><time>2026-04-19T07:15:44.134Z</time></trkpt><trkpt lat="43.380912" lon="11.3410286"><ele>342.0</ele><time>2026-04-19T07:15:48.112Z</time></trkpt><trkpt lat="43.3809876" lon="11.341047"><ele>343.0</ele><time>2026-04-19T07:15:52.136Z</time></trkpt><trkpt lat="43.3810624" lon="11.341059"><ele>344.0</ele><time>2026-04-19T07:15:56.131Z</time></trkpt><trkpt lat="43.3811389" lon="11.3410588"><ele>345.0</ele><time>2026-04-19T07:16:01.148Z</time></trkpt><trkpt lat="43.3811999" lon="11.3410867"><ele>346.0</ele><time>2026-04-19T07:16:04.124Z</time></trkpt><trkpt lat="43.3812789" lon="11.341107"><ele>347.0</ele><time>2026-04-19T07:16:08.117Z</time></trkpt><trkpt lat="43.381368" lon="11.3411049"><ele>347.5</ele><time>2026-04-19T07:16:12.139Z</time></trkpt><trkpt lat="43.3814456" lon="11.3411443"><ele>348.0</ele><time>2026-04-19T07:16:16.13Z</time></trkpt><trkpt lat="43.3815143" lon="11.3411642"><ele>348.5</ele><time>2026-04-19T07:16:19.136Z</time></trkpt><trkpt lat="43.3815802" lon="11.3411867"><ele>349.0</ele><time>2026-04-19T07:16:22.118Z</time></trkpt><trkpt lat="43.3816506" lon="11.3412199"><ele>349.5</ele><time>2026-04-19T07:16:25.124Z</time></trkpt><trkpt lat="43.3817226" lon="11.3412393"><ele>350.0</ele><time>2026-04-19T07:16:28.201Z</time></trkpt><trkpt lat="43.3817987" lon="11.3412945"><ele>350.0</ele><time>2026-04-19T07:16:31.135Z</time></trkpt><trkpt lat="43.3818772" lon="11.3413573"><ele>350.0</ele><time>2026-04-19T07:16:34.193Z</time></trkpt><trkpt lat="43.3819252" lon="11.3414202"><ele>350.0</ele><time>2026-04-19T07:16:38.202Z</time></trkpt><trkpt lat="43.3819792" lon="11.3414868"><ele>350.0</ele><time>2026-04-19T07:16:41.138Z</time></trkpt><trkpt lat="43.3820347" lon="11.34156"><ele>350.0</ele><time>2026-04-19T07:16:43.128Z</time></trkpt><trkpt lat="43.382087" lon="11.3416153"><ele>350.0</ele><time>2026-04-19T07:16:45.139Z</time></trkpt><trkpt lat="43.3821825" lon="11.34167"><ele>350.1666666666667</ele><time>2026-04-19T07:16:47.145Z</time></trkpt><trkpt lat="43.3822567" lon="11.3417358"><ele>350.33333333333337</ele><time>2026-04-19T07:16:49.139Z</time></trkpt><trkpt lat="43.3823152" lon="11.3417809"><ele>350.5</ele><time>2026-04-19T07:16:51.13Z</time></trkpt><trkpt lat="43.3823799" lon="11.341826"><ele>350.6666666666667</ele><time>2026-04-19T07:16:53.131Z</time></trkpt><trkpt lat="43.3824449" lon="11.3418678"><ele>350.8333333333333</ele><time>2026-04-19T07:16:55.133Z</time></trkpt><trkpt lat="43.3825047" lon="11.3419022"><ele>351.0</ele><time>2026-04-19T07:16:57.134Z</time></trkpt><trkpt lat="43.3825936" lon="11.3419491"><ele>351.0</ele><time>2026-04-19T07:17:00.127Z</time></trkpt><trkpt lat="43.3826744" lon="11.3420121"><ele>351.0</ele><time>2026-04-19T07:17:03.213Z</time></trkpt><trkpt lat="43.3827331" lon="11.3420579"><ele>351.0</ele><time>2026-04-19T07:17:05.133Z</time></trkpt><trkpt lat="43.382737" lon="11.3421753"><ele>351.0</ele><time>2026-04-19T07:17:08.105Z</time></trkpt><trkpt lat="43.3826522" lon="11.3422607"><ele>351.0</ele><time>2026-04-19T07:17:11.124Z</time></trkpt><trkpt lat="43.3825727" lon="11.3422938"><ele>351.0</ele><time>2026-04-19T07:17:13.208Z</time></trkpt><trkpt lat="43.3824797" lon="11.3423299"><ele>351.3333333333333</ele><time>2026-04-19T07:17:15.127Z</time></trkpt><trkpt lat="43.3823977" lon="11.3423683"><ele>351.6666666666667</ele><time>2026-04-19T07:17:17.134Z</time></trkpt><trkpt lat="43.3823297" lon="11.3424102"><ele>352.0</ele><time>2026-04-19T07:17:19.129Z</time></trkpt><trkpt lat="43.3822587" lon="11.3424584"><ele>352.33333333333337</ele><time>2026-04-19T07:17:21.124Z</time></trkpt><trkpt lat="43.3821799" lon="11.3425147"><ele>352.6666666666667</ele><time>2026-04-19T07:17:23.138Z</time></trkpt><trkpt lat="43.3821044" lon="11.3425726"><ele>353.0</ele><time>2026-04-19T07:17:25.136Z</time></trkpt><trkpt lat="43.3820281" lon="11.3426232"><ele>353.6666666666667</ele><time>2026-04-19T07:17:27.135Z</time></trkpt><trkpt lat="43.3819518" lon="11.3426775"><ele>354.33333333333337</ele><time>2026-04-19T07:17:29.131Z</time></trkpt><trkpt lat="43.3818772" lon="11.3427276"><ele>355.0</ele><time>2026-04-19T07:17:31.135Z</time></trkpt><trkpt lat="43.3818027" lon="11.3427768"><ele>355.6666666666667</ele><time>2026-04-19T07:17:33.142Z</time></trkpt><trkpt lat="43.3817306" lon="11.3428291"><ele>356.3333333333333</ele><time>2026-04-19T07:17:35.128Z</time></trkpt><trkpt lat="43.3816636" lon="11.342879"><ele>357.0</ele><time>2026-04-19T07:17:37.133Z</time></trkpt><trkpt lat="43.3815999" lon="11.3429248"><ele>357.0</ele><time>2026-04-19T07:17:39.114Z</time></trkpt><trkpt lat="43.3815391" lon="11.3429751"><ele>357.0</ele><time>2026-04-19T07:17:41.137Z</time></trkpt><trkpt lat="43.381479" lon="11.3430361"><ele>357.0</ele><time>2026-04-19T07:17:43.207Z</time></trkpt><trkpt lat="43.3814247" lon="11.3430922"><ele>357.0</ele><time>2026-04-19T07:17:45.131Z</time></trkpt><trkpt lat="43.3813764" lon="11.3431584"><ele>357.0</ele><time>2026-04-19T07:17:47.14Z</time></trkpt><trkpt lat="43.3813058" lon="11.3432335"><ele>357.0</ele><time>2026-04-19T07:17:49.193Z</time></trkpt><trkpt lat="43.3812099" lon="11.3433405"><ele>356.8333333333333</ele><time>2026-04-19T07:17:51.13Z</time></trkpt><trkpt lat="43.3811552" lon="11.3434091"><ele>356.6666666666667</ele><time>2026-04-19T07:17:53.121Z</time></trkpt><trkpt lat="43.3810958" lon="11.3434871"><ele>356.5</ele><time>2026-04-19T07:17:55.195Z</time></trkpt><trkpt lat="43.3810244" lon="11.3435719"><ele>356.33333333333337</ele><time>2026-04-19T07:17:57.129Z</time></trkpt><trkpt lat="43.3809464" lon="11.343663"><ele>356.1666666666667</ele><time>2026-04-19T07:17:59.182Z</time></trkpt><trkpt lat="43.380872" lon="11.3437476"><ele>356.0</ele><time>2026-04-19T07:18:01.114Z</time></trkpt><trkpt lat="43.3808223" lon="11.3438294"><ele>355.6666666666667</ele><time>2026-04-19T07:18:03.144Z</time></trkpt><trkpt lat="43.3807644" lon="11.3438968"><ele>355.33333333333337</ele><time>2026-04-19T07:18:05.136Z</time></trkpt><trkpt lat="43.3806955" lon="11.3439736"><ele>355.0</ele><time>2026-04-19T07:18:07.117Z</time></trkpt><trkpt lat="43.3806269" lon="11.3440415"><ele>354.6666666666667</ele><time>2026-04-19T07:18:09.13Z</time></trkpt><trkpt lat="43.3805592" lon="11.3441199"><ele>354.3333333333333</ele><time>2026-04-19T07:18:11.139Z</time></trkpt><trkpt lat="43.3805016" lon="11.3441966"><ele>354.0</ele><time>2026-04-19T07:18:13.203Z</time></trkpt><trkpt lat="43.3804474" lon="11.3442712"><ele>354.0</ele><time>2026-04-19T07:18:15.135Z</time></trkpt><trkpt lat="43.3803917" lon="11.344372"><ele>354.0</ele><time>2026-04-19T07:18:17.132Z</time></trkpt><trkpt lat="43.3803496" lon="11.3444968"><ele>354.0</ele><time>2026-04-19T07:18:19.131Z</time></trkpt><trkpt lat="43.3803094" lon="11.3446209"><ele>354.0</ele><time>2026-04-19T07:18:21.137Z</time></trkpt><trkpt lat="43.3802539" lon="11.3447761"><ele>354.0</ele><time>2026-04-19T07:18:23.129Z</time></trkpt><trkpt lat="43.3802323" lon="11.3448657"><ele>354.4</ele><time>2026-04-19T07:18:24.135Z</time></trkpt><trkpt lat="43.3802116" lon="11.3449481"><ele>354.79999999999995</ele><time>2026-04-19T07:18:25.131Z</time></trkpt><trkpt lat="43.3801624" lon="11.3450956"><ele>355.20000000000005</ele><time>2026-04-19T07:18:27.134Z</time></trkpt><trkpt lat="43.3801205" lon="11.3452367"><ele>355.6</ele><time>2026-04-19T07:18:29.135Z</time></trkpt><trkpt lat="43.3800817" lon="11.3453727"><ele>356.0</ele><time>2026-04-19T07:18:31.177Z</time></trkpt><trkpt lat="43.3800477" lon="11.3455099"><ele>355.75</ele><time>2026-04-19T07:18:33.148Z</time></trkpt><trkpt lat="43.3800132" lon="11.3456586"><ele>355.5</ele><time>2026-04-19T07:18:35.135Z</time></trkpt><trkpt lat="43.3799741" lon="11.3458034"><ele>355.25</ele><time>2026-04-19T07:18:37.137Z</time></trkpt><trkpt lat="43.3799273" lon="11.3459484"><ele>355.0</ele><time>2026-04-19T07:18:39.146Z</time></trkpt><trkpt lat="43.3798761" lon="11.346098"><ele>355.0</ele><time>2026-04-19T07:18:41.135Z</time></trkpt><trkpt lat="43.3798278" lon="11.3462536"><ele>355.0</ele><time>2026-04-19T07:18:43.129Z</time></trkpt><trkpt lat="43.3798011" lon="11.346335"><ele>355.0</ele><time>2026-04-19T07:18:44.184Z</time></trkpt><trkpt lat="43.3797552" lon="11.3464015"><ele>355.0</ele><time>2026-04-19T07:18:45.116Z</time></trkpt><trkpt lat="43.3796955" lon="11.34647"><ele>355.0</ele><time>2026-04-19T07:18:46.132Z</time></trkpt><trkpt lat="43.3796627" lon="11.3465468"><ele>355.0</ele><time>2026-04-19T07:18:47.216Z</time></trkpt><trkpt lat="43.3796465" lon="11.3466318"><ele>353.66666666666663</ele><time>2026-04-19T07:18:48.131Z</time></trkpt><trkpt lat="43.3796201" lon="11.3467169"><ele>352.3333333333333</ele><time>2026-04-19T07:18:49.133Z</time></trkpt><trkpt lat="43.37958" lon="11.3467946"><ele>351.0</ele><time>2026-04-19T07:18:50.129Z</time></trkpt><trkpt lat="43.3795354" lon="11.3468775"><ele>349.6666666666667</ele><time>2026-04-19T07:18:51.13Z</time></trkpt><trkpt lat="43.3795119" lon="11.3469645"><ele>348.33333333333337</ele><time>2026-04-19T07:18:52.126Z</time></trkpt><trkpt lat="43.3794893" lon="11.3470462"><ele>347.0</ele><time>2026-04-19T07:18:53.133Z</time></trkpt><trkpt lat="43.3794351" lon="11.347193"><ele>347.6</ele><time>2026-04-19T07:18:55.122Z</time></trkpt><trkpt lat="43.3793705" lon="11.3473111"><ele>348.20000000000005</ele><time>2026-04-19T07:18:57.137Z</time></trkpt><trkpt lat="43.3793019" lon="11.3474245"><ele>348.8</ele><time>2026-04-19T07:18:59.136Z</time></trkpt><trkpt lat="43.3792194" lon="11.3475308"><ele>349.4</ele><time>2026-04-19T07:19:01.142Z</time></trkpt><trkpt lat="43.3791238" lon="11.3476199"><ele>350.0</ele><time>2026-04-19T07:19:03.128Z</time></trkpt><trkpt lat="43.3790269" lon="11.3477153"><ele>350.0</ele><time>2026-04-19T07:19:05.132Z</time></trkpt><trkpt lat="43.3789354" lon="11.3478237"><ele>350.0</ele><time>2026-04-19T07:19:07.14Z</time></trkpt><trkpt lat="43.3788445" lon="11.3479279"><ele>350.0</ele><time>2026-04-19T07:19:09.123Z</time></trkpt><trkpt lat="43.3787432" lon="11.3480243"><ele>350.0</ele><time>2026-04-19T07:19:11.13Z</time></trkpt><trkpt lat="43.3786892" lon="11.3480726"><ele>350.0</ele><time>2026-04-19T07:19:12.136Z</time></trkpt><trkpt lat="43.3786325" lon="11.3481269"><ele>349.6666666666667</ele><time>2026-04-19T07:19:13.135Z</time></trkpt><trkpt lat="43.378574" lon="11.3481862"><ele>349.33333333333337</ele><time>2026-04-19T07:19:14.125Z</time></trkpt><trkpt lat="43.3785142" lon="11.3482537"><ele>349.0</ele><time>2026-04-19T07:19:15.141Z</time></trkpt><trkpt lat="43.3784502" lon="11.3483236"><ele>348.6666666666667</ele><time>2026-04-19T07:19:16.126Z</time></trkpt><trkpt lat="43.3783833" lon="11.348395"><ele>348.3333333333333</ele><time>2026-04-19T07:19:17.135Z</time></trkpt><trkpt lat="43.3783141" lon="11.3484701"><ele>348.0</ele><time>2026-04-19T07:19:18.129Z</time></trkpt><trkpt lat="43.3782354" lon="11.348548"><ele>348.0</ele><time>2026-04-19T07:19:19.205Z</time></trkpt><trkpt lat="43.3781567" lon="11.3486146"><ele>348.0</ele><time>2026-04-19T07:19:20.139Z</time></trkpt><trkpt lat="43.3780855" lon="11.348663"><ele>348.0</ele><time>2026-04-19T07:19:21.125Z</time></trkpt><trkpt lat="43.3780177" lon="11.3487123"><ele>348.0</ele><time>2026-04-19T07:19:22.135Z</time></trkpt><trkpt lat="43.3779492" lon="11.3487674"><ele>348.0</ele><time>2026-04-19T07:19:23.134Z</time></trkpt><trkpt lat="43.377875" lon="11.3488191"><ele>348.0</ele><time>2026-04-19T07:19:24.206Z</time></trkpt><trkpt lat="43.3777987" lon="11.3488555"><ele>347.4</ele><time>2026-04-19T07:19:25.136Z</time></trkpt><trkpt lat="43.3777245" lon="11.3488801"><ele>346.79999999999995</ele><time>2026-04-19T07:19:26.138Z</time></trkpt><trkpt lat="43.3776063" lon="11.3489084"><ele>346.2</ele><time>2026-04-19T07:19:28.126Z</time></trkpt><trkpt lat="43.3775122" lon="11.3489667"><ele>345.6</ele><time>2026-04-19T07:19:30.132Z</time></trkpt><trkpt lat="43.3774215" lon="11.3490225"><ele>345.0</ele><time>2026-04-19T07:19:32.148Z</time></trkpt><trkpt lat="43.3773297" lon="11.3490648"><ele>345.0</ele><time>2026-04-19T07:19:34.206Z</time></trkpt><trkpt lat="43.3772353" lon="11.3490906"><ele>345.0</ele><time>2026-04-19T07:19:36.13Z</time></trkpt><trkpt lat="43.3771463" lon="11.3491396"><ele>345.0</ele><time>2026-04-19T07:19:38.139Z</time></trkpt><trkpt lat="43.3770469" lon="11.3492373"><ele>345.0</ele><time>2026-04-19T07:19:40.213Z</time></trkpt><trkpt lat="43.3769979" lon="11.3492928"><ele>345.0</ele><time>2026-04-19T07:19:41.141Z</time></trkpt><trkpt lat="43.3769356" lon="11.349356"><ele>345.1666666666667</ele><time>2026-04-19T07:19:42.131Z</time></trkpt><trkpt lat="43.3768691" lon="11.3494167"><ele>345.3333333333333</ele><time>2026-04-19T07:19:43.131Z</time></trkpt><trkpt lat="43.3768085" lon="11.3494606"><ele>345.5</ele><time>2026-04-19T07:19:44.137Z</time></trkpt><trkpt lat="43.3767477" lon="11.3495093"><ele>345.66666666666663</ele><time>2026-04-19T07:19:45.133Z</time></trkpt><trkpt lat="43.37668" lon="11.3495621"><ele>345.8333333333333</ele><time>2026-04-19T07:19:46.131Z</time></trkpt><trkpt lat="43.3766081" lon="11.3496179"><ele>346.0</ele><time>2026-04-19T07:19:47.131Z</time></trkpt><trkpt lat="43.3765322" lon="11.3496737"><ele>345.16666666666663</ele><time>2026-04-19T07:19:48.186Z</time></trkpt><trkpt lat="43.3764551" lon="11.3497177"><ele>344.3333333333333</ele><time>2026-04-19T07:19:49.189Z</time></trkpt><trkpt lat="43.376374" lon="11.3497545"><ele>343.5</ele><time>2026-04-19T07:19:50.122Z</time></trkpt><trkpt lat="43.3762922" lon="11.3498037"><ele>342.6666666666667</ele><time>2026-04-19T07:19:51.131Z</time></trkpt><trkpt lat="43.3762236" lon="11.3498561"><ele>341.83333333333337</ele><time>2026-04-19T07:19:52.129Z</time></trkpt><trkpt lat="43.3761477" lon="11.3499167"><ele>341.0</ele><time>2026-04-19T07:19:53.217Z</time></trkpt><trkpt lat="43.3760732" lon="11.3499783"><ele>341.0</ele><time>2026-04-19T07:19:54.135Z</time></trkpt><trkpt lat="43.3760056" lon="11.3500428"><ele>341.0</ele><time>2026-04-19T07:19:55.125Z</time></trkpt><trkpt lat="43.3759413" lon="11.3501058"><ele>341.0</ele><time>2026-04-19T07:19:56.131Z</time></trkpt><trkpt lat="43.3758746" lon="11.3501621"><ele>341.0</ele><time>2026-04-19T07:19:57.125Z</time></trkpt><trkpt lat="43.375808" lon="11.3502136"><ele>341.0</ele><time>2026-04-19T07:19:58.124Z</time></trkpt><trkpt lat="43.3757419" lon="11.3502664"><ele>341.0</ele><time>2026-04-19T07:19:59.12Z</time></trkpt><trkpt lat="43.3756766" lon="11.3503201"><ele>341.0</ele><time>2026-04-19T07:20:00.12Z</time></trkpt><trkpt lat="43.3756141" lon="11.3503727"><ele>341.0</ele><time>2026-04-19T07:20:01.117Z</time></trkpt><trkpt lat="43.3755517" lon="11.3504227"><ele>341.0</ele><time>2026-04-19T07:20:02.129Z</time></trkpt><trkpt lat="43.3754888" lon="11.3504666"><ele>341.0</ele><time>2026-04-19T07:20:03.123Z</time></trkpt><trkpt lat="43.3754266" lon="11.3505104"><ele>341.0</ele><time>2026-04-19T07:20:04.127Z</time></trkpt><trkpt lat="43.3753645" lon="11.3505579"><ele>341.0</ele><time>2026-04-19T07:20:05.142Z</time></trkpt><trkpt lat="43.3753049" lon="11.3506083"><ele>341.0</ele><time>2026-04-19T07:20:06.149Z</time></trkpt><trkpt lat="43.3752449" lon="11.3506567"><ele>340.7142857142857</ele><time>2026-04-19T07:20:07.124Z</time></trkpt><trkpt lat="43.3751871" lon="11.3507009"><ele>340.42857142857144</ele><time>2026-04-19T07:20:08.124Z</time></trkpt><trkpt lat="43.3751268" lon="11.350751"><ele>340.1428571428571</ele><time>2026-04-19T07:20:09.201Z</time></trkpt><trkpt lat="43.3750704" lon="11.350798"><ele>339.8571428571429</ele><time>2026-04-19T07:20:10.121Z</time></trkpt><trkpt lat="43.375016" lon="11.3508526"><ele>339.5714285714286</ele><time>2026-04-19T07:20:11.136Z</time></trkpt><trkpt lat="43.3749507" lon="11.3509115"><ele>339.2857142857143</ele><time>2026-04-19T07:20:12.119Z</time></trkpt><trkpt lat="43.3748735" lon="11.3509798"><ele>339.0</ele><time>2026-04-19T07:20:13.207Z</time></trkpt><trkpt lat="43.3747969" lon="11.3510407"><ele>339.0</ele><time>2026-04-19T07:20:14.124Z</time></trkpt><trkpt lat="43.3747228" lon="11.3510937"><ele>339.0</ele><time>2026-04-19T07:20:15.133Z</time></trkpt><trkpt lat="43.3746534" lon="11.3511462"><ele>339.0</ele><time>2026-04-19T07:20:16.135Z</time></trkpt><trkpt lat="43.3745827" lon="11.3512108"><ele>339.0</ele><time>2026-04-19T07:20:17.126Z</time></trkpt><trkpt lat="43.3745176" lon="11.3512817"><ele>339.0</ele><time>2026-04-19T07:20:18.14Z</time></trkpt><trkpt lat="43.3744571" lon="11.3513524"><ele>339.0</ele><time>2026-04-19T07:20:19.143Z</time></trkpt><trkpt lat="43.3744004" lon="11.3514201"><ele>339.0</ele><time>2026-04-19T07:20:20.185Z</time></trkpt><trkpt lat="43.3743085" lon="11.3515521"><ele>339.0</ele><time>2026-04-19T07:20:22.129Z</time></trkpt><trkpt lat="43.3742639" lon="11.3516165"><ele>339.0</ele><time>2026-04-19T07:20:23.124Z</time></trkpt><trkpt lat="43.3741954" lon="11.3517334"><ele>339.0</ele><time>2026-04-19T07:20:25.154Z</time></trkpt><trkpt lat="43.3741461" lon="11.3518473"><ele>339.0</ele><time>2026-04-19T07:20:27.148Z</time></trkpt><trkpt lat="43.3741036" lon="11.3519656"><ele>339.0</ele><time>2026-04-19T07:20:29.122Z</time></trkpt><trkpt lat="43.3740677" lon="11.3520744"><ele>339.0</ele><time>2026-04-19T07:20:31.149Z</time></trkpt><trkpt lat="43.3740337" lon="11.3521754"><ele>339.0</ele><time>2026-04-19T07:20:33.144Z</time></trkpt><trkpt lat="43.374003" lon="11.352277"><ele>339.0</ele><time>2026-04-19T07:20:35.132Z</time></trkpt><trkpt lat="43.3739708" lon="11.3523704"><ele>339.0</ele><time>2026-04-19T07:20:37.135Z</time></trkpt><trkpt lat="43.3739411" lon="11.3524709"><ele>339.0</ele><time>2026-04-19T07:20:39.201Z</time></trkpt><trkpt lat="43.3739147" lon="11.3525597"><ele>339.0</ele><time>2026-04-19T07:20:41.128Z</time></trkpt><trkpt lat="43.3738755" lon="11.3526482"><ele>339.0</ele><time>2026-04-19T07:20:43.125Z</time></trkpt><trkpt lat="43.3738342" lon="11.3527744"><ele>339.0</ele><time>2026-04-19T07:20:46.137Z</time></trkpt><trkpt lat="43.3738144" lon="11.3528632"><ele>339.0</ele><time>2026-04-19T07:20:48.205Z</time></trkpt><trkpt lat="43.3737898" lon="11.3529522"><ele>339.0</ele><time>2026-04-19T07:20:50.139Z</time></trkpt><trkpt lat="43.3737593" lon="11.3530421"><ele>339.0</ele><time>2026-04-19T07:20:52.131Z</time></trkpt><trkpt lat="43.3737314" lon="11.3531333"><ele>339.85714285714283</ele><time>2026-04-19T07:20:54.201Z</time></trkpt><trkpt lat="43.3737046" lon="11.3532253"><ele>340.7142857142857</ele><time>2026-04-19T07:20:56.133Z</time></trkpt><trkpt lat="43.3736756" lon="11.353324"><ele>341.57142857142856</ele><time>2026-04-19T07:20:58.138Z</time></trkpt><trkpt lat="43.3736496" lon="11.3534212"><ele>342.42857142857144</ele><time>2026-04-19T07:21:00.135Z</time></trkpt><trkpt lat="43.3736344" lon="11.3535143"><ele>343.2857142857143</ele><time>2026-04-19T07:21:02.129Z</time></trkpt><trkpt lat="43.3736184" lon="11.3536149"><ele>344.14285714285717</ele><time>2026-04-19T07:21:04.128Z</time></trkpt><trkpt lat="43.3736168" lon="11.3537173"><ele>345.0</ele><time>2026-04-19T07:21:06.131Z</time></trkpt><trkpt lat="43.3736221" lon="11.3538111"><ele>345.42857142857144</ele><time>2026-04-19T07:21:08.128Z</time></trkpt><trkpt lat="43.3736235" lon="11.3539021"><ele>345.85714285714283</ele><time>2026-04-19T07:21:10.14Z</time></trkpt><trkpt lat="43.3736285" lon="11.3539971"><ele>346.2857142857143</ele><time>2026-04-19T07:21:12.131Z</time></trkpt><trkpt lat="43.3736231" lon="11.3540913"><ele>346.7142857142857</ele><time>2026-04-19T07:21:14.121Z</time></trkpt><trkpt lat="43.3736177" lon="11.3541825"><ele>347.14285714285717</ele><time>2026-04-19T07:21:16.135Z</time></trkpt><trkpt lat="43.3736161" lon="11.3542757"><ele>347.57142857142856</ele><time>2026-04-19T07:21:18.207Z</time></trkpt><trkpt lat="43.3736215" lon="11.3543795"><ele>348.0</ele><time>2026-04-19T07:21:20.106Z</time></trkpt><trkpt lat="43.3736246" lon="11.35448"><ele>348.0</ele><time>2026-04-19T07:21:22.13Z</time></trkpt><trkpt lat="43.3736286" lon="11.3545808"><ele>348.0</ele><time>2026-04-19T07:21:24.131Z</time></trkpt><trkpt lat="43.3736352" lon="11.3546859"><ele>348.0</ele><time>2026-04-19T07:21:26.13Z</time></trkpt><trkpt lat="43.3736406" lon="11.3547907"><ele>348.0</ele><time>2026-04-19T07:21:28.134Z</time></trkpt><trkpt lat="43.3736401" lon="11.3548924"><ele>348.0</ele><time>2026-04-19T07:21:30.214Z</time></trkpt><trkpt lat="43.3736623" lon="11.3550313"><ele>348.0</ele><time>2026-04-19T07:21:33.15Z</time></trkpt><trkpt lat="43.3736661" lon="11.3551438"><ele>348.1666666666667</ele><time>2026-04-19T07:21:35.135Z</time></trkpt><trkpt lat="43.3736733" lon="11.3552509"><ele>348.3333333333333</ele><time>2026-04-19T07:21:37.131Z</time></trkpt><trkpt lat="43.37367" lon="11.35536"><ele>348.5</ele><time>2026-04-19T07:21:39.136Z</time></trkpt><trkpt lat="43.3736554" lon="11.3554639"><ele>348.66666666666663</ele><time>2026-04-19T07:21:41.152Z</time></trkpt><trkpt lat="43.3736448" lon="11.3555654"><ele>348.8333333333333</ele><time>2026-04-19T07:21:43.142Z</time></trkpt><trkpt lat="43.3736435" lon="11.3556662"><ele>349.0</ele><time>2026-04-19T07:21:45.143Z</time></trkpt><trkpt lat="43.3736495" lon="11.3557606"><ele>349.5</ele><time>2026-04-19T07:21:47.13Z</time></trkpt><trkpt lat="43.3736801" lon="11.3558693"><ele>350.0</ele><time>2026-04-19T07:21:50.131Z</time></trkpt><trkpt lat="43.3736911" lon="11.3559574"><ele>350.5</ele><time>2026-04-19T07:21:52.141Z</time></trkpt><trkpt lat="43.3736897" lon="11.3560553"><ele>351.0</ele><time>2026-04-19T07:21:54.203Z</time></trkpt><trkpt lat="43.373684" lon="11.3562284"><ele>351.5</ele><time>2026-04-19T07:21:57.14Z</time></trkpt><trkpt lat="43.3736544" lon="11.3563212"><ele>352.0</ele><time>2026-04-19T07:21:59.133Z</time></trkpt><trkpt lat="43.3736617" lon="11.3564167"><ele>352.16666666666663</ele><time>2026-04-19T07:22:02.13Z</time></trkpt><trkpt lat="43.3736738" lon="11.3565386"><ele>352.3333333333333</ele><time>2026-04-19T07:22:05.2Z</time></trkpt><trkpt lat="43.3736874" lon="11.3566242"><ele>352.5</ele><time>2026-04-19T07:22:07.133Z</time></trkpt><trkpt lat="43.3737081" lon="11.3567236"><ele>352.6666666666667</ele><time>2026-04-19T07:22:10.137Z</time></trkpt><trkpt lat="43.373728" lon="11.3568308"><ele>352.83333333333337</ele><time>2026-04-19T07:22:13.15Z</time></trkpt><trkpt lat="43.3737346" lon="11.3569476"><ele>353.0</ele><time>2026-04-19T07:22:16.132Z</time></trkpt><trkpt lat="43.3737464" lon="11.357066"><ele>353.0</ele><time>2026-04-19T07:22:19.137Z</time></trkpt><trkpt lat="43.3737616" lon="11.3571626"><ele>353.0</ele><time>2026-04-19T07:22:22.139Z</time></trkpt><trkpt lat="43.3737668" lon="11.3572515"><ele>353.0</ele><time>2026-04-19T07:22:25.199Z</time></trkpt><trkpt lat="43.3737679" lon="11.357353"><ele>353.0</ele><time>2026-04-19T07:22:28.136Z</time></trkpt><trkpt lat="43.3737572" lon="11.3574489"><ele>353.0</ele><time>2026-04-19T07:22:31.133Z</time></trkpt><trkpt lat="43.3736939" lon="11.3574968"><ele>353.0</ele><time>2026-04-19T07:22:35.129Z</time></trkpt><trkpt lat="43.3736674" lon="11.3575781"><ele>353.0</ele><time>2026-04-19T07:22:38.123Z</time></trkpt><trkpt lat="43.3736644" lon="11.3576907"><ele>353.4285714285714</ele><time>2026-04-19T07:22:41.125Z</time></trkpt><trkpt lat="43.3736472" lon="11.3577933"><ele>353.8571428571429</ele><time>2026-04-19T07:22:44.133Z</time></trkpt><trkpt lat="43.3736323" lon="11.3579011"><ele>354.2857142857143</ele><time>2026-04-19T07:22:47.127Z</time></trkpt><trkpt lat="43.373606" lon="11.3580001"><ele>354.71428571428567</ele><time>2026-04-19T07:22:50.134Z</time></trkpt><trkpt lat="43.3735714" lon="11.3580859"><ele>355.1428571428571</ele><time>2026-04-19T07:22:53.144Z</time></trkpt><trkpt lat="43.373544" lon="11.3581722"><ele>355.57142857142856</ele><time>2026-04-19T07:22:56.129Z</time></trkpt><trkpt lat="43.3735204" lon="11.3582558"><ele>356.0</ele><time>2026-04-19T07:22:59.193Z</time></trkpt><trkpt lat="43.3734807" lon="11.3583397"><ele>356.2857142857143</ele><time>2026-04-19T07:23:02.113Z</time></trkpt><trkpt lat="43.3734588" lon="11.3584281"><ele>356.57142857142856</ele><time>2026-04-19T07:23:06.141Z</time></trkpt><trkpt lat="43.3734231" lon="11.3585095"><ele>356.8571428571429</ele><time>2026-04-19T07:23:09.197Z</time></trkpt><trkpt lat="43.3733876" lon="11.358616"><ele>357.1428571428571</ele><time>2026-04-19T07:23:12.12Z</time></trkpt><trkpt lat="43.3733369" lon="11.3587027"><ele>357.42857142857144</ele><time>2026-04-19T07:23:15.14Z</time></trkpt><trkpt lat="43.3732963" lon="11.3587871"><ele>357.7142857142857</ele><time>2026-04-19T07:23:18.103Z</time></trkpt><trkpt lat="43.3732722" lon="11.3588694"><ele>358.0</ele><time>2026-04-19T07:23:21.101Z</time></trkpt><trkpt lat="43.3732374" lon="11.3589474"><ele>358.0</ele><time>2026-04-19T07:23:24.114Z</time></trkpt><trkpt lat="43.3731909" lon="11.3590168"><ele>358.0</ele><time>2026-04-19T07:23:27.125Z</time></trkpt><trkpt lat="43.3731245" lon="11.3590872"><ele>358.0</ele><time>2026-04-19T07:23:31.125Z</time></trkpt><trkpt lat="43.3730478" lon="11.3591499"><ele>358.0</ele><time>2026-04-19T07:23:34.096Z</time></trkpt><trkpt lat="43.3729674" lon="11.3592153"><ele>358.0</ele><time>2026-04-19T07:23:37.13Z</time></trkpt><trkpt lat="43.3729088" lon="11.3592549"><ele>358.0</ele><time>2026-04-19T07:23:39.118Z</time></trkpt><trkpt lat="43.3728396" lon="11.3593006"><ele>359.0</ele><time>2026-04-19T07:23:41.132Z</time></trkpt><trkpt lat="43.3727726" lon="11.3593392"><ele>360.0</ele><time>2026-04-19T07:23:43.118Z</time></trkpt><trkpt lat="43.3726911" lon="11.3593928"><ele>361.0</ele><time>2026-04-19T07:23:45.2Z</time></trkpt><trkpt lat="43.372612" lon="11.3594294"><ele>362.0</ele><time>2026-04-19T07:23:47.127Z</time></trkpt><trkpt lat="43.3725134" lon="11.359469"><ele>363.0</ele><time>2026-04-19T07:23:49.203Z</time></trkpt><trkpt lat="43.3724447" lon="11.3595228"><ele>364.0</ele><time>2026-04-19T07:23:51.133Z</time></trkpt><trkpt lat="43.3723634" lon="11.3595701"><ele>364.0</ele><time>2026-04-19T07:23:53.138Z</time></trkpt><trkpt lat="43.372272" lon="11.3595996"><ele>364.0</ele><time>2026-04-19T07:23:55.198Z</time></trkpt><trkpt lat="43.3721596" lon="11.3595342"><ele>364.0</ele><time>2026-04-19T07:23:57.134Z</time></trkpt><trkpt lat="43.3720881" lon="11.3594408"><ele>364.0</ele><time>2026-04-19T07:23:59.124Z</time></trkpt><trkpt lat="43.3719764" lon="11.3593921"><ele>364.0</ele><time>2026-04-19T07:24:01.125Z</time></trkpt><trkpt lat="43.3718541" lon="11.359387"><ele>363.0</ele><time>2026-04-19T07:24:03.137Z</time></trkpt><trkpt lat="43.3717301" lon="11.3593949"><ele>362.0</ele><time>2026-04-19T07:24:05.134Z</time></trkpt><trkpt lat="43.3716043" lon="11.3594184"><ele>361.0</ele><time>2026-04-19T07:24:07.125Z</time></trkpt><trkpt lat="43.3715384" lon="11.3594352"><ele>360.0</ele><time>2026-04-19T07:24:08.189Z</time></trkpt><trkpt lat="43.3714643" lon="11.3594477"><ele>359.0</ele><time>2026-04-19T07:24:09.199Z</time></trkpt><trkpt lat="43.3713845" lon="11.3594554"><ele>358.0</ele><time>2026-04-19T07:24:10.188Z</time></trkpt><trkpt lat="43.371306" lon="11.3594662"><ele>357.0</ele><time>2026-04-19T07:24:11.117Z</time></trkpt><trkpt lat="43.3712367" lon="11.3594849"><ele>356.0</ele><time>2026-04-19T07:24:12.127Z</time></trkpt><trkpt lat="43.3711654" lon="11.3594984"><ele>355.0</ele><time>2026-04-19T07:24:13.125Z</time></trkpt><trkpt lat="43.3710914" lon="11.3595154"><ele>354.0</ele><time>2026-04-19T07:24:14.185Z</time></trkpt><trkpt lat="43.3710154" lon="11.3595318"><ele>353.0</ele><time>2026-04-19T07:24:15.188Z</time></trkpt><trkpt lat="43.370935" lon="11.3595445"><ele>353.0</ele><time>2026-04-19T07:24:16.132Z</time></trkpt><trkpt lat="43.3708542" lon="11.3595611"><ele>353.0</ele><time>2026-04-19T07:24:17.137Z</time></trkpt><trkpt lat="43.3707758" lon="11.3595811"><ele>353.0</ele><time>2026-04-19T07:24:18.135Z</time></trkpt><trkpt lat="43.3706947" lon="11.3595899"><ele>353.0</ele><time>2026-04-19T07:24:19.185Z</time></trkpt><trkpt lat="43.3706127" lon="11.3595881"><ele>353.0</ele><time>2026-04-19T07:24:20.118Z</time></trkpt><trkpt lat="43.3705209" lon="11.3595992"><ele>353.0</ele><time>2026-04-19T07:24:21.134Z</time></trkpt><trkpt lat="43.3704383" lon="11.3596219"><ele>352.33333333333337</ele><time>2026-04-19T07:24:22.129Z</time></trkpt><trkpt lat="43.3703708" lon="11.3596632"><ele>351.6666666666667</ele><time>2026-04-19T07:24:23.124Z</time></trkpt><trkpt lat="43.3703106" lon="11.3597332"><ele>351.0</ele><time>2026-04-19T07:24:24.215Z</time></trkpt><trkpt lat="43.3702526" lon="11.3598056"><ele>350.3333333333333</ele><time>2026-04-19T07:24:25.128Z</time></trkpt><trkpt lat="43.3701871" lon="11.3598745"><ele>349.66666666666663</ele><time>2026-04-19T07:24:26.131Z</time></trkpt><trkpt lat="43.3701159" lon="11.3599302"><ele>349.0</ele><time>2026-04-19T07:24:27.13Z</time></trkpt><trkpt lat="43.3700402" lon="11.3599772"><ele>349.0</ele><time>2026-04-19T07:24:28.135Z</time></trkpt><trkpt lat="43.3699624" lon="11.3600169"><ele>349.0</ele><time>2026-04-19T07:24:29.125Z</time></trkpt><trkpt lat="43.3698828" lon="11.3600475"><ele>349.0</ele><time>2026-04-19T07:24:30.12Z</time></trkpt><trkpt lat="43.3698009" lon="11.3600765"><ele>349.0</ele><time>2026-04-19T07:24:31.136Z</time></trkpt><trkpt lat="43.3697233" lon="11.3600991"><ele>349.0</ele><time>2026-04-19T07:24:32.122Z</time></trkpt><trkpt lat="43.3696464" lon="11.3601072"><ele>349.0</ele><time>2026-04-19T07:24:33.124Z</time></trkpt><trkpt lat="43.36957" lon="11.3601034"><ele>349.0</ele><time>2026-04-19T07:24:34.129Z</time></trkpt><trkpt lat="43.3694584" lon="11.3600514"><ele>349.0</ele><time>2026-04-19T07:24:36.123Z</time></trkpt><trkpt lat="43.3693619" lon="11.3600015"><ele>349.0</ele><time>2026-04-19T07:24:38.126Z</time></trkpt><trkpt lat="43.369288" lon="11.3600361"><ele>349.0</ele><time>2026-04-19T07:24:40.128Z</time></trkpt><trkpt lat="43.3692115" lon="11.3600916"><ele>349.0</ele><time>2026-04-19T07:24:42.125Z</time></trkpt><trkpt lat="43.3691339" lon="11.3601435"><ele>349.0</ele><time>2026-04-19T07:24:44.137Z</time></trkpt><trkpt lat="43.3690564" lon="11.3602243"><ele>349.0</ele><time>2026-04-19T07:24:46.133Z</time></trkpt><trkpt lat="43.3689724" lon="11.3603032"><ele>349.0</ele><time>2026-04-19T07:24:48.128Z</time></trkpt><trkpt lat="43.3688881" lon="11.3603891"><ele>349.0</ele><time>2026-04-19T07:24:50.131Z</time></trkpt><trkpt lat="43.3688134" lon="11.3604867"><ele>349.0</ele><time>2026-04-19T07:24:52.125Z</time></trkpt><trkpt lat="43.3687343" lon="11.3605695"><ele>347.0</ele><time>2026-04-19T07:24:54.109Z</time></trkpt><trkpt lat="43.3686516" lon="11.360655"><ele>345.0</ele><time>2026-04-19T07:24:56.119Z</time></trkpt><trkpt lat="43.3685601" lon="11.3607436"><ele>343.0</ele><time>2026-04-19T07:24:58.12Z</time></trkpt><trkpt lat="43.3685074" lon="11.3607959"><ele>341.0</ele><time>2026-04-19T07:24:59.137Z</time></trkpt><trkpt lat="43.3684535" lon="11.3608499"><ele>339.0</ele><time>2026-04-19T07:25:00.124Z</time></trkpt><trkpt lat="43.368396" lon="11.3609026"><ele>337.0</ele><time>2026-04-19T07:25:01.131Z</time></trkpt><trkpt lat="43.3683387" lon="11.3609563"><ele>337.0</ele><time>2026-04-19T07:25:02.132Z</time></trkpt><trkpt lat="43.3682827" lon="11.3610098"><ele>337.0</ele><time>2026-04-19T07:25:03.132Z</time></trkpt><trkpt lat="43.3682251" lon="11.3610648"><ele>337.0</ele><time>2026-04-19T07:25:04.13Z</time></trkpt><trkpt lat="43.3681661" lon="11.3611185"><ele>337.0</ele><time>2026-04-19T07:25:05.133Z</time></trkpt><trkpt lat="43.3681041" lon="11.3611793"><ele>337.0</ele><time>2026-04-19T07:25:06.12Z</time></trkpt><trkpt lat="43.3680362" lon="11.3612479"><ele>337.0</ele><time>2026-04-19T07:25:07.13Z</time></trkpt><trkpt lat="43.3679693" lon="11.3613113"><ele>335.66666666666663</ele><time>2026-04-19T07:25:08.134Z</time></trkpt><trkpt lat="43.3678991" lon="11.3613753"><ele>334.3333333333333</ele><time>2026-04-19T07:25:09.13Z</time></trkpt><trkpt lat="43.3678287" lon="11.3614399"><ele>333.0</ele><time>2026-04-19T07:25:10.147Z</time></trkpt><trkpt lat="43.3677583" lon="11.36151"><ele>331.6666666666667</ele><time>2026-04-19T07:25:11.136Z</time></trkpt><trkpt lat="43.3676852" lon="11.3615792"><ele>330.33333333333337</ele><time>2026-04-19T07:25:12.128Z</time></trkpt><trkpt lat="43.3676104" lon="11.3616482"><ele>329.0</ele><time>2026-04-19T07:25:13.129Z</time></trkpt><trkpt lat="43.3675306" lon="11.3617205"><ele>329.0</ele><time>2026-04-19T07:25:14.119Z</time></trkpt><trkpt lat="43.3674477" lon="11.3617929"><ele>329.0</ele><time>2026-04-19T07:25:15.125Z</time></trkpt><trkpt lat="43.3673641" lon="11.3618665"><ele>329.0</ele><time>2026-04-19T07:25:16.132Z</time></trkpt><trkpt lat="43.3672814" lon="11.3619417"><ele>329.0</ele><time>2026-04-19T07:25:17.129Z</time></trkpt><trkpt lat="43.3672011" lon="11.3620174"><ele>329.0</ele><time>2026-04-19T07:25:18.135Z</time></trkpt><trkpt lat="43.3671232" lon="11.3620922"><ele>328.2</ele><time>2026-04-19T07:25:19.142Z</time></trkpt><trkpt lat="43.3670455" lon="11.3621642"><ele>327.4</ele><time>2026-04-19T07:25:20.129Z</time></trkpt><trkpt lat="43.3669598" lon="11.3622381"><ele>326.6</ele><time>2026-04-19T07:25:21.134Z</time></trkpt><trkpt lat="43.3668738" lon="11.362314"><ele>325.8</ele><time>2026-04-19T07:25:22.125Z</time></trkpt><trkpt lat="43.3667913" lon="11.3623946"><ele>325.0</ele><time>2026-04-19T07:25:23.142Z</time></trkpt><trkpt lat="43.3667095" lon="11.3624754"><ele>325.0</ele><time>2026-04-19T07:25:24.198Z</time></trkpt><trkpt lat="43.3666305" lon="11.3625469"><ele>325.0</ele><time>2026-04-19T07:25:25.129Z</time></trkpt><trkpt lat="43.3665505" lon="11.3626186"><ele>325.0</ele><time>2026-04-19T07:25:26.121Z</time></trkpt><trkpt lat="43.3664734" lon="11.3626911"><ele>325.0</ele><time>2026-04-19T07:25:27.132Z</time></trkpt><trkpt lat="43.3664008" lon="11.3627609"><ele>325.0</ele><time>2026-04-19T07:25:28.188Z</time></trkpt><trkpt lat="43.3663272" lon="11.3628186"><ele>324.7142857142857</ele><time>2026-04-19T07:25:29.2Z</time></trkpt><trkpt lat="43.3662563" lon="11.3628762"><ele>324.42857142857144</ele><time>2026-04-19T07:25:30.122Z</time></trkpt><trkpt lat="43.3661887" lon="11.362935"><ele>324.14285714285717</ele><time>2026-04-19T07:25:31.118Z</time></trkpt><trkpt lat="43.3661309" lon="11.3629952"><ele>323.8571428571429</ele><time>2026-04-19T07:25:32.12Z</time></trkpt><trkpt lat="43.3660723" lon="11.36305"><ele>323.57142857142856</ele><time>2026-04-19T07:25:33.2Z</time></trkpt><trkpt lat="43.3660195" lon="11.3631061"><ele>323.28571428571433</ele><time>2026-04-19T07:25:34.199Z</time></trkpt><trkpt lat="43.3659657" lon="11.3631635"><ele>323.0</ele><time>2026-04-19T07:25:35.202Z</time></trkpt><trkpt lat="43.3659097" lon="11.3632122"><ele>323.00000000000006</ele><time>2026-04-19T07:25:36.112Z</time></trkpt><trkpt lat="43.3658486" lon="11.3632636"><ele>323.0</ele><time>2026-04-19T07:25:37.121Z</time></trkpt><trkpt lat="43.3657885" lon="11.363316"><ele>323.0</ele><time>2026-04-19T07:25:38.113Z</time></trkpt><trkpt lat="43.3657318" lon="11.3633686"><ele>323.0</ele><time>2026-04-19T07:25:39.124Z</time></trkpt><trkpt lat="43.3656763" lon="11.3634223"><ele>323.0</ele><time>2026-04-19T07:25:40.124Z</time></trkpt><trkpt lat="43.3656213" lon="11.3634816"><ele>323.00000000000006</ele><time>2026-04-19T07:25:41.136Z</time></trkpt><trkpt lat="43.365566" lon="11.3635379"><ele>323.0</ele><time>2026-04-19T07:25:42.133Z</time></trkpt><trkpt lat="43.3655109" lon="11.3635901"><ele>323.1666666666667</ele><time>2026-04-19T07:25:43.12Z</time></trkpt><trkpt lat="43.365453" lon="11.3636435"><ele>323.33333333333337</ele><time>2026-04-19T07:25:44.132Z</time></trkpt><trkpt lat="43.3653945" lon="11.3636918"><ele>323.5</ele><time>2026-04-19T07:25:45.134Z</time></trkpt><trkpt lat="43.3653406" lon="11.3637395"><ele>323.6666666666667</ele><time>2026-04-19T07:25:46.138Z</time></trkpt><trkpt lat="43.3652869" lon="11.3637914"><ele>323.8333333333333</ele><time>2026-04-19T07:25:47.131Z</time></trkpt><trkpt lat="43.3651857" lon="11.3638967"><ele>324.0</ele><time>2026-04-19T07:25:49.14Z</time></trkpt><trkpt lat="43.3650846" lon="11.3639904"><ele>324.0</ele><time>2026-04-19T07:25:51.121Z</time></trkpt><trkpt lat="43.3649831" lon="11.3640764"><ele>324.0</ele><time>2026-04-19T07:25:53.198Z</time></trkpt><trkpt lat="43.364885" lon="11.3641366"><ele>324.0</ele><time>2026-04-19T07:25:55.132Z</time></trkpt><trkpt lat="43.3647911" lon="11.3642525"><ele>324.0</ele><time>2026-04-19T07:25:57.126Z</time></trkpt><trkpt lat="43.3646977" lon="11.3643639"><ele>323.8571428571429</ele><time>2026-04-19T07:25:59.2Z</time></trkpt><trkpt lat="43.3646474" lon="11.3644169"><ele>323.7142857142857</ele><time>2026-04-19T07:26:00.207Z</time></trkpt><trkpt lat="43.3646001" lon="11.3644781"><ele>323.57142857142856</ele><time>2026-04-19T07:26:01.13Z</time></trkpt><trkpt lat="43.364544" lon="11.3645431"><ele>323.42857142857144</ele><time>2026-04-19T07:26:02.135Z</time></trkpt><trkpt lat="43.3644854" lon="11.3646014"><ele>323.2857142857143</ele><time>2026-04-19T07:26:03.119Z</time></trkpt><trkpt lat="43.3644272" lon="11.3646603"><ele>323.14285714285717</ele><time>2026-04-19T07:26:04.118Z</time></trkpt><trkpt lat="43.3643671" lon="11.3647142"><ele>323.0</ele><time>2026-04-19T07:26:05.125Z</time></trkpt><trkpt lat="43.3643048" lon="11.3647714"><ele>323.00000000000006</ele><time>2026-04-19T07:26:06.133Z</time></trkpt><trkpt lat="43.3642439" lon="11.364825"><ele>323.0</ele><time>2026-04-19T07:26:07.12Z</time></trkpt><trkpt lat="43.3641856" lon="11.3648826"><ele>323.0</ele><time>2026-04-19T07:26:08.185Z</time></trkpt><trkpt lat="43.3641292" lon="11.3649413"><ele>323.0</ele><time>2026-04-19T07:26:09.104Z</time></trkpt><trkpt lat="43.3640746" lon="11.3649954"><ele>323.0</ele><time>2026-04-19T07:26:10.133Z</time></trkpt><trkpt lat="43.3640166" lon="11.3650507"><ele>323.00000000000006</ele><time>2026-04-19T07:26:11.126Z</time></trkpt><trkpt lat="43.3639618" lon="11.3651067"><ele>323.0</ele><time>2026-04-19T07:26:12.121Z</time></trkpt><trkpt lat="43.3639066" lon="11.3651594"><ele>322.6666666666667</ele><time>2026-04-19T07:26:13.131Z</time></trkpt><trkpt lat="43.3638549" lon="11.365211"><ele>322.33333333333337</ele><time>2026-04-19T07:26:14.111Z</time></trkpt><trkpt lat="43.3638004" lon="11.3652637"><ele>322.0</ele><time>2026-04-19T07:26:15.13Z</time></trkpt><trkpt lat="43.3637478" lon="11.3653133"><ele>321.6666666666667</ele><time>2026-04-19T07:26:16.123Z</time></trkpt><trkpt lat="43.3636466" lon="11.3654107"><ele>321.3333333333333</ele><time>2026-04-19T07:26:18.207Z</time></trkpt><trkpt lat="43.3635522" lon="11.3655031"><ele>321.0</ele><time>2026-04-19T07:26:20.14Z</time></trkpt><trkpt lat="43.3634491" lon="11.3655941"><ele>322.4</ele><time>2026-04-19T07:26:22.128Z</time></trkpt><trkpt lat="43.3633942" lon="11.3656454"><ele>323.8</ele><time>2026-04-19T07:26:23.13Z</time></trkpt><trkpt lat="43.3633416" lon="11.3656951"><ele>325.2</ele><time>2026-04-19T07:26:24.217Z</time></trkpt><trkpt lat="43.3632459" lon="11.365793"><ele>326.59999999999997</ele><time>2026-04-19T07:26:26.137Z</time></trkpt><trkpt lat="43.363155" lon="11.3658823"><ele>328.0</ele><time>2026-04-19T07:26:28.187Z</time></trkpt><trkpt lat="43.3630419" lon="11.3659594"><ele>327.2</ele><time>2026-04-19T07:26:30.136Z</time></trkpt><trkpt lat="43.3629502" lon="11.3660362"><ele>326.4</ele><time>2026-04-19T07:26:32.129Z</time></trkpt><trkpt lat="43.3628808" lon="11.3661095"><ele>325.59999999999997</ele><time>2026-04-19T07:26:34.197Z</time></trkpt><trkpt lat="43.3628099" lon="11.3661832"><ele>324.79999999999995</ele><time>2026-04-19T07:26:36.13Z</time></trkpt><trkpt lat="43.3627456" lon="11.3663122"><ele>324.0</ele><time>2026-04-19T07:26:38.114Z</time></trkpt><trkpt lat="43.3626903" lon="11.3663749"><ele>324.0</ele><time>2026-04-19T07:26:39.119Z</time></trkpt><trkpt lat="43.3626257" lon="11.3664354"><ele>324.0</ele><time>2026-04-19T07:26:40.127Z</time></trkpt><trkpt lat="43.3625602" lon="11.3664994"><ele>324.0</ele><time>2026-04-19T07:26:41.133Z</time></trkpt><trkpt lat="43.3624945" lon="11.3665686"><ele>324.0</ele><time>2026-04-19T07:26:42.137Z</time></trkpt><trkpt lat="43.3624245" lon="11.366638"><ele>324.0</ele><time>2026-04-19T07:26:43.139Z</time></trkpt><trkpt lat="43.3623492" lon="11.3667124"><ele>324.0</ele><time>2026-04-19T07:26:44.127Z</time></trkpt><trkpt lat="43.3622767" lon="11.3667891"><ele>324.0</ele><time>2026-04-19T07:26:45.134Z</time></trkpt><trkpt lat="43.3622067" lon="11.3668641"><ele>324.0</ele><time>2026-04-19T07:26:46.135Z</time></trkpt><trkpt lat="43.3621329" lon="11.3669405"><ele>324.0</ele><time>2026-04-19T07:26:47.138Z</time></trkpt><trkpt lat="43.3620545" lon="11.3670114"><ele>324.0</ele><time>2026-04-19T07:26:48.131Z</time></trkpt><trkpt lat="43.3619721" lon="11.3670747"><ele>324.0</ele><time>2026-04-19T07:26:49.128Z</time></trkpt><trkpt lat="43.3618856" lon="11.3671272"><ele>322.5</ele><time>2026-04-19T07:26:50.122Z</time></trkpt><trkpt lat="43.3617974" lon="11.3671707"><ele>321.0</ele><time>2026-04-19T07:26:51.127Z</time></trkpt><trkpt lat="43.3617069" lon="11.3672094"><ele>319.5</ele><time>2026-04-19T07:26:52.134Z</time></trkpt><trkpt lat="43.3616178" lon="11.3672439"><ele>318.0</ele><time>2026-04-19T07:26:53.127Z</time></trkpt><trkpt lat="43.3614499" lon="11.3673044"><ele>318.0</ele><time>2026-04-19T07:26:55.186Z</time></trkpt><trkpt lat="43.3613683" lon="11.367335"><ele>318.0</ele><time>2026-04-19T07:26:56.127Z</time></trkpt><trkpt lat="43.3612835" lon="11.3673639"><ele>318.0</ele><time>2026-04-19T07:26:57.129Z</time></trkpt><trkpt lat="43.3611998" lon="11.3673881"><ele>318.0</ele><time>2026-04-19T07:26:58.121Z</time></trkpt><trkpt lat="43.361119" lon="11.3674075"><ele>318.0</ele><time>2026-04-19T07:26:59.124Z</time></trkpt><trkpt lat="43.3610382" lon="11.3674271"><ele>318.0</ele><time>2026-04-19T07:27:00.139Z</time></trkpt><trkpt lat="43.3609576" lon="11.3674518"><ele>317.6666666666667</ele><time>2026-04-19T07:27:01.152Z</time></trkpt><trkpt lat="43.3608815" lon="11.3674791"><ele>317.3333333333333</ele><time>2026-04-19T07:27:02.11Z</time></trkpt><trkpt lat="43.3608062" lon="11.3675119"><ele>317.0</ele><time>2026-04-19T07:27:03.13Z</time></trkpt><trkpt lat="43.3607315" lon="11.3675507"><ele>316.66666666666663</ele><time>2026-04-19T07:27:04.209Z</time></trkpt><trkpt lat="43.3606611" lon="11.3675881"><ele>316.3333333333333</ele><time>2026-04-19T07:27:05.136Z</time></trkpt><trkpt lat="43.3605866" lon="11.3676276"><ele>316.0</ele><time>2026-04-19T07:27:06.143Z</time></trkpt><trkpt lat="43.3605168" lon="11.3676642"><ele>315.3333333333333</ele><time>2026-04-19T07:27:07.105Z</time></trkpt><trkpt lat="43.3604433" lon="11.3676986"><ele>314.66666666666663</ele><time>2026-04-19T07:27:08.122Z</time></trkpt><trkpt lat="43.3603717" lon="11.3677333"><ele>314.0</ele><time>2026-04-19T07:27:09.218Z</time></trkpt><trkpt lat="43.360293" lon="11.3677686"><ele>313.3333333333333</ele><time>2026-04-19T07:27:10.129Z</time></trkpt><trkpt lat="43.3602032" lon="11.3678178"><ele>312.6666666666667</ele><time>2026-04-19T07:27:11.137Z</time></trkpt><trkpt lat="43.3601159" lon="11.3678757"><ele>312.0</ele><time>2026-04-19T07:27:12.13Z</time></trkpt><trkpt lat="43.3600159" lon="11.3679238"><ele>312.0</ele><time>2026-04-19T07:27:13.209Z</time></trkpt><trkpt lat="43.3599224" lon="11.3679703"><ele>312.0</ele><time>2026-04-19T07:27:14.125Z</time></trkpt><trkpt lat="43.3598268" lon="11.3680257"><ele>312.0</ele><time>2026-04-19T07:27:15.129Z</time></trkpt><trkpt lat="43.3597265" lon="11.3680839"><ele>312.0</ele><time>2026-04-19T07:27:16.137Z</time></trkpt><trkpt lat="43.3596323" lon="11.3681404"><ele>312.0</ele><time>2026-04-19T07:27:17.133Z</time></trkpt><trkpt lat="43.3595348" lon="11.3681972"><ele>310.4</ele><time>2026-04-19T07:27:18.137Z</time></trkpt><trkpt lat="43.3594335" lon="11.368258"><ele>308.79999999999995</ele><time>2026-04-19T07:27:19.146Z</time></trkpt><trkpt lat="43.3593289" lon="11.3683173"><ele>307.2</ele><time>2026-04-19T07:27:20.139Z</time></trkpt><trkpt lat="43.359227" lon="11.3683726"><ele>305.59999999999997</ele><time>2026-04-19T07:27:21.128Z</time></trkpt><trkpt lat="43.3591234" lon="11.3684302"><ele>304.0</ele><time>2026-04-19T07:27:22.143Z</time></trkpt><trkpt lat="43.3590226" lon="11.3684849"><ele>304.0</ele><time>2026-04-19T07:27:23.134Z</time></trkpt><trkpt lat="43.3589232" lon="11.3685409"><ele>304.0</ele><time>2026-04-19T07:27:24.144Z</time></trkpt><trkpt lat="43.3588244" lon="11.3686004"><ele>304.0</ele><time>2026-04-19T07:27:25.129Z</time></trkpt><trkpt lat="43.3587284" lon="11.3686606"><ele>304.0</ele><time>2026-04-19T07:27:26.132Z</time></trkpt><trkpt lat="43.3586314" lon="11.3687161"><ele>304.0</ele><time>2026-04-19T07:27:27.134Z</time></trkpt><trkpt lat="43.358533" lon="11.3687688"><ele>302.59999999999997</ele><time>2026-04-19T07:27:28.125Z</time></trkpt><trkpt lat="43.3584336" lon="11.368816"><ele>301.2</ele><time>2026-04-19T07:27:29.134Z</time></trkpt><trkpt lat="43.3583444" lon="11.3688642"><ele>299.79999999999995</ele><time>2026-04-19T07:27:30.13Z</time></trkpt><trkpt lat="43.3582622" lon="11.3689063"><ele>298.4</ele><time>2026-04-19T07:27:31.126Z</time></trkpt><trkpt lat="43.3581763" lon="11.3689538"><ele>297.0</ele><time>2026-04-19T07:27:32.13Z</time></trkpt><trkpt lat="43.3580739" lon="11.369007"><ele>296.6</ele><time>2026-04-19T07:27:33.118Z</time></trkpt><trkpt lat="43.3579679" lon="11.36906"><ele>296.2</ele><time>2026-04-19T07:27:34.196Z</time></trkpt><trkpt lat="43.3578678" lon="11.3691126"><ele>295.8</ele><time>2026-04-19T07:27:35.197Z</time></trkpt><trkpt lat="43.3577686" lon="11.3691558"><ele>295.4</ele><time>2026-04-19T07:27:36.107Z</time></trkpt><trkpt lat="43.3576718" lon="11.3692033"><ele>295.0</ele><time>2026-04-19T07:27:37.129Z</time></trkpt><trkpt lat="43.3575809" lon="11.3692501"><ele>295.0</ele><time>2026-04-19T07:27:38.146Z</time></trkpt><trkpt lat="43.3574872" lon="11.3692994"><ele>295.0</ele><time>2026-04-19T07:27:39.186Z</time></trkpt><trkpt lat="43.3574016" lon="11.3693297"><ele>295.0</ele><time>2026-04-19T07:27:40.13Z</time></trkpt><trkpt lat="43.3573173" lon="11.3693521"><ele>295.0</ele><time>2026-04-19T07:27:41.135Z</time></trkpt><trkpt lat="43.357226" lon="11.3693655"><ele>295.0</ele><time>2026-04-19T07:27:42.129Z</time></trkpt><trkpt lat="43.3571199" lon="11.3693781"><ele>294.2</ele><time>2026-04-19T07:27:43.203Z</time></trkpt><trkpt lat="43.3570265" lon="11.3693842"><ele>293.4</ele><time>2026-04-19T07:27:44.125Z</time></trkpt><trkpt lat="43.3569263" lon="11.3693949"><ele>292.6</ele><time>2026-04-19T07:27:45.194Z</time></trkpt><trkpt lat="43.3568257" lon="11.3694103"><ele>291.8</ele><time>2026-04-19T07:27:46.122Z</time></trkpt><trkpt lat="43.3567214" lon="11.3694249"><ele>291.0</ele><time>2026-04-19T07:27:47.125Z</time></trkpt><trkpt lat="43.3566143" lon="11.3694428"><ele>291.0</ele><time>2026-04-19T07:27:48.122Z</time></trkpt><trkpt lat="43.356502" lon="11.3694496"><ele>291.0</ele><time>2026-04-19T07:27:49.218Z</time></trkpt><trkpt lat="43.3562823" lon="11.3694686"><ele>291.0</ele><time>2026-04-19T07:27:51.143Z</time></trkpt><trkpt lat="43.3561733" lon="11.369484"><ele>291.0</ele><time>2026-04-19T07:27:52.12Z</time></trkpt><trkpt lat="43.3560654" lon="11.3694986"><ele>289.6</ele><time>2026-04-19T07:27:53.123Z</time></trkpt><trkpt lat="43.3559598" lon="11.3695116"><ele>288.20000000000005</ele><time>2026-04-19T07:27:54.126Z</time></trkpt><trkpt lat="43.3558542" lon="11.3695192"><ele>286.79999999999995</ele><time>2026-04-19T07:27:55.134Z</time></trkpt><trkpt lat="43.355753" lon="11.3695278"><ele>285.4</ele><time>2026-04-19T07:27:56.132Z</time></trkpt><trkpt lat="43.3556561" lon="11.3695411"><ele>284.0</ele><time>2026-04-19T07:27:57.128Z</time></trkpt><trkpt lat="43.3555612" lon="11.3695558"><ele>284.2</ele><time>2026-04-19T07:27:58.128Z</time></trkpt><trkpt lat="43.3554638" lon="11.3695688"><ele>284.4</ele><time>2026-04-19T07:27:59.199Z</time></trkpt><trkpt lat="43.3553703" lon="11.3695721"><ele>284.6</ele><time>2026-04-19T07:28:00.123Z</time></trkpt><trkpt lat="43.3552742" lon="11.369583"><ele>284.8</ele><time>2026-04-19T07:28:01.141Z</time></trkpt><trkpt lat="43.3551882" lon="11.3695984"><ele>285.0</ele><time>2026-04-19T07:28:02.121Z</time></trkpt><trkpt lat="43.3550933" lon="11.3696166"><ele>285.0</ele><time>2026-04-19T07:28:03.193Z</time></trkpt><trkpt lat="43.3549979" lon="11.3696366"><ele>285.0</ele><time>2026-04-19T07:28:04.198Z</time></trkpt><trkpt lat="43.3549124" lon="11.3696507"><ele>285.0</ele><time>2026-04-19T07:28:05.134Z</time></trkpt><trkpt lat="43.3548352" lon="11.3696602"><ele>285.0</ele><time>2026-04-19T07:28:06.136Z</time></trkpt><trkpt lat="43.3547503" lon="11.3696567"><ele>285.0</ele><time>2026-04-19T07:28:07.133Z</time></trkpt><trkpt lat="43.3546629" lon="11.3696563"><ele>285.0</ele><time>2026-04-19T07:28:08.188Z</time></trkpt><trkpt lat="43.3545761" lon="11.369652"><ele>284.4</ele><time>2026-04-19T07:28:09.119Z</time></trkpt><trkpt lat="43.3544731" lon="11.3696411"><ele>283.8</ele><time>2026-04-19T07:28:10.115Z</time></trkpt><trkpt lat="43.3543593" lon="11.3696345"><ele>283.2</ele><time>2026-04-19T07:28:11.131Z</time></trkpt><trkpt lat="43.3542485" lon="11.3696482"><ele>282.6</ele><time>2026-04-19T07:28:12.111Z</time></trkpt><trkpt lat="43.3541437" lon="11.3696675"><ele>282.0</ele><time>2026-04-19T07:28:13.2Z</time></trkpt><trkpt lat="43.3540553" lon="11.3696834"><ele>282.0</ele><time>2026-04-19T07:28:14.197Z</time></trkpt><trkpt lat="43.3539699" lon="11.3696828"><ele>282.0</ele><time>2026-04-19T07:28:15.125Z</time></trkpt><trkpt lat="43.3538787" lon="11.3696637"><ele>282.0</ele><time>2026-04-19T07:28:16.125Z</time></trkpt><trkpt lat="43.3537993" lon="11.3696135"><ele>282.0</ele><time>2026-04-19T07:28:17.133Z</time></trkpt><trkpt lat="43.3537348" lon="11.3695362"><ele>282.0</ele><time>2026-04-19T07:28:18.11Z</time></trkpt><trkpt lat="43.353674" lon="11.3694525"><ele>282.0</ele><time>2026-04-19T07:28:19.119Z</time></trkpt><trkpt lat="43.3536116" lon="11.3693649"><ele>281.4</ele><time>2026-04-19T07:28:20.125Z</time></trkpt><trkpt lat="43.353548" lon="11.3692753"><ele>280.79999999999995</ele><time>2026-04-19T07:28:21.141Z</time></trkpt><trkpt lat="43.3534782" lon="11.3691833"><ele>280.2</ele><time>2026-04-19T07:28:22.127Z</time></trkpt><trkpt lat="43.3533999" lon="11.3690888"><ele>279.59999999999997</ele><time>2026-04-19T07:28:23.109Z</time></trkpt><trkpt lat="43.3533252" lon="11.3689982"><ele>279.0</ele><time>2026-04-19T07:28:24.136Z</time></trkpt><trkpt lat="43.3532519" lon="11.368911"><ele>277.8</ele><time>2026-04-19T07:28:25.116Z</time></trkpt><trkpt lat="43.3531811" lon="11.3688214"><ele>276.59999999999997</ele><time>2026-04-19T07:28:26.108Z</time></trkpt><trkpt lat="43.3531103" lon="11.3687368"><ele>275.4</ele><time>2026-04-19T07:28:27.107Z</time></trkpt><trkpt lat="43.3530386" lon="11.3686511"><ele>274.2</ele><time>2026-04-19T07:28:28.125Z</time></trkpt><trkpt lat="43.352965" lon="11.3685666"><ele>273.0</ele><time>2026-04-19T07:28:29.127Z</time></trkpt><trkpt lat="43.3528914" lon="11.3684841"><ele>272.6</ele><time>2026-04-19T07:28:30.126Z</time></trkpt><trkpt lat="43.3528121" lon="11.3683972"><ele>272.20000000000005</ele><time>2026-04-19T07:28:31.137Z</time></trkpt><trkpt lat="43.3527313" lon="11.3683066"><ele>271.8</ele><time>2026-04-19T07:28:32.124Z</time></trkpt><trkpt lat="43.3526477" lon="11.3682211"><ele>271.40000000000003</ele><time>2026-04-19T07:28:33.129Z</time></trkpt><trkpt lat="43.3525616" lon="11.3681452"><ele>271.0</ele><time>2026-04-19T07:28:34.123Z</time></trkpt><trkpt lat="43.3524746" lon="11.3680766"><ele>270.40000000000003</ele><time>2026-04-19T07:28:35.137Z</time></trkpt><trkpt lat="43.3523898" lon="11.3680152"><ele>269.8</ele><time>2026-04-19T07:28:36.123Z</time></trkpt><trkpt lat="43.3523046" lon="11.3679554"><ele>269.20000000000005</ele><time>2026-04-19T07:28:37.148Z</time></trkpt><trkpt lat="43.3522187" lon="11.3679001"><ele>268.6</ele><time>2026-04-19T07:28:38.127Z</time></trkpt><trkpt lat="43.3521396" lon="11.3678482"><ele>268.0</ele><time>2026-04-19T07:28:39.204Z</time></trkpt><trkpt lat="43.3520652" lon="11.3678031"><ele>268.0</ele><time>2026-04-19T07:28:40.127Z</time></trkpt><trkpt lat="43.3519868" lon="11.3677612"><ele>268.0</ele><time>2026-04-19T07:28:41.13Z</time></trkpt><trkpt lat="43.351914" lon="11.3677134"><ele>268.0</ele><time>2026-04-19T07:28:42.128Z</time></trkpt><trkpt lat="43.351849" lon="11.3676693"><ele>268.0</ele><time>2026-04-19T07:28:43.137Z</time></trkpt><trkpt lat="43.3517841" lon="11.3676242"><ele>268.0</ele><time>2026-04-19T07:28:44.138Z</time></trkpt><trkpt lat="43.3517228" lon="11.3675838"><ele>268.0</ele><time>2026-04-19T07:28:45.136Z</time></trkpt><trkpt lat="43.3516623" lon="11.3675522"><ele>268.0</ele><time>2026-04-19T07:28:46.133Z</time></trkpt><trkpt lat="43.3515984" lon="11.3675321"><ele>268.0</ele><time>2026-04-19T07:28:47.134Z</time></trkpt><trkpt lat="43.3515345" lon="11.3675208"><ele>268.0</ele><time>2026-04-19T07:28:48.111Z</time></trkpt><trkpt lat="43.3514679" lon="11.3675149"><ele>268.0</ele><time>2026-04-19T07:28:49.126Z</time></trkpt><trkpt lat="43.351395" lon="11.3675123"><ele>268.0</ele><time>2026-04-19T07:28:50.144Z</time></trkpt><trkpt lat="43.3513189" lon="11.3675077"><ele>268.0</ele><time>2026-04-19T07:28:51.142Z</time></trkpt><trkpt lat="43.3512428" lon="11.367501"><ele>268.0</ele><time>2026-04-19T07:28:52.129Z</time></trkpt><trkpt lat="43.3511631" lon="11.3674972"><ele>268.0</ele><time>2026-04-19T07:28:53.128Z</time></trkpt><trkpt lat="43.3510842" lon="11.3674961"><ele>265.8333333333333</ele><time>2026-04-19T07:28:54.124Z</time></trkpt><trkpt lat="43.351006" lon="11.3674993"><ele>263.66666666666663</ele><time>2026-04-19T07:28:55.128Z</time></trkpt><trkpt lat="43.3509271" lon="11.3675014"><ele>261.5</ele><time>2026-04-19T07:28:56.11Z</time></trkpt><trkpt lat="43.3508462" lon="11.367495"><ele>259.3333333333333</ele><time>2026-04-19T07:28:57.125Z</time></trkpt><trkpt lat="43.3507673" lon="11.3674888"><ele>257.1666666666667</ele><time>2026-04-19T07:28:58.129Z</time></trkpt><trkpt lat="43.3506889" lon="11.3674871"><ele>255.0</ele><time>2026-04-19T07:28:59.129Z</time></trkpt><trkpt lat="43.3506077" lon="11.367487"><ele>253.2857142857143</ele><time>2026-04-19T07:29:00.132Z</time></trkpt><trkpt lat="43.350527" lon="11.3674829"><ele>251.5714285714286</ele><time>2026-04-19T07:29:01.129Z</time></trkpt><trkpt lat="43.3504503" lon="11.3674772"><ele>249.85714285714286</ele><time>2026-04-19T07:29:02.129Z</time></trkpt><trkpt lat="43.3503764" lon="11.3674647"><ele>248.14285714285717</ele><time>2026-04-19T07:29:03.135Z</time></trkpt><trkpt lat="43.3503051" lon="11.3674513"><ele>246.42857142857144</ele><time>2026-04-19T07:29:04.13Z</time></trkpt><trkpt lat="43.3502358" lon="11.367445"><ele>244.71428571428572</ele><time>2026-04-19T07:29:05.144Z</time></trkpt><trkpt lat="43.3501679" lon="11.3674486"><ele>243.0</ele><time>2026-04-19T07:29:06.146Z</time></trkpt><trkpt lat="43.3501023" lon="11.3674506"><ele>243.0</ele><time>2026-04-19T07:29:07.105Z</time></trkpt><trkpt lat="43.350029" lon="11.3674501"><ele>243.0</ele><time>2026-04-19T07:29:08.129Z</time></trkpt><trkpt lat="43.3499513" lon="11.3674412"><ele>243.0</ele><time>2026-04-19T07:29:09.127Z</time></trkpt><trkpt lat="43.3498739" lon="11.367429"><ele>243.0</ele><time>2026-04-19T07:29:10.138Z</time></trkpt><trkpt lat="43.3498032" lon="11.3674244"><ele>243.0</ele><time>2026-04-19T07:29:11.179Z</time></trkpt><trkpt lat="43.349737" lon="11.3674316"><ele>243.0</ele><time>2026-04-19T07:29:12.116Z</time></trkpt><trkpt lat="43.3496733" lon="11.3674362"><ele>243.0</ele><time>2026-04-19T07:29:13.123Z</time></trkpt><trkpt lat="43.3495578" lon="11.3674392"><ele>241.66666666666666</ele><time>2026-04-19T07:29:15.203Z</time></trkpt><trkpt lat="43.3494557" lon="11.3674689"><ele>240.33333333333331</ele><time>2026-04-19T07:29:17.119Z</time></trkpt><trkpt lat="43.349389" lon="11.3674467"><ele>239.0</ele><time>2026-04-19T07:29:19.129Z</time></trkpt><trkpt lat="43.3493983" lon="11.3673442"><ele>237.66666666666666</ele><time>2026-04-19T07:29:22.135Z</time></trkpt><trkpt lat="43.3494386" lon="11.3672196"><ele>236.33333333333331</ele><time>2026-04-19T07:29:24.123Z</time></trkpt><trkpt lat="43.3494847" lon="11.3670979"><ele>235.0</ele><time>2026-04-19T07:29:26.133Z</time></trkpt><trkpt lat="43.349529" lon="11.3669892"><ele>234.49999999999997</ele><time>2026-04-19T07:29:28.216Z</time></trkpt><trkpt lat="43.3495692" lon="11.3668685"><ele>234.0</ele><time>2026-04-19T07:29:30.135Z</time></trkpt><trkpt lat="43.3496087" lon="11.3667643"><ele>233.5</ele><time>2026-04-19T07:29:32.128Z</time></trkpt><trkpt lat="43.3496538" lon="11.3666671"><ele>233.0</ele><time>2026-04-19T07:29:34.132Z</time></trkpt><trkpt lat="43.349697" lon="11.3665778"><ele>232.49999999999997</ele><time>2026-04-19T07:29:36.127Z</time></trkpt><trkpt lat="43.3497452" lon="11.3664816"><ele>232.0</ele><time>2026-04-19T07:29:38.118Z</time></trkpt><trkpt lat="43.3497608" lon="11.3663888"><ele>232.00000000000003</ele><time>2026-04-19T07:29:40.133Z</time></trkpt><trkpt lat="43.3497135" lon="11.3663159"><ele>232.0</ele><time>2026-04-19T07:29:42.132Z</time></trkpt><trkpt lat="43.349634" lon="11.3662854"><ele>232.00000000000003</ele><time>2026-04-19T07:29:44.181Z</time></trkpt><trkpt lat="43.3495705" lon="11.3662742"><ele>232.00000000000003</ele><time>2026-04-19T07:29:46.138Z</time></trkpt><trkpt lat="43.3495069" lon="11.3662991"><ele>232.0</ele><time>2026-04-19T07:29:49.127Z</time></trkpt><trkpt lat="43.3494826" lon="11.3663857"><ele>232.00000000000003</ele><time>2026-04-19T07:29:55.189Z</time></trkpt><trkpt lat="43.3495173" lon="11.3663655"><ele>232.00000000000003</ele><time>2026-04-19T07:31:35.117Z</time></trkpt><trkpt lat="43.3494835" lon="11.3662814"><ele>232.00000000000003</ele><time>2026-04-19T07:31:47.14Z</time></trkpt><trkpt lat="43.3494087" lon="11.366276"><ele>232.0</ele><time>2026-04-19T07:31:51.11Z</time></trkpt><trkpt lat="43.3493298" lon="11.3662628"><ele>232.00000000000003</ele><time>2026-04-19T07:31:55.121Z</time></trkpt><trkpt lat="43.3492482" lon="11.3662523"><ele>232.00000000000003</ele><time>2026-04-19T07:31:59.109Z</time></trkpt><trkpt lat="43.3492061" lon="11.3663178"><ele>232.0</ele><time>2026-04-19T07:32:07.136Z</time></trkpt><trkpt lat="43.3492128" lon="11.3664139"><ele>232.00000000000003</ele><time>2026-04-19T07:32:14.129Z</time></trkpt><trkpt lat="43.3492103" lon="11.3665152"><ele>232.00000000000003</ele><time>2026-04-19T07:32:17.133Z</time></trkpt><trkpt lat="43.3492076" lon="11.3666116"><ele>232.00000000000003</ele><time>2026-04-19T07:32:20.139Z</time></trkpt><trkpt lat="43.3492053" lon="11.3667092"><ele>232.0</ele><time>2026-04-19T07:32:23.136Z</time></trkpt><trkpt lat="43.3492655" lon="11.3667381"><ele>232.00000000000003</ele><time>2026-04-19T07:32:35.113Z</time></trkpt><trkpt lat="43.3493355" lon="11.3667379"><ele>232.00000000000003</ele><time>2026-04-19T07:32:43.109Z</time></trkpt><trkpt lat="43.3494205" lon="11.3667353"><ele>232.0</ele><time>2026-04-19T07:32:52.141Z</time></trkpt><trkpt lat="43.3493547" lon="11.3667361"><ele>232.00000000000003</ele><time>2026-04-19T07:33:13.134Z</time></trkpt><trkpt lat="43.3492888" lon="11.3667337"><ele>232.00000000000003</ele><time>2026-04-19T07:33:17.127Z</time></trkpt><trkpt lat="43.3492193" lon="11.366732"><ele>231.99999999999997</ele><time>2026-04-19T07:33:22.134Z</time></trkpt><trkpt lat="43.3492113" lon="11.3666416"><ele>232.0</ele><time>2026-04-19T07:33:27.111Z</time></trkpt><trkpt lat="43.3492248" lon="11.3665331"><ele>232.0</ele><time>2026-04-19T07:33:32.147Z</time></trkpt><trkpt lat="43.3492363" lon="11.3664334"><ele>232.0</ele><time>2026-04-19T07:33:36.122Z</time></trkpt><trkpt lat="43.3492143" lon="11.3663461"><ele>231.99999999999997</ele><time>2026-04-19T07:33:40.113Z</time></trkpt><trkpt lat="43.349138" lon="11.3663298"><ele>232.0</ele><time>2026-04-19T07:33:43.149Z</time></trkpt><trkpt lat="43.3490421" lon="11.3663266"><ele>231.49999999999997</ele><time>2026-04-19T07:33:46.126Z</time></trkpt><trkpt lat="43.3489505" lon="11.366314"><ele>231.0</ele><time>2026-04-19T07:33:49.139Z</time></trkpt><trkpt lat="43.3488685" lon="11.3663101"><ele>230.5</ele><time>2026-04-19T07:33:52.127Z</time></trkpt><trkpt lat="43.3487915" lon="11.3663054"><ele>230.0</ele><time>2026-04-19T07:33:55.114Z</time></trkpt><trkpt lat="43.3487261" lon="11.3663584"><ele>229.49999999999997</ele><time>2026-04-19T07:34:00.116Z</time></trkpt><trkpt lat="43.3487296" lon="11.3662557"><ele>229.0</ele><time>2026-04-19T07:34:03.119Z</time></trkpt><trkpt lat="43.3488191" lon="11.3662665"><ele>229.0</ele><time>2026-04-19T07:34:06.13Z</time></trkpt><trkpt lat="43.3488836" lon="11.3662811"><ele>229.0</ele><time>2026-04-19T07:34:08.117Z</time></trkpt><trkpt lat="43.3489486" lon="11.366293"><ele>229.0</ele><time>2026-04-19T07:34:10.134Z</time></trkpt><trkpt lat="43.3490126" lon="11.3662959"><ele>229.0</ele><time>2026-04-19T07:34:12.149Z</time></trkpt><trkpt lat="43.3490777" lon="11.3663091"><ele>229.0</ele><time>2026-04-19T07:34:14.126Z</time></trkpt><trkpt lat="43.3491731" lon="11.3663153"><ele>229.0</ele><time>2026-04-19T07:34:17.128Z</time></trkpt><trkpt lat="43.3492453" lon="11.3663285"><ele>229.0</ele><time>2026-04-19T07:34:19.118Z</time></trkpt><trkpt lat="43.3493153" lon="11.3663259"><ele>229.0</ele><time>2026-04-19T07:34:21.114Z</time></trkpt><trkpt lat="43.3494047" lon="11.3663307"><ele>229.0</ele><time>2026-04-19T07:34:24.142Z</time></trkpt><trkpt lat="43.349475" lon="11.3663334"><ele>229.0</ele><time>2026-04-19T07:34:27.117Z</time></trkpt><trkpt lat="43.3495053" lon="11.3664147"><ele>232.0</ele><time>2026-04-19T07:36:57.152Z</time></trkpt></trkseg><trkseg><trkpt lat="43.3495085" lon="11.3663299"><ele>229.0</ele><time>2026-04-19T08:06:00.121Z</time></trkpt><trkpt lat="43.3494443" lon="11.3662993"><ele>229.0</ele><time>2026-04-19T08:06:08.132Z</time></trkpt><trkpt lat="43.349373" lon="11.3662906"><ele>229.0</ele><time>2026-04-19T08:06:11.117Z</time></trkpt><trkpt lat="43.3492905" lon="11.3662706"><ele>229.0</ele><time>2026-04-19T08:06:14.112Z</time></trkpt><trkpt lat="43.349208" lon="11.3662788"><ele>229.0</ele><time>2026-04-19T08:06:17.118Z</time></trkpt><trkpt lat="43.3491441" lon="11.3662695"><ele>229.0</ele><time>2026-04-19T08:06:19.124Z</time></trkpt><trkpt lat="43.3490654" lon="11.3662683"><ele>229.0</ele><time>2026-04-19T08:06:21.098Z</time></trkpt><trkpt lat="43.3489784" lon="11.3662722"><ele>229.0</ele><time>2026-04-19T08:06:23.134Z</time></trkpt><trkpt lat="43.3488824" lon="11.3662774"><ele>228.99999999999997</ele><time>2026-04-19T08:06:25.191Z</time></trkpt><trkpt lat="43.348777" lon="11.3662613"><ele>228.99999999999997</ele><time>2026-04-19T08:06:27.118Z</time></trkpt><trkpt lat="43.3486828" lon="11.3663975"><ele>229.0</ele><time>2026-04-19T08:06:30.19Z</time></trkpt><trkpt lat="43.3486019" lon="11.3664431"><ele>229.0</ele><time>2026-04-19T08:06:32.102Z</time></trkpt><trkpt lat="43.3485805" lon="11.3665753"><ele>228.6</ele><time>2026-04-19T08:06:34.103Z</time></trkpt><trkpt lat="43.3485667" lon="11.3666967"><ele>228.2</ele><time>2026-04-19T08:06:36.12Z</time></trkpt><trkpt lat="43.3486004" lon="11.3666095"><ele>227.79999999999998</ele><time>2026-04-19T08:06:40.122Z</time></trkpt><trkpt lat="43.3486183" lon="11.3664771"><ele>227.39999999999998</ele><time>2026-04-19T08:06:43.126Z</time></trkpt><trkpt lat="43.3486468" lon="11.3663722"><ele>227.0</ele><time>2026-04-19T08:06:45.202Z</time></trkpt><trkpt lat="43.3487409" lon="11.3662894"><ele>226.8</ele><time>2026-04-19T08:06:47.107Z</time></trkpt><trkpt lat="43.3488417" lon="11.3662608"><ele>226.6</ele><time>2026-04-19T08:06:49.184Z</time></trkpt><trkpt lat="43.348944" lon="11.3662757"><ele>226.40000000000003</ele><time>2026-04-19T08:06:51.19Z</time></trkpt><trkpt lat="43.3490255" lon="11.3662893"><ele>226.20000000000002</ele><time>2026-04-19T08:06:53.122Z</time></trkpt><trkpt lat="43.349123" lon="11.3662899"><ele>226.0</ele><time>2026-04-19T08:06:55.19Z</time></trkpt><trkpt lat="43.3492288" lon="11.3662907"><ele>226.49999999999997</ele><time>2026-04-19T08:06:57.128Z</time></trkpt><trkpt lat="43.3493185" lon="11.3663105"><ele>227.0</ele><time>2026-04-19T08:06:59.139Z</time></trkpt><trkpt lat="43.3494006" lon="11.3663319"><ele>227.5</ele><time>2026-04-19T08:07:01.194Z</time></trkpt><trkpt lat="43.3494804" lon="11.3663546"><ele>228.0</ele><time>2026-04-19T08:07:04.131Z</time></trkpt><trkpt lat="43.3494382" lon="11.3662383"><ele>228.49999999999997</ele><time>2026-04-19T08:07:58.086Z</time></trkpt><trkpt lat="43.3494979" lon="11.3663271"><ele>229.0</ele><time>2026-04-19T08:08:42.12Z</time></trkpt><trkpt lat="43.3494601" lon="11.3663977"><ele>229.0</ele><time>2026-04-19T08:09:47.116Z</time></trkpt><trkpt lat="43.3494848" lon="11.3663116"><ele>229.0</ele><time>2026-04-19T08:10:47.125Z</time></trkpt><trkpt lat="43.3494189" lon="11.3663049"><ele>229.0</ele><time>2026-04-19T08:11:06.197Z</time></trkpt><trkpt lat="43.3494768" lon="11.3663445"><ele>229.0</ele><time>2026-04-19T08:11:13.127Z</time></trkpt><trkpt lat="43.3494196" lon="11.3662992"><ele>229.0</ele><time>2026-04-19T08:11:32.115Z</time></trkpt><trkpt lat="43.349335" lon="11.3662751"><ele>229.0</ele><time>2026-04-19T08:11:36.199Z</time></trkpt><trkpt lat="43.3492717" lon="11.3662721"><ele>229.0</ele><time>2026-04-19T08:11:38.135Z</time></trkpt><trkpt lat="43.3492025" lon="11.3662638"><ele>229.0</ele><time>2026-04-19T08:11:40.123Z</time></trkpt><trkpt lat="43.3491247" lon="11.3662701"><ele>228.99999999999997</ele><time>2026-04-19T08:11:42.13Z</time></trkpt><trkpt lat="43.3490336" lon="11.3662763"><ele>228.99999999999997</ele><time>2026-04-19T08:11:44.193Z</time></trkpt><trkpt lat="43.3489418" lon="11.3662656"><ele>229.0</ele><time>2026-04-19T08:11:46.128Z</time></trkpt><trkpt lat="43.3488365" lon="11.3662566"><ele>229.0</ele><time>2026-04-19T08:11:48.126Z</time></trkpt><trkpt lat="43.3487284" lon="11.3662572"><ele>228.6</ele><time>2026-04-19T08:11:50.126Z</time></trkpt><trkpt lat="43.3486331" lon="11.3663308"><ele>228.2</ele><time>2026-04-19T08:11:52.127Z</time></trkpt><trkpt lat="43.3485963" lon="11.3664687"><ele>227.79999999999998</ele><time>2026-04-19T08:11:54.137Z</time></trkpt><trkpt lat="43.3485715" lon="11.3666116"><ele>227.39999999999998</ele><time>2026-04-19T08:11:56.105Z</time></trkpt><trkpt lat="43.34854" lon="11.3667618"><ele>227.0</ele><time>2026-04-19T08:11:58.125Z</time></trkpt><trkpt lat="43.3485179" lon="11.3668986"><ele>227.00000000000003</ele><time>2026-04-19T08:12:00.111Z</time></trkpt><trkpt lat="43.3484957" lon="11.3670347"><ele>227.0</ele><time>2026-04-19T08:12:02.127Z</time></trkpt><trkpt lat="43.3484764" lon="11.367156"><ele>227.0</ele><time>2026-04-19T08:12:04.188Z</time></trkpt><trkpt lat="43.3484495" lon="11.367259"><ele>227.0</ele><time>2026-04-19T08:12:06.199Z</time></trkpt><trkpt lat="43.3484158" lon="11.3673342"><ele>227.00000000000003</ele><time>2026-04-19T08:12:08.131Z</time></trkpt><trkpt lat="43.3483383" lon="11.3673495"><ele>227.0</ele><time>2026-04-19T08:12:10.189Z</time></trkpt><trkpt lat="43.3482459" lon="11.36736"><ele>226.8</ele><time>2026-04-19T08:12:12.113Z</time></trkpt><trkpt lat="43.3481438" lon="11.367382"><ele>226.6</ele><time>2026-04-19T08:12:14.183Z</time></trkpt><trkpt lat="43.3480278" lon="11.3674035"><ele>226.40000000000003</ele><time>2026-04-19T08:12:16.19Z</time></trkpt><trkpt lat="43.3479292" lon="11.3673939"><ele>226.20000000000002</ele><time>2026-04-19T08:12:18.129Z</time></trkpt><trkpt lat="43.3478584" lon="11.3673522"><ele>226.0</ele><time>2026-04-19T08:12:20.188Z</time></trkpt><trkpt lat="43.34779" lon="11.3672515"><ele>226.0</ele><time>2026-04-19T08:12:22.127Z</time></trkpt><trkpt lat="43.3477245" lon="11.3672168"><ele>226.0</ele><time>2026-04-19T08:12:24.13Z</time></trkpt><trkpt lat="43.3476398" lon="11.3671917"><ele>226.0</ele><time>2026-04-19T08:12:27.122Z</time></trkpt><trkpt lat="43.3475769" lon="11.3671506"><ele>226.0</ele><time>2026-04-19T08:12:29.121Z</time></trkpt><trkpt lat="43.3475107" lon="11.3670992"><ele>226.0</ele><time>2026-04-19T08:12:31.124Z</time></trkpt><trkpt lat="43.3474519" lon="11.3670398"><ele>226.0</ele><time>2026-04-19T08:12:33.134Z</time></trkpt><trkpt lat="43.3473994" lon="11.3669713"><ele>226.0</ele><time>2026-04-19T08:12:35.128Z</time></trkpt><trkpt lat="43.3473485" lon="11.3668893"><ele>226.16666666666666</ele><time>2026-04-19T08:12:37.14Z</time></trkpt><trkpt lat="43.3472783" lon="11.366791"><ele>226.33333333333331</ele><time>2026-04-19T08:12:39.188Z</time></trkpt><trkpt lat="43.3472354" lon="11.3667055"><ele>226.5</ele><time>2026-04-19T08:12:41.182Z</time></trkpt><trkpt lat="43.3472005" lon="11.3666108"><ele>226.66666666666669</ele><time>2026-04-19T08:12:43.117Z</time></trkpt><trkpt lat="43.347162" lon="11.3665238"><ele>226.83333333333334</ele><time>2026-04-19T08:12:45.131Z</time></trkpt><trkpt lat="43.3471427" lon="11.3664296"><ele>227.0</ele><time>2026-04-19T08:12:47.104Z</time></trkpt><trkpt lat="43.3471385" lon="11.3663362"><ele>228.0</ele><time>2026-04-19T08:12:49.123Z</time></trkpt><trkpt lat="43.3471453" lon="11.3662427"><ele>229.00000000000003</ele><time>2026-04-19T08:12:51.184Z</time></trkpt><trkpt lat="43.3471489" lon="11.3661477"><ele>230.0</ele><time>2026-04-19T08:12:53.109Z</time></trkpt><trkpt lat="43.3471495" lon="11.3660554"><ele>231.0</ele><time>2026-04-19T08:12:55.186Z</time></trkpt><trkpt lat="43.3471481" lon="11.3659629"><ele>232.00000000000003</ele><time>2026-04-19T08:12:57.109Z</time></trkpt><trkpt lat="43.347146" lon="11.3658641"><ele>233.0</ele><time>2026-04-19T08:12:59.127Z</time></trkpt><trkpt lat="43.3471425" lon="11.3657625"><ele>234.0</ele><time>2026-04-19T08:13:01.129Z</time></trkpt><trkpt lat="43.3471418" lon="11.3656703"><ele>234.0</ele><time>2026-04-19T08:13:03.126Z</time></trkpt><trkpt lat="43.3471419" lon="11.3655804"><ele>234.00000000000003</ele><time>2026-04-19T08:13:05.138Z</time></trkpt><trkpt lat="43.3471455" lon="11.3654851"><ele>234.0</ele><time>2026-04-19T08:13:07.119Z</time></trkpt><trkpt lat="43.3471464" lon="11.3653872"><ele>234.0</ele><time>2026-04-19T08:13:09.115Z</time></trkpt><trkpt lat="43.3471479" lon="11.365283"><ele>234.00000000000003</ele><time>2026-04-19T08:13:11.126Z</time></trkpt><trkpt lat="43.3471492" lon="11.3651773"><ele>234.0</ele><time>2026-04-19T08:13:13.138Z</time></trkpt><trkpt lat="43.3471507" lon="11.3650838"><ele>234.0</ele><time>2026-04-19T08:13:15.122Z</time></trkpt><trkpt lat="43.3471451" lon="11.3649754"><ele>234.2857142857143</ele><time>2026-04-19T08:13:17.133Z</time></trkpt><trkpt lat="43.3471529" lon="11.3648845"><ele>234.5714285714286</ele><time>2026-04-19T08:13:19.199Z</time></trkpt><trkpt lat="43.3471543" lon="11.3647879"><ele>234.85714285714286</ele><time>2026-04-19T08:13:21.196Z</time></trkpt><trkpt lat="43.347162" lon="11.3646917"><ele>235.14285714285717</ele><time>2026-04-19T08:13:23.128Z</time></trkpt><trkpt lat="43.3471804" lon="11.3645963"><ele>235.42857142857144</ele><time>2026-04-19T08:13:25.126Z</time></trkpt><trkpt lat="43.3471988" lon="11.3644952"><ele>235.71428571428572</ele><time>2026-04-19T08:13:27.126Z</time></trkpt><trkpt lat="43.3472391" lon="11.3644022"><ele>236.0</ele><time>2026-04-19T08:13:29.182Z</time></trkpt><trkpt lat="43.3472848" lon="11.3643296"><ele>236.00000000000003</ele><time>2026-04-19T08:13:31.199Z</time></trkpt><trkpt lat="43.3473562" lon="11.3642279"><ele>236.0</ele><time>2026-04-19T08:13:34.193Z</time></trkpt><trkpt lat="43.3474218" lon="11.364158"><ele>236.0</ele><time>2026-04-19T08:13:36.126Z</time></trkpt><trkpt lat="43.3474718" lon="11.3640904"><ele>236.0</ele><time>2026-04-19T08:13:38.125Z</time></trkpt><trkpt lat="43.3475197" lon="11.3640247"><ele>236.00000000000003</ele><time>2026-04-19T08:13:40.118Z</time></trkpt><trkpt lat="43.3475847" lon="11.3639506"><ele>236.0</ele><time>2026-04-19T08:13:42.13Z</time></trkpt><trkpt lat="43.3476479" lon="11.3638723"><ele>237.85714285714283</ele><time>2026-04-19T08:13:44.129Z</time></trkpt><trkpt lat="43.3477021" lon="11.3638011"><ele>239.71428571428572</ele><time>2026-04-19T08:13:46.133Z</time></trkpt><trkpt lat="43.3477559" lon="11.3637393"><ele>241.57142857142856</ele><time>2026-04-19T08:13:48.121Z</time></trkpt><trkpt lat="43.3478054" lon="11.3636692"><ele>243.42857142857142</ele><time>2026-04-19T08:13:50.102Z</time></trkpt><trkpt lat="43.3478628" lon="11.3636116"><ele>245.28571428571428</ele><time>2026-04-19T08:13:52.116Z</time></trkpt><trkpt lat="43.3479149" lon="11.3635442"><ele>247.14285714285714</ele><time>2026-04-19T08:13:54.191Z</time></trkpt><trkpt lat="43.3479771" lon="11.3634906"><ele>249.0</ele><time>2026-04-19T08:13:56.186Z</time></trkpt><trkpt lat="43.3480408" lon="11.3633816"><ele>248.5</ele><time>2026-04-19T08:13:58.13Z</time></trkpt><trkpt lat="43.3480906" lon="11.3632897"><ele>248.0</ele><time>2026-04-19T08:14:00.198Z</time></trkpt><trkpt lat="43.3481505" lon="11.3632308"><ele>247.5</ele><time>2026-04-19T08:14:02.119Z</time></trkpt><trkpt lat="43.3482022" lon="11.3631655"><ele>247.0</ele><time>2026-04-19T08:14:04.2Z</time></trkpt><trkpt lat="43.3482392" lon="11.363048"><ele>246.5</ele><time>2026-04-19T08:14:07.11Z</time></trkpt><trkpt lat="43.3482447" lon="11.3629489"><ele>246.0</ele><time>2026-04-19T08:14:09.205Z</time></trkpt><trkpt lat="43.3482298" lon="11.3628254"><ele>246.0</ele><time>2026-04-19T08:14:11.131Z</time></trkpt><trkpt lat="43.3481936" lon="11.3627476"><ele>246.0</ele><time>2026-04-19T08:14:12.111Z</time></trkpt><trkpt lat="43.3482076" lon="11.3626511"><ele>246.0</ele><time>2026-04-19T08:14:15.1Z</time></trkpt><trkpt lat="43.3482128" lon="11.3625265"><ele>246.0</ele><time>2026-04-19T08:14:18.136Z</time></trkpt><trkpt lat="43.3482131" lon="11.3624043"><ele>246.0</ele><time>2026-04-19T08:14:21.117Z</time></trkpt><trkpt lat="43.3482193" lon="11.3622776"><ele>246.0</ele><time>2026-04-19T08:14:24.206Z</time></trkpt><trkpt lat="43.3482222" lon="11.3621536"><ele>246.0</ele><time>2026-04-19T08:14:27.11Z</time></trkpt><trkpt lat="43.348207" lon="11.3620376"><ele>246.0</ele><time>2026-04-19T08:14:30.184Z</time></trkpt><trkpt lat="43.3482172" lon="11.3619157"><ele>246.0</ele><time>2026-04-19T08:14:33.131Z</time></trkpt><trkpt lat="43.3482183" lon="11.3617843"><ele>246.0</ele><time>2026-04-19T08:14:36.191Z</time></trkpt><trkpt lat="43.3482234" lon="11.3616656"><ele>246.0</ele><time>2026-04-19T08:14:39.194Z</time></trkpt><trkpt lat="43.3482483" lon="11.3615786"><ele>246.0</ele><time>2026-04-19T08:14:42.12Z</time></trkpt><trkpt lat="43.348269" lon="11.3614655"><ele>246.0</ele><time>2026-04-19T08:14:45.198Z</time></trkpt><trkpt lat="43.3482925" lon="11.3613657"><ele>246.0</ele><time>2026-04-19T08:14:48.123Z</time></trkpt><trkpt lat="43.3483143" lon="11.3612659"><ele>246.0</ele><time>2026-04-19T08:14:51.125Z</time></trkpt><trkpt lat="43.3483148" lon="11.3611479"><ele>246.0</ele><time>2026-04-19T08:14:54.139Z</time></trkpt><trkpt lat="43.348307" lon="11.3610274"><ele>246.0</ele><time>2026-04-19T08:14:57.124Z</time></trkpt><trkpt lat="43.3482875" lon="11.3609176"><ele>246.0</ele><time>2026-04-19T08:15:00.188Z</time></trkpt><trkpt lat="43.3482547" lon="11.3608161"><ele>245.83333333333334</ele><time>2026-04-19T08:15:02.105Z</time></trkpt><trkpt lat="43.3482026" lon="11.3607335"><ele>245.66666666666669</ele><time>2026-04-19T08:15:05.185Z</time></trkpt><trkpt lat="43.3481493" lon="11.3606754"><ele>245.5</ele><time>2026-04-19T08:15:08.102Z</time></trkpt><trkpt lat="43.3480965" lon="11.360608"><ele>245.33333333333334</ele><time>2026-04-19T08:15:11.204Z</time></trkpt><trkpt lat="43.3480439" lon="11.3605313"><ele>245.16666666666669</ele><time>2026-04-19T08:15:14.191Z</time></trkpt><trkpt lat="43.3479768" lon="11.3604739"><ele>245.0</ele><time>2026-04-19T08:15:18.098Z</time></trkpt><trkpt lat="43.3479026" lon="11.3604662"><ele>247.00000000000003</ele><time>2026-04-19T08:15:20.12Z</time></trkpt><trkpt lat="43.3478155" lon="11.3604847"><ele>249.0</ele><time>2026-04-19T08:15:24.117Z</time></trkpt><trkpt lat="43.3477386" lon="11.3604501"><ele>251.0</ele><time>2026-04-19T08:15:27.114Z</time></trkpt><trkpt lat="43.3476717" lon="11.3604591"><ele>253.0</ele><time>2026-04-19T08:15:30.138Z</time></trkpt><trkpt lat="43.3476098" lon="11.3604767"><ele>255.00000000000003</ele><time>2026-04-19T08:15:33.124Z</time></trkpt><trkpt lat="43.3475345" lon="11.3604913"><ele>257.0</ele><time>2026-04-19T08:15:36.183Z</time></trkpt><trkpt lat="43.3474541" lon="11.3605443"><ele>258.0</ele><time>2026-04-19T08:15:39.108Z</time></trkpt><trkpt lat="43.347372" lon="11.3605526"><ele>259.0</ele><time>2026-04-19T08:15:42.117Z</time></trkpt><trkpt lat="43.3472985" lon="11.3605772"><ele>260.0</ele><time>2026-04-19T08:15:45.211Z</time></trkpt><trkpt lat="43.3472261" lon="11.3605963"><ele>261.0</ele><time>2026-04-19T08:15:48.126Z</time></trkpt><trkpt lat="43.3471392" lon="11.3606329"><ele>262.0</ele><time>2026-04-19T08:15:51.2Z</time></trkpt><trkpt lat="43.3470718" lon="11.3606657"><ele>263.0</ele><time>2026-04-19T08:15:53.109Z</time></trkpt><trkpt lat="43.3469991" lon="11.3606948"><ele>263.42857142857144</ele><time>2026-04-19T08:15:57.112Z</time></trkpt><trkpt lat="43.3469377" lon="11.3607197"><ele>263.85714285714283</ele><time>2026-04-19T08:16:00.111Z</time></trkpt><trkpt lat="43.3468662" lon="11.3607493"><ele>264.2857142857143</ele><time>2026-04-19T08:16:03.108Z</time></trkpt><trkpt lat="43.3468007" lon="11.3607788"><ele>264.7142857142857</ele><time>2026-04-19T08:16:06.125Z</time></trkpt><trkpt lat="43.3467302" lon="11.360811"><ele>265.1428571428571</ele><time>2026-04-19T08:16:09.113Z</time></trkpt><trkpt lat="43.3466646" lon="11.3608344"><ele>265.57142857142856</ele><time>2026-04-19T08:16:12.202Z</time></trkpt><trkpt lat="43.3466005" lon="11.3608607"><ele>266.0</ele><time>2026-04-19T08:16:15.189Z</time></trkpt><trkpt lat="43.346529" lon="11.3608716"><ele>266.0</ele><time>2026-04-19T08:16:18.123Z</time></trkpt><trkpt lat="43.3464517" lon="11.3608544"><ele>266.0</ele><time>2026-04-19T08:16:21.111Z</time></trkpt><trkpt lat="43.3463824" lon="11.3608161"><ele>266.0</ele><time>2026-04-19T08:16:24.1Z</time></trkpt><trkpt lat="43.346323" lon="11.3607667"><ele>266.0</ele><time>2026-04-19T08:16:27.118Z</time></trkpt><trkpt lat="43.3462813" lon="11.3606964"><ele>266.0</ele><time>2026-04-19T08:16:30.136Z</time></trkpt><trkpt lat="43.3462614" lon="11.3606128"><ele>266.0</ele><time>2026-04-19T08:16:33.126Z</time></trkpt><trkpt lat="43.3462438" lon="11.3605144"><ele>266.0</ele><time>2026-04-19T08:16:36.123Z</time></trkpt><trkpt lat="43.3462332" lon="11.3604108"><ele>266.1666666666667</ele><time>2026-04-19T08:16:39.132Z</time></trkpt><trkpt lat="43.3462097" lon="11.3603146"><ele>266.33333333333337</ele><time>2026-04-19T08:16:42.123Z</time></trkpt><trkpt lat="43.3461746" lon="11.3602272"><ele>266.5</ele><time>2026-04-19T08:16:45.119Z</time></trkpt><trkpt lat="43.3461195" lon="11.3601463"><ele>266.6666666666667</ele><time>2026-04-19T08:16:48.129Z</time></trkpt><trkpt lat="43.3460509" lon="11.3600874"><ele>266.8333333333333</ele><time>2026-04-19T08:16:51.131Z</time></trkpt><trkpt lat="43.345968" lon="11.3600495"><ele>267.0</ele><time>2026-04-19T08:16:54.128Z</time></trkpt><trkpt lat="43.3458923" lon="11.3600094"><ele>267.0</ele><time>2026-04-19T08:16:57.123Z</time></trkpt><trkpt lat="43.3458199" lon="11.3599697"><ele>267.0</ele><time>2026-04-19T08:17:00.133Z</time></trkpt><trkpt lat="43.3457518" lon="11.3599257"><ele>267.0</ele><time>2026-04-19T08:17:03.123Z</time></trkpt><trkpt lat="43.3456841" lon="11.3598847"><ele>267.0</ele><time>2026-04-19T08:17:06.193Z</time></trkpt><trkpt lat="43.3456229" lon="11.359837"><ele>267.0</ele><time>2026-04-19T08:17:09.196Z</time></trkpt><trkpt lat="43.3455454" lon="11.3598028"><ele>267.0</ele><time>2026-04-19T08:17:12.113Z</time></trkpt><trkpt lat="43.3454702" lon="11.3597682"><ele>267.7142857142857</ele><time>2026-04-19T08:17:15.141Z</time></trkpt><trkpt lat="43.3454014" lon="11.3597518"><ele>268.42857142857144</ele><time>2026-04-19T08:17:18.134Z</time></trkpt><trkpt lat="43.3453244" lon="11.3597261"><ele>269.1428571428571</ele><time>2026-04-19T08:17:21.203Z</time></trkpt><trkpt lat="43.3452473" lon="11.3597108"><ele>269.8571428571429</ele><time>2026-04-19T08:17:24.196Z</time></trkpt><trkpt lat="43.3451683" lon="11.3597176"><ele>270.57142857142856</ele><time>2026-04-19T08:17:28.117Z</time></trkpt><trkpt lat="43.3451073" lon="11.3597408"><ele>271.2857142857143</ele><time>2026-04-19T08:17:32.113Z</time></trkpt><trkpt lat="43.3450381" lon="11.3597771"><ele>272.0</ele><time>2026-04-19T08:17:35.199Z</time></trkpt><trkpt lat="43.3449495" lon="11.3598129"><ele>272.0</ele><time>2026-04-19T08:17:38.137Z</time></trkpt><trkpt lat="43.3448557" lon="11.3598045"><ele>272.0</ele><time>2026-04-19T08:17:41.131Z</time></trkpt><trkpt lat="43.3447689" lon="11.3597324"><ele>272.0</ele><time>2026-04-19T08:17:43.129Z</time></trkpt><trkpt lat="43.3446987" lon="11.3597512"><ele>272.0</ele><time>2026-04-19T08:17:46.116Z</time></trkpt><trkpt lat="43.3446198" lon="11.3597681"><ele>272.0</ele><time>2026-04-19T08:17:49.133Z</time></trkpt><trkpt lat="43.3445507" lon="11.3597388"><ele>272.0</ele><time>2026-04-19T08:17:52.135Z</time></trkpt><trkpt lat="43.3444825" lon="11.3596874"><ele>273.33333333333337</ele><time>2026-04-19T08:17:55.102Z</time></trkpt><trkpt lat="43.3444281" lon="11.3596363"><ele>274.6666666666667</ele><time>2026-04-19T08:17:57.123Z</time></trkpt><trkpt lat="43.3443657" lon="11.3595922"><ele>276.0</ele><time>2026-04-19T08:17:59.106Z</time></trkpt><trkpt lat="43.3443379" lon="11.3595034"><ele>277.3333333333333</ele><time>2026-04-19T08:18:02.134Z</time></trkpt><trkpt lat="43.3442863" lon="11.359415"><ele>278.66666666666663</ele><time>2026-04-19T08:18:05.195Z</time></trkpt><trkpt lat="43.3442541" lon="11.359324"><ele>280.0</ele><time>2026-04-19T08:18:08.128Z</time></trkpt><trkpt lat="43.3442144" lon="11.3592123"><ele>280.0</ele><time>2026-04-19T08:18:11.201Z</time></trkpt><trkpt lat="43.3441577" lon="11.35912"><ele>280.0</ele><time>2026-04-19T08:18:13.128Z</time></trkpt><trkpt lat="43.3441144" lon="11.3590484"><ele>280.0</ele><time>2026-04-19T08:18:15.188Z</time></trkpt><trkpt lat="43.3440683" lon="11.3589581"><ele>280.0</ele><time>2026-04-19T08:18:17.114Z</time></trkpt><trkpt lat="43.3440156" lon="11.3588585"><ele>280.0</ele><time>2026-04-19T08:18:19.124Z</time></trkpt><trkpt lat="43.3439395" lon="11.3587658"><ele>280.0</ele><time>2026-04-19T08:18:21.12Z</time></trkpt><trkpt lat="43.3438396" lon="11.3586958"><ele>279.16666666666663</ele><time>2026-04-19T08:18:23.118Z</time></trkpt><trkpt lat="43.3437176" lon="11.3586501"><ele>278.3333333333333</ele><time>2026-04-19T08:18:25.118Z</time></trkpt><trkpt lat="43.3436507" lon="11.3586284"><ele>277.5</ele><time>2026-04-19T08:18:26.118Z</time></trkpt><trkpt lat="43.3435867" lon="11.3586034"><ele>276.6666666666667</ele><time>2026-04-19T08:18:27.107Z</time></trkpt><trkpt lat="43.3435193" lon="11.3585777"><ele>275.83333333333337</ele><time>2026-04-19T08:18:28.128Z</time></trkpt><trkpt lat="43.3434481" lon="11.3585501"><ele>275.0</ele><time>2026-04-19T08:18:29.109Z</time></trkpt><trkpt lat="43.3433738" lon="11.3585245"><ele>275.0</ele><time>2026-04-19T08:18:30.101Z</time></trkpt><trkpt lat="43.3433002" lon="11.3584982"><ele>275.0</ele><time>2026-04-19T08:18:31.104Z</time></trkpt><trkpt lat="43.3432256" lon="11.3584752"><ele>275.0</ele><time>2026-04-19T08:18:32.105Z</time></trkpt><trkpt lat="43.3431481" lon="11.3584539"><ele>275.0</ele><time>2026-04-19T08:18:33.122Z</time></trkpt><trkpt lat="43.3430715" lon="11.3584279"><ele>275.0</ele><time>2026-04-19T08:18:34.119Z</time></trkpt><trkpt lat="43.3429943" lon="11.3583978"><ele>275.0</ele><time>2026-04-19T08:18:35.147Z</time></trkpt><trkpt lat="43.3429162" lon="11.3583696"><ele>274.33333333333337</ele><time>2026-04-19T08:18:36.187Z</time></trkpt><trkpt lat="43.3428392" lon="11.3583389"><ele>273.6666666666667</ele><time>2026-04-19T08:18:37.108Z</time></trkpt><trkpt lat="43.3427572" lon="11.3583076"><ele>273.0</ele><time>2026-04-19T08:18:38.12Z</time></trkpt><trkpt lat="43.3426736" lon="11.3582769"><ele>272.3333333333333</ele><time>2026-04-19T08:18:39.195Z</time></trkpt><trkpt lat="43.3425911" lon="11.3582497"><ele>271.66666666666663</ele><time>2026-04-19T08:18:40.202Z</time></trkpt><trkpt lat="43.3425062" lon="11.3582214"><ele>271.0</ele><time>2026-04-19T08:18:41.178Z</time></trkpt><trkpt lat="43.3424218" lon="11.3581888"><ele>271.0</ele><time>2026-04-19T08:18:42.116Z</time></trkpt><trkpt lat="43.3423366" lon="11.3581547"><ele>271.0</ele><time>2026-04-19T08:18:43.113Z</time></trkpt><trkpt lat="43.3422488" lon="11.3581198"><ele>271.0</ele><time>2026-04-19T08:18:44.202Z</time></trkpt><trkpt lat="43.342158" lon="11.3580945"><ele>271.0</ele><time>2026-04-19T08:18:45.189Z</time></trkpt><trkpt lat="43.3420625" lon="11.3580689"><ele>271.0</ele><time>2026-04-19T08:18:46.186Z</time></trkpt><trkpt lat="43.3419697" lon="11.3580391"><ele>270.6</ele><time>2026-04-19T08:18:47.136Z</time></trkpt><trkpt lat="43.3418827" lon="11.3579946"><ele>270.20000000000005</ele><time>2026-04-19T08:18:48.097Z</time></trkpt><trkpt lat="43.3417942" lon="11.357954"><ele>269.79999999999995</ele><time>2026-04-19T08:18:49.12Z</time></trkpt><trkpt lat="43.3417039" lon="11.3579212"><ele>269.4</ele><time>2026-04-19T08:18:50.198Z</time></trkpt><trkpt lat="43.3416175" lon="11.3578934"><ele>269.0</ele><time>2026-04-19T08:18:51.107Z</time></trkpt><trkpt lat="43.3415318" lon="11.3578572"><ele>269.0</ele><time>2026-04-19T08:18:52.12Z</time></trkpt><trkpt lat="43.3414467" lon="11.3578149"><ele>269.0</ele><time>2026-04-19T08:18:53.115Z</time></trkpt><trkpt lat="43.3413507" lon="11.3577747"><ele>269.0</ele><time>2026-04-19T08:18:54.127Z</time></trkpt><trkpt lat="43.3412551" lon="11.3577298"><ele>269.0</ele><time>2026-04-19T08:18:55.146Z</time></trkpt><trkpt lat="43.3411625" lon="11.3576893"><ele>269.0</ele><time>2026-04-19T08:18:56.101Z</time></trkpt><trkpt lat="43.3410691" lon="11.3576501"><ele>267.2</ele><time>2026-04-19T08:18:57.113Z</time></trkpt><trkpt lat="43.3409754" lon="11.3576109"><ele>265.4</ele><time>2026-04-19T08:18:58.151Z</time></trkpt><trkpt lat="43.3408783" lon="11.3575802"><ele>263.6</ele><time>2026-04-19T08:18:59.145Z</time></trkpt><trkpt lat="43.3407798" lon="11.3575496"><ele>261.8</ele><time>2026-04-19T08:19:00.147Z</time></trkpt><trkpt lat="43.3406835" lon="11.3575129"><ele>260.0</ele><time>2026-04-19T08:19:01.121Z</time></trkpt><trkpt lat="43.3405813" lon="11.3574712"><ele>259.2</ele><time>2026-04-19T08:19:02.147Z</time></trkpt><trkpt lat="43.3404796" lon="11.3574268"><ele>258.4</ele><time>2026-04-19T08:19:03.125Z</time></trkpt><trkpt lat="43.3403792" lon="11.3573806"><ele>257.6</ele><time>2026-04-19T08:19:04.125Z</time></trkpt><trkpt lat="43.3402844" lon="11.3573294"><ele>256.8</ele><time>2026-04-19T08:19:05.135Z</time></trkpt><trkpt lat="43.3401969" lon="11.3572691"><ele>256.0</ele><time>2026-04-19T08:19:06.125Z</time></trkpt><trkpt lat="43.340114" lon="11.3572029"><ele>256.16666666666663</ele><time>2026-04-19T08:19:07.113Z</time></trkpt><trkpt lat="43.3400357" lon="11.3571377"><ele>256.3333333333333</ele><time>2026-04-19T08:19:08.13Z</time></trkpt><trkpt lat="43.3399582" lon="11.3570801"><ele>256.5</ele><time>2026-04-19T08:19:09.127Z</time></trkpt><trkpt lat="43.3398744" lon="11.357035"><ele>256.6666666666667</ele><time>2026-04-19T08:19:10.147Z</time></trkpt><trkpt lat="43.3397919" lon="11.3570123"><ele>256.83333333333337</ele><time>2026-04-19T08:19:11.124Z</time></trkpt><trkpt lat="43.3397133" lon="11.357005"><ele>257.0</ele><time>2026-04-19T08:19:12.135Z</time></trkpt><trkpt lat="43.3396403" lon="11.3570172"><ele>258.5</ele><time>2026-04-19T08:19:13.148Z</time></trkpt><trkpt lat="43.339573" lon="11.3570502"><ele>260.0</ele><time>2026-04-19T08:19:14.109Z</time></trkpt><trkpt lat="43.339513" lon="11.3571069"><ele>261.5</ele><time>2026-04-19T08:19:15.115Z</time></trkpt><trkpt lat="43.3394635" lon="11.3571737"><ele>263.0</ele><time>2026-04-19T08:19:16.145Z</time></trkpt><trkpt lat="43.3393931" lon="11.3573006"><ele>264.5</ele><time>2026-04-19T08:19:18.111Z</time></trkpt><trkpt lat="43.3393317" lon="11.3574104"><ele>266.0</ele><time>2026-04-19T08:19:20.124Z</time></trkpt><trkpt lat="43.3392671" lon="11.3574998"><ele>266.0</ele><time>2026-04-19T08:19:22.125Z</time></trkpt><trkpt lat="43.3392002" lon="11.357571"><ele>266.0</ele><time>2026-04-19T08:19:24.118Z</time></trkpt><trkpt lat="43.3391327" lon="11.3576277"><ele>266.0</ele><time>2026-04-19T08:19:26.141Z</time></trkpt><trkpt lat="43.3390557" lon="11.3576905"><ele>266.0</ele><time>2026-04-19T08:19:28.123Z</time></trkpt><trkpt lat="43.3389806" lon="11.3577445"><ele>266.0</ele><time>2026-04-19T08:19:30.151Z</time></trkpt><trkpt lat="43.3389122" lon="11.3577961"><ele>266.0</ele><time>2026-04-19T08:19:32.116Z</time></trkpt><trkpt lat="43.3388496" lon="11.357847"><ele>266.14285714285717</ele><time>2026-04-19T08:19:34.135Z</time></trkpt><trkpt lat="43.3387939" lon="11.3578977"><ele>266.2857142857143</ele><time>2026-04-19T08:19:36.103Z</time></trkpt><trkpt lat="43.3387361" lon="11.3579492"><ele>266.42857142857144</ele><time>2026-04-19T08:19:38.136Z</time></trkpt><trkpt lat="43.338673" lon="11.3580017"><ele>266.57142857142856</ele><time>2026-04-19T08:19:40.124Z</time></trkpt><trkpt lat="43.3385939" lon="11.3580702"><ele>266.7142857142857</ele><time>2026-04-19T08:19:43.137Z</time></trkpt><trkpt lat="43.338539" lon="11.3581232"><ele>266.8571428571429</ele><time>2026-04-19T08:19:45.146Z</time></trkpt><trkpt lat="43.3384797" lon="11.358168"><ele>267.0</ele><time>2026-04-19T08:19:47.111Z</time></trkpt><trkpt lat="43.3384199" lon="11.3582192"><ele>267.0</ele><time>2026-04-19T08:19:49.13Z</time></trkpt><trkpt lat="43.3383429" lon="11.3582906"><ele>267.0</ele><time>2026-04-19T08:19:52.119Z</time></trkpt><trkpt lat="43.338271" lon="11.3583442"><ele>267.0</ele><time>2026-04-19T08:19:55.112Z</time></trkpt><trkpt lat="43.3381967" lon="11.3584042"><ele>267.0</ele><time>2026-04-19T08:19:58.115Z</time></trkpt><trkpt lat="43.338141" lon="11.358453"><ele>267.0</ele><time>2026-04-19T08:20:00.111Z</time></trkpt><trkpt lat="43.3380852" lon="11.3584971"><ele>267.0</ele><time>2026-04-19T08:20:02.127Z</time></trkpt><trkpt lat="43.3379975" lon="11.3585353"><ele>268.1666666666667</ele><time>2026-04-19T08:20:05.122Z</time></trkpt><trkpt lat="43.3379265" lon="11.3585393"><ele>269.3333333333333</ele><time>2026-04-19T08:20:07.108Z</time></trkpt><trkpt lat="43.3378642" lon="11.3585045"><ele>270.5</ele><time>2026-04-19T08:20:09.143Z</time></trkpt><trkpt lat="43.3378221" lon="11.3583989"><ele>271.66666666666663</ele><time>2026-04-19T08:20:12.132Z</time></trkpt><trkpt lat="43.3378165" lon="11.3582805"><ele>272.8333333333333</ele><time>2026-04-19T08:20:15.123Z</time></trkpt><trkpt lat="43.337816" lon="11.3581666"><ele>274.0</ele><time>2026-04-19T08:20:18.137Z</time></trkpt><trkpt lat="43.3378219" lon="11.3580506"><ele>274.5</ele><time>2026-04-19T08:20:21.141Z</time></trkpt><trkpt lat="43.3378278" lon="11.3579344"><ele>275.0</ele><time>2026-04-19T08:20:24.115Z</time></trkpt><trkpt lat="43.3378277" lon="11.357823"><ele>275.5</ele><time>2026-04-19T08:20:27.129Z</time></trkpt><trkpt lat="43.3378305" lon="11.3577103"><ele>276.0</ele><time>2026-04-19T08:20:30.121Z</time></trkpt><trkpt lat="43.3378344" lon="11.3576028"><ele>276.5</ele><time>2026-04-19T08:20:33.106Z</time></trkpt><trkpt lat="43.3378408" lon="11.3574918"><ele>277.0</ele><time>2026-04-19T08:20:36.132Z</time></trkpt><trkpt lat="43.3378349" lon="11.3573807"><ele>277.0</ele><time>2026-04-19T08:20:39.112Z</time></trkpt><trkpt lat="43.3378261" lon="11.3572643"><ele>277.0</ele><time>2026-04-19T08:20:42.124Z</time></trkpt><trkpt lat="43.3378189" lon="11.3571469"><ele>277.0</ele><time>2026-04-19T08:20:45.116Z</time></trkpt><trkpt lat="43.3377995" lon="11.3570409"><ele>277.0</ele><time>2026-04-19T08:20:48.114Z</time></trkpt><trkpt lat="43.3377808" lon="11.3569376"><ele>277.0</ele><time>2026-04-19T08:20:51.114Z</time></trkpt><trkpt lat="43.3377632" lon="11.3568265"><ele>277.0</ele><time>2026-04-19T08:20:54.136Z</time></trkpt><trkpt lat="43.3377475" lon="11.356709"><ele>277.66666666666663</ele><time>2026-04-19T08:20:57.126Z</time></trkpt><trkpt lat="43.3377283" lon="11.3565957"><ele>278.3333333333333</ele><time>2026-04-19T08:21:00.131Z</time></trkpt><trkpt lat="43.3377158" lon="11.3564829"><ele>279.0</ele><time>2026-04-19T08:21:03.108Z</time></trkpt><trkpt lat="43.3376905" lon="11.3563694"><ele>279.6666666666667</ele><time>2026-04-19T08:21:06.113Z</time></trkpt><trkpt lat="43.337664" lon="11.3562583"><ele>280.33333333333337</ele><time>2026-04-19T08:21:09.123Z</time></trkpt><trkpt lat="43.3376413" lon="11.3561476"><ele>281.0</ele><time>2026-04-19T08:21:12.121Z</time></trkpt><trkpt lat="43.3376132" lon="11.356041"><ele>281.6666666666667</ele><time>2026-04-19T08:21:15.125Z</time></trkpt><trkpt lat="43.3375878" lon="11.3559489"><ele>282.33333333333337</ele><time>2026-04-19T08:21:18.115Z</time></trkpt><trkpt lat="43.337551" lon="11.3558472"><ele>283.0</ele><time>2026-04-19T08:21:21.125Z</time></trkpt><trkpt lat="43.337508" lon="11.3557508"><ele>283.6666666666667</ele><time>2026-04-19T08:21:24.119Z</time></trkpt><trkpt lat="43.3374583" lon="11.3556494"><ele>284.3333333333333</ele><time>2026-04-19T08:21:27.11Z</time></trkpt><trkpt lat="43.3373997" lon="11.3555644"><ele>285.0</ele><time>2026-04-19T08:21:30.12Z</time></trkpt><trkpt lat="43.3373571" lon="11.3554961"><ele>285.6666666666667</ele><time>2026-04-19T08:21:32.202Z</time></trkpt><trkpt lat="43.3372939" lon="11.3554186"><ele>286.3333333333333</ele><time>2026-04-19T08:21:35.11Z</time></trkpt><trkpt lat="43.3372334" lon="11.355343"><ele>287.0</ele><time>2026-04-19T08:21:38.124Z</time></trkpt><trkpt lat="43.3371847" lon="11.3552697"><ele>287.66666666666663</ele><time>2026-04-19T08:21:41.111Z</time></trkpt><trkpt lat="43.3371495" lon="11.3551795"><ele>288.3333333333333</ele><time>2026-04-19T08:21:44.12Z</time></trkpt><trkpt lat="43.3371095" lon="11.3551086"><ele>289.0</ele><time>2026-04-19T08:21:46.127Z</time></trkpt><trkpt lat="43.3370758" lon="11.3550101"><ele>289.3333333333333</ele><time>2026-04-19T08:21:49.105Z</time></trkpt><trkpt lat="43.337061" lon="11.3549132"><ele>289.66666666666663</ele><time>2026-04-19T08:21:52.135Z</time></trkpt><trkpt lat="43.337052" lon="11.3548136"><ele>290.0</ele><time>2026-04-19T08:21:55.192Z</time></trkpt><trkpt lat="43.3370532" lon="11.3546968"><ele>290.3333333333333</ele><time>2026-04-19T08:21:58.119Z</time></trkpt><trkpt lat="43.3370436" lon="11.3545958"><ele>290.6666666666667</ele><time>2026-04-19T08:22:01.187Z</time></trkpt><trkpt lat="43.3370218" lon="11.3544908"><ele>291.0</ele><time>2026-04-19T08:22:04.128Z</time></trkpt><trkpt lat="43.3370384" lon="11.3543631"><ele>291.40000000000003</ele><time>2026-04-19T08:22:07.109Z</time></trkpt><trkpt lat="43.3369803" lon="11.3542775"><ele>291.8</ele><time>2026-04-19T08:22:10.188Z</time></trkpt><trkpt lat="43.3369297" lon="11.3541604"><ele>292.20000000000005</ele><time>2026-04-19T08:22:13.12Z</time></trkpt><trkpt lat="43.3368696" lon="11.3540668"><ele>292.6</ele><time>2026-04-19T08:22:16.196Z</time></trkpt><trkpt lat="43.3368077" lon="11.35397"><ele>293.0</ele><time>2026-04-19T08:22:19.116Z</time></trkpt><trkpt lat="43.3367435" lon="11.3538859"><ele>293.33333333333337</ele><time>2026-04-19T08:22:22.137Z</time></trkpt><trkpt lat="43.3366803" lon="11.3537959"><ele>293.6666666666667</ele><time>2026-04-19T08:22:25.181Z</time></trkpt><trkpt lat="43.336625" lon="11.3537157"><ele>294.0</ele><time>2026-04-19T08:22:28.098Z</time></trkpt><trkpt lat="43.3365646" lon="11.3536206"><ele>294.3333333333333</ele><time>2026-04-19T08:22:31.19Z</time></trkpt><trkpt lat="43.3365195" lon="11.3535175"><ele>294.66666666666663</ele><time>2026-04-19T08:22:34.119Z</time></trkpt><trkpt lat="43.3364898" lon="11.353408"><ele>295.0</ele><time>2026-04-19T08:22:37.118Z</time></trkpt><trkpt lat="43.3364472" lon="11.3533204"><ele>295.0</ele><time>2026-04-19T08:22:40.196Z</time></trkpt><trkpt lat="43.3363991" lon="11.3532219"><ele>295.0</ele><time>2026-04-19T08:22:43.109Z</time></trkpt><trkpt lat="43.3363643" lon="11.3531273"><ele>295.0</ele><time>2026-04-19T08:22:46.196Z</time></trkpt><trkpt lat="43.3363408" lon="11.3530323"><ele>295.0</ele><time>2026-04-19T08:22:49.099Z</time></trkpt><trkpt lat="43.3362836" lon="11.352934"><ele>295.0</ele><time>2026-04-19T08:22:52.125Z</time></trkpt><trkpt lat="43.3362343" lon="11.3528477"><ele>295.0</ele><time>2026-04-19T08:22:55.123Z</time></trkpt><trkpt lat="43.3361938" lon="11.3527581"><ele>296.66666666666663</ele><time>2026-04-19T08:22:58.119Z</time></trkpt><trkpt lat="43.3361564" lon="11.3526724"><ele>298.3333333333333</ele><time>2026-04-19T08:23:01.112Z</time></trkpt><trkpt lat="43.3361023" lon="11.3525595"><ele>300.0</ele><time>2026-04-19T08:23:04.118Z</time></trkpt><trkpt lat="43.3360602" lon="11.352461"><ele>301.6666666666667</ele><time>2026-04-19T08:23:08.14Z</time></trkpt><trkpt lat="43.3360253" lon="11.3523758"><ele>303.33333333333337</ele><time>2026-04-19T08:23:11.125Z</time></trkpt><trkpt lat="43.3359922" lon="11.3522995"><ele>305.0</ele><time>2026-04-19T08:23:14.121Z</time></trkpt><trkpt lat="43.3359576" lon="11.3522141"><ele>304.8571428571429</ele><time>2026-04-19T08:23:17.118Z</time></trkpt><trkpt lat="43.3359168" lon="11.35214"><ele>304.71428571428567</ele><time>2026-04-19T08:23:20.125Z</time></trkpt><trkpt lat="43.3358778" lon="11.3520625"><ele>304.57142857142856</ele><time>2026-04-19T08:23:23.124Z</time></trkpt><trkpt lat="43.3358434" lon="11.3519825"><ele>304.42857142857144</ele><time>2026-04-19T08:23:26.115Z</time></trkpt><trkpt lat="43.3358031" lon="11.3519089"><ele>304.28571428571433</ele><time>2026-04-19T08:23:29.13Z</time></trkpt><trkpt lat="43.3357619" lon="11.3518305"><ele>304.1428571428571</ele><time>2026-04-19T08:23:32.133Z</time></trkpt><trkpt lat="43.3357144" lon="11.3517635"><ele>304.0</ele><time>2026-04-19T08:23:35.128Z</time></trkpt><trkpt lat="43.3356703" lon="11.3516838"><ele>304.0</ele><time>2026-04-19T08:23:38.124Z</time></trkpt><trkpt lat="43.3356082" lon="11.3516142"><ele>304.0</ele><time>2026-04-19T08:23:41.118Z</time></trkpt><trkpt lat="43.3355324" lon="11.3515499"><ele>304.0</ele><time>2026-04-19T08:23:44.112Z</time></trkpt><trkpt lat="43.3354615" lon="11.351501"><ele>304.0</ele><time>2026-04-19T08:23:47.123Z</time></trkpt><trkpt lat="43.3353847" lon="11.3514657"><ele>304.0</ele><time>2026-04-19T08:23:50.136Z</time></trkpt><trkpt lat="43.335305" lon="11.3514289"><ele>304.0</ele><time>2026-04-19T08:23:53.121Z</time></trkpt><trkpt lat="43.3352275" lon="11.3514028"><ele>303.8333333333333</ele><time>2026-04-19T08:23:56.116Z</time></trkpt><trkpt lat="43.3351529" lon="11.3513781"><ele>303.66666666666663</ele><time>2026-04-19T08:23:58.115Z</time></trkpt><trkpt lat="43.3350658" lon="11.3513675"><ele>303.5</ele><time>2026-04-19T08:24:01.117Z</time></trkpt><trkpt lat="43.3350073" lon="11.3512928"><ele>303.3333333333333</ele><time>2026-04-19T08:24:03.133Z</time></trkpt><trkpt lat="43.3349783" lon="11.3511809"><ele>303.1666666666667</ele><time>2026-04-19T08:24:05.129Z</time></trkpt><trkpt lat="43.3349271" lon="11.3510528"><ele>303.0</ele><time>2026-04-19T08:24:07.113Z</time></trkpt><trkpt lat="43.3348736" lon="11.35092"><ele>303.0</ele><time>2026-04-19T08:24:09.104Z</time></trkpt><trkpt lat="43.3348415" lon="11.3508445"><ele>303.0</ele><time>2026-04-19T08:24:10.135Z</time></trkpt><trkpt lat="43.3348119" lon="11.35076"><ele>303.0</ele><time>2026-04-19T08:24:11.128Z</time></trkpt><trkpt lat="43.3347788" lon="11.3506761"><ele>303.0</ele><time>2026-04-19T08:24:12.119Z</time></trkpt><trkpt lat="43.3347482" lon="11.350582"><ele>303.0</ele><time>2026-04-19T08:24:13.122Z</time></trkpt><trkpt lat="43.3347263" lon="11.3504841"><ele>303.0</ele><time>2026-04-19T08:24:14.13Z</time></trkpt><trkpt lat="43.3347064" lon="11.350389"><ele>303.0</ele><time>2026-04-19T08:24:15.121Z</time></trkpt><trkpt lat="43.3346944" lon="11.3503033"><ele>302.6</ele><time>2026-04-19T08:24:16.105Z</time></trkpt><trkpt lat="43.3346797" lon="11.350217"><ele>302.20000000000005</ele><time>2026-04-19T08:24:17.195Z</time></trkpt><trkpt lat="43.3346604" lon="11.350056"><ele>301.8</ele><time>2026-04-19T08:24:19.121Z</time></trkpt><trkpt lat="43.3346472" lon="11.3499088"><ele>301.40000000000003</ele><time>2026-04-19T08:24:21.134Z</time></trkpt><trkpt lat="43.3346282" lon="11.3497655"><ele>301.0</ele><time>2026-04-19T08:24:23.131Z</time></trkpt><trkpt lat="43.3346168" lon="11.3496247"><ele>301.8</ele><time>2026-04-19T08:24:25.176Z</time></trkpt><trkpt lat="43.3345946" lon="11.3494788"><ele>302.6</ele><time>2026-04-19T08:24:27.123Z</time></trkpt><trkpt lat="43.3345743" lon="11.3493473"><ele>303.4</ele><time>2026-04-19T08:24:29.127Z</time></trkpt><trkpt lat="43.3345536" lon="11.3492365"><ele>304.2</ele><time>2026-04-19T08:24:31.187Z</time></trkpt><trkpt lat="43.3345262" lon="11.3490986"><ele>305.0</ele><time>2026-04-19T08:24:33.129Z</time></trkpt><trkpt lat="43.3345148" lon="11.3489871"><ele>305.6666666666667</ele><time>2026-04-19T08:24:35.124Z</time></trkpt><trkpt lat="43.3344899" lon="11.348862"><ele>306.33333333333337</ele><time>2026-04-19T08:24:37.129Z</time></trkpt><trkpt lat="43.3344608" lon="11.3487328"><ele>307.0</ele><time>2026-04-19T08:24:39.12Z</time></trkpt><trkpt lat="43.3344437" lon="11.3486236"><ele>307.6666666666667</ele><time>2026-04-19T08:24:41.125Z</time></trkpt><trkpt lat="43.334431" lon="11.3485114"><ele>308.3333333333333</ele><time>2026-04-19T08:24:43.121Z</time></trkpt><trkpt lat="43.3344046" lon="11.3483976"><ele>309.0</ele><time>2026-04-19T08:24:45.12Z</time></trkpt><trkpt lat="43.3343879" lon="11.3482816"><ele>309.0</ele><time>2026-04-19T08:24:47.123Z</time></trkpt><trkpt lat="43.3343663" lon="11.3481712"><ele>309.0</ele><time>2026-04-19T08:24:49.118Z</time></trkpt><trkpt lat="43.3343412" lon="11.3480648"><ele>309.0</ele><time>2026-04-19T08:24:51.194Z</time></trkpt><trkpt lat="43.3343229" lon="11.3479684"><ele>309.0</ele><time>2026-04-19T08:24:53.106Z</time></trkpt><trkpt lat="43.3342964" lon="11.3478629"><ele>309.0</ele><time>2026-04-19T08:24:55.185Z</time></trkpt><trkpt lat="43.3342594" lon="11.3477574"><ele>309.0</ele><time>2026-04-19T08:24:57.19Z</time></trkpt><trkpt lat="43.3342151" lon="11.3476415"><ele>310.0</ele><time>2026-04-19T08:24:59.127Z</time></trkpt><trkpt lat="43.334173" lon="11.3475358"><ele>311.0</ele><time>2026-04-19T08:25:01.188Z</time></trkpt><trkpt lat="43.3340372" lon="11.3472739"><ele>312.0</ele><time>2026-04-19T08:25:05.204Z</time></trkpt><trkpt lat="43.334002" lon="11.3471932"><ele>313.0</ele><time>2026-04-19T08:25:08.119Z</time></trkpt><trkpt lat="43.3339856" lon="11.3470451"><ele>312.8333333333333</ele><time>2026-04-19T08:25:10.182Z</time></trkpt><trkpt lat="43.3339501" lon="11.3469286"><ele>312.66666666666663</ele><time>2026-04-19T08:25:12.196Z</time></trkpt><trkpt lat="43.3339452" lon="11.3468303"><ele>312.5</ele><time>2026-04-19T08:25:14.115Z</time></trkpt><trkpt lat="43.3339113" lon="11.3467277"><ele>312.3333333333333</ele><time>2026-04-19T08:25:16.112Z</time></trkpt><trkpt lat="43.3339003" lon="11.3466073"><ele>312.1666666666667</ele><time>2026-04-19T08:25:19.109Z</time></trkpt><trkpt lat="43.3338964" lon="11.3465036"><ele>312.0</ele><time>2026-04-19T08:25:21.121Z</time></trkpt><trkpt lat="43.3338846" lon="11.3463938"><ele>312.4</ele><time>2026-04-19T08:25:23.135Z</time></trkpt><trkpt lat="43.3338501" lon="11.3462421"><ele>312.79999999999995</ele><time>2026-04-19T08:25:25.186Z</time></trkpt><trkpt lat="43.3338415" lon="11.3461157"><ele>313.2</ele><time>2026-04-19T08:25:27.198Z</time></trkpt><trkpt lat="43.3338451" lon="11.3459973"><ele>313.59999999999997</ele><time>2026-04-19T08:25:29.132Z</time></trkpt><trkpt lat="43.3338611" lon="11.3458795"><ele>314.0</ele><time>2026-04-19T08:25:31.193Z</time></trkpt><trkpt lat="43.3338818" lon="11.3457575"><ele>315.0</ele><time>2026-04-19T08:25:33.113Z</time></trkpt><trkpt lat="43.3339233" lon="11.3456427"><ele>316.0</ele><time>2026-04-19T08:25:35.201Z</time></trkpt><trkpt lat="43.3339581" lon="11.345525"><ele>317.0</ele><time>2026-04-19T08:25:37.184Z</time></trkpt><trkpt lat="43.3339912" lon="11.3453997"><ele>318.0</ele><time>2026-04-19T08:25:39.124Z</time></trkpt><trkpt lat="43.33402" lon="11.3452807"><ele>319.0</ele><time>2026-04-19T08:25:41.198Z</time></trkpt><trkpt lat="43.334026" lon="11.3451517"><ele>319.0</ele><time>2026-04-19T08:25:43.095Z</time></trkpt><trkpt lat="43.3339684" lon="11.3449974"><ele>319.0</ele><time>2026-04-19T08:25:45.125Z</time></trkpt><trkpt lat="43.3339251" lon="11.3449232"><ele>319.0</ele><time>2026-04-19T08:25:46.211Z</time></trkpt><trkpt lat="43.3338804" lon="11.3448425"><ele>319.0</ele><time>2026-04-19T08:25:47.208Z</time></trkpt><trkpt lat="43.3337923" lon="11.3446886"><ele>319.0</ele><time>2026-04-19T08:25:49.135Z</time></trkpt><trkpt lat="43.3337281" lon="11.3446146"><ele>317.66666666666663</ele><time>2026-04-19T08:25:50.13Z</time></trkpt><trkpt lat="43.3336604" lon="11.3445419"><ele>316.3333333333333</ele><time>2026-04-19T08:25:51.127Z</time></trkpt><trkpt lat="43.3335905" lon="11.3444691"><ele>315.0</ele><time>2026-04-19T08:25:52.098Z</time></trkpt><trkpt lat="43.3335178" lon="11.3444013"><ele>313.6666666666667</ele><time>2026-04-19T08:25:53.111Z</time></trkpt><trkpt lat="43.3334412" lon="11.3443431"><ele>312.33333333333337</ele><time>2026-04-19T08:25:54.127Z</time></trkpt><trkpt lat="43.3333534" lon="11.3443046"><ele>311.0</ele><time>2026-04-19T08:25:55.119Z</time></trkpt><trkpt lat="43.3332538" lon="11.344284"><ele>311.0</ele><time>2026-04-19T08:25:56.123Z</time></trkpt><trkpt lat="43.3331539" lon="11.3442719"><ele>311.0</ele><time>2026-04-19T08:25:57.116Z</time></trkpt><trkpt lat="43.3330545" lon="11.3442637"><ele>311.0</ele><time>2026-04-19T08:25:58.119Z</time></trkpt><trkpt lat="43.3329522" lon="11.3442521"><ele>311.0</ele><time>2026-04-19T08:25:59.119Z</time></trkpt><trkpt lat="43.3328495" lon="11.3442394"><ele>311.0</ele><time>2026-04-19T08:26:00.122Z</time></trkpt><trkpt lat="43.332745" lon="11.3442332"><ele>310.0</ele><time>2026-04-19T08:26:01.198Z</time></trkpt><trkpt lat="43.3326398" lon="11.3441905"><ele>309.0</ele><time>2026-04-19T08:26:02.201Z</time></trkpt><trkpt lat="43.332538" lon="11.3441481"><ele>308.0</ele><time>2026-04-19T08:26:03.124Z</time></trkpt><trkpt lat="43.3324313" lon="11.3441398"><ele>307.0</ele><time>2026-04-19T08:26:04.102Z</time></trkpt><trkpt lat="43.3323334" lon="11.3441491"><ele>306.0</ele><time>2026-04-19T08:26:05.203Z</time></trkpt><trkpt lat="43.332236" lon="11.3441332"><ele>306.40000000000003</ele><time>2026-04-19T08:26:06.105Z</time></trkpt><trkpt lat="43.3321478" lon="11.3440925"><ele>306.8</ele><time>2026-04-19T08:26:07.19Z</time></trkpt><trkpt lat="43.3320722" lon="11.344032"><ele>307.20000000000005</ele><time>2026-04-19T08:26:08.121Z</time></trkpt><trkpt lat="43.3319926" lon="11.3439779"><ele>307.6</ele><time>2026-04-19T08:26:09.123Z</time></trkpt><trkpt lat="43.3319048" lon="11.343928"><ele>308.0</ele><time>2026-04-19T08:26:10.189Z</time></trkpt><trkpt lat="43.3317951" lon="11.3438165"><ele>308.0</ele><time>2026-04-19T08:26:11.192Z</time></trkpt><trkpt lat="43.3316823" lon="11.3437361"><ele>308.0</ele><time>2026-04-19T08:26:12.19Z</time></trkpt><trkpt lat="43.3315867" lon="11.3436497"><ele>308.0</ele><time>2026-04-19T08:26:13.099Z</time></trkpt><trkpt lat="43.3315071" lon="11.3435885"><ele>308.0</ele><time>2026-04-19T08:26:14.116Z</time></trkpt><trkpt lat="43.3314295" lon="11.3435521"><ele>308.0</ele><time>2026-04-19T08:26:15.113Z</time></trkpt><trkpt lat="43.3313346" lon="11.3435337"><ele>305.6</ele><time>2026-04-19T08:26:16.124Z</time></trkpt><trkpt lat="43.3312437" lon="11.3434828"><ele>303.20000000000005</ele><time>2026-04-19T08:26:17.119Z</time></trkpt><trkpt lat="43.3311589" lon="11.343427"><ele>300.8</ele><time>2026-04-19T08:26:18.127Z</time></trkpt><trkpt lat="43.331071" lon="11.343375"><ele>298.40000000000003</ele><time>2026-04-19T08:26:19.125Z</time></trkpt><trkpt lat="43.3309882" lon="11.3433204"><ele>296.0</ele><time>2026-04-19T08:26:20.114Z</time></trkpt><trkpt lat="43.3309074" lon="11.3432571"><ele>296.0</ele><time>2026-04-19T08:26:21.188Z</time></trkpt><trkpt lat="43.3308325" lon="11.3431886"><ele>296.0</ele><time>2026-04-19T08:26:22.202Z</time></trkpt><trkpt lat="43.3307551" lon="11.3431364"><ele>296.0</ele><time>2026-04-19T08:26:23.121Z</time></trkpt><trkpt lat="43.3306616" lon="11.3430924"><ele>296.0</ele><time>2026-04-19T08:26:24.114Z</time></trkpt><trkpt lat="43.3305553" lon="11.3430588"><ele>296.0</ele><time>2026-04-19T08:26:25.124Z</time></trkpt><trkpt lat="43.3304582" lon="11.3430248"><ele>296.2</ele><time>2026-04-19T08:26:26.117Z</time></trkpt><trkpt lat="43.3303646" lon="11.3429949"><ele>296.40000000000003</ele><time>2026-04-19T08:26:27.12Z</time></trkpt><trkpt lat="43.3302733" lon="11.3429653"><ele>296.6</ele><time>2026-04-19T08:26:28.123Z</time></trkpt><trkpt lat="43.3301816" lon="11.3429282"><ele>296.8</ele><time>2026-04-19T08:26:29.111Z</time></trkpt><trkpt lat="43.3300972" lon="11.3428831"><ele>297.0</ele><time>2026-04-19T08:26:30.112Z</time></trkpt><trkpt lat="43.330013" lon="11.3428335"><ele>297.0</ele><time>2026-04-19T08:26:31.116Z</time></trkpt><trkpt lat="43.3299296" lon="11.3427797"><ele>297.0</ele><time>2026-04-19T08:26:32.118Z</time></trkpt><trkpt lat="43.3298447" lon="11.3427313"><ele>297.0</ele><time>2026-04-19T08:26:33.094Z</time></trkpt><trkpt lat="43.3297592" lon="11.3426807"><ele>297.0</ele><time>2026-04-19T08:26:34.113Z</time></trkpt><trkpt lat="43.3296741" lon="11.3426322"><ele>297.0</ele><time>2026-04-19T08:26:35.117Z</time></trkpt><trkpt lat="43.329589" lon="11.3425812"><ele>295.6</ele><time>2026-04-19T08:26:36.192Z</time></trkpt><trkpt lat="43.3295045" lon="11.342533"><ele>294.2</ele><time>2026-04-19T08:26:37.19Z</time></trkpt><trkpt lat="43.3294264" lon="11.3424778"><ele>292.8</ele><time>2026-04-19T08:26:38.097Z</time></trkpt><trkpt lat="43.3293433" lon="11.3424321"><ele>291.4</ele><time>2026-04-19T08:26:39.099Z</time></trkpt><trkpt lat="43.329259" lon="11.3423907"><ele>290.0</ele><time>2026-04-19T08:26:40.123Z</time></trkpt><trkpt lat="43.3291677" lon="11.3423502"><ele>290.0</ele><time>2026-04-19T08:26:41.194Z</time></trkpt><trkpt lat="43.3290837" lon="11.3422994"><ele>290.0</ele><time>2026-04-19T08:26:42.198Z</time></trkpt><trkpt lat="43.3290031" lon="11.3422397"><ele>290.0</ele><time>2026-04-19T08:26:43.1Z</time></trkpt><trkpt lat="43.3289142" lon="11.3421721"><ele>290.0</ele><time>2026-04-19T08:26:44.124Z</time></trkpt><trkpt lat="43.3288168" lon="11.3421162"><ele>290.0</ele><time>2026-04-19T08:26:45.195Z</time></trkpt><trkpt lat="43.328727" lon="11.3420616"><ele>289.0</ele><time>2026-04-19T08:26:46.194Z</time></trkpt><trkpt lat="43.328633" lon="11.3420063"><ele>288.0</ele><time>2026-04-19T08:26:47.204Z</time></trkpt><trkpt lat="43.3285477" lon="11.3419471"><ele>287.0</ele><time>2026-04-19T08:26:48.122Z</time></trkpt><trkpt lat="43.3284707" lon="11.3418695"><ele>286.0</ele><time>2026-04-19T08:26:49.115Z</time></trkpt><trkpt lat="43.3284017" lon="11.3417835"><ele>285.0</ele><time>2026-04-19T08:26:50.132Z</time></trkpt><trkpt lat="43.3283367" lon="11.3416904"><ele>285.0</ele><time>2026-04-19T08:26:51.2Z</time></trkpt><trkpt lat="43.3283001" lon="11.3415688"><ele>285.0</ele><time>2026-04-19T08:26:52.117Z</time></trkpt><trkpt lat="43.3282619" lon="11.3414402"><ele>285.0</ele><time>2026-04-19T08:26:53.124Z</time></trkpt><trkpt lat="43.3282126" lon="11.3413163"><ele>285.0</ele><time>2026-04-19T08:26:54.122Z</time></trkpt><trkpt lat="43.3281492" lon="11.3412063"><ele>285.0</ele><time>2026-04-19T08:26:55.188Z</time></trkpt><trkpt lat="43.3280988" lon="11.3410962"><ele>282.2</ele><time>2026-04-19T08:26:56.185Z</time></trkpt><trkpt lat="43.3280393" lon="11.340982"><ele>279.4</ele><time>2026-04-19T08:26:57.118Z</time></trkpt><trkpt lat="43.3279389" lon="11.3409021"><ele>276.6</ele><time>2026-04-19T08:26:58.105Z</time></trkpt><trkpt lat="43.327832" lon="11.3408558"><ele>273.8</ele><time>2026-04-19T08:26:59.101Z</time></trkpt><trkpt lat="43.3277306" lon="11.3407978"><ele>271.0</ele><time>2026-04-19T08:27:00.109Z</time></trkpt><trkpt lat="43.3276486" lon="11.340729"><ele>271.0</ele><time>2026-04-19T08:27:01.123Z</time></trkpt><trkpt lat="43.3275951" lon="11.3406412"><ele>271.0</ele><time>2026-04-19T08:27:02.121Z</time></trkpt><trkpt lat="43.3275743" lon="11.3405405"><ele>271.0</ele><time>2026-04-19T08:27:03.121Z</time></trkpt><trkpt lat="43.3275897" lon="11.3404152"><ele>271.0</ele><time>2026-04-19T08:27:04.106Z</time></trkpt><trkpt lat="43.3276247" lon="11.3402849"><ele>271.0</ele><time>2026-04-19T08:27:05.104Z</time></trkpt><trkpt lat="43.3276748" lon="11.3401603"><ele>269.8</ele><time>2026-04-19T08:27:06.119Z</time></trkpt><trkpt lat="43.3277351" lon="11.3400402"><ele>268.6</ele><time>2026-04-19T08:27:07.119Z</time></trkpt><trkpt lat="43.3277986" lon="11.3399215"><ele>267.4</ele><time>2026-04-19T08:27:08.118Z</time></trkpt><trkpt lat="43.3278532" lon="11.3398099"><ele>266.2</ele><time>2026-04-19T08:27:09.11Z</time></trkpt><trkpt lat="43.3278989" lon="11.3396995"><ele>265.0</ele><time>2026-04-19T08:27:10.115Z</time></trkpt><trkpt lat="43.3279427" lon="11.3395889"><ele>264.3333333333333</ele><time>2026-04-19T08:27:11.123Z</time></trkpt><trkpt lat="43.3279883" lon="11.33948"><ele>263.66666666666663</ele><time>2026-04-19T08:27:12.194Z</time></trkpt><trkpt lat="43.3280331" lon="11.339381"><ele>263.0</ele><time>2026-04-19T08:27:13.115Z</time></trkpt><trkpt lat="43.3280784" lon="11.3392851"><ele>262.3333333333333</ele><time>2026-04-19T08:27:14.128Z</time></trkpt><trkpt lat="43.3281274" lon="11.3391956"><ele>261.6666666666667</ele><time>2026-04-19T08:27:15.193Z</time></trkpt><trkpt lat="43.3281812" lon="11.3391166"><ele>261.0</ele><time>2026-04-19T08:27:16.195Z</time></trkpt><trkpt lat="43.3282585" lon="11.3390585"><ele>261.6666666666667</ele><time>2026-04-19T08:27:17.205Z</time></trkpt><trkpt lat="43.3283271" lon="11.3389891"><ele>262.3333333333333</ele><time>2026-04-19T08:27:18.12Z</time></trkpt><trkpt lat="43.3283744" lon="11.3388831"><ele>263.0</ele><time>2026-04-19T08:27:19.108Z</time></trkpt><trkpt lat="43.328414" lon="11.3387792"><ele>263.66666666666663</ele><time>2026-04-19T08:27:20.198Z</time></trkpt><trkpt lat="43.3284533" lon="11.3386869"><ele>264.3333333333333</ele><time>2026-04-19T08:27:21.192Z</time></trkpt><trkpt lat="43.3284792" lon="11.3385773"><ele>265.0</ele><time>2026-04-19T08:27:22.191Z</time></trkpt><trkpt lat="43.3284604" lon="11.3384599"><ele>265.0</ele><time>2026-04-19T08:27:23.112Z</time></trkpt><trkpt lat="43.3284015" lon="11.3383398"><ele>265.0</ele><time>2026-04-19T08:27:24.12Z</time></trkpt><trkpt lat="43.3283054" lon="11.3382397"><ele>265.0</ele><time>2026-04-19T08:27:25.115Z</time></trkpt><trkpt lat="43.3282041" lon="11.338165"><ele>265.0</ele><time>2026-04-19T08:27:26.184Z</time></trkpt><trkpt lat="43.3281055" lon="11.3381204"><ele>265.0</ele><time>2026-04-19T08:27:27.188Z</time></trkpt><trkpt lat="43.3280288" lon="11.3380812"><ele>264.66666666666663</ele><time>2026-04-19T08:27:28.1Z</time></trkpt><trkpt lat="43.3279801" lon="11.33802"><ele>264.3333333333333</ele><time>2026-04-19T08:27:29.121Z</time></trkpt><trkpt lat="43.327946" lon="11.3379375"><ele>264.0</ele><time>2026-04-19T08:27:30.176Z</time></trkpt><trkpt lat="43.3279232" lon="11.3378538"><ele>263.6666666666667</ele><time>2026-04-19T08:27:31.189Z</time></trkpt><trkpt lat="43.3278847" lon="11.3377036"><ele>263.33333333333337</ele><time>2026-04-19T08:27:33.12Z</time></trkpt><trkpt lat="43.3278971" lon="11.3375482"><ele>263.0</ele><time>2026-04-19T08:27:35.109Z</time></trkpt><trkpt lat="43.3279299" lon="11.3373963"><ele>263.0</ele><time>2026-04-19T08:27:37.12Z</time></trkpt><trkpt lat="43.3279751" lon="11.3372519"><ele>263.0</ele><time>2026-04-19T08:27:39.126Z</time></trkpt><trkpt lat="43.3280006" lon="11.3371151"><ele>263.0</ele><time>2026-04-19T08:27:41.118Z</time></trkpt><trkpt lat="43.3280215" lon="11.3369916"><ele>263.0</ele><time>2026-04-19T08:27:43.124Z</time></trkpt><trkpt lat="43.3280436" lon="11.33688"><ele>263.0</ele><time>2026-04-19T08:27:45.204Z</time></trkpt><trkpt lat="43.3280543" lon="11.3367496"><ele>265.0</ele><time>2026-04-19T08:27:47.118Z</time></trkpt><trkpt lat="43.3280698" lon="11.336641"><ele>267.0</ele><time>2026-04-19T08:27:49.127Z</time></trkpt><trkpt lat="43.3280841" lon="11.3365327"><ele>269.0</ele><time>2026-04-19T08:27:51.191Z</time></trkpt><trkpt lat="43.3281019" lon="11.33641"><ele>271.0</ele><time>2026-04-19T08:27:53.138Z</time></trkpt><trkpt lat="43.3281213" lon="11.3363048"><ele>273.0</ele><time>2026-04-19T08:27:55.189Z</time></trkpt><trkpt lat="43.3281411" lon="11.3362045"><ele>275.0</ele><time>2026-04-19T08:27:57.134Z</time></trkpt><trkpt lat="43.3281532" lon="11.3360912"><ele>275.33333333333337</ele><time>2026-04-19T08:27:59.119Z</time></trkpt><trkpt lat="43.3281506" lon="11.335972"><ele>275.6666666666667</ele><time>2026-04-19T08:28:01.11Z</time></trkpt><trkpt lat="43.3281377" lon="11.3358445"><ele>276.0</ele><time>2026-04-19T08:28:03.099Z</time></trkpt><trkpt lat="43.3281263" lon="11.3357234"><ele>276.3333333333333</ele><time>2026-04-19T08:28:05.202Z</time></trkpt><trkpt lat="43.3281256" lon="11.3356165"><ele>276.66666666666663</ele><time>2026-04-19T08:28:07.192Z</time></trkpt><trkpt lat="43.3281174" lon="11.3355018"><ele>277.0</ele><time>2026-04-19T08:28:09.123Z</time></trkpt><trkpt lat="43.3281099" lon="11.3353963"><ele>277.0</ele><time>2026-04-19T08:28:11.131Z</time></trkpt><trkpt lat="43.3281095" lon="11.3352789"><ele>277.0</ele><time>2026-04-19T08:28:13.115Z</time></trkpt><trkpt lat="43.328104" lon="11.3351687"><ele>277.0</ele><time>2026-04-19T08:28:15.113Z</time></trkpt><trkpt lat="43.3280972" lon="11.3350587"><ele>277.0</ele><time>2026-04-19T08:28:17.13Z</time></trkpt><trkpt lat="43.3280951" lon="11.3349518"><ele>277.0</ele><time>2026-04-19T08:28:19.129Z</time></trkpt><trkpt lat="43.3280947" lon="11.3348434"><ele>277.0</ele><time>2026-04-19T08:28:21.213Z</time></trkpt><trkpt lat="43.3280891" lon="11.3347373"><ele>277.57142857142856</ele><time>2026-04-19T08:28:23.124Z</time></trkpt><trkpt lat="43.3280858" lon="11.3346364"><ele>278.1428571428571</ele><time>2026-04-19T08:28:25.117Z</time></trkpt><trkpt lat="43.3280784" lon="11.3345361"><ele>278.7142857142857</ele><time>2026-04-19T08:28:27.201Z</time></trkpt><trkpt lat="43.3280786" lon="11.3344411"><ele>279.2857142857143</ele><time>2026-04-19T08:28:29.126Z</time></trkpt><trkpt lat="43.3280594" lon="11.3343482"><ele>279.8571428571429</ele><time>2026-04-19T08:28:31.189Z</time></trkpt><trkpt lat="43.3280394" lon="11.3342385"><ele>280.42857142857144</ele><time>2026-04-19T08:28:33.118Z</time></trkpt><trkpt lat="43.3280269" lon="11.3341454"><ele>281.0</ele><time>2026-04-19T08:28:35.114Z</time></trkpt><trkpt lat="43.328006" lon="11.3340495"><ele>280.6666666666667</ele><time>2026-04-19T08:28:37.186Z</time></trkpt><trkpt lat="43.3280028" lon="11.3339449"><ele>280.33333333333337</ele><time>2026-04-19T08:28:40.127Z</time></trkpt><trkpt lat="43.3279934" lon="11.3338425"><ele>280.0</ele><time>2026-04-19T08:28:43.109Z</time></trkpt><trkpt lat="43.3279818" lon="11.3337236"><ele>279.6666666666667</ele><time>2026-04-19T08:28:46.123Z</time></trkpt><trkpt lat="43.3279648" lon="11.333611"><ele>279.3333333333333</ele><time>2026-04-19T08:28:49.124Z</time></trkpt><trkpt lat="43.3279385" lon="11.3335074"><ele>279.0</ele><time>2026-04-19T08:28:52.127Z</time></trkpt><trkpt lat="43.3279189" lon="11.3334047"><ele>279.0</ele><time>2026-04-19T08:28:55.123Z</time></trkpt><trkpt lat="43.3278838" lon="11.3333046"><ele>279.0</ele><time>2026-04-19T08:28:58.126Z</time></trkpt><trkpt lat="43.3278499" lon="11.3332035"><ele>279.0</ele><time>2026-04-19T08:29:01.132Z</time></trkpt><trkpt lat="43.3278134" lon="11.3330927"><ele>279.0</ele><time>2026-04-19T08:29:04.112Z</time></trkpt><trkpt lat="43.3277775" lon="11.3329813"><ele>279.0</ele><time>2026-04-19T08:29:07.132Z</time></trkpt><trkpt lat="43.3277432" lon="11.332871"><ele>279.0</ele><time>2026-04-19T08:29:10.119Z</time></trkpt><trkpt lat="43.327711" lon="11.3327667"><ele>279.8333333333333</ele><time>2026-04-19T08:29:13.128Z</time></trkpt><trkpt lat="43.327673" lon="11.332656"><ele>280.6666666666667</ele><time>2026-04-19T08:29:16.121Z</time></trkpt><trkpt lat="43.3276416" lon="11.3325413"><ele>281.5</ele><time>2026-04-19T08:29:19.129Z</time></trkpt><trkpt lat="43.3276395" lon="11.3324127"><ele>282.33333333333337</ele><time>2026-04-19T08:29:22.123Z</time></trkpt><trkpt lat="43.3276663" lon="11.3323017"><ele>283.1666666666667</ele><time>2026-04-19T08:29:24.131Z</time></trkpt><trkpt lat="43.3276929" lon="11.3322017"><ele>284.0</ele><time>2026-04-19T08:29:26.131Z</time></trkpt><trkpt lat="43.3276953" lon="11.3320875"><ele>284.5</ele><time>2026-04-19T08:29:28.125Z</time></trkpt><trkpt lat="43.3276832" lon="11.3319827"><ele>285.0</ele><time>2026-04-19T08:29:30.135Z</time></trkpt><trkpt lat="43.3276322" lon="11.3318952"><ele>285.5</ele><time>2026-04-19T08:29:32.118Z</time></trkpt><trkpt lat="43.3275614" lon="11.3318228"><ele>286.0</ele><time>2026-04-19T08:29:34.132Z</time></trkpt><trkpt lat="43.3274938" lon="11.3317366"><ele>286.5</ele><time>2026-04-19T08:29:36.129Z</time></trkpt><trkpt lat="43.3274535" lon="11.3316207"><ele>287.0</ele><time>2026-04-19T08:29:38.127Z</time></trkpt><trkpt lat="43.3274623" lon="11.3314884"><ele>287.6</ele><time>2026-04-19T08:29:40.135Z</time></trkpt><trkpt lat="43.3274817" lon="11.3313509"><ele>288.2</ele><time>2026-04-19T08:29:42.123Z</time></trkpt><trkpt lat="43.3275082" lon="11.3311967"><ele>288.8</ele><time>2026-04-19T08:29:44.131Z</time></trkpt><trkpt lat="43.3275414" lon="11.3310589"><ele>289.4</ele><time>2026-04-19T08:29:46.128Z</time></trkpt><trkpt lat="43.3275778" lon="11.330918"><ele>290.0</ele><time>2026-04-19T08:29:48.134Z</time></trkpt><trkpt lat="43.3276247" lon="11.330786"><ele>290.0</ele><time>2026-04-19T08:29:50.126Z</time></trkpt><trkpt lat="43.3276755" lon="11.3306684"><ele>290.0</ele><time>2026-04-19T08:29:52.138Z</time></trkpt><trkpt lat="43.3277186" lon="11.3305565"><ele>290.0</ele><time>2026-04-19T08:29:54.119Z</time></trkpt><trkpt lat="43.3277695" lon="11.330449"><ele>290.0</ele><time>2026-04-19T08:29:56.122Z</time></trkpt><trkpt lat="43.3278257" lon="11.3303388"><ele>290.0</ele><time>2026-04-19T08:29:58.133Z</time></trkpt><trkpt lat="43.3278889" lon="11.3302177"><ele>289.6</ele><time>2026-04-19T08:30:00.129Z</time></trkpt><trkpt lat="43.3279466" lon="11.3300969"><ele>289.2</ele><time>2026-04-19T08:30:02.124Z</time></trkpt><trkpt lat="43.3280132" lon="11.32998"><ele>288.8</ele><time>2026-04-19T08:30:04.136Z</time></trkpt><trkpt lat="43.3280745" lon="11.3298565"><ele>288.4</ele><time>2026-04-19T08:30:06.118Z</time></trkpt><trkpt lat="43.3281288" lon="11.3297377"><ele>288.0</ele><time>2026-04-19T08:30:08.119Z</time></trkpt><trkpt lat="43.3281845" lon="11.3296094"><ele>288.0</ele><time>2026-04-19T08:30:10.119Z</time></trkpt><trkpt lat="43.3282428" lon="11.3294797"><ele>288.0</ele><time>2026-04-19T08:30:12.125Z</time></trkpt><trkpt lat="43.3283024" lon="11.3293579"><ele>288.0</ele><time>2026-04-19T08:30:14.127Z</time></trkpt><trkpt lat="43.3283625" lon="11.3292318"><ele>288.0</ele><time>2026-04-19T08:30:16.13Z</time></trkpt><trkpt lat="43.3284255" lon="11.3291005"><ele>288.0</ele><time>2026-04-19T08:30:18.116Z</time></trkpt><trkpt lat="43.3284928" lon="11.3289665"><ele>290.75</ele><time>2026-04-19T08:30:20.113Z</time></trkpt><trkpt lat="43.3285636" lon="11.3288426"><ele>293.5</ele><time>2026-04-19T08:30:22.116Z</time></trkpt><trkpt lat="43.3286378" lon="11.3287241"><ele>296.25</ele><time>2026-04-19T08:30:24.111Z</time></trkpt><trkpt lat="43.3287123" lon="11.3285975"><ele>299.0</ele><time>2026-04-19T08:30:26.132Z</time></trkpt><trkpt lat="43.3287918" lon="11.3284764"><ele>299.0</ele><time>2026-04-19T08:30:28.132Z</time></trkpt><trkpt lat="43.3288689" lon="11.3283589"><ele>299.0</ele><time>2026-04-19T08:30:30.115Z</time></trkpt><trkpt lat="43.3289411" lon="11.3282389"><ele>299.0</ele><time>2026-04-19T08:30:32.141Z</time></trkpt><trkpt lat="43.3290121" lon="11.328125"><ele>299.0</ele><time>2026-04-19T08:30:34.139Z</time></trkpt><trkpt lat="43.3290802" lon="11.3280168"><ele>299.0</ele><time>2026-04-19T08:30:36.116Z</time></trkpt><trkpt lat="43.3291464" lon="11.3279138"><ele>298.0</ele><time>2026-04-19T08:30:38.132Z</time></trkpt><trkpt lat="43.3292181" lon="11.3278059"><ele>297.0</ele><time>2026-04-19T08:30:40.122Z</time></trkpt><trkpt lat="43.3292858" lon="11.3277031"><ele>296.0</ele><time>2026-04-19T08:30:42.127Z</time></trkpt><trkpt lat="43.329359" lon="11.3276169"><ele>295.0</ele><time>2026-04-19T08:30:44.127Z</time></trkpt><trkpt lat="43.3294254" lon="11.327524"><ele>294.0</ele><time>2026-04-19T08:30:46.128Z</time></trkpt><trkpt lat="43.3294902" lon="11.3274211"><ele>294.0</ele><time>2026-04-19T08:30:48.128Z</time></trkpt><trkpt lat="43.3295579" lon="11.3273228"><ele>294.0</ele><time>2026-04-19T08:30:50.133Z</time></trkpt><trkpt lat="43.3296265" lon="11.3272244"><ele>294.0</ele><time>2026-04-19T08:30:52.137Z</time></trkpt><trkpt lat="43.329691" lon="11.3271087"><ele>294.0</ele><time>2026-04-19T08:30:54.129Z</time></trkpt><trkpt lat="43.3297497" lon="11.3269941"><ele>294.0</ele><time>2026-04-19T08:30:56.129Z</time></trkpt><trkpt lat="43.3298041" lon="11.3268854"><ele>294.2</ele><time>2026-04-19T08:30:58.137Z</time></trkpt><trkpt lat="43.3298632" lon="11.3267704"><ele>294.4</ele><time>2026-04-19T08:31:00.124Z</time></trkpt><trkpt lat="43.3299145" lon="11.32665"><ele>294.6</ele><time>2026-04-19T08:31:02.118Z</time></trkpt><trkpt lat="43.3299688" lon="11.3265349"><ele>294.8</ele><time>2026-04-19T08:31:04.113Z</time></trkpt><trkpt lat="43.3300178" lon="11.3264321"><ele>295.0</ele><time>2026-04-19T08:31:06.144Z</time></trkpt><trkpt lat="43.3300624" lon="11.3263301"><ele>295.0</ele><time>2026-04-19T08:31:08.13Z</time></trkpt><trkpt lat="43.3301103" lon="11.3262289"><ele>295.0</ele><time>2026-04-19T08:31:10.124Z</time></trkpt><trkpt lat="43.3301577" lon="11.3261355"><ele>295.0</ele><time>2026-04-19T08:31:12.138Z</time></trkpt><trkpt lat="43.3301979" lon="11.3260553"><ele>295.0</ele><time>2026-04-19T08:31:14.122Z</time></trkpt><trkpt lat="43.3302465" lon="11.3259825"><ele>295.0</ele><time>2026-04-19T08:31:16.145Z</time></trkpt><trkpt lat="43.3302864" lon="11.3258834"><ele>295.0</ele><time>2026-04-19T08:31:18.136Z</time></trkpt><trkpt lat="43.330292" lon="11.3257447"><ele>295.0</ele><time>2026-04-19T08:31:20.123Z</time></trkpt><trkpt lat="43.3302866" lon="11.3255852"><ele>295.0</ele><time>2026-04-19T08:31:22.12Z</time></trkpt><trkpt lat="43.3302953" lon="11.3254962"><ele>295.0</ele><time>2026-04-19T08:31:23.146Z</time></trkpt><trkpt lat="43.3303121" lon="11.3254059"><ele>295.0</ele><time>2026-04-19T08:31:24.14Z</time></trkpt><trkpt lat="43.3303402" lon="11.3253144"><ele>295.0</ele><time>2026-04-19T08:31:25.133Z</time></trkpt><trkpt lat="43.3303715" lon="11.3252226"><ele>295.0</ele><time>2026-04-19T08:31:26.124Z</time></trkpt><trkpt lat="43.3304034" lon="11.3251281"><ele>295.7142857142857</ele><time>2026-04-19T08:31:27.128Z</time></trkpt><trkpt lat="43.330434" lon="11.3250315"><ele>296.42857142857144</ele><time>2026-04-19T08:31:28.133Z</time></trkpt><trkpt lat="43.3304661" lon="11.3249334"><ele>297.1428571428571</ele><time>2026-04-19T08:31:29.126Z</time></trkpt><trkpt lat="43.330499" lon="11.3248344"><ele>297.8571428571429</ele><time>2026-04-19T08:31:30.121Z</time></trkpt><trkpt lat="43.3305318" lon="11.3247436"><ele>298.57142857142856</ele><time>2026-04-19T08:31:31.133Z</time></trkpt><trkpt lat="43.3305663" lon="11.3246589"><ele>299.2857142857143</ele><time>2026-04-19T08:31:32.138Z</time></trkpt><trkpt lat="43.3305981" lon="11.3245762"><ele>300.0</ele><time>2026-04-19T08:31:33.133Z</time></trkpt><trkpt lat="43.3306288" lon="11.324484"><ele>297.3333333333333</ele><time>2026-04-19T08:31:34.143Z</time></trkpt><trkpt lat="43.330656" lon="11.3243914"><ele>294.6666666666667</ele><time>2026-04-19T08:31:35.132Z</time></trkpt><trkpt lat="43.3306751" lon="11.3242985"><ele>292.0</ele><time>2026-04-19T08:31:36.135Z</time></trkpt><trkpt lat="43.3306861" lon="11.3242007"><ele>289.33333333333337</ele><time>2026-04-19T08:31:37.131Z</time></trkpt><trkpt lat="43.3306948" lon="11.3240964"><ele>286.6666666666667</ele><time>2026-04-19T08:31:38.127Z</time></trkpt><trkpt lat="43.3307064" lon="11.3239823"><ele>284.0</ele><time>2026-04-19T08:31:39.114Z</time></trkpt><trkpt lat="43.3307207" lon="11.3238679"><ele>284.0</ele><time>2026-04-19T08:31:40.133Z</time></trkpt><trkpt lat="43.33075" lon="11.3237511"><ele>284.0</ele><time>2026-04-19T08:31:41.131Z</time></trkpt><trkpt lat="43.3307875" lon="11.3236348"><ele>284.0</ele><time>2026-04-19T08:31:42.129Z</time></trkpt><trkpt lat="43.3308331" lon="11.3235224"><ele>284.0</ele><time>2026-04-19T08:31:43.121Z</time></trkpt><trkpt lat="43.3308794" lon="11.3234112"><ele>284.0</ele><time>2026-04-19T08:31:44.135Z</time></trkpt><trkpt lat="43.3309248" lon="11.3233027"><ele>284.0</ele><time>2026-04-19T08:31:45.116Z</time></trkpt><trkpt lat="43.3309799" lon="11.323198"><ele>284.0</ele><time>2026-04-19T08:31:46.115Z</time></trkpt><trkpt lat="43.3310332" lon="11.3230981"><ele>284.0</ele><time>2026-04-19T08:31:47.119Z</time></trkpt><trkpt lat="43.331083" lon="11.3230013"><ele>284.0</ele><time>2026-04-19T08:31:48.128Z</time></trkpt><trkpt lat="43.3311304" lon="11.3229057"><ele>284.0</ele><time>2026-04-19T08:31:49.131Z</time></trkpt><trkpt lat="43.3311641" lon="11.3228054"><ele>284.0</ele><time>2026-04-19T08:31:50.136Z</time></trkpt><trkpt lat="43.3311967" lon="11.322706"><ele>284.0</ele><time>2026-04-19T08:31:51.12Z</time></trkpt><trkpt lat="43.3312299" lon="11.3226058"><ele>284.0</ele><time>2026-04-19T08:31:52.098Z</time></trkpt><trkpt lat="43.3312605" lon="11.3225075"><ele>284.0</ele><time>2026-04-19T08:31:53.126Z</time></trkpt><trkpt lat="43.3312935" lon="11.3224132"><ele>284.0</ele><time>2026-04-19T08:31:54.112Z</time></trkpt><trkpt lat="43.3313224" lon="11.3223199"><ele>284.0</ele><time>2026-04-19T08:31:55.12Z</time></trkpt><trkpt lat="43.3313513" lon="11.3222311"><ele>284.0</ele><time>2026-04-19T08:31:56.129Z</time></trkpt><trkpt lat="43.3313755" lon="11.3221394"><ele>284.0</ele><time>2026-04-19T08:31:57.118Z</time></trkpt><trkpt lat="43.3314032" lon="11.3220414"><ele>284.0</ele><time>2026-04-19T08:31:58.122Z</time></trkpt><trkpt lat="43.3314247" lon="11.3219531"><ele>284.0</ele><time>2026-04-19T08:31:59.127Z</time></trkpt><trkpt lat="43.3314721" lon="11.3218084"><ele>284.0</ele><time>2026-04-19T08:32:01.136Z</time></trkpt><trkpt lat="43.3315191" lon="11.3216786"><ele>284.0</ele><time>2026-04-19T08:32:03.116Z</time></trkpt><trkpt lat="43.3315571" lon="11.3215508"><ele>284.0</ele><time>2026-04-19T08:32:05.119Z</time></trkpt><trkpt lat="43.3315782" lon="11.3214478"><ele>285.0</ele><time>2026-04-19T08:32:07.128Z</time></trkpt><trkpt lat="43.3316287" lon="11.3213552"><ele>286.0</ele><time>2026-04-19T08:32:09.13Z</time></trkpt><trkpt lat="43.3316825" lon="11.3212598"><ele>287.0</ele><time>2026-04-19T08:32:11.121Z</time></trkpt><trkpt lat="43.3317231" lon="11.3211692"><ele>288.0</ele><time>2026-04-19T08:32:13.133Z</time></trkpt><trkpt lat="43.3317612" lon="11.3210884"><ele>289.0</ele><time>2026-04-19T08:32:15.132Z</time></trkpt><trkpt lat="43.3317933" lon="11.3210035"><ele>290.0</ele><time>2026-04-19T08:32:17.127Z</time></trkpt><trkpt lat="43.331824" lon="11.3209151"><ele>290.0</ele><time>2026-04-19T08:32:19.126Z</time></trkpt><trkpt lat="43.3318559" lon="11.3208293"><ele>290.0</ele><time>2026-04-19T08:32:21.125Z</time></trkpt><trkpt lat="43.3318865" lon="11.3207406"><ele>290.0</ele><time>2026-04-19T08:32:23.125Z</time></trkpt><trkpt lat="43.3319124" lon="11.3206556"><ele>290.0</ele><time>2026-04-19T08:32:25.131Z</time></trkpt><trkpt lat="43.3319522" lon="11.3205435"><ele>290.0</ele><time>2026-04-19T08:32:28.132Z</time></trkpt><trkpt lat="43.3319863" lon="11.3204264"><ele>290.0</ele><time>2026-04-19T08:32:31.104Z</time></trkpt><trkpt lat="43.3320209" lon="11.3203097"><ele>290.0</ele><time>2026-04-19T08:32:34.123Z</time></trkpt><trkpt lat="43.3320606" lon="11.3202002"><ele>290.0</ele><time>2026-04-19T08:32:37.126Z</time></trkpt><trkpt lat="43.3320982" lon="11.3200946"><ele>290.0</ele><time>2026-04-19T08:32:40.122Z</time></trkpt><trkpt lat="43.3321309" lon="11.3199834"><ele>290.0</ele><time>2026-04-19T08:32:43.131Z</time></trkpt><trkpt lat="43.3321601" lon="11.3198723"><ele>290.0</ele><time>2026-04-19T08:32:46.132Z</time></trkpt><trkpt lat="43.3321955" lon="11.3197514"><ele>290.0</ele><time>2026-04-19T08:32:49.15Z</time></trkpt><trkpt lat="43.3322232" lon="11.3196401"><ele>290.0</ele><time>2026-04-19T08:32:52.134Z</time></trkpt><trkpt lat="43.3322626" lon="11.3195231"><ele>290.0</ele><time>2026-04-19T08:32:55.126Z</time></trkpt><trkpt lat="43.332321" lon="11.3194411"><ele>290.0</ele><time>2026-04-19T08:32:58.132Z</time></trkpt><trkpt lat="43.3323869" lon="11.3193732"><ele>290.0</ele><time>2026-04-19T08:33:01.138Z</time></trkpt><trkpt lat="43.332426" lon="11.3193048"><ele>290.0</ele><time>2026-04-19T08:33:03.127Z</time></trkpt><trkpt lat="43.3324426" lon="11.3192169"><ele>290.0</ele><time>2026-04-19T08:33:05.121Z</time></trkpt><trkpt lat="43.3324479" lon="11.3191251"><ele>290.0</ele><time>2026-04-19T08:33:07.135Z</time></trkpt><trkpt lat="43.3324445" lon="11.319025"><ele>290.0</ele><time>2026-04-19T08:33:09.128Z</time></trkpt><trkpt lat="43.3324466" lon="11.3189212"><ele>290.0</ele><time>2026-04-19T08:33:11.126Z</time></trkpt><trkpt lat="43.3324627" lon="11.3188231"><ele>290.0</ele><time>2026-04-19T08:33:13.133Z</time></trkpt><trkpt lat="43.3324833" lon="11.3187278"><ele>290.0</ele><time>2026-04-19T08:33:15.137Z</time></trkpt><trkpt lat="43.3325077" lon="11.3186436"><ele>290.0</ele><time>2026-04-19T08:33:17.135Z</time></trkpt><trkpt lat="43.3325326" lon="11.3185545"><ele>290.0</ele><time>2026-04-19T08:33:19.13Z</time></trkpt><trkpt lat="43.3325569" lon="11.3184715"><ele>291.0</ele><time>2026-04-19T08:33:21.131Z</time></trkpt><trkpt lat="43.3325801" lon="11.3183849"><ele>292.0</ele><time>2026-04-19T08:33:23.134Z</time></trkpt><trkpt lat="43.3326132" lon="11.3182639"><ele>293.0</ele><time>2026-04-19T08:33:26.134Z</time></trkpt><trkpt lat="43.3326385" lon="11.318148"><ele>294.0</ele><time>2026-04-19T08:33:29.142Z</time></trkpt><trkpt lat="43.332671" lon="11.3180461"><ele>295.0</ele><time>2026-04-19T08:33:32.125Z</time></trkpt><trkpt lat="43.3326915" lon="11.317945"><ele>296.0</ele><time>2026-04-19T08:33:35.124Z</time></trkpt><trkpt lat="43.3327168" lon="11.3178504"><ele>297.33333333333337</ele><time>2026-04-19T08:33:38.11Z</time></trkpt><trkpt lat="43.332741" lon="11.3177511"><ele>298.6666666666667</ele><time>2026-04-19T08:33:41.152Z</time></trkpt><trkpt lat="43.3327677" lon="11.3176598"><ele>300.0</ele><time>2026-04-19T08:33:44.121Z</time></trkpt><trkpt lat="43.332793" lon="11.3175633"><ele>301.3333333333333</ele><time>2026-04-19T08:33:47.133Z</time></trkpt><trkpt lat="43.3328225" lon="11.3174696"><ele>302.66666666666663</ele><time>2026-04-19T08:33:50.137Z</time></trkpt><trkpt lat="43.3328426" lon="11.3173744"><ele>304.0</ele><time>2026-04-19T08:33:53.133Z</time></trkpt><trkpt lat="43.3328705" lon="11.3172629"><ele>305.1428571428571</ele><time>2026-04-19T08:33:57.122Z</time></trkpt><trkpt lat="43.3328888" lon="11.3171751"><ele>306.28571428571433</ele><time>2026-04-19T08:34:00.128Z</time></trkpt><trkpt lat="43.3329076" lon="11.3170901"><ele>307.42857142857144</ele><time>2026-04-19T08:34:03.124Z</time></trkpt><trkpt lat="43.3329386" lon="11.31699"><ele>308.57142857142856</ele><time>2026-04-19T08:34:06.124Z</time></trkpt><trkpt lat="43.3329708" lon="11.3169008"><ele>309.71428571428567</ele><time>2026-04-19T08:34:09.132Z</time></trkpt><trkpt lat="43.3329937" lon="11.3168147"><ele>310.8571428571429</ele><time>2026-04-19T08:34:12.111Z</time></trkpt><trkpt lat="43.3330262" lon="11.3167324"><ele>312.0</ele><time>2026-04-19T08:34:15.127Z</time></trkpt><trkpt lat="43.333052" lon="11.3166521"><ele>310.8571428571429</ele><time>2026-04-19T08:34:18.132Z</time></trkpt><trkpt lat="43.3330737" lon="11.3165531"><ele>309.71428571428567</ele><time>2026-04-19T08:34:21.13Z</time></trkpt><trkpt lat="43.3330945" lon="11.3164638"><ele>308.57142857142856</ele><time>2026-04-19T08:34:24.134Z</time></trkpt><trkpt lat="43.3331099" lon="11.3163786"><ele>307.42857142857144</ele><time>2026-04-19T08:34:27.136Z</time></trkpt><trkpt lat="43.3331312" lon="11.3162859"><ele>306.28571428571433</ele><time>2026-04-19T08:34:30.126Z</time></trkpt><trkpt lat="43.333146" lon="11.3161919"><ele>305.1428571428571</ele><time>2026-04-19T08:34:33.132Z</time></trkpt><trkpt lat="43.3331763" lon="11.3160916"><ele>304.0</ele><time>2026-04-19T08:34:36.128Z</time></trkpt><trkpt lat="43.3332066" lon="11.3159878"><ele>304.0</ele><time>2026-04-19T08:34:39.126Z</time></trkpt><trkpt lat="43.3332412" lon="11.3158924"><ele>304.0</ele><time>2026-04-19T08:34:42.137Z</time></trkpt><trkpt lat="43.3332643" lon="11.3157866"><ele>304.0</ele><time>2026-04-19T08:34:45.125Z</time></trkpt><trkpt lat="43.3332931" lon="11.3156841"><ele>304.0</ele><time>2026-04-19T08:34:48.108Z</time></trkpt><trkpt lat="43.3333158" lon="11.3155834"><ele>304.0</ele><time>2026-04-19T08:34:51.124Z</time></trkpt><trkpt lat="43.3333348" lon="11.3154849"><ele>304.0</ele><time>2026-04-19T08:34:54.128Z</time></trkpt><trkpt lat="43.3333546" lon="11.3153774"><ele>304.8333333333333</ele><time>2026-04-19T08:34:57.122Z</time></trkpt><trkpt lat="43.3333714" lon="11.3152755"><ele>305.66666666666663</ele><time>2026-04-19T08:35:00.146Z</time></trkpt><trkpt lat="43.3333861" lon="11.3151685"><ele>306.5</ele><time>2026-04-19T08:35:03.134Z</time></trkpt><trkpt lat="43.3333877" lon="11.3150666"><ele>307.3333333333333</ele><time>2026-04-19T08:35:06.124Z</time></trkpt><trkpt lat="43.3333906" lon="11.3149582"><ele>308.1666666666667</ele><time>2026-04-19T08:35:09.13Z</time></trkpt><trkpt lat="43.3333945" lon="11.3148487"><ele>309.0</ele><time>2026-04-19T08:35:12.125Z</time></trkpt><trkpt lat="43.3333873" lon="11.3147393"><ele>309.5</ele><time>2026-04-19T08:35:15.125Z</time></trkpt><trkpt lat="43.3333909" lon="11.3146269"><ele>310.0</ele><time>2026-04-19T08:35:18.13Z</time></trkpt><trkpt lat="43.3333902" lon="11.3145116"><ele>310.5</ele><time>2026-04-19T08:35:21.125Z</time></trkpt><trkpt lat="43.333389" lon="11.3144019"><ele>311.0</ele><time>2026-04-19T08:35:24.133Z</time></trkpt><trkpt lat="43.3333899" lon="11.3142931"><ele>311.5</ele><time>2026-04-19T08:35:27.12Z</time></trkpt><trkpt lat="43.3333964" lon="11.3141781"><ele>312.0</ele><time>2026-04-19T08:35:30.127Z</time></trkpt><trkpt lat="43.3334024" lon="11.3140616"><ele>312.0</ele><time>2026-04-19T08:35:33.116Z</time></trkpt><trkpt lat="43.3334035" lon="11.3139559"><ele>312.0</ele><time>2026-04-19T08:35:36.121Z</time></trkpt><trkpt lat="43.3334108" lon="11.3138373"><ele>312.0</ele><time>2026-04-19T08:35:39.124Z</time></trkpt><trkpt lat="43.3334141" lon="11.3137338"><ele>312.0</ele><time>2026-04-19T08:35:42.134Z</time></trkpt><trkpt lat="43.3334181" lon="11.3136212"><ele>312.0</ele><time>2026-04-19T08:35:45.118Z</time></trkpt><trkpt lat="43.333419" lon="11.3135076"><ele>312.0</ele><time>2026-04-19T08:35:48.126Z</time></trkpt><trkpt lat="43.3334325" lon="11.3133954"><ele>312.5</ele><time>2026-04-19T08:35:51.119Z</time></trkpt><trkpt lat="43.3334342" lon="11.3133068"><ele>313.0</ele><time>2026-04-19T08:35:53.127Z</time></trkpt><trkpt lat="43.3334368" lon="11.3131784"><ele>313.5</ele><time>2026-04-19T08:35:56.127Z</time></trkpt><trkpt lat="43.3334372" lon="11.3130606"><ele>314.0</ele><time>2026-04-19T08:35:59.115Z</time></trkpt><trkpt lat="43.333438" lon="11.312954"><ele>314.5</ele><time>2026-04-19T08:36:02.126Z</time></trkpt><trkpt lat="43.3334383" lon="11.3128416"><ele>315.0</ele><time>2026-04-19T08:36:05.141Z</time></trkpt><trkpt lat="43.3334458" lon="11.3127292"><ele>316.3333333333333</ele><time>2026-04-19T08:36:08.129Z</time></trkpt><trkpt lat="43.3334578" lon="11.312627"><ele>317.6666666666667</ele><time>2026-04-19T08:36:11.128Z</time></trkpt><trkpt lat="43.3334758" lon="11.3125329"><ele>319.0</ele><time>2026-04-19T08:36:14.123Z</time></trkpt><trkpt lat="43.3335106" lon="11.3124282"><ele>320.33333333333337</ele><time>2026-04-19T08:36:18.131Z</time></trkpt><trkpt lat="43.3335354" lon="11.3123326"><ele>321.6666666666667</ele><time>2026-04-19T08:36:21.129Z</time></trkpt><trkpt lat="43.3335601" lon="11.3122429"><ele>323.0</ele><time>2026-04-19T08:36:24.127Z</time></trkpt><trkpt lat="43.3335937" lon="11.3121328"><ele>324.28571428571433</ele><time>2026-04-19T08:36:28.129Z</time></trkpt><trkpt lat="43.3336266" lon="11.3120584"><ele>325.57142857142856</ele><time>2026-04-19T08:36:31.127Z</time></trkpt><trkpt lat="43.3336663" lon="11.3119571"><ele>326.8571428571429</ele><time>2026-04-19T08:36:35.125Z</time></trkpt><trkpt lat="43.3336989" lon="11.3118819"><ele>328.14285714285717</ele><time>2026-04-19T08:36:38.112Z</time></trkpt><trkpt lat="43.3337296" lon="11.3118035"><ele>329.42857142857144</ele><time>2026-04-19T08:36:41.133Z</time></trkpt><trkpt lat="43.3337604" lon="11.3117277"><ele>330.7142857142857</ele><time>2026-04-19T08:36:44.136Z</time></trkpt><trkpt lat="43.3338012" lon="11.311652"><ele>332.0</ele><time>2026-04-19T08:36:47.124Z</time></trkpt><trkpt lat="43.3338354" lon="11.3115563"><ele>332.0</ele><time>2026-04-19T08:36:51.121Z</time></trkpt><trkpt lat="43.333867" lon="11.3114802"><ele>332.0</ele><time>2026-04-19T08:36:54.128Z</time></trkpt><trkpt lat="43.3338945" lon="11.3113927"><ele>332.0</ele><time>2026-04-19T08:36:58.124Z</time></trkpt><trkpt lat="43.3339173" lon="11.3113117"><ele>332.0</ele><time>2026-04-19T08:37:02.114Z</time></trkpt><trkpt lat="43.3339557" lon="11.3112217"><ele>332.0</ele><time>2026-04-19T08:37:06.123Z</time></trkpt><trkpt lat="43.3339908" lon="11.3111454"><ele>332.0</ele><time>2026-04-19T08:37:10.115Z</time></trkpt><trkpt lat="43.33403" lon="11.3110648"><ele>332.0</ele><time>2026-04-19T08:37:14.139Z</time></trkpt><trkpt lat="43.3340685" lon="11.3109954"><ele>331.2857142857143</ele><time>2026-04-19T08:37:18.116Z</time></trkpt><trkpt lat="43.3341184" lon="11.3109152"><ele>330.5714285714286</ele><time>2026-04-19T08:37:22.122Z</time></trkpt><trkpt lat="43.3341586" lon="11.3108428"><ele>329.8571428571429</ele><time>2026-04-19T08:37:26.122Z</time></trkpt><trkpt lat="43.3341894" lon="11.3107608"><ele>329.1428571428571</ele><time>2026-04-19T08:37:30.123Z</time></trkpt><trkpt lat="43.3342163" lon="11.3106754"><ele>328.42857142857144</ele><time>2026-04-19T08:37:34.117Z</time></trkpt><trkpt lat="43.3342381" lon="11.3105919"><ele>327.7142857142857</ele><time>2026-04-19T08:37:37.124Z</time></trkpt><trkpt lat="43.3342822" lon="11.310494"><ele>327.0</ele><time>2026-04-19T08:37:41.121Z</time></trkpt><trkpt lat="43.334317" lon="11.3104082"><ele>328.7142857142857</ele><time>2026-04-19T08:37:45.133Z</time></trkpt><trkpt lat="43.3343456" lon="11.3103142"><ele>330.42857142857144</ele><time>2026-04-19T08:37:49.13Z</time></trkpt><trkpt lat="43.3343881" lon="11.3102305"><ele>332.1428571428571</ele><time>2026-04-19T08:37:53.13Z</time></trkpt><trkpt lat="43.3344396" lon="11.3101542"><ele>333.8571428571429</ele><time>2026-04-19T08:37:57.132Z</time></trkpt><trkpt lat="43.3344705" lon="11.3100778"><ele>335.5714285714286</ele><time>2026-04-19T08:38:00.132Z</time></trkpt><trkpt lat="43.3344876" lon="11.3099905"><ele>337.2857142857143</ele><time>2026-04-19T08:38:03.129Z</time></trkpt><trkpt lat="43.3344802" lon="11.309902"><ele>339.0</ele><time>2026-04-19T08:38:06.132Z</time></trkpt><trkpt lat="43.3344517" lon="11.3098178"><ele>339.8333333333333</ele><time>2026-04-19T08:38:09.131Z</time></trkpt><trkpt lat="43.3344127" lon="11.309724"><ele>340.6666666666667</ele><time>2026-04-19T08:38:12.126Z</time></trkpt><trkpt lat="43.3343955" lon="11.30963"><ele>341.5</ele><time>2026-04-19T08:38:15.124Z</time></trkpt><trkpt lat="43.3344068" lon="11.3095308"><ele>342.33333333333337</ele><time>2026-04-19T08:38:18.12Z</time></trkpt><trkpt lat="43.334455" lon="11.3094445"><ele>343.1666666666667</ele><time>2026-04-19T08:38:21.128Z</time></trkpt><trkpt lat="43.3345261" lon="11.3093756"><ele>344.0</ele><time>2026-04-19T08:38:24.125Z</time></trkpt><trkpt lat="43.3345985" lon="11.3093008"><ele>344.0</ele><time>2026-04-19T08:38:27.126Z</time></trkpt><trkpt lat="43.3346759" lon="11.3092375"><ele>344.0</ele><time>2026-04-19T08:38:30.125Z</time></trkpt><trkpt lat="43.3347296" lon="11.3091855"><ele>344.0</ele><time>2026-04-19T08:38:32.143Z</time></trkpt><trkpt lat="43.334787" lon="11.3091307"><ele>344.0</ele><time>2026-04-19T08:38:34.129Z</time></trkpt><trkpt lat="43.3348588" lon="11.3090887"><ele>344.0</ele><time>2026-04-19T08:38:36.124Z</time></trkpt><trkpt lat="43.3349277" lon="11.3090358"><ele>344.0</ele><time>2026-04-19T08:38:38.144Z</time></trkpt><trkpt lat="43.3350006" lon="11.3089811"><ele>343.83333333333337</ele><time>2026-04-19T08:38:40.122Z</time></trkpt><trkpt lat="43.3350773" lon="11.3089277"><ele>343.6666666666667</ele><time>2026-04-19T08:38:42.128Z</time></trkpt><trkpt lat="43.3351496" lon="11.3088844"><ele>343.5</ele><time>2026-04-19T08:38:44.13Z</time></trkpt><trkpt lat="43.3352227" lon="11.3088374"><ele>343.3333333333333</ele><time>2026-04-19T08:38:46.119Z</time></trkpt><trkpt lat="43.3352952" lon="11.3087866"><ele>343.16666666666663</ele><time>2026-04-19T08:38:48.128Z</time></trkpt><trkpt lat="43.3353684" lon="11.3087337"><ele>343.0</ele><time>2026-04-19T08:38:50.126Z</time></trkpt><trkpt lat="43.3354311" lon="11.3086789"><ele>342.8333333333333</ele><time>2026-04-19T08:38:52.119Z</time></trkpt><trkpt lat="43.3354985" lon="11.3086255"><ele>342.66666666666663</ele><time>2026-04-19T08:38:54.124Z</time></trkpt><trkpt lat="43.3355692" lon="11.3085731"><ele>342.5</ele><time>2026-04-19T08:38:56.134Z</time></trkpt><trkpt lat="43.3356369" lon="11.3085126"><ele>342.3333333333333</ele><time>2026-04-19T08:38:58.127Z</time></trkpt><trkpt lat="43.335704" lon="11.3084561"><ele>342.1666666666667</ele><time>2026-04-19T08:39:00.121Z</time></trkpt><trkpt lat="43.3357759" lon="11.3083981"><ele>342.0</ele><time>2026-04-19T08:39:02.116Z</time></trkpt><trkpt lat="43.3358439" lon="11.3083453"><ele>342.1428571428571</ele><time>2026-04-19T08:39:04.135Z</time></trkpt><trkpt lat="43.3359092" lon="11.3082923"><ele>342.2857142857143</ele><time>2026-04-19T08:39:06.119Z</time></trkpt><trkpt lat="43.3359685" lon="11.3082364"><ele>342.42857142857144</ele><time>2026-04-19T08:39:08.1Z</time></trkpt><trkpt lat="43.3360306" lon="11.3081859"><ele>342.57142857142856</ele><time>2026-04-19T08:39:10.111Z</time></trkpt><trkpt lat="43.336089" lon="11.3081412"><ele>342.7142857142857</ele><time>2026-04-19T08:39:12.124Z</time></trkpt><trkpt lat="43.3361456" lon="11.3080955"><ele>342.85714285714283</ele><time>2026-04-19T08:39:14.124Z</time></trkpt><trkpt lat="43.3362066" lon="11.3080536"><ele>343.0</ele><time>2026-04-19T08:39:16.117Z</time></trkpt><trkpt lat="43.3362903" lon="11.3079934"><ele>343.0</ele><time>2026-04-19T08:39:19.13Z</time></trkpt><trkpt lat="43.3363527" lon="11.3079568"><ele>343.0</ele><time>2026-04-19T08:39:21.123Z</time></trkpt><trkpt lat="43.3364142" lon="11.3079192"><ele>343.0</ele><time>2026-04-19T08:39:23.125Z</time></trkpt><trkpt lat="43.3364682" lon="11.307874"><ele>343.0</ele><time>2026-04-19T08:39:25.122Z</time></trkpt><trkpt lat="43.3365269" lon="11.3078354"><ele>343.0</ele><time>2026-04-19T08:39:27.13Z</time></trkpt><trkpt lat="43.3366096" lon="11.3077863"><ele>343.0</ele><time>2026-04-19T08:39:30.135Z</time></trkpt><trkpt lat="43.3366937" lon="11.3077391"><ele>343.0</ele><time>2026-04-19T08:39:33.125Z</time></trkpt><trkpt lat="43.3367779" lon="11.3076978"><ele>343.8333333333333</ele><time>2026-04-19T08:39:36.119Z</time></trkpt><trkpt lat="43.3368412" lon="11.3076694"><ele>344.66666666666663</ele><time>2026-04-19T08:39:38.126Z</time></trkpt><trkpt lat="43.3369267" lon="11.3076168"><ele>345.5</ele><time>2026-04-19T08:39:41.124Z</time></trkpt><trkpt lat="43.3369892" lon="11.3075846"><ele>346.3333333333333</ele><time>2026-04-19T08:39:43.129Z</time></trkpt><trkpt lat="43.3370719" lon="11.3075262"><ele>347.1666666666667</ele><time>2026-04-19T08:39:46.125Z</time></trkpt><trkpt lat="43.337129" lon="11.3074823"><ele>348.0</ele><time>2026-04-19T08:39:48.128Z</time></trkpt><trkpt lat="43.3372102" lon="11.3074247"><ele>348.0</ele><time>2026-04-19T08:39:51.129Z</time></trkpt><trkpt lat="43.3372957" lon="11.3073644"><ele>348.0</ele><time>2026-04-19T08:39:54.108Z</time></trkpt><trkpt lat="43.3373556" lon="11.3073261"><ele>348.0</ele><time>2026-04-19T08:39:56.132Z</time></trkpt><trkpt lat="43.3374173" lon="11.307286"><ele>348.0</ele><time>2026-04-19T08:39:58.125Z</time></trkpt><trkpt lat="43.3374806" lon="11.3072527"><ele>348.0</ele><time>2026-04-19T08:40:00.127Z</time></trkpt><trkpt lat="43.3375438" lon="11.3072131"><ele>348.0</ele><time>2026-04-19T08:40:02.124Z</time></trkpt><trkpt lat="43.3376041" lon="11.3071749"><ele>348.0</ele><time>2026-04-19T08:40:04.107Z</time></trkpt><trkpt lat="43.3376686" lon="11.3071422"><ele>347.7142857142857</ele><time>2026-04-19T08:40:06.121Z</time></trkpt><trkpt lat="43.3377338" lon="11.3071147"><ele>347.42857142857144</ele><time>2026-04-19T08:40:08.149Z</time></trkpt><trkpt lat="43.3378012" lon="11.3070955"><ele>347.1428571428571</ele><time>2026-04-19T08:40:10.128Z</time></trkpt><trkpt lat="43.3378662" lon="11.3070752"><ele>346.8571428571429</ele><time>2026-04-19T08:40:12.132Z</time></trkpt><trkpt lat="43.3379315" lon="11.3070579"><ele>346.5714285714286</ele><time>2026-04-19T08:40:14.118Z</time></trkpt><trkpt lat="43.3379945" lon="11.3070325"><ele>346.2857142857143</ele><time>2026-04-19T08:40:16.132Z</time></trkpt><trkpt lat="43.3380639" lon="11.3070006"><ele>346.0</ele><time>2026-04-19T08:40:18.119Z</time></trkpt><trkpt lat="43.338132" lon="11.306976"><ele>346.66666666666663</ele><time>2026-04-19T08:40:20.108Z</time></trkpt><trkpt lat="43.3382219" lon="11.3069417"><ele>347.3333333333333</ele><time>2026-04-19T08:40:23.124Z</time></trkpt><trkpt lat="43.3382866" lon="11.306916"><ele>348.0</ele><time>2026-04-19T08:40:25.12Z</time></trkpt><trkpt lat="43.3383554" lon="11.30689"><ele>348.6666666666667</ele><time>2026-04-19T08:40:27.122Z</time></trkpt><trkpt lat="43.3384175" lon="11.3068481"><ele>349.33333333333337</ele><time>2026-04-19T08:40:29.148Z</time></trkpt><trkpt lat="43.3384776" lon="11.3067738"><ele>350.0</ele><time>2026-04-19T08:40:31.123Z</time></trkpt><trkpt lat="43.3385389" lon="11.3066695"><ele>350.0</ele><time>2026-04-19T08:40:33.122Z</time></trkpt><trkpt lat="43.3385968" lon="11.3065369"><ele>350.0</ele><time>2026-04-19T08:40:35.127Z</time></trkpt><trkpt lat="43.338657" lon="11.3063916"><ele>350.0</ele><time>2026-04-19T08:40:37.118Z</time></trkpt><trkpt lat="43.3386917" lon="11.3063124"><ele>350.0</ele><time>2026-04-19T08:40:38.127Z</time></trkpt><trkpt lat="43.3387308" lon="11.3062341"><ele>350.0</ele><time>2026-04-19T08:40:39.121Z</time></trkpt><trkpt lat="43.3387723" lon="11.3061505"><ele>350.0</ele><time>2026-04-19T08:40:40.124Z</time></trkpt><trkpt lat="43.3388207" lon="11.3060747"><ele>350.83333333333337</ele><time>2026-04-19T08:40:41.121Z</time></trkpt><trkpt lat="43.3388786" lon="11.3060082"><ele>351.6666666666667</ele><time>2026-04-19T08:40:42.13Z</time></trkpt><trkpt lat="43.3389503" lon="11.3059521"><ele>352.5</ele><time>2026-04-19T08:40:43.128Z</time></trkpt><trkpt lat="43.3390262" lon="11.3059022"><ele>353.3333333333333</ele><time>2026-04-19T08:40:44.131Z</time></trkpt><trkpt lat="43.339105" lon="11.3058687"><ele>354.16666666666663</ele><time>2026-04-19T08:40:45.128Z</time></trkpt><trkpt lat="43.3391898" lon="11.3058627"><ele>355.0</ele><time>2026-04-19T08:40:46.124Z</time></trkpt><trkpt lat="43.3392837" lon="11.3058614"><ele>353.16666666666663</ele><time>2026-04-19T08:40:47.114Z</time></trkpt><trkpt lat="43.3393733" lon="11.3058629"><ele>351.3333333333333</ele><time>2026-04-19T08:40:48.124Z</time></trkpt><trkpt lat="43.3394609" lon="11.3058591"><ele>349.5</ele><time>2026-04-19T08:40:49.135Z</time></trkpt><trkpt lat="43.3395464" lon="11.3058578"><ele>347.6666666666667</ele><time>2026-04-19T08:40:50.111Z</time></trkpt><trkpt lat="43.3396316" lon="11.3058566"><ele>345.83333333333337</ele><time>2026-04-19T08:40:51.118Z</time></trkpt><trkpt lat="43.3397155" lon="11.3058589"><ele>344.0</ele><time>2026-04-19T08:40:52.124Z</time></trkpt><trkpt lat="43.3398" lon="11.3058662"><ele>343.5</ele><time>2026-04-19T08:40:53.12Z</time></trkpt><trkpt lat="43.3398855" lon="11.3058742"><ele>343.0</ele><time>2026-04-19T08:40:54.133Z</time></trkpt><trkpt lat="43.3399697" lon="11.305885"><ele>342.5</ele><time>2026-04-19T08:40:55.125Z</time></trkpt><trkpt lat="43.3400538" lon="11.3058969"><ele>342.0</ele><time>2026-04-19T08:40:56.136Z</time></trkpt><trkpt lat="43.3401388" lon="11.3059074"><ele>341.5</ele><time>2026-04-19T08:40:57.136Z</time></trkpt><trkpt lat="43.3402211" lon="11.3059174"><ele>341.0</ele><time>2026-04-19T08:40:58.135Z</time></trkpt><trkpt lat="43.3403012" lon="11.3059252"><ele>341.0</ele><time>2026-04-19T08:40:59.127Z</time></trkpt><trkpt lat="43.3403827" lon="11.3059312"><ele>341.0</ele><time>2026-04-19T08:41:00.116Z</time></trkpt><trkpt lat="43.3404599" lon="11.3059417"><ele>341.0</ele><time>2026-04-19T08:41:01.11Z</time></trkpt><trkpt lat="43.3405404" lon="11.3059506"><ele>341.0</ele><time>2026-04-19T08:41:02.121Z</time></trkpt><trkpt lat="43.3406205" lon="11.3059563"><ele>341.0</ele><time>2026-04-19T08:41:03.128Z</time></trkpt><trkpt lat="43.3407035" lon="11.3059643"><ele>341.0</ele><time>2026-04-19T08:41:04.125Z</time></trkpt><trkpt lat="43.3407883" lon="11.3059761"><ele>340.7142857142857</ele><time>2026-04-19T08:41:05.122Z</time></trkpt><trkpt lat="43.3408694" lon="11.3059797"><ele>340.42857142857144</ele><time>2026-04-19T08:41:06.134Z</time></trkpt><trkpt lat="43.3409472" lon="11.3059801"><ele>340.1428571428571</ele><time>2026-04-19T08:41:07.128Z</time></trkpt><trkpt lat="43.3410237" lon="11.3059779"><ele>339.8571428571429</ele><time>2026-04-19T08:41:08.126Z</time></trkpt><trkpt lat="43.3410957" lon="11.3059806"><ele>339.5714285714286</ele><time>2026-04-19T08:41:09.126Z</time></trkpt><trkpt lat="43.3411662" lon="11.3059811"><ele>339.2857142857143</ele><time>2026-04-19T08:41:10.131Z</time></trkpt><trkpt lat="43.341234" lon="11.3059828"><ele>339.0</ele><time>2026-04-19T08:41:11.118Z</time></trkpt><trkpt lat="43.3413018" lon="11.3059876"><ele>339.0</ele><time>2026-04-19T08:41:12.125Z</time></trkpt><trkpt lat="43.3413686" lon="11.3059956"><ele>339.0</ele><time>2026-04-19T08:41:13.138Z</time></trkpt><trkpt lat="43.3414356" lon="11.3060058"><ele>339.0</ele><time>2026-04-19T08:41:14.121Z</time></trkpt><trkpt lat="43.3415007" lon="11.3060118"><ele>339.0</ele><time>2026-04-19T08:41:15.141Z</time></trkpt><trkpt lat="43.3415647" lon="11.3060186"><ele>339.0</ele><time>2026-04-19T08:41:16.134Z</time></trkpt><trkpt lat="43.3416308" lon="11.306024"><ele>339.0</ele><time>2026-04-19T08:41:17.125Z</time></trkpt><trkpt lat="43.3417566" lon="11.3060232"><ele>338.6</ele><time>2026-04-19T08:41:19.134Z</time></trkpt><trkpt lat="43.3418203" lon="11.30602"><ele>338.2</ele><time>2026-04-19T08:41:20.124Z</time></trkpt><trkpt lat="43.3418839" lon="11.306015"><ele>337.8</ele><time>2026-04-19T08:41:21.142Z</time></trkpt><trkpt lat="43.3420074" lon="11.3059965"><ele>337.40000000000003</ele><time>2026-04-19T08:41:23.133Z</time></trkpt><trkpt lat="43.3421309" lon="11.3059888"><ele>337.0</ele><time>2026-04-19T08:41:25.121Z</time></trkpt><trkpt lat="43.342256" lon="11.3059867"><ele>336.8333333333333</ele><time>2026-04-19T08:41:27.125Z</time></trkpt><trkpt lat="43.3423227" lon="11.3059725"><ele>336.66666666666663</ele><time>2026-04-19T08:41:28.134Z</time></trkpt><trkpt lat="43.3423892" lon="11.3059638"><ele>336.5</ele><time>2026-04-19T08:41:29.133Z</time></trkpt><trkpt lat="43.3424548" lon="11.3059566"><ele>336.3333333333333</ele><time>2026-04-19T08:41:30.127Z</time></trkpt><trkpt lat="43.3425764" lon="11.3059323"><ele>336.1666666666667</ele><time>2026-04-19T08:41:32.124Z</time></trkpt><trkpt lat="43.3426938" lon="11.305918"><ele>336.0</ele><time>2026-04-19T08:41:34.128Z</time></trkpt><trkpt lat="43.3428137" lon="11.3059187"><ele>336.0</ele><time>2026-04-19T08:41:36.131Z</time></trkpt><trkpt lat="43.3429342" lon="11.3058999"><ele>336.0</ele><time>2026-04-19T08:41:38.133Z</time></trkpt><trkpt lat="43.3430519" lon="11.3058665"><ele>336.0</ele><time>2026-04-19T08:41:40.129Z</time></trkpt><trkpt lat="43.3431661" lon="11.3058353"><ele>336.0</ele><time>2026-04-19T08:41:42.129Z</time></trkpt><trkpt lat="43.3432732" lon="11.3058394"><ele>336.1666666666667</ele><time>2026-04-19T08:41:44.129Z</time></trkpt><trkpt lat="43.3433704" lon="11.305802"><ele>336.3333333333333</ele><time>2026-04-19T08:41:46.122Z</time></trkpt><trkpt lat="43.343467" lon="11.3056975"><ele>336.5</ele><time>2026-04-19T08:41:48.118Z</time></trkpt><trkpt lat="43.3435176" lon="11.3056245"><ele>336.66666666666663</ele><time>2026-04-19T08:41:49.125Z</time></trkpt><trkpt lat="43.3435615" lon="11.3055512"><ele>336.8333333333333</ele><time>2026-04-19T08:41:50.12Z</time></trkpt><trkpt lat="43.3436052" lon="11.3054801"><ele>337.0</ele><time>2026-04-19T08:41:51.136Z</time></trkpt><trkpt lat="43.3436735" lon="11.3053591"><ele>337.0</ele><time>2026-04-19T08:41:53.131Z</time></trkpt><trkpt lat="43.3437088" lon="11.3052514"><ele>337.0</ele><time>2026-04-19T08:41:55.128Z</time></trkpt><trkpt lat="43.3437288" lon="11.3051616"><ele>337.0</ele><time>2026-04-19T08:41:57.131Z</time></trkpt><trkpt lat="43.3437464" lon="11.3050753"><ele>337.0</ele><time>2026-04-19T08:41:59.127Z</time></trkpt><trkpt lat="43.3437671" lon="11.3049835"><ele>337.0</ele><time>2026-04-19T08:42:01.134Z</time></trkpt><trkpt lat="43.3437762" lon="11.3048684"><ele>337.0</ele><time>2026-04-19T08:42:03.141Z</time></trkpt><trkpt lat="43.3437881" lon="11.3047645"><ele>337.5</ele><time>2026-04-19T08:42:05.137Z</time></trkpt><trkpt lat="43.3438054" lon="11.3046563"><ele>338.0</ele><time>2026-04-19T08:42:07.127Z</time></trkpt><trkpt lat="43.3438268" lon="11.3045545"><ele>338.5</ele><time>2026-04-19T08:42:09.125Z</time></trkpt><trkpt lat="43.3438458" lon="11.3044536"><ele>339.0</ele><time>2026-04-19T08:42:11.121Z</time></trkpt><trkpt lat="43.3438607" lon="11.3043569"><ele>339.5</ele><time>2026-04-19T08:42:13.133Z</time></trkpt><trkpt lat="43.3438807" lon="11.3042646"><ele>340.0</ele><time>2026-04-19T08:42:15.133Z</time></trkpt><trkpt lat="43.3439074" lon="11.304169"><ele>340.8333333333333</ele><time>2026-04-19T08:42:17.141Z</time></trkpt><trkpt lat="43.3439257" lon="11.304078"><ele>341.66666666666663</ele><time>2026-04-19T08:42:19.14Z</time></trkpt><trkpt lat="43.3439444" lon="11.3039895"><ele>342.5</ele><time>2026-04-19T08:42:21.116Z</time></trkpt><trkpt lat="43.3439619" lon="11.3039021"><ele>343.3333333333333</ele><time>2026-04-19T08:42:23.126Z</time></trkpt><trkpt lat="43.3439822" lon="11.3037786"><ele>344.1666666666667</ele><time>2026-04-19T08:42:26.12Z</time></trkpt><trkpt lat="43.3440046" lon="11.3036655"><ele>345.0</ele><time>2026-04-19T08:42:29.125Z</time></trkpt><trkpt lat="43.3440281" lon="11.3035524"><ele>346.3333333333333</ele><time>2026-04-19T08:42:32.107Z</time></trkpt><trkpt lat="43.3440458" lon="11.3034646"><ele>347.6666666666667</ele><time>2026-04-19T08:42:34.114Z</time></trkpt><trkpt lat="43.3440622" lon="11.3033765"><ele>349.0</ele><time>2026-04-19T08:42:36.129Z</time></trkpt><trkpt lat="43.3440698" lon="11.3032529"><ele>350.33333333333337</ele><time>2026-04-19T08:42:39.131Z</time></trkpt><trkpt lat="43.344089" lon="11.3031481"><ele>351.6666666666667</ele><time>2026-04-19T08:42:42.132Z</time></trkpt><trkpt lat="43.3441073" lon="11.3030348"><ele>353.0</ele><time>2026-04-19T08:42:45.125Z</time></trkpt><trkpt lat="43.3441256" lon="11.3029171"><ele>353.1428571428571</ele><time>2026-04-19T08:42:48.126Z</time></trkpt><trkpt lat="43.3441446" lon="11.302807"><ele>353.28571428571433</ele><time>2026-04-19T08:42:51.106Z</time></trkpt><trkpt lat="43.3441492" lon="11.3026995"><ele>353.42857142857144</ele><time>2026-04-19T08:42:54.115Z</time></trkpt><trkpt lat="43.3441562" lon="11.3026081"><ele>353.57142857142856</ele><time>2026-04-19T08:42:57.117Z</time></trkpt><trkpt lat="43.3441777" lon="11.3025182"><ele>353.71428571428567</ele><time>2026-04-19T08:43:00.131Z</time></trkpt><trkpt lat="43.3441995" lon="11.3024089"><ele>353.8571428571429</ele><time>2026-04-19T08:43:03.129Z</time></trkpt><trkpt lat="43.3442148" lon="11.3023151"><ele>354.0</ele><time>2026-04-19T08:43:06.126Z</time></trkpt><trkpt lat="43.3442412" lon="11.3022274"><ele>354.1666666666667</ele><time>2026-04-19T08:43:09.12Z</time></trkpt><trkpt lat="43.34427" lon="11.3021211"><ele>354.3333333333333</ele><time>2026-04-19T08:43:12.124Z</time></trkpt><trkpt lat="43.3442967" lon="11.3020128"><ele>354.5</ele><time>2026-04-19T08:43:15.122Z</time></trkpt><trkpt lat="43.3443246" lon="11.3019106"><ele>354.66666666666663</ele><time>2026-04-19T08:43:18.122Z</time></trkpt><trkpt lat="43.3443485" lon="11.3017992"><ele>354.8333333333333</ele><time>2026-04-19T08:43:21.121Z</time></trkpt><trkpt lat="43.344373" lon="11.3016996"><ele>355.0</ele><time>2026-04-19T08:43:24.132Z</time></trkpt><trkpt lat="43.3443966" lon="11.3015894"><ele>355.0</ele><time>2026-04-19T08:43:27.115Z</time></trkpt><trkpt lat="43.3444323" lon="11.3014775"><ele>355.0</ele><time>2026-04-19T08:43:30.126Z</time></trkpt><trkpt lat="43.344463" lon="11.3013537"><ele>355.0</ele><time>2026-04-19T08:43:33.122Z</time></trkpt><trkpt lat="43.3444859" lon="11.3012325"><ele>355.0</ele><time>2026-04-19T08:43:36.131Z</time></trkpt><trkpt lat="43.3445018" lon="11.3011484"><ele>355.0</ele><time>2026-04-19T08:43:38.127Z</time></trkpt><trkpt lat="43.3445205" lon="11.3010267"><ele>355.0</ele><time>2026-04-19T08:43:41.125Z</time></trkpt><trkpt lat="43.3445404" lon="11.3009084"><ele>354.0</ele><time>2026-04-19T08:43:44.125Z</time></trkpt><trkpt lat="43.3445568" lon="11.3007918"><ele>353.0</ele><time>2026-04-19T08:43:47.148Z</time></trkpt><trkpt lat="43.3445646" lon="11.3006725"><ele>352.0</ele><time>2026-04-19T08:43:50.121Z</time></trkpt><trkpt lat="43.3445747" lon="11.300549"><ele>351.0</ele><time>2026-04-19T08:43:53.129Z</time></trkpt><trkpt lat="43.3445913" lon="11.3004316"><ele>350.0</ele><time>2026-04-19T08:43:56.133Z</time></trkpt><trkpt lat="43.3446025" lon="11.3003099"><ele>349.0</ele><time>2026-04-19T08:43:59.132Z</time></trkpt><trkpt lat="43.3446095" lon="11.3001832"><ele>349.0</ele><time>2026-04-19T08:44:02.136Z</time></trkpt><trkpt lat="43.3446455" lon="11.3000692"><ele>349.0</ele><time>2026-04-19T08:44:05.227Z</time></trkpt><trkpt lat="43.3446916" lon="11.2999706"><ele>349.0</ele><time>2026-04-19T08:44:08.123Z</time></trkpt><trkpt lat="43.3447478" lon="11.2998763"><ele>349.0</ele><time>2026-04-19T08:44:11.118Z</time></trkpt><trkpt lat="43.3447896" lon="11.2997897"><ele>349.0</ele><time>2026-04-19T08:44:13.125Z</time></trkpt><trkpt lat="43.3448374" lon="11.2996675"><ele>349.0</ele><time>2026-04-19T08:44:15.115Z</time></trkpt><trkpt lat="43.3448817" lon="11.2995255"><ele>350.0</ele><time>2026-04-19T08:44:17.123Z</time></trkpt><trkpt lat="43.3449176" lon="11.2994378"><ele>351.0</ele><time>2026-04-19T08:44:18.13Z</time></trkpt><trkpt lat="43.3449428" lon="11.299348"><ele>352.0</ele><time>2026-04-19T08:44:19.119Z</time></trkpt><trkpt lat="43.344964" lon="11.2992471"><ele>353.0</ele><time>2026-04-19T08:44:20.13Z</time></trkpt><trkpt lat="43.3449926" lon="11.2991396"><ele>354.0</ele><time>2026-04-19T08:44:21.136Z</time></trkpt><trkpt lat="43.345025" lon="11.2990307"><ele>355.0</ele><time>2026-04-19T08:44:22.114Z</time></trkpt><trkpt lat="43.3450575" lon="11.2989241"><ele>355.5</ele><time>2026-04-19T08:44:23.115Z</time></trkpt><trkpt lat="43.3450937" lon="11.2988085"><ele>356.0</ele><time>2026-04-19T08:44:24.123Z</time></trkpt><trkpt lat="43.3451437" lon="11.2987325"><ele>356.5</ele><time>2026-04-19T08:44:25.176Z</time></trkpt><trkpt lat="43.3451895" lon="11.2986562"><ele>357.0</ele><time>2026-04-19T08:44:26.188Z</time></trkpt><trkpt lat="43.3452374" lon="11.2985939"><ele>357.5</ele><time>2026-04-19T08:44:27.204Z</time></trkpt><trkpt lat="43.3453473" lon="11.2985338"><ele>358.0</ele><time>2026-04-19T08:44:29.122Z</time></trkpt><trkpt lat="43.3454486" lon="11.2985179"><ele>358.0</ele><time>2026-04-19T08:44:31.197Z</time></trkpt><trkpt lat="43.3455429" lon="11.2984568"><ele>358.0</ele><time>2026-04-19T08:44:33.107Z</time></trkpt><trkpt lat="43.3456397" lon="11.298426"><ele>358.0</ele><time>2026-04-19T08:44:35.12Z</time></trkpt><trkpt lat="43.3457646" lon="11.298431"><ele>358.0</ele><time>2026-04-19T08:44:37.19Z</time></trkpt><trkpt lat="43.3458909" lon="11.2984101"><ele>357.4</ele><time>2026-04-19T08:44:39.125Z</time></trkpt><trkpt lat="43.3460019" lon="11.2983823"><ele>356.79999999999995</ele><time>2026-04-19T08:44:41.192Z</time></trkpt><trkpt lat="43.3460982" lon="11.2983355"><ele>356.2</ele><time>2026-04-19T08:44:43.112Z</time></trkpt><trkpt lat="43.3462107" lon="11.2983069"><ele>355.6</ele><time>2026-04-19T08:44:45.114Z</time></trkpt><trkpt lat="43.3463186" lon="11.2982848"><ele>355.0</ele><time>2026-04-19T08:44:47.099Z</time></trkpt><trkpt lat="43.3464087" lon="11.298267"><ele>355.0</ele><time>2026-04-19T08:44:49.121Z</time></trkpt><trkpt lat="43.3464912" lon="11.2982739"><ele>355.0</ele><time>2026-04-19T08:44:51.122Z</time></trkpt><trkpt lat="43.3465779" lon="11.2982883"><ele>355.0</ele><time>2026-04-19T08:44:53.12Z</time></trkpt><trkpt lat="43.3466717" lon="11.2982934"><ele>355.0</ele><time>2026-04-19T08:44:55.106Z</time></trkpt><trkpt lat="43.3467565" lon="11.2982831"><ele>355.0</ele><time>2026-04-19T08:44:57.132Z</time></trkpt><trkpt lat="43.3468342" lon="11.2982857"><ele>355.0</ele><time>2026-04-19T08:44:59.118Z</time></trkpt><trkpt lat="43.3469245" lon="11.2982909"><ele>355.0</ele><time>2026-04-19T08:45:01.123Z</time></trkpt><trkpt lat="43.3469996" lon="11.2983039"><ele>355.0</ele><time>2026-04-19T08:45:03.11Z</time></trkpt><trkpt lat="43.3470875" lon="11.2983187"><ele>355.0</ele><time>2026-04-19T08:45:05.209Z</time></trkpt><trkpt lat="43.3471701" lon="11.2983318"><ele>355.0</ele><time>2026-04-19T08:45:07.122Z</time></trkpt><trkpt lat="43.3472517" lon="11.298343"><ele>355.0</ele><time>2026-04-19T08:45:09.122Z</time></trkpt><trkpt lat="43.3473437" lon="11.2983644"><ele>355.0</ele><time>2026-04-19T08:45:11.191Z</time></trkpt><trkpt lat="43.3474505" lon="11.2983736"><ele>355.0</ele><time>2026-04-19T08:45:13.118Z</time></trkpt><trkpt lat="43.3475523" lon="11.2983945"><ele>355.0</ele><time>2026-04-19T08:45:15.198Z</time></trkpt><trkpt lat="43.3476625" lon="11.2984032"><ele>355.0</ele><time>2026-04-19T08:45:17.205Z</time></trkpt><trkpt lat="43.3477903" lon="11.2984245"><ele>355.0</ele><time>2026-04-19T08:45:19.12Z</time></trkpt><trkpt lat="43.3478719" lon="11.2984356"><ele>355.0</ele><time>2026-04-19T08:45:20.19Z</time></trkpt><trkpt lat="43.3479542" lon="11.2984388"><ele>355.0</ele><time>2026-04-19T08:45:21.119Z</time></trkpt><trkpt lat="43.348034" lon="11.2984456"><ele>355.0</ele><time>2026-04-19T08:45:22.127Z</time></trkpt><trkpt lat="43.3481136" lon="11.2984447"><ele>355.0</ele><time>2026-04-19T08:45:23.12Z</time></trkpt><trkpt lat="43.3481944" lon="11.2984433"><ele>355.0</ele><time>2026-04-19T08:45:24.121Z</time></trkpt><trkpt lat="43.3482779" lon="11.2984418"><ele>355.0</ele><time>2026-04-19T08:45:25.122Z</time></trkpt><trkpt lat="43.3483624" lon="11.2984327"><ele>355.0</ele><time>2026-04-19T08:45:26.129Z</time></trkpt><trkpt lat="43.3484457" lon="11.2984156"><ele>354.3333333333333</ele><time>2026-04-19T08:45:27.125Z</time></trkpt><trkpt lat="43.348531" lon="11.2983925"><ele>353.66666666666663</ele><time>2026-04-19T08:45:28.12Z</time></trkpt><trkpt lat="43.3486141" lon="11.2983626"><ele>353.0</ele><time>2026-04-19T08:45:29.12Z</time></trkpt><trkpt lat="43.3486949" lon="11.2983311"><ele>352.3333333333333</ele><time>2026-04-19T08:45:30.128Z</time></trkpt><trkpt lat="43.3487765" lon="11.2982915"><ele>351.6666666666667</ele><time>2026-04-19T08:45:31.129Z</time></trkpt><trkpt lat="43.3488572" lon="11.2982401"><ele>351.0</ele><time>2026-04-19T08:45:32.117Z</time></trkpt><trkpt lat="43.3489352" lon="11.2981797"><ele>349.4</ele><time>2026-04-19T08:45:33.12Z</time></trkpt><trkpt lat="43.3490133" lon="11.2981063"><ele>347.8</ele><time>2026-04-19T08:45:34.105Z</time></trkpt><trkpt lat="43.3490861" lon="11.2980254"><ele>346.2</ele><time>2026-04-19T08:45:35.121Z</time></trkpt><trkpt lat="43.3491609" lon="11.2979289"><ele>344.59999999999997</ele><time>2026-04-19T08:45:36.192Z</time></trkpt><trkpt lat="43.349232" lon="11.2978255"><ele>343.0</ele><time>2026-04-19T08:45:37.198Z</time></trkpt><trkpt lat="43.3493027" lon="11.2977218"><ele>342.75</ele><time>2026-04-19T08:45:38.1Z</time></trkpt><trkpt lat="43.3493632" lon="11.2976028"><ele>342.5</ele><time>2026-04-19T08:45:39.12Z</time></trkpt><trkpt lat="43.3494134" lon="11.2974666"><ele>342.25</ele><time>2026-04-19T08:45:40.118Z</time></trkpt><trkpt lat="43.3494599" lon="11.29732"><ele>342.0</ele><time>2026-04-19T08:45:41.192Z</time></trkpt><trkpt lat="43.3495091" lon="11.2971641"><ele>341.0</ele><time>2026-04-19T08:45:42.185Z</time></trkpt><trkpt lat="43.3495673" lon="11.2970119"><ele>340.0</ele><time>2026-04-19T08:45:43.157Z</time></trkpt><trkpt lat="43.349644" lon="11.296866"><ele>339.0</ele><time>2026-04-19T08:45:44.123Z</time></trkpt><trkpt lat="43.3497401" lon="11.296736"><ele>338.0</ele><time>2026-04-19T08:45:45.192Z</time></trkpt><trkpt lat="43.3498493" lon="11.2966309"><ele>336.5</ele><time>2026-04-19T08:45:46.187Z</time></trkpt><trkpt lat="43.3499503" lon="11.2965422"><ele>335.0</ele><time>2026-04-19T08:45:47.189Z</time></trkpt><trkpt lat="43.350076" lon="11.2964933"><ele>333.5</ele><time>2026-04-19T08:45:48.13Z</time></trkpt><trkpt lat="43.3502033" lon="11.2964462"><ele>332.0</ele><time>2026-04-19T08:45:49.118Z</time></trkpt><trkpt lat="43.3503218" lon="11.2964214"><ele>329.75</ele><time>2026-04-19T08:45:50.204Z</time></trkpt><trkpt lat="43.3504496" lon="11.2964082"><ele>327.5</ele><time>2026-04-19T08:45:51.195Z</time></trkpt><trkpt lat="43.3505715" lon="11.2963732"><ele>325.25</ele><time>2026-04-19T08:45:52.192Z</time></trkpt><trkpt lat="43.3507002" lon="11.2963243"><ele>323.0</ele><time>2026-04-19T08:45:53.137Z</time></trkpt><trkpt lat="43.3508251" lon="11.2962613"><ele>322.75</ele><time>2026-04-19T08:45:54.12Z</time></trkpt><trkpt lat="43.3509455" lon="11.296198"><ele>322.5</ele><time>2026-04-19T08:45:55.192Z</time></trkpt><trkpt lat="43.3510548" lon="11.2961265"><ele>322.25</ele><time>2026-04-19T08:45:56.177Z</time></trkpt><trkpt lat="43.3511585" lon="11.2960447"><ele>322.0</ele><time>2026-04-19T08:45:57.116Z</time></trkpt><trkpt lat="43.351258" lon="11.2959532"><ele>322.0</ele><time>2026-04-19T08:45:58.12Z</time></trkpt><trkpt lat="43.3513408" lon="11.2958548"><ele>322.0</ele><time>2026-04-19T08:45:59.129Z</time></trkpt><trkpt lat="43.3514157" lon="11.2957321"><ele>322.0</ele><time>2026-04-19T08:46:00.115Z</time></trkpt><trkpt lat="43.3514759" lon="11.2956125"><ele>322.0</ele><time>2026-04-19T08:46:01.116Z</time></trkpt><trkpt lat="43.3515282" lon="11.29549"><ele>322.0</ele><time>2026-04-19T08:46:02.117Z</time></trkpt><trkpt lat="43.3515806" lon="11.2953755"><ele>322.5</ele><time>2026-04-19T08:46:03.123Z</time></trkpt><trkpt lat="43.3516276" lon="11.2952612"><ele>323.0</ele><time>2026-04-19T08:46:04.117Z</time></trkpt><trkpt lat="43.3516726" lon="11.2951483"><ele>323.5</ele><time>2026-04-19T08:46:05.124Z</time></trkpt><trkpt lat="43.3517209" lon="11.2950433"><ele>324.0</ele><time>2026-04-19T08:46:06.116Z</time></trkpt><trkpt lat="43.3517689" lon="11.2949426"><ele>324.5</ele><time>2026-04-19T08:46:07.117Z</time></trkpt><trkpt lat="43.3518176" lon="11.2948591"><ele>325.0</ele><time>2026-04-19T08:46:08.119Z</time></trkpt><trkpt lat="43.3518712" lon="11.2947791"><ele>325.4285714285714</ele><time>2026-04-19T08:46:09.129Z</time></trkpt><trkpt lat="43.3519261" lon="11.2947055"><ele>325.8571428571429</ele><time>2026-04-19T08:46:10.199Z</time></trkpt><trkpt lat="43.3519859" lon="11.2946429"><ele>326.2857142857143</ele><time>2026-04-19T08:46:11.12Z</time></trkpt><trkpt lat="43.352047" lon="11.2945852"><ele>326.71428571428567</ele><time>2026-04-19T08:46:12.189Z</time></trkpt><trkpt lat="43.3521077" lon="11.2945393"><ele>327.1428571428571</ele><time>2026-04-19T08:46:13.096Z</time></trkpt><trkpt lat="43.3521697" lon="11.294496"><ele>327.57142857142856</ele><time>2026-04-19T08:46:14.129Z</time></trkpt><trkpt lat="43.3522328" lon="11.2944573"><ele>328.0</ele><time>2026-04-19T08:46:15.112Z</time></trkpt><trkpt lat="43.3522996" lon="11.2944204"><ele>328.0</ele><time>2026-04-19T08:46:16.192Z</time></trkpt><trkpt lat="43.3524107" lon="11.2944085"><ele>328.0</ele><time>2026-04-19T08:46:18.097Z</time></trkpt><trkpt lat="43.3524858" lon="11.2943994"><ele>328.0</ele><time>2026-04-19T08:46:19.125Z</time></trkpt><trkpt lat="43.3525547" lon="11.2943901"><ele>328.0</ele><time>2026-04-19T08:46:20.186Z</time></trkpt><trkpt lat="43.3526195" lon="11.2943804"><ele>328.0</ele><time>2026-04-19T08:46:21.185Z</time></trkpt><trkpt lat="43.3526933" lon="11.2943755"><ele>328.0</ele><time>2026-04-19T08:46:22.189Z</time></trkpt><trkpt lat="43.3527606" lon="11.2943681"><ele>328.0</ele><time>2026-04-19T08:46:23.125Z</time></trkpt><trkpt lat="43.3528778" lon="11.2943424"><ele>328.0</ele><time>2026-04-19T08:46:25.186Z</time></trkpt><trkpt lat="43.3529651" lon="11.2943259"><ele>328.0</ele><time>2026-04-19T08:46:27.19Z</time></trkpt><trkpt lat="43.3530597" lon="11.2943272"><ele>328.0</ele><time>2026-04-19T08:46:29.132Z</time></trkpt><trkpt lat="43.3531417" lon="11.2943226"><ele>328.0</ele><time>2026-04-19T08:46:31.2Z</time></trkpt><trkpt lat="43.3532292" lon="11.2943217"><ele>329.2857142857143</ele><time>2026-04-19T08:46:33.102Z</time></trkpt><trkpt lat="43.3533105" lon="11.2943103"><ele>330.57142857142856</ele><time>2026-04-19T08:46:35.099Z</time></trkpt><trkpt lat="43.353387" lon="11.2943126"><ele>331.8571428571429</ele><time>2026-04-19T08:46:37.134Z</time></trkpt><trkpt lat="43.353462" lon="11.2943106"><ele>333.1428571428571</ele><time>2026-04-19T08:46:39.143Z</time></trkpt><trkpt lat="43.3535326" lon="11.2943083"><ele>334.42857142857144</ele><time>2026-04-19T08:46:41.132Z</time></trkpt><trkpt lat="43.353602" lon="11.2942912"><ele>335.7142857142857</ele><time>2026-04-19T08:46:43.127Z</time></trkpt><trkpt lat="43.3536729" lon="11.2942886"><ele>337.0</ele><time>2026-04-19T08:46:45.191Z</time></trkpt><trkpt lat="43.353737" lon="11.294279"><ele>337.0</ele><time>2026-04-19T08:46:47.125Z</time></trkpt><trkpt lat="43.3538272" lon="11.2942526"><ele>337.0</ele><time>2026-04-19T08:46:50.194Z</time></trkpt><trkpt lat="43.3539176" lon="11.2942598"><ele>337.0</ele><time>2026-04-19T08:46:53.12Z</time></trkpt><trkpt lat="43.3539873" lon="11.2942689"><ele>337.0</ele><time>2026-04-19T08:46:55.191Z</time></trkpt><trkpt lat="43.354076" lon="11.2943058"><ele>337.0</ele><time>2026-04-19T08:46:58.109Z</time></trkpt><trkpt lat="43.3541186" lon="11.2943763"><ele>337.0</ele><time>2026-04-19T08:47:00.101Z</time></trkpt><trkpt lat="43.3541935" lon="11.2944297"><ele>337.0</ele><time>2026-04-19T08:47:02.184Z</time></trkpt><trkpt lat="43.354257" lon="11.2944105"><ele>337.0</ele><time>2026-04-19T08:47:04.126Z</time></trkpt><trkpt lat="43.3543235" lon="11.2943552"><ele>337.0</ele><time>2026-04-19T08:47:06.101Z</time></trkpt><trkpt lat="43.354389" lon="11.2942595"><ele>337.0</ele><time>2026-04-19T08:47:08.133Z</time></trkpt><trkpt lat="43.3544858" lon="11.2941947"><ele>337.0</ele><time>2026-04-19T08:47:10.122Z</time></trkpt><trkpt lat="43.354588" lon="11.2941016"><ele>337.0</ele><time>2026-04-19T08:47:12.126Z</time></trkpt><trkpt lat="43.3546399" lon="11.2940348"><ele>337.0</ele><time>2026-04-19T08:47:13.12Z</time></trkpt><trkpt lat="43.3546928" lon="11.2939547"><ele>337.0</ele><time>2026-04-19T08:47:14.135Z</time></trkpt><trkpt lat="43.3547571" lon="11.2938711"><ele>337.0</ele><time>2026-04-19T08:47:15.134Z</time></trkpt><trkpt lat="43.3548227" lon="11.2937994"><ele>337.0</ele><time>2026-04-19T08:47:16.125Z</time></trkpt><trkpt lat="43.3548902" lon="11.2937405"><ele>337.0</ele><time>2026-04-19T08:47:17.118Z</time></trkpt><trkpt lat="43.3549709" lon="11.2936927"><ele>335.6</ele><time>2026-04-19T08:47:18.105Z</time></trkpt><trkpt lat="43.3550515" lon="11.2936403"><ele>334.20000000000005</ele><time>2026-04-19T08:47:19.119Z</time></trkpt><trkpt lat="43.3551328" lon="11.293582"><ele>332.8</ele><time>2026-04-19T08:47:20.126Z</time></trkpt><trkpt lat="43.3552185" lon="11.2935255"><ele>331.4</ele><time>2026-04-19T08:47:21.197Z</time></trkpt><trkpt lat="43.3553017" lon="11.2934718"><ele>330.0</ele><time>2026-04-19T08:47:22.182Z</time></trkpt><trkpt lat="43.3553847" lon="11.293417"><ele>330.0</ele><time>2026-04-19T08:47:23.126Z</time></trkpt><trkpt lat="43.3554707" lon="11.2933611"><ele>330.0</ele><time>2026-04-19T08:47:24.13Z</time></trkpt><trkpt lat="43.3555544" lon="11.2933039"><ele>330.0</ele><time>2026-04-19T08:47:25.123Z</time></trkpt><trkpt lat="43.3556402" lon="11.2932473"><ele>330.0</ele><time>2026-04-19T08:47:26.194Z</time></trkpt><trkpt lat="43.3557244" lon="11.2931933"><ele>330.0</ele><time>2026-04-19T08:47:27.192Z</time></trkpt><trkpt lat="43.3558069" lon="11.2931393"><ele>328.5</ele><time>2026-04-19T08:47:28.114Z</time></trkpt><trkpt lat="43.3558892" lon="11.2930822"><ele>327.0</ele><time>2026-04-19T08:47:29.122Z</time></trkpt><trkpt lat="43.355972" lon="11.2930276"><ele>325.5</ele><time>2026-04-19T08:47:30.124Z</time></trkpt><trkpt lat="43.3560542" lon="11.2929748"><ele>324.0</ele><time>2026-04-19T08:47:31.199Z</time></trkpt><trkpt lat="43.3561301" lon="11.2929256"><ele>322.5</ele><time>2026-04-19T08:47:32.2Z</time></trkpt><trkpt lat="43.3562094" lon="11.2928836"><ele>321.0</ele><time>2026-04-19T08:47:33.123Z</time></trkpt><trkpt lat="43.3562917" lon="11.2928333"><ele>321.5</ele><time>2026-04-19T08:47:34.13Z</time></trkpt><trkpt lat="43.356371" lon="11.2927789"><ele>322.0</ele><time>2026-04-19T08:47:35.121Z</time></trkpt><trkpt lat="43.3564469" lon="11.2927164"><ele>322.5</ele><time>2026-04-19T08:47:36.19Z</time></trkpt><trkpt lat="43.3565184" lon="11.2926556"><ele>323.0</ele><time>2026-04-19T08:47:37.179Z</time></trkpt><trkpt lat="43.3565869" lon="11.2925906"><ele>323.5</ele><time>2026-04-19T08:47:38.121Z</time></trkpt><trkpt lat="43.3566483" lon="11.2925121"><ele>324.0</ele><time>2026-04-19T08:47:39.108Z</time></trkpt><trkpt lat="43.3566987" lon="11.292417"><ele>324.0</ele><time>2026-04-19T08:47:40.191Z</time></trkpt><trkpt lat="43.3567455" lon="11.292336"><ele>324.0</ele><time>2026-04-19T08:47:41.2Z</time></trkpt><trkpt lat="43.3567911" lon="11.2922574"><ele>324.0</ele><time>2026-04-19T08:47:42.125Z</time></trkpt><trkpt lat="43.3568361" lon="11.2921586"><ele>324.0</ele><time>2026-04-19T08:47:43.132Z</time></trkpt><trkpt lat="43.3568828" lon="11.2920472"><ele>324.0</ele><time>2026-04-19T08:47:44.121Z</time></trkpt><trkpt lat="43.3569408" lon="11.2919463"><ele>324.0</ele><time>2026-04-19T08:47:45.133Z</time></trkpt><trkpt lat="43.3570063" lon="11.291852"><ele>323.6666666666667</ele><time>2026-04-19T08:47:46.131Z</time></trkpt><trkpt lat="43.3570772" lon="11.29178"><ele>323.3333333333333</ele><time>2026-04-19T08:47:47.128Z</time></trkpt><trkpt lat="43.3571506" lon="11.2917137"><ele>323.0</ele><time>2026-04-19T08:47:48.135Z</time></trkpt><trkpt lat="43.3572268" lon="11.2916517"><ele>322.66666666666663</ele><time>2026-04-19T08:47:49.127Z</time></trkpt><trkpt lat="43.3573036" lon="11.2915949"><ele>322.3333333333333</ele><time>2026-04-19T08:47:50.116Z</time></trkpt><trkpt lat="43.3573778" lon="11.2915407"><ele>322.0</ele><time>2026-04-19T08:47:51.132Z</time></trkpt><trkpt lat="43.3574518" lon="11.2914831"><ele>322.0</ele><time>2026-04-19T08:47:52.12Z</time></trkpt><trkpt lat="43.3575269" lon="11.2914274"><ele>322.0</ele><time>2026-04-19T08:47:53.123Z</time></trkpt><trkpt lat="43.3576045" lon="11.2913693"><ele>322.0</ele><time>2026-04-19T08:47:54.132Z</time></trkpt><trkpt lat="43.3576857" lon="11.2913105"><ele>322.0</ele><time>2026-04-19T08:47:55.179Z</time></trkpt><trkpt lat="43.3577644" lon="11.2912562"><ele>322.0</ele><time>2026-04-19T08:47:56.208Z</time></trkpt><trkpt lat="43.3578435" lon="11.2912081"><ele>322.0</ele><time>2026-04-19T08:47:57.116Z</time></trkpt><trkpt lat="43.3579239" lon="11.2911512"><ele>320.0</ele><time>2026-04-19T08:47:58.121Z</time></trkpt><trkpt lat="43.3580069" lon="11.2910871"><ele>318.0</ele><time>2026-04-19T08:47:59.133Z</time></trkpt><trkpt lat="43.3580912" lon="11.2910221"><ele>316.0</ele><time>2026-04-19T08:48:00.119Z</time></trkpt><trkpt lat="43.3581738" lon="11.2909509"><ele>314.0</ele><time>2026-04-19T08:48:01.196Z</time></trkpt><trkpt lat="43.3582488" lon="11.2908761"><ele>312.0</ele><time>2026-04-19T08:48:02.193Z</time></trkpt><trkpt lat="43.3583263" lon="11.2907981"><ele>311.8</ele><time>2026-04-19T08:48:03.114Z</time></trkpt><trkpt lat="43.358408" lon="11.2907106"><ele>311.6</ele><time>2026-04-19T08:48:04.127Z</time></trkpt><trkpt lat="43.3584884" lon="11.2906202"><ele>311.40000000000003</ele><time>2026-04-19T08:48:05.177Z</time></trkpt><trkpt lat="43.3585733" lon="11.290527"><ele>311.2</ele><time>2026-04-19T08:48:06.118Z</time></trkpt><trkpt lat="43.3586588" lon="11.2904381"><ele>311.0</ele><time>2026-04-19T08:48:07.132Z</time></trkpt><trkpt lat="43.3587392" lon="11.2903577"><ele>310.8</ele><time>2026-04-19T08:48:08.13Z</time></trkpt><trkpt lat="43.3588161" lon="11.2902731"><ele>310.6</ele><time>2026-04-19T08:48:09.124Z</time></trkpt><trkpt lat="43.358894" lon="11.2901835"><ele>310.4</ele><time>2026-04-19T08:48:10.192Z</time></trkpt><trkpt lat="43.3589698" lon="11.2900981"><ele>310.2</ele><time>2026-04-19T08:48:11.194Z</time></trkpt><trkpt lat="43.3590449" lon="11.2900264"><ele>310.0</ele><time>2026-04-19T08:48:12.196Z</time></trkpt><trkpt lat="43.3591133" lon="11.2899592"><ele>310.0</ele><time>2026-04-19T08:48:13.117Z</time></trkpt><trkpt lat="43.3591852" lon="11.2898899"><ele>310.0</ele><time>2026-04-19T08:48:14.12Z</time></trkpt><trkpt lat="43.3592539" lon="11.2898131"><ele>310.0</ele><time>2026-04-19T08:48:15.126Z</time></trkpt><trkpt lat="43.3593213" lon="11.2897263"><ele>310.0</ele><time>2026-04-19T08:48:16.195Z</time></trkpt><trkpt lat="43.3593884" lon="11.2896517"><ele>310.0</ele><time>2026-04-19T08:48:17.193Z</time></trkpt><trkpt lat="43.3594547" lon="11.2895797"><ele>310.0</ele><time>2026-04-19T08:48:18.104Z</time></trkpt><trkpt lat="43.3595236" lon="11.2895072"><ele>310.0</ele><time>2026-04-19T08:48:19.123Z</time></trkpt><trkpt lat="43.3595936" lon="11.2894373"><ele>310.0</ele><time>2026-04-19T08:48:20.129Z</time></trkpt><trkpt lat="43.3596601" lon="11.2893763"><ele>310.0</ele><time>2026-04-19T08:48:21.126Z</time></trkpt><trkpt lat="43.3597298" lon="11.2893255"><ele>310.0</ele><time>2026-04-19T08:48:22.114Z</time></trkpt><trkpt lat="43.3598024" lon="11.2892842"><ele>310.0</ele><time>2026-04-19T08:48:23.105Z</time></trkpt><trkpt lat="43.3598779" lon="11.289251"><ele>310.0</ele><time>2026-04-19T08:48:24.129Z</time></trkpt><trkpt lat="43.3599532" lon="11.2892305"><ele>309.57142857142856</ele><time>2026-04-19T08:48:25.124Z</time></trkpt><trkpt lat="43.3600274" lon="11.2892157"><ele>309.1428571428571</ele><time>2026-04-19T08:48:26.132Z</time></trkpt><trkpt lat="43.3601032" lon="11.2892067"><ele>308.71428571428567</ele><time>2026-04-19T08:48:27.198Z</time></trkpt><trkpt lat="43.3601753" lon="11.2892057"><ele>308.2857142857143</ele><time>2026-04-19T08:48:28.12Z</time></trkpt><trkpt lat="43.3602492" lon="11.2892016"><ele>307.85714285714283</ele><time>2026-04-19T08:48:29.121Z</time></trkpt><trkpt lat="43.3603246" lon="11.2891996"><ele>307.4285714285714</ele><time>2026-04-19T08:48:30.116Z</time></trkpt><trkpt lat="43.3603996" lon="11.2891996"><ele>307.0</ele><time>2026-04-19T08:48:31.185Z</time></trkpt><trkpt lat="43.3604692" lon="11.2891999"><ele>306.6</ele><time>2026-04-19T08:48:32.204Z</time></trkpt><trkpt lat="43.3606102" lon="11.2892123"><ele>306.2</ele><time>2026-04-19T08:48:34.121Z</time></trkpt><trkpt lat="43.3606823" lon="11.2892188"><ele>305.8</ele><time>2026-04-19T08:48:35.099Z</time></trkpt><trkpt lat="43.3607551" lon="11.2892204"><ele>305.4</ele><time>2026-04-19T08:48:36.187Z</time></trkpt><trkpt lat="43.3608714" lon="11.2892122"><ele>305.0</ele><time>2026-04-19T08:48:38.128Z</time></trkpt><trkpt lat="43.3609404" lon="11.2892094"><ele>305.0</ele><time>2026-04-19T08:48:39.132Z</time></trkpt><trkpt lat="43.3610139" lon="11.2892133"><ele>305.0</ele><time>2026-04-19T08:48:40.127Z</time></trkpt><trkpt lat="43.3610898" lon="11.2892129"><ele>305.0</ele><time>2026-04-19T08:48:41.18Z</time></trkpt><trkpt lat="43.3611706" lon="11.2892071"><ele>305.0</ele><time>2026-04-19T08:48:42.113Z</time></trkpt><trkpt lat="43.3613965" lon="11.2892628"><ele>305.2</ele><time>2026-04-19T08:48:45.185Z</time></trkpt><trkpt lat="43.3614818" lon="11.2892525"><ele>305.4</ele><time>2026-04-19T08:48:47.119Z</time></trkpt><trkpt lat="43.3615541" lon="11.2892396"><ele>305.6</ele><time>2026-04-19T08:48:48.12Z</time></trkpt><trkpt lat="43.3616262" lon="11.289221"><ele>305.8</ele><time>2026-04-19T08:48:49.113Z</time></trkpt><trkpt lat="43.3617509" lon="11.2891946"><ele>306.0</ele><time>2026-04-19T08:48:51.119Z</time></trkpt><trkpt lat="43.3618673" lon="11.289156"><ele>306.0</ele><time>2026-04-19T08:48:53.117Z</time></trkpt><trkpt lat="43.3619895" lon="11.2890954"><ele>306.0</ele><time>2026-04-19T08:48:55.127Z</time></trkpt><trkpt lat="43.3620987" lon="11.2890207"><ele>306.0</ele><time>2026-04-19T08:48:57.126Z</time></trkpt><trkpt lat="43.3621995" lon="11.288947"><ele>306.0</ele><time>2026-04-19T08:48:59.105Z</time></trkpt><trkpt lat="43.3623031" lon="11.2888814"><ele>305.8333333333333</ele><time>2026-04-19T08:49:01.121Z</time></trkpt><trkpt lat="43.3624029" lon="11.2888143"><ele>305.6666666666667</ele><time>2026-04-19T08:49:03.118Z</time></trkpt><trkpt lat="43.3625054" lon="11.2887441"><ele>305.5</ele><time>2026-04-19T08:49:05.121Z</time></trkpt><trkpt lat="43.3625644" lon="11.2887074"><ele>305.33333333333337</ele><time>2026-04-19T08:49:06.121Z</time></trkpt><trkpt lat="43.3626199" lon="11.2886623"><ele>305.1666666666667</ele><time>2026-04-19T08:49:07.12Z</time></trkpt><trkpt lat="43.362673" lon="11.2886075"><ele>305.0</ele><time>2026-04-19T08:49:08.121Z</time></trkpt><trkpt lat="43.3627235" lon="11.2885498"><ele>305.0</ele><time>2026-04-19T08:49:09.128Z</time></trkpt><trkpt lat="43.3627669" lon="11.2884861"><ele>305.0</ele><time>2026-04-19T08:49:10.128Z</time></trkpt><trkpt lat="43.3628351" lon="11.2883593"><ele>305.0</ele><time>2026-04-19T08:49:12.115Z</time></trkpt><trkpt lat="43.3629152" lon="11.2882357"><ele>305.0</ele><time>2026-04-19T08:49:14.125Z</time></trkpt><trkpt lat="43.3629903" lon="11.2880833"><ele>305.0</ele><time>2026-04-19T08:49:16.205Z</time></trkpt><trkpt lat="43.3630162" lon="11.2879924"><ele>305.4</ele><time>2026-04-19T08:49:17.117Z</time></trkpt><trkpt lat="43.3630713" lon="11.2878345"><ele>305.8</ele><time>2026-04-19T08:49:19.111Z</time></trkpt><trkpt lat="43.3631202" lon="11.2876665"><ele>306.2</ele><time>2026-04-19T08:49:21.19Z</time></trkpt><trkpt lat="43.3631504" lon="11.2875799"><ele>306.6</ele><time>2026-04-19T08:49:22.186Z</time></trkpt><trkpt lat="43.3631718" lon="11.2874935"><ele>307.0</ele><time>2026-04-19T08:49:23.124Z</time></trkpt><trkpt lat="43.3631907" lon="11.2874108"><ele>307.0</ele><time>2026-04-19T08:49:24.106Z</time></trkpt><trkpt lat="43.3632254" lon="11.2873225"><ele>307.0</ele><time>2026-04-19T08:49:25.12Z</time></trkpt><trkpt lat="43.363271" lon="11.2872361"><ele>307.0</ele><time>2026-04-19T08:49:26.13Z</time></trkpt><trkpt lat="43.3633092" lon="11.2871539"><ele>307.0</ele><time>2026-04-19T08:49:27.124Z</time></trkpt><trkpt lat="43.3633452" lon="11.2870731"><ele>307.0</ele><time>2026-04-19T08:49:28.13Z</time></trkpt><trkpt lat="43.3633767" lon="11.2869968"><ele>307.0</ele><time>2026-04-19T08:49:29.118Z</time></trkpt><trkpt lat="43.3634365" lon="11.2868396"><ele>306.99999999999994</ele><time>2026-04-19T08:49:31.104Z</time></trkpt><trkpt lat="43.3634704" lon="11.2867614"><ele>307.0</ele><time>2026-04-19T08:49:32.133Z</time></trkpt><trkpt lat="43.3635051" lon="11.2866828"><ele>307.0</ele><time>2026-04-19T08:49:33.127Z</time></trkpt><trkpt lat="43.36354" lon="11.2865997"><ele>307.0</ele><time>2026-04-19T08:49:34.117Z</time></trkpt><trkpt lat="43.3635771" lon="11.2865096"><ele>307.0</ele><time>2026-04-19T08:49:35.124Z</time></trkpt><trkpt lat="43.3636166" lon="11.2864117"><ele>306.99999999999994</ele><time>2026-04-19T08:49:36.198Z</time></trkpt><trkpt lat="43.3636538" lon="11.2863158"><ele>307.0</ele><time>2026-04-19T08:49:37.127Z</time></trkpt><trkpt lat="43.3636693" lon="11.286217"><ele>306.0</ele><time>2026-04-19T08:49:38.129Z</time></trkpt><trkpt lat="43.3636705" lon="11.2861069"><ele>305.0</ele><time>2026-04-19T08:49:39.129Z</time></trkpt><trkpt lat="43.363695" lon="11.2859794"><ele>304.0</ele><time>2026-04-19T08:49:40.129Z</time></trkpt><trkpt lat="43.3637523" lon="11.2858539"><ele>303.0</ele><time>2026-04-19T08:49:41.129Z</time></trkpt><trkpt lat="43.363811" lon="11.2857284"><ele>302.0</ele><time>2026-04-19T08:49:42.122Z</time></trkpt><trkpt lat="43.3638754" lon="11.2856035"><ele>299.5</ele><time>2026-04-19T08:49:43.12Z</time></trkpt><trkpt lat="43.3639464" lon="11.2854767"><ele>297.0</ele><time>2026-04-19T08:49:44.125Z</time></trkpt><trkpt lat="43.364012" lon="11.285348"><ele>294.5</ele><time>2026-04-19T08:49:45.136Z</time></trkpt><trkpt lat="43.3640759" lon="11.2852245"><ele>292.0</ele><time>2026-04-19T08:49:46.112Z</time></trkpt><trkpt lat="43.3641431" lon="11.2850949"><ele>292.0</ele><time>2026-04-19T08:49:47.12Z</time></trkpt><trkpt lat="43.3642091" lon="11.2849726"><ele>292.0</ele><time>2026-04-19T08:49:48.115Z</time></trkpt><trkpt lat="43.3642743" lon="11.2848448"><ele>292.0</ele><time>2026-04-19T08:49:49.123Z</time></trkpt><trkpt lat="43.3643373" lon="11.2847133"><ele>292.0</ele><time>2026-04-19T08:49:50.118Z</time></trkpt><trkpt lat="43.364402" lon="11.2845773"><ele>290.0</ele><time>2026-04-19T08:49:51.126Z</time></trkpt><trkpt lat="43.3644745" lon="11.2844403"><ele>288.0</ele><time>2026-04-19T08:49:52.113Z</time></trkpt><trkpt lat="43.3645458" lon="11.2843028"><ele>286.0</ele><time>2026-04-19T08:49:53.12Z</time></trkpt><trkpt lat="43.3646193" lon="11.2841629"><ele>284.0</ele><time>2026-04-19T08:49:54.122Z</time></trkpt><trkpt lat="43.3646909" lon="11.2840224"><ele>283.25</ele><time>2026-04-19T08:49:55.113Z</time></trkpt><trkpt lat="43.3647614" lon="11.2838804"><ele>282.5</ele><time>2026-04-19T08:49:56.125Z</time></trkpt><trkpt lat="43.3648329" lon="11.28374"><ele>281.75</ele><time>2026-04-19T08:49:57.13Z</time></trkpt><trkpt lat="43.3649053" lon="11.2836024"><ele>281.0</ele><time>2026-04-19T08:49:58.133Z</time></trkpt><trkpt lat="43.3649774" lon="11.2834673"><ele>281.0</ele><time>2026-04-19T08:49:59.11Z</time></trkpt><trkpt lat="43.3650552" lon="11.2833363"><ele>281.0</ele><time>2026-04-19T08:50:00.138Z</time></trkpt><trkpt lat="43.3651374" lon="11.2832159"><ele>281.0</ele><time>2026-04-19T08:50:01.136Z</time></trkpt><trkpt lat="43.3652262" lon="11.2831047"><ele>281.0</ele><time>2026-04-19T08:50:02.13Z</time></trkpt><trkpt lat="43.365316" lon="11.2830019"><ele>280.8</ele><time>2026-04-19T08:50:03.128Z</time></trkpt><trkpt lat="43.3654056" lon="11.2829037"><ele>280.6</ele><time>2026-04-19T08:50:04.123Z</time></trkpt><trkpt lat="43.3654989" lon="11.2828099"><ele>280.4</ele><time>2026-04-19T08:50:05.131Z</time></trkpt><trkpt lat="43.3655898" lon="11.282727"><ele>280.2</ele><time>2026-04-19T08:50:06.135Z</time></trkpt><trkpt lat="43.3656808" lon="11.282655"><ele>280.0</ele><time>2026-04-19T08:50:07.114Z</time></trkpt><trkpt lat="43.3657789" lon="11.2825855"><ele>279.4</ele><time>2026-04-19T08:50:08.118Z</time></trkpt><trkpt lat="43.3658771" lon="11.2825216"><ele>278.8</ele><time>2026-04-19T08:50:09.123Z</time></trkpt><trkpt lat="43.3659763" lon="11.2824607"><ele>278.2</ele><time>2026-04-19T08:50:10.125Z</time></trkpt><trkpt lat="43.3660781" lon="11.2824079"><ele>277.6</ele><time>2026-04-19T08:50:11.196Z</time></trkpt><trkpt lat="43.366176" lon="11.2823658"><ele>277.0</ele><time>2026-04-19T08:50:12.193Z</time></trkpt><trkpt lat="43.3662733" lon="11.2823369"><ele>277.0</ele><time>2026-04-19T08:50:13.103Z</time></trkpt><trkpt lat="43.3663756" lon="11.2823132"><ele>277.0</ele><time>2026-04-19T08:50:14.129Z</time></trkpt><trkpt lat="43.3664738" lon="11.2822872"><ele>277.0</ele><time>2026-04-19T08:50:15.123Z</time></trkpt><trkpt lat="43.3665709" lon="11.2822609"><ele>277.0</ele><time>2026-04-19T08:50:16.205Z</time></trkpt><trkpt lat="43.3666691" lon="11.2822535"><ele>277.0</ele><time>2026-04-19T08:50:17.199Z</time></trkpt><trkpt lat="43.3667608" lon="11.2822531"><ele>277.0</ele><time>2026-04-19T08:50:18.123Z</time></trkpt><trkpt lat="43.3668474" lon="11.2822591"><ele>277.0</ele><time>2026-04-19T08:50:19.121Z</time></trkpt><trkpt lat="43.366931" lon="11.2822651"><ele>277.0</ele><time>2026-04-19T08:50:20.122Z</time></trkpt><trkpt lat="43.3670171" lon="11.2822797"><ele>277.0</ele><time>2026-04-19T08:50:21.127Z</time></trkpt><trkpt lat="43.3671035" lon="11.2822935"><ele>277.0</ele><time>2026-04-19T08:50:22.205Z</time></trkpt><trkpt lat="43.3671848" lon="11.2823067"><ele>277.0</ele><time>2026-04-19T08:50:23.12Z</time></trkpt><trkpt lat="43.367269" lon="11.2823166"><ele>277.66666666666663</ele><time>2026-04-19T08:50:24.122Z</time></trkpt><trkpt lat="43.3673526" lon="11.2823265"><ele>278.3333333333333</ele><time>2026-04-19T08:50:25.097Z</time></trkpt><trkpt lat="43.3674353" lon="11.2823418"><ele>279.0</ele><time>2026-04-19T08:50:26.123Z</time></trkpt><trkpt lat="43.3675154" lon="11.2823642"><ele>279.6666666666667</ele><time>2026-04-19T08:50:27.129Z</time></trkpt><trkpt lat="43.3675932" lon="11.2823947"><ele>280.33333333333337</ele><time>2026-04-19T08:50:28.132Z</time></trkpt><trkpt lat="43.3676686" lon="11.2824347"><ele>281.0</ele><time>2026-04-19T08:50:29.105Z</time></trkpt><trkpt lat="43.3677452" lon="11.28248"><ele>281.0</ele><time>2026-04-19T08:50:30.131Z</time></trkpt><trkpt lat="43.367824" lon="11.2825262"><ele>281.0</ele><time>2026-04-19T08:50:31.122Z</time></trkpt><trkpt lat="43.3679037" lon="11.2825705"><ele>281.0</ele><time>2026-04-19T08:50:32.123Z</time></trkpt><trkpt lat="43.3679811" lon="11.2826128"><ele>281.0</ele><time>2026-04-19T08:50:33.124Z</time></trkpt><trkpt lat="43.3680581" lon="11.2826519"><ele>281.0</ele><time>2026-04-19T08:50:34.127Z</time></trkpt><trkpt lat="43.3681362" lon="11.2826877"><ele>281.0</ele><time>2026-04-19T08:50:35.118Z</time></trkpt><trkpt lat="43.3682168" lon="11.2827274"><ele>280.83333333333337</ele><time>2026-04-19T08:50:36.129Z</time></trkpt><trkpt lat="43.3682995" lon="11.2827687"><ele>280.6666666666667</ele><time>2026-04-19T08:50:37.132Z</time></trkpt><trkpt lat="43.3683807" lon="11.2828103"><ele>280.5</ele><time>2026-04-19T08:50:38.124Z</time></trkpt><trkpt lat="43.3684632" lon="11.2828542"><ele>280.3333333333333</ele><time>2026-04-19T08:50:39.123Z</time></trkpt><trkpt lat="43.368547" lon="11.2828971"><ele>280.16666666666663</ele><time>2026-04-19T08:50:40.132Z</time></trkpt><trkpt lat="43.3686311" lon="11.2829428"><ele>280.0</ele><time>2026-04-19T08:50:41.128Z</time></trkpt><trkpt lat="43.3687161" lon="11.2829906"><ele>280.0</ele><time>2026-04-19T08:50:42.13Z</time></trkpt><trkpt lat="43.3688069" lon="11.2830356"><ele>280.0</ele><time>2026-04-19T08:50:43.132Z</time></trkpt><trkpt lat="43.3689045" lon="11.283075"><ele>280.0</ele><time>2026-04-19T08:50:44.129Z</time></trkpt><trkpt lat="43.3690047" lon="11.2831066"><ele>280.0</ele><time>2026-04-19T08:50:45.129Z</time></trkpt><trkpt lat="43.3691073" lon="11.2831332"><ele>280.0</ele><time>2026-04-19T08:50:46.132Z</time></trkpt><trkpt lat="43.3692152" lon="11.2831535"><ele>277.25</ele><time>2026-04-19T08:50:47.115Z</time></trkpt><trkpt lat="43.3693305" lon="11.2831657"><ele>274.5</ele><time>2026-04-19T08:50:48.109Z</time></trkpt><trkpt lat="43.369449" lon="11.2831679"><ele>271.75</ele><time>2026-04-19T08:50:49.117Z</time></trkpt><trkpt lat="43.3695708" lon="11.2831596"><ele>269.0</ele><time>2026-04-19T08:50:50.131Z</time></trkpt><trkpt lat="43.3696908" lon="11.2831463"><ele>268.75</ele><time>2026-04-19T08:50:51.118Z</time></trkpt><trkpt lat="43.3698151" lon="11.2831276"><ele>268.5</ele><time>2026-04-19T08:50:52.12Z</time></trkpt><trkpt lat="43.369937" lon="11.2831071"><ele>268.25</ele><time>2026-04-19T08:50:53.12Z</time></trkpt><trkpt lat="43.3700618" lon="11.2830826"><ele>268.0</ele><time>2026-04-19T08:50:54.12Z</time></trkpt><trkpt lat="43.3701858" lon="11.2830562"><ele>268.0</ele><time>2026-04-19T08:50:55.123Z</time></trkpt><trkpt lat="43.3703097" lon="11.2830317"><ele>268.0</ele><time>2026-04-19T08:50:56.126Z</time></trkpt><trkpt lat="43.3704279" lon="11.2830104"><ele>268.0</ele><time>2026-04-19T08:50:57.126Z</time></trkpt><trkpt lat="43.3705476" lon="11.2829857"><ele>268.0</ele><time>2026-04-19T08:50:58.134Z</time></trkpt><trkpt lat="43.370668" lon="11.282961"><ele>264.5</ele><time>2026-04-19T08:50:59.129Z</time></trkpt><trkpt lat="43.3707894" lon="11.2829346"><ele>261.0</ele><time>2026-04-19T08:51:00.125Z</time></trkpt><trkpt lat="43.3709122" lon="11.2829091"><ele>257.5</ele><time>2026-04-19T08:51:01.133Z</time></trkpt><trkpt lat="43.3710373" lon="11.2828823"><ele>254.0</ele><time>2026-04-19T08:51:02.126Z</time></trkpt><trkpt lat="43.371165" lon="11.282857"><ele>254.0</ele><time>2026-04-19T08:51:03.131Z</time></trkpt><trkpt lat="43.3712915" lon="11.2828322"><ele>254.0</ele><time>2026-04-19T08:51:04.129Z</time></trkpt><trkpt lat="43.3714175" lon="11.2828103"><ele>254.0</ele><time>2026-04-19T08:51:05.126Z</time></trkpt><trkpt lat="43.3715462" lon="11.2827895"><ele>254.0</ele><time>2026-04-19T08:51:06.132Z</time></trkpt><trkpt lat="43.3716723" lon="11.2827673"><ele>253.0</ele><time>2026-04-19T08:51:07.132Z</time></trkpt><trkpt lat="43.3717936" lon="11.2827437"><ele>252.0</ele><time>2026-04-19T08:51:08.119Z</time></trkpt><trkpt lat="43.3719112" lon="11.2827159"><ele>251.0</ele><time>2026-04-19T08:51:09.12Z</time></trkpt><trkpt lat="43.372025" lon="11.2826885"><ele>250.0</ele><time>2026-04-19T08:51:10.131Z</time></trkpt><trkpt lat="43.3721316" lon="11.2826616"><ele>250.4</ele><time>2026-04-19T08:51:11.132Z</time></trkpt><trkpt lat="43.3722345" lon="11.28263"><ele>250.8</ele><time>2026-04-19T08:51:12.131Z</time></trkpt><trkpt lat="43.3723339" lon="11.2825927"><ele>251.2</ele><time>2026-04-19T08:51:13.131Z</time></trkpt><trkpt lat="43.3724338" lon="11.2825493"><ele>251.6</ele><time>2026-04-19T08:51:14.128Z</time></trkpt><trkpt lat="43.3725308" lon="11.2824969"><ele>252.0</ele><time>2026-04-19T08:51:15.139Z</time></trkpt><trkpt lat="43.372625" lon="11.2824422"><ele>252.0</ele><time>2026-04-19T08:51:16.121Z</time></trkpt><trkpt lat="43.3727175" lon="11.2823839"><ele>252.0</ele><time>2026-04-19T08:51:17.126Z</time></trkpt><trkpt lat="43.3728062" lon="11.2823185"><ele>252.0</ele><time>2026-04-19T08:51:18.126Z</time></trkpt><trkpt lat="43.3728926" lon="11.2822502"><ele>252.0</ele><time>2026-04-19T08:51:19.12Z</time></trkpt><trkpt lat="43.3729786" lon="11.2821801"><ele>252.0</ele><time>2026-04-19T08:51:20.12Z</time></trkpt><trkpt lat="43.3730627" lon="11.2821168"><ele>252.2</ele><time>2026-04-19T08:51:21.141Z</time></trkpt><trkpt lat="43.3731472" lon="11.2820549"><ele>252.39999999999998</ele><time>2026-04-19T08:51:22.136Z</time></trkpt><trkpt lat="43.3732326" lon="11.281992"><ele>252.60000000000002</ele><time>2026-04-19T08:51:23.121Z</time></trkpt><trkpt lat="43.3733166" lon="11.2819298"><ele>252.8</ele><time>2026-04-19T08:51:24.133Z</time></trkpt><trkpt lat="43.3734008" lon="11.2818678"><ele>253.0</ele><time>2026-04-19T08:51:25.13Z</time></trkpt><trkpt lat="43.3734838" lon="11.2818061"><ele>253.0</ele><time>2026-04-19T08:51:26.127Z</time></trkpt><trkpt lat="43.373567" lon="11.2817422"><ele>253.0</ele><time>2026-04-19T08:51:27.136Z</time></trkpt><trkpt lat="43.3736483" lon="11.2816789"><ele>253.0</ele><time>2026-04-19T08:51:28.128Z</time></trkpt><trkpt lat="43.3737295" lon="11.2816154"><ele>253.0</ele><time>2026-04-19T08:51:29.136Z</time></trkpt><trkpt lat="43.3738084" lon="11.2815534"><ele>253.0</ele><time>2026-04-19T08:51:30.128Z</time></trkpt><trkpt lat="43.3738876" lon="11.2814895"><ele>253.0</ele><time>2026-04-19T08:51:31.118Z</time></trkpt><trkpt lat="43.3739678" lon="11.2814275"><ele>253.0</ele><time>2026-04-19T08:51:32.136Z</time></trkpt><trkpt lat="43.3740457" lon="11.2813667"><ele>253.0</ele><time>2026-04-19T08:51:33.132Z</time></trkpt><trkpt lat="43.3741241" lon="11.281306"><ele>253.0</ele><time>2026-04-19T08:51:34.105Z</time></trkpt><trkpt lat="43.3742019" lon="11.2812426"><ele>253.0</ele><time>2026-04-19T08:51:35.126Z</time></trkpt><trkpt lat="43.3742775" lon="11.2811757"><ele>253.0</ele><time>2026-04-19T08:51:36.123Z</time></trkpt><trkpt lat="43.3743533" lon="11.2811017"><ele>253.0</ele><time>2026-04-19T08:51:37.123Z</time></trkpt><trkpt lat="43.3744267" lon="11.2810226"><ele>253.0</ele><time>2026-04-19T08:51:38.134Z</time></trkpt><trkpt lat="43.374496" lon="11.280943"><ele>253.0</ele><time>2026-04-19T08:51:39.134Z</time></trkpt><trkpt lat="43.3745673" lon="11.2808608"><ele>253.0</ele><time>2026-04-19T08:51:40.117Z</time></trkpt><trkpt lat="43.3746367" lon="11.2807798"><ele>251.0</ele><time>2026-04-19T08:51:41.122Z</time></trkpt><trkpt lat="43.3747049" lon="11.2806986"><ele>249.0</ele><time>2026-04-19T08:51:42.13Z</time></trkpt><trkpt lat="43.3747726" lon="11.2806191"><ele>247.0</ele><time>2026-04-19T08:51:43.126Z</time></trkpt><trkpt lat="43.374839" lon="11.2805365"><ele>245.0</ele><time>2026-04-19T08:51:44.104Z</time></trkpt><trkpt lat="43.3749016" lon="11.2804492"><ele>243.0</ele><time>2026-04-19T08:51:45.12Z</time></trkpt><trkpt lat="43.3749657" lon="11.280358"><ele>243.0</ele><time>2026-04-19T08:51:46.142Z</time></trkpt><trkpt lat="43.375024" lon="11.2802659"><ele>243.0</ele><time>2026-04-19T08:51:47.12Z</time></trkpt><trkpt lat="43.3750686" lon="11.2801596"><ele>243.0</ele><time>2026-04-19T08:51:48.133Z</time></trkpt><trkpt lat="43.375104" lon="11.2800446"><ele>243.0</ele><time>2026-04-19T08:51:49.13Z</time></trkpt><trkpt lat="43.3751337" lon="11.2799247"><ele>243.0</ele><time>2026-04-19T08:51:50.121Z</time></trkpt><trkpt lat="43.3751593" lon="11.2798013"><ele>242.2</ele><time>2026-04-19T08:51:51.127Z</time></trkpt><trkpt lat="43.3751732" lon="11.2796705"><ele>241.4</ele><time>2026-04-19T08:51:52.131Z</time></trkpt><trkpt lat="43.3751822" lon="11.2795325"><ele>240.59999999999997</ele><time>2026-04-19T08:51:53.128Z</time></trkpt><trkpt lat="43.3751893" lon="11.2793903"><ele>239.79999999999998</ele><time>2026-04-19T08:51:54.118Z</time></trkpt><trkpt lat="43.3752034" lon="11.2792472"><ele>239.0</ele><time>2026-04-19T08:51:55.136Z</time></trkpt><trkpt lat="43.3752231" lon="11.2791024"><ele>239.0</ele><time>2026-04-19T08:51:56.132Z</time></trkpt><trkpt lat="43.3752487" lon="11.2789555"><ele>238.99999999999997</ele><time>2026-04-19T08:51:57.133Z</time></trkpt><trkpt lat="43.3752797" lon="11.2788068"><ele>238.99999999999997</ele><time>2026-04-19T08:51:58.122Z</time></trkpt><trkpt lat="43.3753176" lon="11.2786607"><ele>239.0</ele><time>2026-04-19T08:51:59.145Z</time></trkpt><trkpt lat="43.3753575" lon="11.2785142"><ele>239.0</ele><time>2026-04-19T08:52:00.132Z</time></trkpt><trkpt lat="43.3754065" lon="11.2783684"><ele>237.0</ele><time>2026-04-19T08:52:01.128Z</time></trkpt><trkpt lat="43.3754646" lon="11.278222"><ele>235.0</ele><time>2026-04-19T08:52:02.126Z</time></trkpt><trkpt lat="43.3755263" lon="11.2780797"><ele>233.0</ele><time>2026-04-19T08:52:03.126Z</time></trkpt><trkpt lat="43.3755924" lon="11.2779362"><ele>231.0</ele><time>2026-04-19T08:52:04.121Z</time></trkpt><trkpt lat="43.3756625" lon="11.2777898"><ele>229.75</ele><time>2026-04-19T08:52:05.126Z</time></trkpt><trkpt lat="43.3757351" lon="11.2776488"><ele>228.5</ele><time>2026-04-19T08:52:06.124Z</time></trkpt><trkpt lat="43.3758104" lon="11.2775067"><ele>227.25</ele><time>2026-04-19T08:52:07.116Z</time></trkpt><trkpt lat="43.3758865" lon="11.2773607"><ele>226.0</ele><time>2026-04-19T08:52:08.12Z</time></trkpt><trkpt lat="43.375958" lon="11.2772145"><ele>225.25</ele><time>2026-04-19T08:52:09.138Z</time></trkpt><trkpt lat="43.3760274" lon="11.2770693"><ele>224.5</ele><time>2026-04-19T08:52:10.124Z</time></trkpt><trkpt lat="43.3760953" lon="11.2769291"><ele>223.75</ele><time>2026-04-19T08:52:11.121Z</time></trkpt><trkpt lat="43.3761622" lon="11.2767892"><ele>223.0</ele><time>2026-04-19T08:52:12.13Z</time></trkpt><trkpt lat="43.3762309" lon="11.2766569"><ele>223.0</ele><time>2026-04-19T08:52:13.128Z</time></trkpt><trkpt lat="43.3762984" lon="11.2765263"><ele>223.0</ele><time>2026-04-19T08:52:14.128Z</time></trkpt><trkpt lat="43.3763647" lon="11.2763989"><ele>223.0</ele><time>2026-04-19T08:52:15.124Z</time></trkpt><trkpt lat="43.376437" lon="11.2762771"><ele>223.0</ele><time>2026-04-19T08:52:16.109Z</time></trkpt><trkpt lat="43.3765156" lon="11.276163"><ele>223.60000000000002</ele><time>2026-04-19T08:52:17.143Z</time></trkpt><trkpt lat="43.3765976" lon="11.2760621"><ele>224.20000000000002</ele><time>2026-04-19T08:52:18.127Z</time></trkpt><trkpt lat="43.3766849" lon="11.2759694"><ele>224.8</ele><time>2026-04-19T08:52:19.128Z</time></trkpt><trkpt lat="43.3767781" lon="11.2758927"><ele>225.4</ele><time>2026-04-19T08:52:20.133Z</time></trkpt><trkpt lat="43.376874" lon="11.2758315"><ele>226.0</ele><time>2026-04-19T08:52:21.121Z</time></trkpt><trkpt lat="43.3769736" lon="11.2757761"><ele>226.0</ele><time>2026-04-19T08:52:22.129Z</time></trkpt><trkpt lat="43.3770737" lon="11.2757238"><ele>226.00000000000003</ele><time>2026-04-19T08:52:23.13Z</time></trkpt><trkpt lat="43.3771709" lon="11.275679"><ele>226.00000000000003</ele><time>2026-04-19T08:52:24.131Z</time></trkpt><trkpt lat="43.377264" lon="11.2756365"><ele>226.0</ele><time>2026-04-19T08:52:25.138Z</time></trkpt><trkpt lat="43.3773519" lon="11.2755939"><ele>226.0</ele><time>2026-04-19T08:52:26.118Z</time></trkpt><trkpt lat="43.377438" lon="11.2755442"><ele>225.83333333333331</ele><time>2026-04-19T08:52:27.112Z</time></trkpt><trkpt lat="43.3775204" lon="11.2754866"><ele>225.66666666666666</ele><time>2026-04-19T08:52:28.116Z</time></trkpt><trkpt lat="43.3775936" lon="11.2754189"><ele>225.5</ele><time>2026-04-19T08:52:29.128Z</time></trkpt><trkpt lat="43.377661" lon="11.2753427"><ele>225.33333333333331</ele><time>2026-04-19T08:52:30.124Z</time></trkpt><trkpt lat="43.3777258" lon="11.2752627"><ele>225.16666666666666</ele><time>2026-04-19T08:52:31.127Z</time></trkpt><trkpt lat="43.3777857" lon="11.2751796"><ele>225.0</ele><time>2026-04-19T08:52:32.13Z</time></trkpt><trkpt lat="43.3778443" lon="11.2750992"><ele>225.0</ele><time>2026-04-19T08:52:33.128Z</time></trkpt><trkpt lat="43.377903" lon="11.2750188"><ele>225.0</ele><time>2026-04-19T08:52:34.128Z</time></trkpt><trkpt lat="43.3779622" lon="11.2749396"><ele>225.0</ele><time>2026-04-19T08:52:35.132Z</time></trkpt><trkpt lat="43.3780224" lon="11.2748572"><ele>225.0</ele><time>2026-04-19T08:52:36.129Z</time></trkpt><trkpt lat="43.3780826" lon="11.2747741"><ele>225.0</ele><time>2026-04-19T08:52:37.125Z</time></trkpt><trkpt lat="43.3781433" lon="11.2746951"><ele>225.0</ele><time>2026-04-19T08:52:38.132Z</time></trkpt><trkpt lat="43.3782034" lon="11.2746177"><ele>224.66666666666666</ele><time>2026-04-19T08:52:39.123Z</time></trkpt><trkpt lat="43.3782659" lon="11.2745433"><ele>224.33333333333331</ele><time>2026-04-19T08:52:40.115Z</time></trkpt><trkpt lat="43.3783247" lon="11.274468"><ele>224.0</ele><time>2026-04-19T08:52:41.129Z</time></trkpt><trkpt lat="43.3783828" lon="11.2743969"><ele>223.66666666666666</ele><time>2026-04-19T08:52:42.129Z</time></trkpt><trkpt lat="43.3784484" lon="11.2743411"><ele>223.33333333333331</ele><time>2026-04-19T08:52:43.128Z</time></trkpt><trkpt lat="43.3785196" lon="11.2743058"><ele>223.0</ele><time>2026-04-19T08:52:44.119Z</time></trkpt><trkpt lat="43.3785923" lon="11.2742798"><ele>222.99999999999997</ele><time>2026-04-19T08:52:45.126Z</time></trkpt><trkpt lat="43.3786571" lon="11.2742276"><ele>223.0</ele><time>2026-04-19T08:52:46.125Z</time></trkpt><trkpt lat="43.3787059" lon="11.2741399"><ele>223.0</ele><time>2026-04-19T08:52:47.12Z</time></trkpt><trkpt lat="43.3787372" lon="11.2740416"><ele>223.0</ele><time>2026-04-19T08:52:48.129Z</time></trkpt><trkpt lat="43.378762" lon="11.2739422"><ele>222.99999999999997</ele><time>2026-04-19T08:52:49.133Z</time></trkpt><trkpt lat="43.3788028" lon="11.2738526"><ele>223.0</ele><time>2026-04-19T08:52:50.127Z</time></trkpt><trkpt lat="43.3788575" lon="11.2737791"><ele>222.99999999999997</ele><time>2026-04-19T08:52:51.12Z</time></trkpt><trkpt lat="43.3789171" lon="11.273704"><ele>223.0</ele><time>2026-04-19T08:52:52.125Z</time></trkpt><trkpt lat="43.378978" lon="11.2736402"><ele>223.0</ele><time>2026-04-19T08:52:53.107Z</time></trkpt><trkpt lat="43.3790426" lon="11.2735743"><ele>223.0</ele><time>2026-04-19T08:52:54.124Z</time></trkpt><trkpt lat="43.3791041" lon="11.2735124"><ele>222.99999999999997</ele><time>2026-04-19T08:52:55.126Z</time></trkpt><trkpt lat="43.3791644" lon="11.2734515"><ele>223.0</ele><time>2026-04-19T08:52:56.124Z</time></trkpt><trkpt lat="43.3792254" lon="11.2733923"><ele>223.0</ele><time>2026-04-19T08:52:57.125Z</time></trkpt><trkpt lat="43.3792834" lon="11.2733298"><ele>223.0</ele><time>2026-04-19T08:52:58.127Z</time></trkpt><trkpt lat="43.3793445" lon="11.2732691"><ele>223.0</ele><time>2026-04-19T08:52:59.133Z</time></trkpt><trkpt lat="43.3794024" lon="11.2732065"><ele>223.0</ele><time>2026-04-19T08:53:00.141Z</time></trkpt><trkpt lat="43.3794587" lon="11.2731455"><ele>223.0</ele><time>2026-04-19T08:53:01.129Z</time></trkpt><trkpt lat="43.379515" lon="11.2730846"><ele>223.0</ele><time>2026-04-19T08:53:02.137Z</time></trkpt><trkpt lat="43.3795724" lon="11.2730217"><ele>223.0</ele><time>2026-04-19T08:53:03.136Z</time></trkpt><trkpt lat="43.3796276" lon="11.2729577"><ele>222.85714285714286</ele><time>2026-04-19T08:53:04.122Z</time></trkpt><trkpt lat="43.3796839" lon="11.2728984"><ele>222.71428571428572</ele><time>2026-04-19T08:53:05.126Z</time></trkpt><trkpt lat="43.3797404" lon="11.2728363"><ele>222.57142857142856</ele><time>2026-04-19T08:53:06.131Z</time></trkpt><trkpt lat="43.3797966" lon="11.2727713"><ele>222.42857142857144</ele><time>2026-04-19T08:53:07.125Z</time></trkpt><trkpt lat="43.3798523" lon="11.2727068"><ele>222.2857142857143</ele><time>2026-04-19T08:53:08.139Z</time></trkpt><trkpt lat="43.3799057" lon="11.2726432"><ele>222.14285714285714</ele><time>2026-04-19T08:53:09.125Z</time></trkpt><trkpt lat="43.3799589" lon="11.2725793"><ele>222.0</ele><time>2026-04-19T08:53:10.13Z</time></trkpt><trkpt lat="43.380013" lon="11.2725139"><ele>222.0</ele><time>2026-04-19T08:53:11.142Z</time></trkpt><trkpt lat="43.380065" lon="11.2724523"><ele>222.0</ele><time>2026-04-19T08:53:12.12Z</time></trkpt><trkpt lat="43.3801195" lon="11.2723918"><ele>222.0</ele><time>2026-04-19T08:53:13.125Z</time></trkpt><trkpt lat="43.380176" lon="11.2723327"><ele>222.0</ele><time>2026-04-19T08:53:14.133Z</time></trkpt><trkpt lat="43.3802334" lon="11.2722741"><ele>222.0</ele><time>2026-04-19T08:53:15.127Z</time></trkpt><trkpt lat="43.3802881" lon="11.2722157"><ele>222.0</ele><time>2026-04-19T08:53:16.115Z</time></trkpt><trkpt lat="43.3803398" lon="11.2721549"><ele>222.0</ele><time>2026-04-19T08:53:17.129Z</time></trkpt><trkpt lat="43.380392" lon="11.2720935"><ele>221.85714285714286</ele><time>2026-04-19T08:53:18.141Z</time></trkpt><trkpt lat="43.3804484" lon="11.2720347"><ele>221.71428571428572</ele><time>2026-04-19T08:53:19.12Z</time></trkpt><trkpt lat="43.3805035" lon="11.2719744"><ele>221.57142857142858</ele><time>2026-04-19T08:53:20.115Z</time></trkpt><trkpt lat="43.3805561" lon="11.271912"><ele>221.42857142857144</ele><time>2026-04-19T08:53:21.136Z</time></trkpt><trkpt lat="43.3806082" lon="11.2718519"><ele>221.28571428571428</ele><time>2026-04-19T08:53:22.137Z</time></trkpt><trkpt lat="43.3806583" lon="11.2717928"><ele>221.14285714285717</ele><time>2026-04-19T08:53:23.117Z</time></trkpt><trkpt lat="43.380708" lon="11.2717318"><ele>221.0</ele><time>2026-04-19T08:53:24.121Z</time></trkpt><trkpt lat="43.3807588" lon="11.2716686"><ele>220.85714285714286</ele><time>2026-04-19T08:53:25.132Z</time></trkpt><trkpt lat="43.3808108" lon="11.2716075"><ele>220.71428571428572</ele><time>2026-04-19T08:53:26.134Z</time></trkpt><trkpt lat="43.3808649" lon="11.2715463"><ele>220.57142857142856</ele><time>2026-04-19T08:53:27.127Z</time></trkpt><trkpt lat="43.3809244" lon="11.2714837"><ele>220.42857142857144</ele><time>2026-04-19T08:53:28.142Z</time></trkpt><trkpt lat="43.3809826" lon="11.2714222"><ele>220.28571428571428</ele><time>2026-04-19T08:53:29.123Z</time></trkpt><trkpt lat="43.3810382" lon="11.2713617"><ele>220.14285714285714</ele><time>2026-04-19T08:53:30.129Z</time></trkpt><trkpt lat="43.3810914" lon="11.2713014"><ele>220.0</ele><time>2026-04-19T08:53:31.126Z</time></trkpt><trkpt lat="43.3811465" lon="11.2712399"><ele>219.99999999999997</ele><time>2026-04-19T08:53:32.123Z</time></trkpt><trkpt lat="43.3812029" lon="11.2711833"><ele>220.0</ele><time>2026-04-19T08:53:33.119Z</time></trkpt><trkpt lat="43.3812586" lon="11.2711239"><ele>220.0</ele><time>2026-04-19T08:53:34.141Z</time></trkpt><trkpt lat="43.3813119" lon="11.2710686"><ele>220.0</ele><time>2026-04-19T08:53:35.129Z</time></trkpt><trkpt lat="43.3813684" lon="11.2710158"><ele>220.0</ele><time>2026-04-19T08:53:36.125Z</time></trkpt><trkpt lat="43.3814241" lon="11.2709596"><ele>219.99999999999997</ele><time>2026-04-19T08:53:37.128Z</time></trkpt><trkpt lat="43.3814807" lon="11.2709026"><ele>220.0</ele><time>2026-04-19T08:53:38.132Z</time></trkpt><trkpt lat="43.3815372" lon="11.2708472"><ele>219.85714285714283</ele><time>2026-04-19T08:53:39.121Z</time></trkpt><trkpt lat="43.3815956" lon="11.2707896"><ele>219.71428571428572</ele><time>2026-04-19T08:53:40.125Z</time></trkpt><trkpt lat="43.3816525" lon="11.2707318"><ele>219.57142857142856</ele><time>2026-04-19T08:53:41.129Z</time></trkpt><trkpt lat="43.3817093" lon="11.2706731"><ele>219.42857142857142</ele><time>2026-04-19T08:53:42.13Z</time></trkpt><trkpt lat="43.3817649" lon="11.270611"><ele>219.28571428571428</ele><time>2026-04-19T08:53:43.13Z</time></trkpt><trkpt lat="43.3818188" lon="11.2705448"><ele>219.14285714285714</ele><time>2026-04-19T08:53:44.124Z</time></trkpt><trkpt lat="43.3818733" lon="11.2704842"><ele>219.0</ele><time>2026-04-19T08:53:45.108Z</time></trkpt><trkpt lat="43.3819306" lon="11.2704287"><ele>218.85714285714286</ele><time>2026-04-19T08:53:46.126Z</time></trkpt><trkpt lat="43.3819876" lon="11.2703732"><ele>218.7142857142857</ele><time>2026-04-19T08:53:47.137Z</time></trkpt><trkpt lat="43.3820452" lon="11.2703175"><ele>218.57142857142856</ele><time>2026-04-19T08:53:48.128Z</time></trkpt><trkpt lat="43.3821009" lon="11.2702615"><ele>218.42857142857144</ele><time>2026-04-19T08:53:49.13Z</time></trkpt><trkpt lat="43.3821547" lon="11.2702085"><ele>218.28571428571428</ele><time>2026-04-19T08:53:50.126Z</time></trkpt><trkpt lat="43.3822093" lon="11.2701544"><ele>218.14285714285714</ele><time>2026-04-19T08:53:51.123Z</time></trkpt><trkpt lat="43.3822631" lon="11.2700996"><ele>218.0</ele><time>2026-04-19T08:53:52.129Z</time></trkpt><trkpt lat="43.3823195" lon="11.270044"><ele>217.85714285714286</ele><time>2026-04-19T08:53:53.131Z</time></trkpt><trkpt lat="43.3823746" lon="11.2699829"><ele>217.71428571428572</ele><time>2026-04-19T08:53:54.132Z</time></trkpt><trkpt lat="43.3824296" lon="11.2699197"><ele>217.57142857142856</ele><time>2026-04-19T08:53:55.119Z</time></trkpt><trkpt lat="43.3824822" lon="11.2698554"><ele>217.42857142857144</ele><time>2026-04-19T08:53:56.129Z</time></trkpt><trkpt lat="43.3825354" lon="11.2697889"><ele>217.28571428571428</ele><time>2026-04-19T08:53:57.121Z</time></trkpt><trkpt lat="43.3825909" lon="11.2697253"><ele>217.14285714285714</ele><time>2026-04-19T08:53:58.131Z</time></trkpt><trkpt lat="43.3826467" lon="11.2696697"><ele>217.0</ele><time>2026-04-19T08:53:59.129Z</time></trkpt><trkpt lat="43.3827036" lon="11.2696128"><ele>217.28571428571428</ele><time>2026-04-19T08:54:00.128Z</time></trkpt><trkpt lat="43.3827597" lon="11.2695606"><ele>217.57142857142856</ele><time>2026-04-19T08:54:01.135Z</time></trkpt><trkpt lat="43.3828167" lon="11.2695084"><ele>217.85714285714286</ele><time>2026-04-19T08:54:02.125Z</time></trkpt><trkpt lat="43.3828766" lon="11.2694551"><ele>218.14285714285714</ele><time>2026-04-19T08:54:03.131Z</time></trkpt><trkpt lat="43.3829381" lon="11.2694031"><ele>218.42857142857142</ele><time>2026-04-19T08:54:04.113Z</time></trkpt><trkpt lat="43.3829974" lon="11.2693541"><ele>218.71428571428572</ele><time>2026-04-19T08:54:05.126Z</time></trkpt><trkpt lat="43.3830563" lon="11.269304"><ele>219.0</ele><time>2026-04-19T08:54:06.138Z</time></trkpt><trkpt lat="43.383113" lon="11.2692576"><ele>219.0</ele><time>2026-04-19T08:54:07.14Z</time></trkpt><trkpt lat="43.3831696" lon="11.2692111"><ele>219.0</ele><time>2026-04-19T08:54:08.117Z</time></trkpt><trkpt lat="43.3832282" lon="11.2691588"><ele>219.0</ele><time>2026-04-19T08:54:09.133Z</time></trkpt><trkpt lat="43.3832844" lon="11.2691037"><ele>219.0</ele><time>2026-04-19T08:54:10.119Z</time></trkpt><trkpt lat="43.3833377" lon="11.2690483"><ele>219.0</ele><time>2026-04-19T08:54:11.138Z</time></trkpt><trkpt lat="43.3833901" lon="11.2689965"><ele>219.0</ele><time>2026-04-19T08:54:12.126Z</time></trkpt><trkpt lat="43.3834458" lon="11.2689455"><ele>219.0</ele><time>2026-04-19T08:54:13.121Z</time></trkpt><trkpt lat="43.3835013" lon="11.2688943"><ele>219.0</ele><time>2026-04-19T08:54:14.123Z</time></trkpt><trkpt lat="43.3835564" lon="11.2688371"><ele>219.0</ele><time>2026-04-19T08:54:15.132Z</time></trkpt><trkpt lat="43.3836069" lon="11.2687815"><ele>219.0</ele><time>2026-04-19T08:54:16.127Z</time></trkpt><trkpt lat="43.3837083" lon="11.2686763"><ele>219.0</ele><time>2026-04-19T08:54:18.132Z</time></trkpt><trkpt lat="43.3837594" lon="11.2686221"><ele>219.0</ele><time>2026-04-19T08:54:19.116Z</time></trkpt><trkpt lat="43.3838108" lon="11.2685657"><ele>219.0</ele><time>2026-04-19T08:54:20.127Z</time></trkpt><trkpt lat="43.383861" lon="11.2685116"><ele>219.14285714285714</ele><time>2026-04-19T08:54:21.122Z</time></trkpt><trkpt lat="43.3839125" lon="11.2684599"><ele>219.28571428571428</ele><time>2026-04-19T08:54:22.122Z</time></trkpt><trkpt lat="43.3839649" lon="11.2684046"><ele>219.42857142857142</ele><time>2026-04-19T08:54:23.126Z</time></trkpt><trkpt lat="43.384017" lon="11.2683485"><ele>219.57142857142856</ele><time>2026-04-19T08:54:24.13Z</time></trkpt><trkpt lat="43.3840685" lon="11.2682939"><ele>219.71428571428572</ele><time>2026-04-19T08:54:25.132Z</time></trkpt><trkpt lat="43.3841208" lon="11.2682393"><ele>219.85714285714283</ele><time>2026-04-19T08:54:26.196Z</time></trkpt><trkpt lat="43.3842104" lon="11.2681437"><ele>220.0</ele><time>2026-04-19T08:54:28.12Z</time></trkpt><trkpt lat="43.3843093" lon="11.2680311"><ele>219.99999999999997</ele><time>2026-04-19T08:54:30.188Z</time></trkpt><trkpt lat="43.3843598" lon="11.2679757"><ele>220.0</ele><time>2026-04-19T08:54:31.195Z</time></trkpt><trkpt lat="43.3844094" lon="11.2679194"><ele>220.0</ele><time>2026-04-19T08:54:32.191Z</time></trkpt><trkpt lat="43.3844571" lon="11.2678621"><ele>220.0</ele><time>2026-04-19T08:54:33.128Z</time></trkpt><trkpt lat="43.3845098" lon="11.267803"><ele>219.99999999999997</ele><time>2026-04-19T08:54:34.137Z</time></trkpt><trkpt lat="43.3845598" lon="11.2677408"><ele>220.0</ele><time>2026-04-19T08:54:35.173Z</time></trkpt><trkpt lat="43.3846485" lon="11.2676166"><ele>219.4</ele><time>2026-04-19T08:54:37.12Z</time></trkpt><trkpt lat="43.3846932" lon="11.2675521"><ele>218.8</ele><time>2026-04-19T08:54:38.115Z</time></trkpt><trkpt lat="43.3847794" lon="11.2674268"><ele>218.2</ele><time>2026-04-19T08:54:40.106Z</time></trkpt><trkpt lat="43.3848245" lon="11.2673641"><ele>217.6</ele><time>2026-04-19T08:54:41.119Z</time></trkpt><trkpt lat="43.3849144" lon="11.2672431"><ele>217.0</ele><time>2026-04-19T08:54:43.127Z</time></trkpt><trkpt lat="43.3849984" lon="11.2671159"><ele>219.5</ele><time>2026-04-19T08:54:45.133Z</time></trkpt><trkpt lat="43.3850762" lon="11.2669891"><ele>222.0</ele><time>2026-04-19T08:54:47.099Z</time></trkpt><trkpt lat="43.3851494" lon="11.2668523"><ele>224.5</ele><time>2026-04-19T08:54:49.136Z</time></trkpt><trkpt lat="43.3852126" lon="11.2667192"><ele>227.0</ele><time>2026-04-19T08:54:51.123Z</time></trkpt><trkpt lat="43.3852656" lon="11.2665733"><ele>229.16666666666669</ele><time>2026-04-19T08:54:53.104Z</time></trkpt><trkpt lat="43.38531" lon="11.2664328"><ele>231.33333333333334</ele><time>2026-04-19T08:54:55.119Z</time></trkpt><trkpt lat="43.3853619" lon="11.2662849"><ele>233.5</ele><time>2026-04-19T08:54:57.12Z</time></trkpt><trkpt lat="43.3853904" lon="11.2662063"><ele>235.66666666666669</ele><time>2026-04-19T08:54:58.118Z</time></trkpt><trkpt lat="43.3854196" lon="11.2661229"><ele>237.83333333333334</ele><time>2026-04-19T08:54:59.121Z</time></trkpt><trkpt lat="43.3854486" lon="11.2660379"><ele>240.0</ele><time>2026-04-19T08:55:00.122Z</time></trkpt><trkpt lat="43.3854777" lon="11.2659459"><ele>240.0</ele><time>2026-04-19T08:55:01.126Z</time></trkpt><trkpt lat="43.3855035" lon="11.2658621"><ele>240.0</ele><time>2026-04-19T08:55:02.114Z</time></trkpt><trkpt lat="43.38553" lon="11.2657829"><ele>240.0</ele><time>2026-04-19T08:55:03.125Z</time></trkpt><trkpt lat="43.385557" lon="11.265702"><ele>240.0</ele><time>2026-04-19T08:55:04.115Z</time></trkpt><trkpt lat="43.3855852" lon="11.2656197"><ele>240.0</ele><time>2026-04-19T08:55:05.127Z</time></trkpt><trkpt lat="43.3856139" lon="11.2655393"><ele>240.0</ele><time>2026-04-19T08:55:06.114Z</time></trkpt><trkpt lat="43.3856449" lon="11.2654586"><ele>240.0</ele><time>2026-04-19T08:55:07.118Z</time></trkpt><trkpt lat="43.385676" lon="11.2653822"><ele>236.83333333333334</ele><time>2026-04-19T08:55:08.117Z</time></trkpt><trkpt lat="43.3857094" lon="11.2653073"><ele>233.66666666666669</ele><time>2026-04-19T08:55:09.115Z</time></trkpt><trkpt lat="43.3857856" lon="11.265182"><ele>230.5</ele><time>2026-04-19T08:55:11.12Z</time></trkpt><trkpt lat="43.3858907" lon="11.2650933"><ele>227.33333333333334</ele><time>2026-04-19T08:55:13.132Z</time></trkpt><trkpt lat="43.3859492" lon="11.2650598"><ele>224.16666666666669</ele><time>2026-04-19T08:55:14.117Z</time></trkpt><trkpt lat="43.3860106" lon="11.265029"><ele>221.0</ele><time>2026-04-19T08:55:15.126Z</time></trkpt><trkpt lat="43.3860707" lon="11.264999"><ele>221.0</ele><time>2026-04-19T08:55:16.123Z</time></trkpt><trkpt lat="43.3861301" lon="11.2649676"><ele>221.00000000000003</ele><time>2026-04-19T08:55:17.098Z</time></trkpt><trkpt lat="43.3861904" lon="11.264938"><ele>221.00000000000003</ele><time>2026-04-19T08:55:18.114Z</time></trkpt><trkpt lat="43.3863045" lon="11.2648826"><ele>221.0</ele><time>2026-04-19T08:55:20.122Z</time></trkpt><trkpt lat="43.3864144" lon="11.264818"><ele>221.0</ele><time>2026-04-19T08:55:22.115Z</time></trkpt><trkpt lat="43.3865079" lon="11.2647159"><ele>220.20000000000002</ele><time>2026-04-19T08:55:24.121Z</time></trkpt><trkpt lat="43.3865651" lon="11.2645623"><ele>219.40000000000003</ele><time>2026-04-19T08:55:26.126Z</time></trkpt><trkpt lat="43.3865764" lon="11.2644739"><ele>218.6</ele><time>2026-04-19T08:55:27.129Z</time></trkpt><trkpt lat="43.3865757" lon="11.2643143"><ele>217.8</ele><time>2026-04-19T08:55:29.103Z</time></trkpt><trkpt lat="43.386549" lon="11.2641754"><ele>217.0</ele><time>2026-04-19T08:55:31.12Z</time></trkpt><trkpt lat="43.3865233" lon="11.2640459"><ele>216.75</ele><time>2026-04-19T08:55:33.132Z</time></trkpt><trkpt lat="43.3864947" lon="11.2639093"><ele>216.5</ele><time>2026-04-19T08:55:35.113Z</time></trkpt><trkpt lat="43.3864598" lon="11.2637415"><ele>216.25</ele><time>2026-04-19T08:55:37.117Z</time></trkpt><trkpt lat="43.3864032" lon="11.2635961"><ele>216.0</ele><time>2026-04-19T08:55:39.125Z</time></trkpt><trkpt lat="43.3863348" lon="11.2634576"><ele>221.5</ele><time>2026-04-19T08:55:41.125Z</time></trkpt><trkpt lat="43.3862689" lon="11.2633197"><ele>227.0</ele><time>2026-04-19T08:55:43.111Z</time></trkpt><trkpt lat="43.3862235" lon="11.2631712"><ele>232.5</ele><time>2026-04-19T08:55:45.118Z</time></trkpt><trkpt lat="43.3862132" lon="11.2630065"><ele>238.0</ele><time>2026-04-19T08:55:47.116Z</time></trkpt><trkpt lat="43.3862505" lon="11.2628551"><ele>240.25</ele><time>2026-04-19T08:55:49.13Z</time></trkpt><trkpt lat="43.3862863" lon="11.2627088"><ele>242.5</ele><time>2026-04-19T08:55:51.118Z</time></trkpt><trkpt lat="43.3863165" lon="11.2625583"><ele>244.75</ele><time>2026-04-19T08:55:53.128Z</time></trkpt><trkpt lat="43.3863442" lon="11.2624042"><ele>247.0</ele><time>2026-04-19T08:55:55.123Z</time></trkpt><trkpt lat="43.386366" lon="11.2622422"><ele>242.2</ele><time>2026-04-19T08:55:57.12Z</time></trkpt><trkpt lat="43.3863812" lon="11.2621547"><ele>237.39999999999998</ele><time>2026-04-19T08:55:58.128Z</time></trkpt><trkpt lat="43.3864009" lon="11.2620715"><ele>232.60000000000002</ele><time>2026-04-19T08:55:59.12Z</time></trkpt><trkpt lat="43.3864436" lon="11.261916"><ele>227.8</ele><time>2026-04-19T08:56:01.119Z</time></trkpt><trkpt lat="43.3864737" lon="11.2617549"><ele>223.0</ele><time>2026-04-19T08:56:03.132Z</time></trkpt><trkpt lat="43.3865121" lon="11.261609"><ele>223.0</ele><time>2026-04-19T08:56:05.124Z</time></trkpt><trkpt lat="43.3865644" lon="11.2614676"><ele>223.0</ele><time>2026-04-19T08:56:07.115Z</time></trkpt><trkpt lat="43.3866193" lon="11.2613351"><ele>223.0</ele><time>2026-04-19T08:56:09.115Z</time></trkpt><trkpt lat="43.3866582" lon="11.2612126"><ele>223.0</ele><time>2026-04-19T08:56:11.116Z</time></trkpt><trkpt lat="43.3866942" lon="11.2610897"><ele>223.0</ele><time>2026-04-19T08:56:13.131Z</time></trkpt><trkpt lat="43.386722" lon="11.260978"><ele>223.42857142857142</ele><time>2026-04-19T08:56:15.126Z</time></trkpt><trkpt lat="43.3867515" lon="11.2608833"><ele>223.85714285714283</ele><time>2026-04-19T08:56:17.123Z</time></trkpt><trkpt lat="43.3867669" lon="11.2607894"><ele>224.28571428571428</ele><time>2026-04-19T08:56:19.128Z</time></trkpt><trkpt lat="43.3867818" lon="11.2606947"><ele>224.71428571428572</ele><time>2026-04-19T08:56:21.125Z</time></trkpt><trkpt lat="43.3867964" lon="11.2606085"><ele>225.14285714285714</ele><time>2026-04-19T08:56:23.125Z</time></trkpt><trkpt lat="43.3868134" lon="11.2605214"><ele>225.57142857142858</ele><time>2026-04-19T08:56:25.115Z</time></trkpt><trkpt lat="43.3868304" lon="11.2604257"><ele>226.0</ele><time>2026-04-19T08:56:27.126Z</time></trkpt><trkpt lat="43.3868428" lon="11.2603229"><ele>226.33333333333331</ele><time>2026-04-19T08:56:29.13Z</time></trkpt><trkpt lat="43.3868574" lon="11.2602252"><ele>226.66666666666666</ele><time>2026-04-19T08:56:31.121Z</time></trkpt><trkpt lat="43.3868699" lon="11.2600968"><ele>227.0</ele><time>2026-04-19T08:56:34.113Z</time></trkpt><trkpt lat="43.3868784" lon="11.2600057"><ele>227.33333333333331</ele><time>2026-04-19T08:56:36.117Z</time></trkpt><trkpt lat="43.3868954" lon="11.2599088"><ele>227.66666666666666</ele><time>2026-04-19T08:56:38.135Z</time></trkpt><trkpt lat="43.3869124" lon="11.2597896"><ele>228.0</ele><time>2026-04-19T08:56:40.129Z</time></trkpt><trkpt lat="43.3869272" lon="11.259654"><ele>228.0</ele><time>2026-04-19T08:56:42.134Z</time></trkpt><trkpt lat="43.3869363" lon="11.2595164"><ele>228.0</ele><time>2026-04-19T08:56:44.136Z</time></trkpt><trkpt lat="43.3869325" lon="11.2593989"><ele>228.0</ele><time>2026-04-19T08:56:46.127Z</time></trkpt><trkpt lat="43.3869104" lon="11.2593024"><ele>228.0</ele><time>2026-04-19T08:56:48.126Z</time></trkpt><trkpt lat="43.3868672" lon="11.2592181"><ele>228.0</ele><time>2026-04-19T08:56:50.128Z</time></trkpt><trkpt lat="43.3868046" lon="11.2591486"><ele>228.0</ele><time>2026-04-19T08:56:52.122Z</time></trkpt><trkpt lat="43.3867482" lon="11.2590925"><ele>228.0</ele><time>2026-04-19T08:56:54.113Z</time></trkpt><trkpt lat="43.3866972" lon="11.2590335"><ele>227.99999999999997</ele><time>2026-04-19T08:56:56.116Z</time></trkpt><trkpt lat="43.3866344" lon="11.2589406"><ele>228.0</ele><time>2026-04-19T08:56:59.124Z</time></trkpt><trkpt lat="43.3865777" lon="11.2588548"><ele>228.0</ele><time>2026-04-19T08:57:02.128Z</time></trkpt><trkpt lat="43.386542" lon="11.2587782"><ele>227.99999999999997</ele><time>2026-04-19T08:57:05.115Z</time></trkpt><trkpt lat="43.3865083" lon="11.2587003"><ele>228.0</ele><time>2026-04-19T08:57:08.12Z</time></trkpt><trkpt lat="43.3864711" lon="11.258622"><ele>228.0</ele><time>2026-04-19T08:57:11.128Z</time></trkpt><trkpt lat="43.3864435" lon="11.2585417"><ele>227.85714285714283</ele><time>2026-04-19T08:57:14.123Z</time></trkpt><trkpt lat="43.3864137" lon="11.258465"><ele>227.7142857142857</ele><time>2026-04-19T08:57:17.122Z</time></trkpt><trkpt lat="43.3863844" lon="11.2583852"><ele>227.57142857142856</ele><time>2026-04-19T08:57:20.121Z</time></trkpt><trkpt lat="43.3863401" lon="11.2582881"><ele>227.42857142857144</ele><time>2026-04-19T08:57:24.142Z</time></trkpt><trkpt lat="43.3862937" lon="11.2582049"><ele>227.2857142857143</ele><time>2026-04-19T08:57:28.116Z</time></trkpt><trkpt lat="43.386254" lon="11.2581183"><ele>227.14285714285717</ele><time>2026-04-19T08:57:32.116Z</time></trkpt><trkpt lat="43.3862186" lon="11.2580317"><ele>227.0</ele><time>2026-04-19T08:57:36.113Z</time></trkpt><trkpt lat="43.3861825" lon="11.2579399"><ele>228.85714285714286</ele><time>2026-04-19T08:57:40.131Z</time></trkpt><trkpt lat="43.386152" lon="11.257856"><ele>230.71428571428572</ele><time>2026-04-19T08:57:44.13Z</time></trkpt><trkpt lat="43.3861581" lon="11.2577502"><ele>232.57142857142858</ele><time>2026-04-19T08:57:50.097Z</time></trkpt><trkpt lat="43.386149" lon="11.2576473"><ele>234.42857142857144</ele><time>2026-04-19T08:57:54.131Z</time></trkpt><trkpt lat="43.3861297" lon="11.2575515"><ele>236.28571428571428</ele><time>2026-04-19T08:57:58.113Z</time></trkpt><trkpt lat="43.3861111" lon="11.2574626"><ele>238.14285714285717</ele><time>2026-04-19T08:58:05.128Z</time></trkpt><trkpt lat="43.3860936" lon="11.2573669"><ele>240.0</ele><time>2026-04-19T08:58:09.116Z</time></trkpt><trkpt lat="43.3860664" lon="11.2572713"><ele>240.0</ele><time>2026-04-19T08:58:13.189Z</time></trkpt><trkpt lat="43.386035" lon="11.2571669"><ele>240.0</ele><time>2026-04-19T08:58:18.134Z</time></trkpt><trkpt lat="43.386018" lon="11.2570699"><ele>240.0</ele><time>2026-04-19T08:58:21.199Z</time></trkpt><trkpt lat="43.3859363" lon="11.2570261"><ele>240.0</ele><time>2026-04-19T08:58:26.19Z</time></trkpt><trkpt lat="43.3858847" lon="11.2569471"><ele>240.0</ele><time>2026-04-19T08:58:30.185Z</time></trkpt><trkpt lat="43.3858219" lon="11.2568753"><ele>240.0</ele><time>2026-04-19T08:58:33.131Z</time></trkpt><trkpt lat="43.3857526" lon="11.2568095"><ele>240.0</ele><time>2026-04-19T08:58:36.118Z</time></trkpt><trkpt lat="43.3856858" lon="11.2567422"><ele>240.0</ele><time>2026-04-19T08:58:39.134Z</time></trkpt><trkpt lat="43.3856301" lon="11.2566638"><ele>240.0</ele><time>2026-04-19T08:58:42.141Z</time></trkpt><trkpt lat="43.3855852" lon="11.256575"><ele>240.0</ele><time>2026-04-19T08:58:44.124Z</time></trkpt><trkpt lat="43.3855288" lon="11.2564574"><ele>240.0</ele><time>2026-04-19T08:58:46.137Z</time></trkpt><trkpt lat="43.3854633" lon="11.2563386"><ele>240.8</ele><time>2026-04-19T08:58:48.13Z</time></trkpt><trkpt lat="43.3854092" lon="11.2562137"><ele>241.6</ele><time>2026-04-19T08:58:50.131Z</time></trkpt><trkpt lat="43.3853512" lon="11.2560899"><ele>242.39999999999998</ele><time>2026-04-19T08:58:52.12Z</time></trkpt><trkpt lat="43.3852963" lon="11.255961"><ele>243.2</ele><time>2026-04-19T08:58:54.134Z</time></trkpt><trkpt lat="43.3852246" lon="11.2558239"><ele>244.0</ele><time>2026-04-19T08:58:56.193Z</time></trkpt><trkpt lat="43.3851562" lon="11.255687"><ele>243.2</ele><time>2026-04-19T08:58:58.117Z</time></trkpt><trkpt lat="43.3851023" lon="11.2555526"><ele>242.39999999999998</ele><time>2026-04-19T08:59:00.108Z</time></trkpt><trkpt lat="43.3850812" lon="11.2554018"><ele>241.6</ele><time>2026-04-19T08:59:02.188Z</time></trkpt><trkpt lat="43.3850703" lon="11.2552625"><ele>240.8</ele><time>2026-04-19T08:59:04.118Z</time></trkpt><trkpt lat="43.3850739" lon="11.2551141"><ele>240.0</ele><time>2026-04-19T08:59:06.203Z</time></trkpt><trkpt lat="43.3851028" lon="11.2549783"><ele>240.0</ele><time>2026-04-19T08:59:08.1Z</time></trkpt><trkpt lat="43.3850693" lon="11.2548373"><ele>240.0</ele><time>2026-04-19T08:59:10.2Z</time></trkpt><trkpt lat="43.3850459" lon="11.2547535"><ele>240.0</ele><time>2026-04-19T08:59:11.121Z</time></trkpt><trkpt lat="43.3850095" lon="11.2546136"><ele>240.0</ele><time>2026-04-19T08:59:13.105Z</time></trkpt><trkpt lat="43.384957" lon="11.2544906"><ele>240.0</ele><time>2026-04-19T08:59:15.117Z</time></trkpt><trkpt lat="43.3849213" lon="11.2543822"><ele>240.0</ele><time>2026-04-19T08:59:17.118Z</time></trkpt><trkpt lat="43.3848869" lon="11.2542737"><ele>240.0</ele><time>2026-04-19T08:59:19.127Z</time></trkpt><trkpt lat="43.3848433" lon="11.2541837"><ele>240.0</ele><time>2026-04-19T08:59:21.194Z</time></trkpt><trkpt lat="43.3847984" lon="11.2541119"><ele>240.0</ele><time>2026-04-19T08:59:23.115Z</time></trkpt><trkpt lat="43.3847531" lon="11.2540373"><ele>240.0</ele><time>2026-04-19T08:59:25.199Z</time></trkpt><trkpt lat="43.3847271" lon="11.2539576"><ele>240.0</ele><time>2026-04-19T08:59:27.201Z</time></trkpt><trkpt lat="43.3846857" lon="11.2538451"><ele>242.33333333333334</ele><time>2026-04-19T08:59:30.187Z</time></trkpt><trkpt lat="43.3846424" lon="11.2537502"><ele>244.66666666666669</ele><time>2026-04-19T08:59:32.185Z</time></trkpt><trkpt lat="43.3845925" lon="11.2536718"><ele>247.0</ele><time>2026-04-19T08:59:35.195Z</time></trkpt><trkpt lat="43.3845126" lon="11.2536054"><ele>249.33333333333334</ele><time>2026-04-19T08:59:38.117Z</time></trkpt><trkpt lat="43.3844357" lon="11.2535451"><ele>251.66666666666669</ele><time>2026-04-19T08:59:40.106Z</time></trkpt><trkpt lat="43.384368" lon="11.2535087"><ele>254.0</ele><time>2026-04-19T08:59:42.192Z</time></trkpt><trkpt lat="43.3842947" lon="11.2534503"><ele>254.00000000000003</ele><time>2026-04-19T08:59:45.117Z</time></trkpt><trkpt lat="43.3842478" lon="11.2533616"><ele>254.0</ele><time>2026-04-19T08:59:48.12Z</time></trkpt><trkpt lat="43.3842575" lon="11.2532413"><ele>254.0</ele><time>2026-04-19T08:59:51.12Z</time></trkpt><trkpt lat="43.3843144" lon="11.2531549"><ele>254.0</ele><time>2026-04-19T08:59:54.124Z</time></trkpt><trkpt lat="43.384383" lon="11.2531006"><ele>254.00000000000003</ele><time>2026-04-19T08:59:57.196Z</time></trkpt><trkpt lat="43.3844431" lon="11.2530568"><ele>254.0</ele><time>2026-04-19T08:59:59.119Z</time></trkpt><trkpt lat="43.3845056" lon="11.2530179"><ele>254.33333333333334</ele><time>2026-04-19T09:00:01.205Z</time></trkpt><trkpt lat="43.3845713" lon="11.2529627"><ele>254.66666666666669</ele><time>2026-04-19T09:00:04.114Z</time></trkpt><trkpt lat="43.3846559" lon="11.2529511"><ele>255.0</ele><time>2026-04-19T09:00:06.191Z</time></trkpt><trkpt lat="43.3847312" lon="11.2529499"><ele>255.33333333333331</ele><time>2026-04-19T09:00:08.115Z</time></trkpt><trkpt lat="43.3848261" lon="11.2529363"><ele>255.66666666666666</ele><time>2026-04-19T09:00:10.181Z</time></trkpt><trkpt lat="43.3849267" lon="11.2528975"><ele>256.0</ele><time>2026-04-19T09:00:12.187Z</time></trkpt><trkpt lat="43.385008" lon="11.2528452"><ele>253.4</ele><time>2026-04-19T09:00:14.127Z</time></trkpt><trkpt lat="43.3850879" lon="11.2527705"><ele>250.8</ele><time>2026-04-19T09:00:16.134Z</time></trkpt><trkpt lat="43.3851548" lon="11.2526632"><ele>248.20000000000002</ele><time>2026-04-19T09:00:18.106Z</time></trkpt><trkpt lat="43.3851847" lon="11.2525456"><ele>245.60000000000002</ele><time>2026-04-19T09:00:20.159Z</time></trkpt><trkpt lat="43.3851724" lon="11.2524319"><ele>243.0</ele><time>2026-04-19T09:00:22.125Z</time></trkpt><trkpt lat="43.3851174" lon="11.2523251"><ele>242.33333333333334</ele><time>2026-04-19T09:00:24.146Z</time></trkpt><trkpt lat="43.3850464" lon="11.2522406"><ele>241.66666666666669</ele><time>2026-04-19T09:00:26.131Z</time></trkpt><trkpt lat="43.3849579" lon="11.2521549"><ele>241.0</ele><time>2026-04-19T09:00:28.117Z</time></trkpt><trkpt lat="43.3849032" lon="11.2521115"><ele>240.33333333333334</ele><time>2026-04-19T09:00:29.119Z</time></trkpt><trkpt lat="43.3848445" lon="11.2520689"><ele>239.66666666666669</ele><time>2026-04-19T09:00:30.117Z</time></trkpt><trkpt lat="43.3847805" lon="11.2520231"><ele>239.0</ele><time>2026-04-19T09:00:31.124Z</time></trkpt><trkpt lat="43.3847125" lon="11.2519727"><ele>240.83333333333334</ele><time>2026-04-19T09:00:32.183Z</time></trkpt><trkpt lat="43.3846439" lon="11.2519252"><ele>242.66666666666669</ele><time>2026-04-19T09:00:33.13Z</time></trkpt><trkpt lat="43.3845723" lon="11.2518667"><ele>244.5</ele><time>2026-04-19T09:00:34.115Z</time></trkpt><trkpt lat="43.3845029" lon="11.2518035"><ele>246.33333333333331</ele><time>2026-04-19T09:00:35.123Z</time></trkpt><trkpt lat="43.384437" lon="11.2517309"><ele>248.16666666666666</ele><time>2026-04-19T09:00:36.202Z</time></trkpt><trkpt lat="43.3843735" lon="11.2516649"><ele>250.0</ele><time>2026-04-19T09:00:37.181Z</time></trkpt><trkpt lat="43.3843184" lon="11.2515978"><ele>250.0</ele><time>2026-04-19T09:00:38.12Z</time></trkpt><trkpt lat="43.3842806" lon="11.2515197"><ele>250.0</ele><time>2026-04-19T09:00:39.115Z</time></trkpt><trkpt lat="43.3842557" lon="11.2513632"><ele>250.0</ele><time>2026-04-19T09:00:41.19Z</time></trkpt><trkpt lat="43.3842721" lon="11.2512067"><ele>250.0</ele><time>2026-04-19T09:00:43.194Z</time></trkpt><trkpt lat="43.3842924" lon="11.2510732"><ele>250.0</ele><time>2026-04-19T09:00:45.128Z</time></trkpt><trkpt lat="43.3843798" lon="11.2510523"><ele>249.16666666666666</ele><time>2026-04-19T09:00:47.195Z</time></trkpt><trkpt lat="43.3844428" lon="11.2510115"><ele>248.33333333333331</ele><time>2026-04-19T09:00:49.131Z</time></trkpt><trkpt lat="43.3845016" lon="11.2509513"><ele>247.5</ele><time>2026-04-19T09:00:51.132Z</time></trkpt><trkpt lat="43.3845484" lon="11.250852"><ele>246.66666666666669</ele><time>2026-04-19T09:00:53.119Z</time></trkpt><trkpt lat="43.3845456" lon="11.250737"><ele>245.83333333333334</ele><time>2026-04-19T09:00:56.121Z</time></trkpt><trkpt lat="43.3844882" lon="11.2506335"><ele>245.0</ele><time>2026-04-19T09:00:59.118Z</time></trkpt><trkpt lat="43.3844334" lon="11.2505684"><ele>244.50000000000003</ele><time>2026-04-19T09:01:01.113Z</time></trkpt><trkpt lat="43.3843722" lon="11.2505044"><ele>244.0</ele><time>2026-04-19T09:01:03.118Z</time></trkpt><trkpt lat="43.3843112" lon="11.2504399"><ele>243.5</ele><time>2026-04-19T09:01:05.105Z</time></trkpt><trkpt lat="43.3842422" lon="11.2503794"><ele>243.0</ele><time>2026-04-19T09:01:07.191Z</time></trkpt><trkpt lat="43.3841758" lon="11.2503141"><ele>242.50000000000003</ele><time>2026-04-19T09:01:09.126Z</time></trkpt><trkpt lat="43.3841103" lon="11.2502489"><ele>242.0</ele><time>2026-04-19T09:01:11.207Z</time></trkpt><trkpt lat="43.3840596" lon="11.2501735"><ele>242.0</ele><time>2026-04-19T09:01:13.125Z</time></trkpt><trkpt lat="43.3840145" lon="11.2500793"><ele>242.0</ele><time>2026-04-19T09:01:15.102Z</time></trkpt><trkpt lat="43.3839842" lon="11.2499755"><ele>242.0</ele><time>2026-04-19T09:01:17.175Z</time></trkpt><trkpt lat="43.3839699" lon="11.2498658"><ele>242.0</ele><time>2026-04-19T09:01:19.123Z</time></trkpt><trkpt lat="43.3839675" lon="11.2497359"><ele>242.0</ele><time>2026-04-19T09:01:21.185Z</time></trkpt><trkpt lat="43.3839677" lon="11.2495802"><ele>240.6</ele><time>2026-04-19T09:01:23.101Z</time></trkpt><trkpt lat="43.3839666" lon="11.2494804"><ele>239.2</ele><time>2026-04-19T09:01:24.114Z</time></trkpt><trkpt lat="43.3839615" lon="11.2493587"><ele>237.8</ele><time>2026-04-19T09:01:25.182Z</time></trkpt><trkpt lat="43.383955" lon="11.2492215"><ele>236.4</ele><time>2026-04-19T09:01:26.192Z</time></trkpt><trkpt lat="43.3839456" lon="11.2490903"><ele>235.0</ele><time>2026-04-19T09:01:27.159Z</time></trkpt><trkpt lat="43.3839383" lon="11.2489458"><ele>233.25</ele><time>2026-04-19T09:01:28.109Z</time></trkpt><trkpt lat="43.3839317" lon="11.2487757"><ele>231.5</ele><time>2026-04-19T09:01:29.13Z</time></trkpt><trkpt lat="43.3839264" lon="11.2486016"><ele>229.75</ele><time>2026-04-19T09:01:30.131Z</time></trkpt><trkpt lat="43.3839204" lon="11.2484303"><ele>228.0</ele><time>2026-04-19T09:01:31.116Z</time></trkpt><trkpt lat="43.3839101" lon="11.2482521"><ele>226.5</ele><time>2026-04-19T09:01:32.123Z</time></trkpt><trkpt lat="43.3838949" lon="11.2480831"><ele>225.0</ele><time>2026-04-19T09:01:33.121Z</time></trkpt><trkpt lat="43.3838709" lon="11.2479133"><ele>223.5</ele><time>2026-04-19T09:01:34.124Z</time></trkpt><trkpt lat="43.3838437" lon="11.2477558"><ele>222.0</ele><time>2026-04-19T09:01:35.123Z</time></trkpt><trkpt lat="43.383818" lon="11.2476056"><ele>223.0</ele><time>2026-04-19T09:01:36.122Z</time></trkpt><trkpt lat="43.3837835" lon="11.2474677"><ele>224.0</ele><time>2026-04-19T09:01:37.126Z</time></trkpt><trkpt lat="43.3837305" lon="11.2473305"><ele>225.0</ele><time>2026-04-19T09:01:38.198Z</time></trkpt><trkpt lat="43.3836647" lon="11.2472062"><ele>226.0</ele><time>2026-04-19T09:01:39.107Z</time></trkpt><trkpt lat="43.3835845" lon="11.2470755"><ele>226.0</ele><time>2026-04-19T09:01:40.105Z</time></trkpt><trkpt lat="43.3835046" lon="11.2469479"><ele>226.0</ele><time>2026-04-19T09:01:41.13Z</time></trkpt><trkpt lat="43.3834221" lon="11.2468174"><ele>226.0</ele><time>2026-04-19T09:01:42.192Z</time></trkpt><trkpt lat="43.3833495" lon="11.2466897"><ele>226.0</ele><time>2026-04-19T09:01:43.103Z</time></trkpt><trkpt lat="43.3832979" lon="11.2465382"><ele>226.20000000000002</ele><time>2026-04-19T09:01:44.126Z</time></trkpt><trkpt lat="43.3832652" lon="11.2463792"><ele>226.40000000000003</ele><time>2026-04-19T09:01:45.175Z</time></trkpt><trkpt lat="43.3832431" lon="11.2462265"><ele>226.6</ele><time>2026-04-19T09:01:46.188Z</time></trkpt><trkpt lat="43.3832189" lon="11.2460879"><ele>226.8</ele><time>2026-04-19T09:01:47.195Z</time></trkpt><trkpt lat="43.383186" lon="11.2459766"><ele>227.0</ele><time>2026-04-19T09:01:48.11Z</time></trkpt><trkpt lat="43.3831466" lon="11.2458714"><ele>227.00000000000003</ele><time>2026-04-19T09:01:49.132Z</time></trkpt><trkpt lat="43.383117" lon="11.245767"><ele>227.0</ele><time>2026-04-19T09:01:50.196Z</time></trkpt><trkpt lat="43.3830957" lon="11.2456697"><ele>227.0</ele><time>2026-04-19T09:01:51.118Z</time></trkpt><trkpt lat="43.38309" lon="11.2455797"><ele>227.0</ele><time>2026-04-19T09:01:52.183Z</time></trkpt><trkpt lat="43.3830709" lon="11.2454453"><ele>227.00000000000003</ele><time>2026-04-19T09:01:54.118Z</time></trkpt><trkpt lat="43.3830466" lon="11.2453279"><ele>227.0</ele><time>2026-04-19T09:01:56.177Z</time></trkpt><trkpt lat="43.3830077" lon="11.2452144"><ele>228.14285714285717</ele><time>2026-04-19T09:01:58.115Z</time></trkpt><trkpt lat="43.3829852" lon="11.2451322"><ele>229.2857142857143</ele><time>2026-04-19T09:02:00.104Z</time></trkpt><trkpt lat="43.3829566" lon="11.2450271"><ele>230.42857142857144</ele><time>2026-04-19T09:02:04.138Z</time></trkpt><trkpt lat="43.3829325" lon="11.2449348"><ele>231.57142857142856</ele><time>2026-04-19T09:02:08.113Z</time></trkpt><trkpt lat="43.3829103" lon="11.2448409"><ele>232.7142857142857</ele><time>2026-04-19T09:02:12.12Z</time></trkpt><trkpt lat="43.3828842" lon="11.2447432"><ele>233.85714285714283</ele><time>2026-04-19T09:02:17.189Z</time></trkpt><trkpt lat="43.3828618" lon="11.2446476"><ele>235.0</ele><time>2026-04-19T09:02:20.204Z</time></trkpt><trkpt lat="43.3828398" lon="11.2445543"><ele>235.66666666666666</ele><time>2026-04-19T09:02:26.184Z</time></trkpt><trkpt lat="43.3828211" lon="11.2444572"><ele>236.33333333333331</ele><time>2026-04-19T09:02:33.179Z</time></trkpt><trkpt lat="43.3827698" lon="11.2443919"><ele>237.0</ele><time>2026-04-19T09:02:37.108Z</time></trkpt><trkpt lat="43.3827219" lon="11.2443265"><ele>237.66666666666669</ele><time>2026-04-19T09:02:41.128Z</time></trkpt><trkpt lat="43.3826669" lon="11.2442689"><ele>238.33333333333334</ele><time>2026-04-19T09:02:45.125Z</time></trkpt><trkpt lat="43.3826214" lon="11.2441806"><ele>239.0</ele><time>2026-04-19T09:02:49.123Z</time></trkpt><trkpt lat="43.3825338" lon="11.2441411"><ele>239.00000000000003</ele><time>2026-04-19T09:02:53.116Z</time></trkpt><trkpt lat="43.3824812" lon="11.2440835"><ele>239.0</ele><time>2026-04-19T09:02:56.201Z</time></trkpt><trkpt lat="43.3824348" lon="11.2440236"><ele>239.0</ele><time>2026-04-19T09:03:00.102Z</time></trkpt><trkpt lat="43.3823808" lon="11.2439467"><ele>239.0</ele><time>2026-04-19T09:03:04.103Z</time></trkpt><trkpt lat="43.3823424" lon="11.2438629"><ele>239.00000000000003</ele><time>2026-04-19T09:03:09.118Z</time></trkpt><trkpt lat="43.3822883" lon="11.2437621"><ele>239.0</ele><time>2026-04-19T09:03:12.123Z</time></trkpt><trkpt lat="43.3822356" lon="11.2436796"><ele>238.79999999999998</ele><time>2026-04-19T09:03:14.099Z</time></trkpt><trkpt lat="43.3821805" lon="11.2435927"><ele>238.59999999999997</ele><time>2026-04-19T09:03:16.124Z</time></trkpt><trkpt lat="43.3821134" lon="11.2434854"><ele>238.4</ele><time>2026-04-19T09:03:18.099Z</time></trkpt><trkpt lat="43.3820523" lon="11.2433679"><ele>238.2</ele><time>2026-04-19T09:03:20.118Z</time></trkpt><trkpt lat="43.3820032" lon="11.2432521"><ele>238.0</ele><time>2026-04-19T09:03:22.18Z</time></trkpt><trkpt lat="43.38198" lon="11.2431284"><ele>237.0</ele><time>2026-04-19T09:03:24.133Z</time></trkpt><trkpt lat="43.3819859" lon="11.2429936"><ele>236.0</ele><time>2026-04-19T09:03:26.187Z</time></trkpt><trkpt lat="43.3820098" lon="11.2428551"><ele>235.0</ele><time>2026-04-19T09:03:28.2Z</time></trkpt><trkpt lat="43.3820448" lon="11.2427171"><ele>234.0</ele><time>2026-04-19T09:03:30.138Z</time></trkpt><trkpt lat="43.3820832" lon="11.2425777"><ele>233.0</ele><time>2026-04-19T09:03:32.186Z</time></trkpt><trkpt lat="43.3821201" lon="11.2424443"><ele>233.0</ele><time>2026-04-19T09:03:34.135Z</time></trkpt><trkpt lat="43.3821556" lon="11.2423344"><ele>233.0</ele><time>2026-04-19T09:03:36.12Z</time></trkpt><trkpt lat="43.3821975" lon="11.2422148"><ele>233.0</ele><time>2026-04-19T09:03:38.132Z</time></trkpt><trkpt lat="43.3822417" lon="11.2420839"><ele>233.0</ele><time>2026-04-19T09:03:40.129Z</time></trkpt><trkpt lat="43.3822823" lon="11.2419703"><ele>233.0</ele><time>2026-04-19T09:03:42.124Z</time></trkpt><trkpt lat="43.3823077" lon="11.2418596"><ele>233.66666666666669</ele><time>2026-04-19T09:03:44.118Z</time></trkpt><trkpt lat="43.3823364" lon="11.2417624"><ele>234.33333333333334</ele><time>2026-04-19T09:03:46.125Z</time></trkpt><trkpt lat="43.382382" lon="11.2416525"><ele>235.0</ele><time>2026-04-19T09:03:48.119Z</time></trkpt><trkpt lat="43.3824245" lon="11.241554"><ele>235.66666666666669</ele><time>2026-04-19T09:03:50.113Z</time></trkpt><trkpt lat="43.382466" lon="11.2414638"><ele>236.33333333333334</ele><time>2026-04-19T09:03:52.125Z</time></trkpt><trkpt lat="43.382501" lon="11.2413554"><ele>237.0</ele><time>2026-04-19T09:03:54.121Z</time></trkpt><trkpt lat="43.3825353" lon="11.2412413"><ele>238.0</ele><time>2026-04-19T09:03:56.136Z</time></trkpt><trkpt lat="43.3825717" lon="11.2411318"><ele>239.0</ele><time>2026-04-19T09:03:58.125Z</time></trkpt><trkpt lat="43.3826098" lon="11.2410215"><ele>240.0</ele><time>2026-04-19T09:04:00.118Z</time></trkpt><trkpt lat="43.3826474" lon="11.240918"><ele>241.0</ele><time>2026-04-19T09:04:02.119Z</time></trkpt><trkpt lat="43.3826898" lon="11.2408262"><ele>242.0</ele><time>2026-04-19T09:04:04.117Z</time></trkpt><trkpt lat="43.3827135" lon="11.2407419"><ele>243.0</ele><time>2026-04-19T09:04:06.185Z</time></trkpt><trkpt lat="43.3827443" lon="11.2406316"><ele>243.16666666666666</ele><time>2026-04-19T09:04:08.197Z</time></trkpt><trkpt lat="43.3827763" lon="11.2405345"><ele>243.33333333333331</ele><time>2026-04-19T09:04:10.12Z</time></trkpt><trkpt lat="43.3828049" lon="11.2404289"><ele>243.5</ele><time>2026-04-19T09:04:12.123Z</time></trkpt><trkpt lat="43.3828312" lon="11.2403212"><ele>243.66666666666666</ele><time>2026-04-19T09:04:14.124Z</time></trkpt><trkpt lat="43.3828603" lon="11.2402119"><ele>243.83333333333331</ele><time>2026-04-19T09:04:16.206Z</time></trkpt><trkpt lat="43.3828952" lon="11.2400958"><ele>244.0</ele><time>2026-04-19T09:04:18.123Z</time></trkpt><trkpt lat="43.3829463" lon="11.2399654"><ele>244.0</ele><time>2026-04-19T09:04:20.137Z</time></trkpt><trkpt lat="43.3830128" lon="11.2398348"><ele>244.0</ele><time>2026-04-19T09:04:22.122Z</time></trkpt><trkpt lat="43.3830996" lon="11.2397197"><ele>244.0</ele><time>2026-04-19T09:04:24.112Z</time></trkpt><trkpt lat="43.3831998" lon="11.2396175"><ele>244.0</ele><time>2026-04-19T09:04:26.135Z</time></trkpt><trkpt lat="43.3833049" lon="11.2395188"><ele>243.33333333333331</ele><time>2026-04-19T09:04:28.121Z</time></trkpt><trkpt lat="43.3833678" lon="11.2394678"><ele>242.66666666666666</ele><time>2026-04-19T09:04:29.118Z</time></trkpt><trkpt lat="43.3834381" lon="11.2394134"><ele>242.0</ele><time>2026-04-19T09:04:30.134Z</time></trkpt><trkpt lat="43.3835064" lon="11.2393564"><ele>241.33333333333331</ele><time>2026-04-19T09:04:31.119Z</time></trkpt><trkpt lat="43.3835768" lon="11.2393049"><ele>240.66666666666666</ele><time>2026-04-19T09:04:32.187Z</time></trkpt><trkpt lat="43.383643" lon="11.2392487"><ele>240.0</ele><time>2026-04-19T09:04:33.199Z</time></trkpt><trkpt lat="43.3837084" lon="11.2391906"><ele>240.0</ele><time>2026-04-19T09:04:34.104Z</time></trkpt><trkpt lat="43.3837754" lon="11.239126"><ele>240.0</ele><time>2026-04-19T09:04:35.116Z</time></trkpt><trkpt lat="43.383841" lon="11.2390617"><ele>240.0</ele><time>2026-04-19T09:04:36.202Z</time></trkpt><trkpt lat="43.3839076" lon="11.2389991"><ele>240.0</ele><time>2026-04-19T09:04:37.199Z</time></trkpt><trkpt lat="43.3839775" lon="11.2389375"><ele>240.0</ele><time>2026-04-19T09:04:38.198Z</time></trkpt><trkpt lat="43.3840488" lon="11.2388777"><ele>240.0</ele><time>2026-04-19T09:04:39.104Z</time></trkpt><trkpt lat="43.3841229" lon="11.2388141"><ele>241.0</ele><time>2026-04-19T09:04:40.114Z</time></trkpt><trkpt lat="43.3841993" lon="11.2387524"><ele>242.0</ele><time>2026-04-19T09:04:41.206Z</time></trkpt><trkpt lat="43.3842762" lon="11.238697"><ele>243.0</ele><time>2026-04-19T09:04:42.181Z</time></trkpt><trkpt lat="43.3844922" lon="11.2385015"><ele>244.0</ele><time>2026-04-19T09:04:45.109Z</time></trkpt><trkpt lat="43.3845481" lon="11.2384468"><ele>244.0</ele><time>2026-04-19T09:04:46.188Z</time></trkpt><trkpt lat="43.3846329" lon="11.2383898"><ele>243.99999999999997</ele><time>2026-04-19T09:04:47.191Z</time></trkpt><trkpt lat="43.3847106" lon="11.2383276"><ele>243.99999999999997</ele><time>2026-04-19T09:04:48.108Z</time></trkpt><trkpt lat="43.384794" lon="11.2382616"><ele>244.0</ele><time>2026-04-19T09:04:49.114Z</time></trkpt><trkpt lat="43.3848716" lon="11.2381946"><ele>244.0</ele><time>2026-04-19T09:04:50.134Z</time></trkpt><trkpt lat="43.3849462" lon="11.2381261"><ele>243.16666666666666</ele><time>2026-04-19T09:04:51.21Z</time></trkpt><trkpt lat="43.3850175" lon="11.2380595"><ele>242.33333333333331</ele><time>2026-04-19T09:04:52.198Z</time></trkpt><trkpt lat="43.3850884" lon="11.2380007"><ele>241.5</ele><time>2026-04-19T09:04:53.123Z</time></trkpt><trkpt lat="43.3851623" lon="11.237936"><ele>240.66666666666669</ele><time>2026-04-19T09:04:54.131Z</time></trkpt><trkpt lat="43.3852352" lon="11.2378751"><ele>239.83333333333334</ele><time>2026-04-19T09:04:55.124Z</time></trkpt><trkpt lat="43.3853057" lon="11.2378027"><ele>239.0</ele><time>2026-04-19T09:04:56.115Z</time></trkpt><trkpt lat="43.3853765" lon="11.2377305"><ele>239.0</ele><time>2026-04-19T09:04:57.123Z</time></trkpt><trkpt lat="43.3854499" lon="11.2376614"><ele>238.99999999999997</ele><time>2026-04-19T09:04:58.133Z</time></trkpt><trkpt lat="43.3855243" lon="11.2375953"><ele>238.99999999999997</ele><time>2026-04-19T09:04:59.13Z</time></trkpt><trkpt lat="43.3856049" lon="11.237528"><ele>239.0</ele><time>2026-04-19T09:05:00.126Z</time></trkpt><trkpt lat="43.3856838" lon="11.237459"><ele>239.0</ele><time>2026-04-19T09:05:01.132Z</time></trkpt><trkpt lat="43.3857631" lon="11.2373881"><ele>237.39999999999998</ele><time>2026-04-19T09:05:02.138Z</time></trkpt><trkpt lat="43.3858401" lon="11.2373168"><ele>235.79999999999998</ele><time>2026-04-19T09:05:03.118Z</time></trkpt><trkpt lat="43.3859179" lon="11.2372483"><ele>234.20000000000002</ele><time>2026-04-19T09:05:04.128Z</time></trkpt><trkpt lat="43.3859936" lon="11.2371781"><ele>232.60000000000002</ele><time>2026-04-19T09:05:05.118Z</time></trkpt><trkpt lat="43.3860674" lon="11.237099"><ele>231.0</ele><time>2026-04-19T09:05:06.183Z</time></trkpt><trkpt lat="43.3861274" lon="11.2370266"><ele>230.66666666666666</ele><time>2026-04-19T09:05:07.12Z</time></trkpt><trkpt lat="43.3861779" lon="11.236954"><ele>230.33333333333331</ele><time>2026-04-19T09:05:08.127Z</time></trkpt><trkpt lat="43.3862313" lon="11.2368784"><ele>230.0</ele><time>2026-04-19T09:05:09.128Z</time></trkpt><trkpt lat="43.3862838" lon="11.2367773"><ele>229.66666666666666</ele><time>2026-04-19T09:05:10.118Z</time></trkpt><trkpt lat="43.3863131" lon="11.2366567"><ele>229.33333333333331</ele><time>2026-04-19T09:05:11.184Z</time></trkpt><trkpt lat="43.386311" lon="11.2365143"><ele>229.0</ele><time>2026-04-19T09:05:12.182Z</time></trkpt><trkpt lat="43.3862953" lon="11.2363815"><ele>228.16666666666666</ele><time>2026-04-19T09:05:13.187Z</time></trkpt><trkpt lat="43.3862766" lon="11.2362584"><ele>227.33333333333331</ele><time>2026-04-19T09:05:14.119Z</time></trkpt><trkpt lat="43.3862471" lon="11.2361424"><ele>226.5</ele><time>2026-04-19T09:05:15.126Z</time></trkpt><trkpt lat="43.3862095" lon="11.2360435"><ele>225.66666666666669</ele><time>2026-04-19T09:05:16.125Z</time></trkpt><trkpt lat="43.38616" lon="11.235939"><ele>224.83333333333334</ele><time>2026-04-19T09:05:17.125Z</time></trkpt><trkpt lat="43.3861132" lon="11.2358246"><ele>224.0</ele><time>2026-04-19T09:05:18.14Z</time></trkpt><trkpt lat="43.3860691" lon="11.2357049"><ele>223.39999999999998</ele><time>2026-04-19T09:05:19.124Z</time></trkpt><trkpt lat="43.3860262" lon="11.2355817"><ele>222.79999999999998</ele><time>2026-04-19T09:05:20.137Z</time></trkpt><trkpt lat="43.3859881" lon="11.2354596"><ele>222.20000000000002</ele><time>2026-04-19T09:05:21.205Z</time></trkpt><trkpt lat="43.3859525" lon="11.235346"><ele>221.60000000000002</ele><time>2026-04-19T09:05:22.187Z</time></trkpt><trkpt lat="43.3859182" lon="11.2352343"><ele>221.0</ele><time>2026-04-19T09:05:23.117Z</time></trkpt><trkpt lat="43.3858786" lon="11.2351249"><ele>221.00000000000003</ele><time>2026-04-19T09:05:24.121Z</time></trkpt><trkpt lat="43.38585" lon="11.2350196"><ele>221.0</ele><time>2026-04-19T09:05:25.116Z</time></trkpt><trkpt lat="43.3858233" lon="11.2349208"><ele>221.0</ele><time>2026-04-19T09:05:26.116Z</time></trkpt><trkpt lat="43.3857963" lon="11.2348216"><ele>221.0</ele><time>2026-04-19T09:05:27.184Z</time></trkpt><trkpt lat="43.3857669" lon="11.2347329"><ele>221.0</ele><time>2026-04-19T09:05:28.185Z</time></trkpt><trkpt lat="43.3857413" lon="11.234647"><ele>221.00000000000003</ele><time>2026-04-19T09:05:29.126Z</time></trkpt><trkpt lat="43.3857151" lon="11.2345635"><ele>221.0</ele><time>2026-04-19T09:05:30.131Z</time></trkpt><trkpt lat="43.3856875" lon="11.2344819"><ele>221.0</ele><time>2026-04-19T09:05:31.119Z</time></trkpt><trkpt lat="43.3856624" lon="11.2344021"><ele>221.00000000000003</ele><time>2026-04-19T09:05:32.12Z</time></trkpt><trkpt lat="43.3856129" lon="11.2342499"><ele>221.00000000000003</ele><time>2026-04-19T09:05:34.104Z</time></trkpt><trkpt lat="43.3855681" lon="11.2341005"><ele>221.0</ele><time>2026-04-19T09:05:36.121Z</time></trkpt><trkpt lat="43.3855211" lon="11.2339556"><ele>221.0</ele><time>2026-04-19T09:05:38.128Z</time></trkpt><trkpt lat="43.3854726" lon="11.2338154"><ele>221.60000000000002</ele><time>2026-04-19T09:05:40.122Z</time></trkpt><trkpt lat="43.3854255" lon="11.2336763"><ele>222.20000000000002</ele><time>2026-04-19T09:05:42.183Z</time></trkpt><trkpt lat="43.3853881" lon="11.2335454"><ele>222.79999999999998</ele><time>2026-04-19T09:05:44.113Z</time></trkpt><trkpt lat="43.3853459" lon="11.2334194"><ele>223.39999999999998</ele><time>2026-04-19T09:05:46.116Z</time></trkpt><trkpt lat="43.3853045" lon="11.233292"><ele>224.0</ele><time>2026-04-19T09:05:48.12Z</time></trkpt><trkpt lat="43.3852687" lon="11.2331594"><ele>224.79999999999998</ele><time>2026-04-19T09:05:50.115Z</time></trkpt><trkpt lat="43.3852135" lon="11.2329904"><ele>225.59999999999997</ele><time>2026-04-19T09:05:53.136Z</time></trkpt><trkpt lat="43.3852152" lon="11.2328798"><ele>226.4</ele><time>2026-04-19T09:05:55.118Z</time></trkpt><trkpt lat="43.3851792" lon="11.2327415"><ele>227.2</ele><time>2026-04-19T09:05:57.2Z</time></trkpt><trkpt lat="43.3851391" lon="11.232611"><ele>228.0</ele><time>2026-04-19T09:05:59.112Z</time></trkpt><trkpt lat="43.3851105" lon="11.2325071"><ele>228.0</ele><time>2026-04-19T09:06:01.118Z</time></trkpt><trkpt lat="43.3850906" lon="11.232424"><ele>228.0</ele><time>2026-04-19T09:06:03.121Z</time></trkpt><trkpt lat="43.3850696" lon="11.2323122"><ele>228.0</ele><time>2026-04-19T09:06:06.128Z</time></trkpt><trkpt lat="43.3850557" lon="11.2322177"><ele>228.0</ele><time>2026-04-19T09:06:09.131Z</time></trkpt><trkpt lat="43.385048" lon="11.2321105"><ele>228.0</ele><time>2026-04-19T09:06:12.126Z</time></trkpt><trkpt lat="43.3850338" lon="11.2319913"><ele>228.0</ele><time>2026-04-19T09:06:15.128Z</time></trkpt><trkpt lat="43.3850249" lon="11.2318882"><ele>228.7142857142857</ele><time>2026-04-19T09:06:19.124Z</time></trkpt><trkpt lat="43.3850186" lon="11.2317788"><ele>229.4285714285714</ele><time>2026-04-19T09:06:22.19Z</time></trkpt><trkpt lat="43.3850205" lon="11.2316838"><ele>230.14285714285714</ele><time>2026-04-19T09:06:25.12Z</time></trkpt><trkpt lat="43.3850278" lon="11.2315889"><ele>230.85714285714283</ele><time>2026-04-19T09:06:28.121Z</time></trkpt><trkpt lat="43.3850341" lon="11.2315003"><ele>231.57142857142856</ele><time>2026-04-19T09:06:30.126Z</time></trkpt><trkpt lat="43.3850451" lon="11.2314003"><ele>232.28571428571428</ele><time>2026-04-19T09:06:32.186Z</time></trkpt><trkpt lat="43.3850453" lon="11.231293"><ele>233.0</ele><time>2026-04-19T09:06:34.121Z</time></trkpt><trkpt lat="43.3850475" lon="11.2311954"><ele>233.33333333333334</ele><time>2026-04-19T09:06:36.118Z</time></trkpt><trkpt lat="43.3850531" lon="11.231063"><ele>233.66666666666669</ele><time>2026-04-19T09:06:39.119Z</time></trkpt><trkpt lat="43.3850583" lon="11.2309761"><ele>234.0</ele><time>2026-04-19T09:06:41.114Z</time></trkpt><trkpt lat="43.3850655" lon="11.2308853"><ele>234.33333333333331</ele><time>2026-04-19T09:06:43.114Z</time></trkpt><trkpt lat="43.3850705" lon="11.2307625"><ele>234.66666666666666</ele><time>2026-04-19T09:06:46.115Z</time></trkpt><trkpt lat="43.3850816" lon="11.2306469"><ele>235.0</ele><time>2026-04-19T09:06:49.12Z</time></trkpt><trkpt lat="43.3851184" lon="11.2305379"><ele>235.14285714285714</ele><time>2026-04-19T09:06:52.116Z</time></trkpt><trkpt lat="43.3851327" lon="11.2304515"><ele>235.28571428571428</ele><time>2026-04-19T09:06:54.118Z</time></trkpt><trkpt lat="43.3851358" lon="11.2303384"><ele>235.42857142857142</ele><time>2026-04-19T09:06:57.128Z</time></trkpt><trkpt lat="43.3851407" lon="11.2302472"><ele>235.57142857142856</ele><time>2026-04-19T09:06:59.118Z</time></trkpt><trkpt lat="43.3851442" lon="11.2301559"><ele>235.71428571428572</ele><time>2026-04-19T09:07:01.112Z</time></trkpt><trkpt lat="43.3851504" lon="11.2300607"><ele>235.85714285714283</ele><time>2026-04-19T09:07:03.137Z</time></trkpt><trkpt lat="43.3851427" lon="11.2299662"><ele>236.0</ele><time>2026-04-19T09:07:05.122Z</time></trkpt><trkpt lat="43.3851458" lon="11.2298323"><ele>236.00000000000003</ele><time>2026-04-19T09:07:08.194Z</time></trkpt><trkpt lat="43.385158" lon="11.2297417"><ele>236.0</ele><time>2026-04-19T09:07:10.139Z</time></trkpt><trkpt lat="43.3851702" lon="11.2296446"><ele>236.0</ele><time>2026-04-19T09:07:12.122Z</time></trkpt><trkpt lat="43.3851779" lon="11.2295504"><ele>236.0</ele><time>2026-04-19T09:07:14.115Z</time></trkpt><trkpt lat="43.3851881" lon="11.2294592"><ele>236.00000000000003</ele><time>2026-04-19T09:07:16.112Z</time></trkpt><trkpt lat="43.3852009" lon="11.2293331"><ele>236.0</ele><time>2026-04-19T09:07:19.125Z</time></trkpt><trkpt lat="43.385212" lon="11.229208"><ele>236.00000000000003</ele><time>2026-04-19T09:07:22.117Z</time></trkpt><trkpt lat="43.3852279" lon="11.2290844"><ele>236.0</ele><time>2026-04-19T09:07:25.12Z</time></trkpt><trkpt lat="43.3852398" lon="11.2289992"><ele>236.0</ele><time>2026-04-19T09:07:27.118Z</time></trkpt><trkpt lat="43.3852759" lon="11.228903"><ele>236.0</ele><time>2026-04-19T09:07:30.14Z</time></trkpt><trkpt lat="43.3852872" lon="11.2287713"><ele>236.00000000000003</ele><time>2026-04-19T09:07:33.118Z</time></trkpt><trkpt lat="43.3852974" lon="11.2286818"><ele>236.0</ele><time>2026-04-19T09:07:35.127Z</time></trkpt><trkpt lat="43.3853117" lon="11.2285917"><ele>236.16666666666669</ele><time>2026-04-19T09:07:37.18Z</time></trkpt><trkpt lat="43.3853173" lon="11.2284942"><ele>236.33333333333334</ele><time>2026-04-19T09:07:40.102Z</time></trkpt><trkpt lat="43.3853362" lon="11.2283509"><ele>236.5</ele><time>2026-04-19T09:07:43.123Z</time></trkpt><trkpt lat="43.3853411" lon="11.2282635"><ele>236.66666666666669</ele><time>2026-04-19T09:07:45.111Z</time></trkpt><trkpt lat="43.3853617" lon="11.2281319"><ele>236.83333333333334</ele><time>2026-04-19T09:07:48.115Z</time></trkpt><trkpt lat="43.3853768" lon="11.2280469"><ele>237.0</ele><time>2026-04-19T09:07:50.12Z</time></trkpt><trkpt lat="43.3853899" lon="11.2279594"><ele>237.28571428571425</ele><time>2026-04-19T09:07:52.128Z</time></trkpt><trkpt lat="43.385402" lon="11.2278704"><ele>237.57142857142856</ele><time>2026-04-19T09:07:54.111Z</time></trkpt><trkpt lat="43.3854166" lon="11.2277822"><ele>237.85714285714286</ele><time>2026-04-19T09:07:56.125Z</time></trkpt><trkpt lat="43.3854332" lon="11.2276887"><ele>238.14285714285714</ele><time>2026-04-19T09:07:58.12Z</time></trkpt><trkpt lat="43.3854514" lon="11.2275982"><ele>238.42857142857144</ele><time>2026-04-19T09:08:00.116Z</time></trkpt><trkpt lat="43.385466" lon="11.2275093"><ele>238.71428571428575</ele><time>2026-04-19T09:08:02.129Z</time></trkpt><trkpt lat="43.3854842" lon="11.2274114"><ele>239.00000000000003</ele><time>2026-04-19T09:08:04.115Z</time></trkpt><trkpt lat="43.3855005" lon="11.2273229"><ele>239.71428571428575</ele><time>2026-04-19T09:08:06.203Z</time></trkpt><trkpt lat="43.3855191" lon="11.2272342"><ele>240.42857142857144</ele><time>2026-04-19T09:08:08.136Z</time></trkpt><trkpt lat="43.3855454" lon="11.2271316"><ele>241.14285714285714</ele><time>2026-04-19T09:08:10.121Z</time></trkpt><trkpt lat="43.3855494" lon="11.2270399"><ele>241.85714285714286</ele><time>2026-04-19T09:08:12.174Z</time></trkpt><trkpt lat="43.3855724" lon="11.2269403"><ele>242.57142857142856</ele><time>2026-04-19T09:08:14.135Z</time></trkpt><trkpt lat="43.385592" lon="11.2268376"><ele>243.28571428571425</ele><time>2026-04-19T09:08:16.194Z</time></trkpt><trkpt lat="43.3856093" lon="11.2267286"><ele>243.99999999999997</ele><time>2026-04-19T09:08:18.13Z</time></trkpt><trkpt lat="43.3856306" lon="11.2266287"><ele>243.99999999999997</ele><time>2026-04-19T09:08:20.13Z</time></trkpt><trkpt lat="43.3856521" lon="11.226527"><ele>244.0</ele><time>2026-04-19T09:08:22.147Z</time></trkpt><trkpt lat="43.385665" lon="11.2264159"><ele>244.0</ele><time>2026-04-19T09:08:24.122Z</time></trkpt><trkpt lat="43.3856895" lon="11.2263081"><ele>244.0</ele><time>2026-04-19T09:08:26.118Z</time></trkpt><trkpt lat="43.3857085" lon="11.2261853"><ele>243.99999999999997</ele><time>2026-04-19T09:08:28.113Z</time></trkpt><trkpt lat="43.3857322" lon="11.2260573"><ele>244.0</ele><time>2026-04-19T09:08:30.113Z</time></trkpt><trkpt lat="43.3857528" lon="11.2258883"><ele>243.71428571428567</ele><time>2026-04-19T09:08:32.104Z</time></trkpt><trkpt lat="43.3857656" lon="11.2257951"><ele>243.42857142857142</ele><time>2026-04-19T09:08:33.12Z</time></trkpt><trkpt lat="43.3857789" lon="11.2257004"><ele>243.1428571428571</ele><time>2026-04-19T09:08:34.126Z</time></trkpt><trkpt lat="43.3857934" lon="11.2256063"><ele>242.85714285714283</ele><time>2026-04-19T09:08:35.129Z</time></trkpt><trkpt lat="43.3858119" lon="11.2255124"><ele>242.57142857142856</ele><time>2026-04-19T09:08:36.116Z</time></trkpt><trkpt lat="43.3858262" lon="11.225415"><ele>242.28571428571428</ele><time>2026-04-19T09:08:37.1Z</time></trkpt><trkpt lat="43.3858452" lon="11.2253146"><ele>242.0</ele><time>2026-04-19T09:08:38.204Z</time></trkpt><trkpt lat="43.3858505" lon="11.225214"><ele>241.0</ele><time>2026-04-19T09:08:39.119Z</time></trkpt><trkpt lat="43.3858555" lon="11.2251107"><ele>240.0</ele><time>2026-04-19T09:08:40.121Z</time></trkpt><trkpt lat="43.3858792" lon="11.2250035"><ele>239.0</ele><time>2026-04-19T09:08:41.128Z</time></trkpt><trkpt lat="43.3859241" lon="11.2248895"><ele>238.0</ele><time>2026-04-19T09:08:42.112Z</time></trkpt><trkpt lat="43.3859763" lon="11.224779"><ele>237.0</ele><time>2026-04-19T09:08:43.197Z</time></trkpt><trkpt lat="43.3860481" lon="11.224668"><ele>236.2</ele><time>2026-04-19T09:08:44.124Z</time></trkpt><trkpt lat="43.3861164" lon="11.2245489"><ele>235.39999999999998</ele><time>2026-04-19T09:08:45.123Z</time></trkpt><trkpt lat="43.3861844" lon="11.2244445"><ele>234.60000000000002</ele><time>2026-04-19T09:08:46.204Z</time></trkpt><trkpt lat="43.3862476" lon="11.2243484"><ele>233.8</ele><time>2026-04-19T09:08:47.203Z</time></trkpt><trkpt lat="43.3863206" lon="11.2242561"><ele>233.0</ele><time>2026-04-19T09:08:48.197Z</time></trkpt><trkpt lat="43.3863917" lon="11.224161"><ele>232.8</ele><time>2026-04-19T09:08:49.128Z</time></trkpt><trkpt lat="43.3864634" lon="11.2240551"><ele>232.60000000000002</ele><time>2026-04-19T09:08:50.117Z</time></trkpt><trkpt lat="43.3865323" lon="11.2239449"><ele>232.39999999999998</ele><time>2026-04-19T09:08:51.185Z</time></trkpt><trkpt lat="43.3865997" lon="11.2238388"><ele>232.2</ele><time>2026-04-19T09:08:52.13Z</time></trkpt><trkpt lat="43.3866709" lon="11.223731"><ele>232.0</ele><time>2026-04-19T09:08:53.129Z</time></trkpt><trkpt lat="43.3867394" lon="11.2236333"><ele>231.16666666666666</ele><time>2026-04-19T09:08:54.134Z</time></trkpt><trkpt lat="43.3868038" lon="11.2235383"><ele>230.33333333333331</ele><time>2026-04-19T09:08:55.122Z</time></trkpt><trkpt lat="43.3868694" lon="11.223442"><ele>229.5</ele><time>2026-04-19T09:08:56.194Z</time></trkpt><trkpt lat="43.3869324" lon="11.2233523"><ele>228.66666666666669</ele><time>2026-04-19T09:08:57.188Z</time></trkpt><trkpt lat="43.3869859" lon="11.223276"><ele>227.83333333333334</ele><time>2026-04-19T09:08:58.12Z</time></trkpt><trkpt lat="43.3870332" lon="11.2232063"><ele>227.0</ele><time>2026-04-19T09:08:59.131Z</time></trkpt><trkpt lat="43.387095" lon="11.2231327"><ele>226.83333333333334</ele><time>2026-04-19T09:09:00.11Z</time></trkpt><trkpt lat="43.387152" lon="11.2230535"><ele>226.66666666666669</ele><time>2026-04-19T09:09:01.096Z</time></trkpt><trkpt lat="43.3872084" lon="11.2229849"><ele>226.5</ele><time>2026-04-19T09:09:02.118Z</time></trkpt><trkpt lat="43.3872632" lon="11.2229225"><ele>226.33333333333331</ele><time>2026-04-19T09:09:03.134Z</time></trkpt><trkpt lat="43.3873234" lon="11.2228569"><ele>226.16666666666666</ele><time>2026-04-19T09:09:04.113Z</time></trkpt><trkpt lat="43.3873846" lon="11.2227951"><ele>226.0</ele><time>2026-04-19T09:09:05.121Z</time></trkpt><trkpt lat="43.3874435" lon="11.2227332"><ele>226.42857142857144</ele><time>2026-04-19T09:09:06.104Z</time></trkpt><trkpt lat="43.3874995" lon="11.2226702"><ele>226.85714285714283</ele><time>2026-04-19T09:09:07.113Z</time></trkpt><trkpt lat="43.3875552" lon="11.2226068"><ele>227.28571428571428</ele><time>2026-04-19T09:09:08.123Z</time></trkpt><trkpt lat="43.3876078" lon="11.2225451"><ele>227.71428571428572</ele><time>2026-04-19T09:09:09.115Z</time></trkpt><trkpt lat="43.3876614" lon="11.2224857"><ele>228.14285714285717</ele><time>2026-04-19T09:09:10.108Z</time></trkpt><trkpt lat="43.387713" lon="11.2224229"><ele>228.57142857142856</ele><time>2026-04-19T09:09:11.133Z</time></trkpt><trkpt lat="43.3877621" lon="11.2223601"><ele>229.0</ele><time>2026-04-19T09:09:12.184Z</time></trkpt><trkpt lat="43.3878541" lon="11.2222471"><ele>228.66666666666666</ele><time>2026-04-19T09:09:14.113Z</time></trkpt><trkpt lat="43.3879493" lon="11.2221288"><ele>228.33333333333331</ele><time>2026-04-19T09:09:16.186Z</time></trkpt><trkpt lat="43.3879985" lon="11.2220624"><ele>228.0</ele><time>2026-04-19T09:09:17.19Z</time></trkpt><trkpt lat="43.3880506" lon="11.2219969"><ele>227.66666666666669</ele><time>2026-04-19T09:09:18.192Z</time></trkpt><trkpt lat="43.3881067" lon="11.2219338"><ele>227.33333333333334</ele><time>2026-04-19T09:09:19.108Z</time></trkpt><trkpt lat="43.3881675" lon="11.2218655"><ele>227.0</ele><time>2026-04-19T09:09:20.121Z</time></trkpt><trkpt lat="43.3882286" lon="11.221794"><ele>227.0</ele><time>2026-04-19T09:09:21.185Z</time></trkpt><trkpt lat="43.3882927" lon="11.2217225"><ele>227.0</ele><time>2026-04-19T09:09:22.183Z</time></trkpt><trkpt lat="43.3883544" lon="11.2216509"><ele>227.0</ele><time>2026-04-19T09:09:23.203Z</time></trkpt><trkpt lat="43.3884184" lon="11.2215692"><ele>227.0</ele><time>2026-04-19T09:09:24.115Z</time></trkpt><trkpt lat="43.3885002" lon="11.2214789"><ele>227.0</ele><time>2026-04-19T09:09:25.132Z</time></trkpt><trkpt lat="43.3885802" lon="11.2213929"><ele>226.8</ele><time>2026-04-19T09:09:26.132Z</time></trkpt><trkpt lat="43.3886587" lon="11.2213122"><ele>226.6</ele><time>2026-04-19T09:09:27.189Z</time></trkpt><trkpt lat="43.388735" lon="11.2212362"><ele>226.40000000000003</ele><time>2026-04-19T09:09:28.188Z</time></trkpt><trkpt lat="43.3888055" lon="11.2211643"><ele>226.20000000000002</ele><time>2026-04-19T09:09:29.099Z</time></trkpt><trkpt lat="43.3888831" lon="11.2210829"><ele>226.0</ele><time>2026-04-19T09:09:30.118Z</time></trkpt><trkpt lat="43.3889595" lon="11.2210022"><ele>226.0</ele><time>2026-04-19T09:09:31.167Z</time></trkpt><trkpt lat="43.3890335" lon="11.220927"><ele>226.00000000000003</ele><time>2026-04-19T09:09:32.194Z</time></trkpt><trkpt lat="43.3891086" lon="11.220854"><ele>226.00000000000003</ele><time>2026-04-19T09:09:33.12Z</time></trkpt><trkpt lat="43.3891882" lon="11.2207769"><ele>226.0</ele><time>2026-04-19T09:09:34.134Z</time></trkpt><trkpt lat="43.3892658" lon="11.2207027"><ele>226.0</ele><time>2026-04-19T09:09:35.101Z</time></trkpt><trkpt lat="43.3893481" lon="11.2206318"><ele>224.4</ele><time>2026-04-19T09:09:36.117Z</time></trkpt><trkpt lat="43.3894314" lon="11.2205659"><ele>222.8</ele><time>2026-04-19T09:09:37.123Z</time></trkpt><trkpt lat="43.3895169" lon="11.2204971"><ele>221.20000000000002</ele><time>2026-04-19T09:09:38.134Z</time></trkpt><trkpt lat="43.3895977" lon="11.2204297"><ele>219.60000000000002</ele><time>2026-04-19T09:09:39.121Z</time></trkpt><trkpt lat="43.3896811" lon="11.2203585"><ele>218.0</ele><time>2026-04-19T09:09:40.122Z</time></trkpt><trkpt lat="43.389768" lon="11.2202842"><ele>218.0</ele><time>2026-04-19T09:09:41.097Z</time></trkpt><trkpt lat="43.3898548" lon="11.2202113"><ele>218.0</ele><time>2026-04-19T09:09:42.116Z</time></trkpt><trkpt lat="43.3899457" lon="11.2201401"><ele>218.0</ele><time>2026-04-19T09:09:43.197Z</time></trkpt><trkpt lat="43.3900322" lon="11.2200836"><ele>218.0</ele><time>2026-04-19T09:09:44.102Z</time></trkpt><trkpt lat="43.3901262" lon="11.2200288"><ele>218.0</ele><time>2026-04-19T09:09:45.127Z</time></trkpt><trkpt lat="43.390221" lon="11.219982"><ele>218.0</ele><time>2026-04-19T09:09:46.199Z</time></trkpt><trkpt lat="43.3903164" lon="11.2199471"><ele>218.0</ele><time>2026-04-19T09:09:47.193Z</time></trkpt><trkpt lat="43.3904168" lon="11.2199182"><ele>218.0</ele><time>2026-04-19T09:09:48.195Z</time></trkpt><trkpt lat="43.3907276" lon="11.2199139"><ele>217.0</ele><time>2026-04-19T09:09:51.188Z</time></trkpt><trkpt lat="43.3908193" lon="11.2199236"><ele>216.0</ele><time>2026-04-19T09:09:52.189Z</time></trkpt><trkpt lat="43.3909516" lon="11.2199136"><ele>215.0</ele><time>2026-04-19T09:09:53.12Z</time></trkpt><trkpt lat="43.391067" lon="11.2198985"><ele>214.0</ele><time>2026-04-19T09:09:54.115Z</time></trkpt><trkpt lat="43.3911756" lon="11.219862"><ele>214.0</ele><time>2026-04-19T09:09:55.12Z</time></trkpt><trkpt lat="43.3912778" lon="11.2198058"><ele>213.99999999999997</ele><time>2026-04-19T09:09:56.189Z</time></trkpt><trkpt lat="43.3913752" lon="11.2197363"><ele>213.99999999999997</ele><time>2026-04-19T09:09:57.12Z</time></trkpt><trkpt lat="43.3914709" lon="11.2196734"><ele>214.0</ele><time>2026-04-19T09:09:58.201Z</time></trkpt><trkpt lat="43.3915556" lon="11.2196222"><ele>214.0</ele><time>2026-04-19T09:09:59.108Z</time></trkpt><trkpt lat="43.3916443" lon="11.2195466"><ele>214.2</ele><time>2026-04-19T09:10:00.135Z</time></trkpt><trkpt lat="43.3917523" lon="11.2194651"><ele>214.39999999999998</ele><time>2026-04-19T09:10:01.175Z</time></trkpt><trkpt lat="43.3918448" lon="11.2194124"><ele>214.6</ele><time>2026-04-19T09:10:02.202Z</time></trkpt><trkpt lat="43.3919286" lon="11.2194032"><ele>214.8</ele><time>2026-04-19T09:10:03.202Z</time></trkpt><trkpt lat="43.3920187" lon="11.219409"><ele>215.0</ele><time>2026-04-19T09:10:04.138Z</time></trkpt><trkpt lat="43.3921192" lon="11.2194012"><ele>213.6</ele><time>2026-04-19T09:10:05.114Z</time></trkpt><trkpt lat="43.3922232" lon="11.2193699"><ele>212.2</ele><time>2026-04-19T09:10:06.11Z</time></trkpt><trkpt lat="43.3923149" lon="11.2193405"><ele>210.8</ele><time>2026-04-19T09:10:07.121Z</time></trkpt><trkpt lat="43.3924021" lon="11.2193131"><ele>209.4</ele><time>2026-04-19T09:10:08.125Z</time></trkpt><trkpt lat="43.3924851" lon="11.2192702"><ele>208.0</ele><time>2026-04-19T09:10:09.12Z</time></trkpt><trkpt lat="43.392568" lon="11.219208"><ele>208.0</ele><time>2026-04-19T09:10:10.131Z</time></trkpt><trkpt lat="43.3926467" lon="11.2191331"><ele>208.0</ele><time>2026-04-19T09:10:11.126Z</time></trkpt><trkpt lat="43.3927249" lon="11.2190539"><ele>208.0</ele><time>2026-04-19T09:10:12.119Z</time></trkpt><trkpt lat="43.3927988" lon="11.2189772"><ele>208.0</ele><time>2026-04-19T09:10:13.125Z</time></trkpt><trkpt lat="43.3928671" lon="11.2189043"><ele>208.0</ele><time>2026-04-19T09:10:14.121Z</time></trkpt><trkpt lat="43.3929324" lon="11.2188368"><ele>207.66666666666666</ele><time>2026-04-19T09:10:15.129Z</time></trkpt><trkpt lat="43.392992" lon="11.2187681"><ele>207.33333333333331</ele><time>2026-04-19T09:10:16.124Z</time></trkpt><trkpt lat="43.3930554" lon="11.2186982"><ele>207.0</ele><time>2026-04-19T09:10:17.12Z</time></trkpt><trkpt lat="43.3931196" lon="11.2186292"><ele>206.66666666666669</ele><time>2026-04-19T09:10:18.119Z</time></trkpt><trkpt lat="43.3931874" lon="11.2185666"><ele>206.33333333333334</ele><time>2026-04-19T09:10:19.138Z</time></trkpt><trkpt lat="43.3932572" lon="11.2185129"><ele>206.0</ele><time>2026-04-19T09:10:20.124Z</time></trkpt><trkpt lat="43.3933381" lon="11.2184798"><ele>205.33333333333334</ele><time>2026-04-19T09:10:21.198Z</time></trkpt><trkpt lat="43.3934202" lon="11.2184697"><ele>204.66666666666669</ele><time>2026-04-19T09:10:22.19Z</time></trkpt><trkpt lat="43.39349" lon="11.2184452"><ele>204.0</ele><time>2026-04-19T09:10:23.189Z</time></trkpt><trkpt lat="43.393552" lon="11.2183901"><ele>203.33333333333331</ele><time>2026-04-19T09:10:24.12Z</time></trkpt><trkpt lat="43.3936011" lon="11.2182944"><ele>202.66666666666666</ele><time>2026-04-19T09:10:25.114Z</time></trkpt><trkpt lat="43.3936096" lon="11.2181722"><ele>202.0</ele><time>2026-04-19T09:10:26.184Z</time></trkpt><trkpt lat="43.393596" lon="11.2180437"><ele>201.0</ele><time>2026-04-19T09:10:27.194Z</time></trkpt><trkpt lat="43.3934227" lon="11.2178488"><ele>200.0</ele><time>2026-04-19T09:10:30.098Z</time></trkpt><trkpt lat="43.3933242" lon="11.2178397"><ele>199.0</ele><time>2026-04-19T09:10:31.2Z</time></trkpt><trkpt lat="43.3932506" lon="11.2178437"><ele>198.0</ele><time>2026-04-19T09:10:32.183Z</time></trkpt><trkpt lat="43.3931733" lon="11.2178196"><ele>198.0</ele><time>2026-04-19T09:10:33.179Z</time></trkpt><trkpt lat="43.3931097" lon="11.217782"><ele>198.0</ele><time>2026-04-19T09:10:34.115Z</time></trkpt><trkpt lat="43.3930601" lon="11.2177226"><ele>198.0</ele><time>2026-04-19T09:10:35.105Z</time></trkpt><trkpt lat="43.3930196" lon="11.2176533"><ele>198.0</ele><time>2026-04-19T09:10:36.115Z</time></trkpt><trkpt lat="43.392975" lon="11.2175865"><ele>198.0</ele><time>2026-04-19T09:10:37.194Z</time></trkpt><trkpt lat="43.3928758" lon="11.2174746"><ele>198.0</ele><time>2026-04-19T09:10:39.119Z</time></trkpt><trkpt lat="43.3928336" lon="11.2174043"><ele>197.5</ele><time>2026-04-19T09:10:40.13Z</time></trkpt><trkpt lat="43.392803" lon="11.2173141"><ele>197.0</ele><time>2026-04-19T09:10:41.133Z</time></trkpt><trkpt lat="43.3927757" lon="11.2172119"><ele>196.5</ele><time>2026-04-19T09:10:42.126Z</time></trkpt><trkpt lat="43.3927579" lon="11.2171066"><ele>196.0</ele><time>2026-04-19T09:10:43.127Z</time></trkpt><trkpt lat="43.392744" lon="11.217"><ele>195.5</ele><time>2026-04-19T09:10:44.121Z</time></trkpt><trkpt lat="43.3927357" lon="11.2168902"><ele>195.0</ele><time>2026-04-19T09:10:45.115Z</time></trkpt><trkpt lat="43.3927326" lon="11.2167814"><ele>195.0</ele><time>2026-04-19T09:10:46.11Z</time></trkpt><trkpt lat="43.3927323" lon="11.2166707"><ele>195.0</ele><time>2026-04-19T09:10:47.106Z</time></trkpt><trkpt lat="43.3927367" lon="11.216559"><ele>195.0</ele><time>2026-04-19T09:10:48.117Z</time></trkpt><trkpt lat="43.3927418" lon="11.216445"><ele>195.0</ele><time>2026-04-19T09:10:49.119Z</time></trkpt><trkpt lat="43.3927485" lon="11.2163268"><ele>195.0</ele><time>2026-04-19T09:10:50.119Z</time></trkpt><trkpt lat="43.3927507" lon="11.216203"><ele>195.0</ele><time>2026-04-19T09:10:51.187Z</time></trkpt><trkpt lat="43.3927537" lon="11.2160843"><ele>194.4</ele><time>2026-04-19T09:10:52.196Z</time></trkpt><trkpt lat="43.3927543" lon="11.2159588"><ele>193.8</ele><time>2026-04-19T09:10:53.187Z</time></trkpt><trkpt lat="43.3927523" lon="11.215828"><ele>193.2</ele><time>2026-04-19T09:10:54.122Z</time></trkpt><trkpt lat="43.3927512" lon="11.2156929"><ele>192.6</ele><time>2026-04-19T09:10:55.129Z</time></trkpt><trkpt lat="43.39275" lon="11.2155635"><ele>192.0</ele><time>2026-04-19T09:10:56.196Z</time></trkpt><trkpt lat="43.3927541" lon="11.215447"><ele>191.83333333333334</ele><time>2026-04-19T09:10:57.12Z</time></trkpt><trkpt lat="43.3927575" lon="11.2153262"><ele>191.66666666666666</ele><time>2026-04-19T09:10:58.201Z</time></trkpt><trkpt lat="43.3927676" lon="11.2152145"><ele>191.5</ele><time>2026-04-19T09:10:59.124Z</time></trkpt><trkpt lat="43.3927646" lon="11.2150993"><ele>191.33333333333331</ele><time>2026-04-19T09:11:00.116Z</time></trkpt><trkpt lat="43.3927617" lon="11.214988"><ele>191.16666666666666</ele><time>2026-04-19T09:11:01.127Z</time></trkpt><trkpt lat="43.3927649" lon="11.2148919"><ele>191.0</ele><time>2026-04-19T09:11:02.126Z</time></trkpt><trkpt lat="43.3927682" lon="11.2147934"><ele>191.0</ele><time>2026-04-19T09:11:03.19Z</time></trkpt><trkpt lat="43.3927717" lon="11.2146977"><ele>191.0</ele><time>2026-04-19T09:11:04.122Z</time></trkpt><trkpt lat="43.3927776" lon="11.2146012"><ele>191.0</ele><time>2026-04-19T09:11:05.121Z</time></trkpt><trkpt lat="43.3927812" lon="11.2145034"><ele>191.0</ele><time>2026-04-19T09:11:06.112Z</time></trkpt><trkpt lat="43.3927802" lon="11.2144057"><ele>191.0</ele><time>2026-04-19T09:11:07.102Z</time></trkpt><trkpt lat="43.3927807" lon="11.2143116"><ele>191.0</ele><time>2026-04-19T09:11:08.113Z</time></trkpt><trkpt lat="43.3927817" lon="11.2142235"><ele>191.0</ele><time>2026-04-19T09:11:09.128Z</time></trkpt><trkpt lat="43.3927838" lon="11.2141325"><ele>191.0</ele><time>2026-04-19T09:11:10.133Z</time></trkpt><trkpt lat="43.3927835" lon="11.2140386"><ele>191.0</ele><time>2026-04-19T09:11:11.14Z</time></trkpt><trkpt lat="43.3927683" lon="11.2137413"><ele>191.0</ele><time>2026-04-19T09:11:14.112Z</time></trkpt><trkpt lat="43.3927821" lon="11.2135807"><ele>191.0</ele><time>2026-04-19T09:11:16.109Z</time></trkpt><trkpt lat="43.3927863" lon="11.2134225"><ele>190.75</ele><time>2026-04-19T09:11:18.121Z</time></trkpt><trkpt lat="43.392792" lon="11.2132757"><ele>190.5</ele><time>2026-04-19T09:11:20.117Z</time></trkpt><trkpt lat="43.3927948" lon="11.2131153"><ele>190.25</ele><time>2026-04-19T09:11:22.118Z</time></trkpt><trkpt lat="43.3927963" lon="11.2129541"><ele>190.0</ele><time>2026-04-19T09:11:24.12Z</time></trkpt><trkpt lat="43.3927942" lon="11.2127934"><ele>190.75</ele><time>2026-04-19T09:11:26.115Z</time></trkpt><trkpt lat="43.3928059" lon="11.212636"><ele>191.5</ele><time>2026-04-19T09:11:28.185Z</time></trkpt><trkpt lat="43.3928126" lon="11.2124749"><ele>192.25</ele><time>2026-04-19T09:11:30.126Z</time></trkpt><trkpt lat="43.3928168" lon="11.2123112"><ele>193.0</ele><time>2026-04-19T09:11:32.208Z</time></trkpt><trkpt lat="43.3928226" lon="11.2121543"><ele>192.8</ele><time>2026-04-19T09:11:34.119Z</time></trkpt><trkpt lat="43.3928274" lon="11.211998"><ele>192.60000000000002</ele><time>2026-04-19T09:11:36.122Z</time></trkpt><trkpt lat="43.3928328" lon="11.2118528"><ele>192.39999999999998</ele><time>2026-04-19T09:11:38.111Z</time></trkpt><trkpt lat="43.3928417" lon="11.2116971"><ele>192.2</ele><time>2026-04-19T09:11:40.132Z</time></trkpt><trkpt lat="43.3928413" lon="11.2115387"><ele>192.0</ele><time>2026-04-19T09:11:42.134Z</time></trkpt><trkpt lat="43.3928498" lon="11.2113805"><ele>192.0</ele><time>2026-04-19T09:11:44.131Z</time></trkpt><trkpt lat="43.3928496" lon="11.2112255"><ele>192.0</ele><time>2026-04-19T09:11:46.108Z</time></trkpt><trkpt lat="43.3928529" lon="11.2110901"><ele>192.0</ele><time>2026-04-19T09:11:48.132Z</time></trkpt><trkpt lat="43.3928593" lon="11.2109478"><ele>192.0</ele><time>2026-04-19T09:11:50.137Z</time></trkpt><trkpt lat="43.3928601" lon="11.2107881"><ele>192.0</ele><time>2026-04-19T09:11:52.115Z</time></trkpt><trkpt lat="43.3928625" lon="11.2106309"><ele>191.8</ele><time>2026-04-19T09:11:54.126Z</time></trkpt><trkpt lat="43.3928607" lon="11.2104736"><ele>191.6</ele><time>2026-04-19T09:11:56.12Z</time></trkpt><trkpt lat="43.3928598" lon="11.2103201"><ele>191.4</ele><time>2026-04-19T09:11:58.133Z</time></trkpt><trkpt lat="43.3928619" lon="11.2101689"><ele>191.20000000000002</ele><time>2026-04-19T09:12:00.121Z</time></trkpt><trkpt lat="43.3928616" lon="11.2100163"><ele>191.0</ele><time>2026-04-19T09:12:02.127Z</time></trkpt><trkpt lat="43.3928621" lon="11.2098689"><ele>191.20000000000002</ele><time>2026-04-19T09:12:04.12Z</time></trkpt><trkpt lat="43.3928642" lon="11.2097184"><ele>191.4</ele><time>2026-04-19T09:12:06.184Z</time></trkpt><trkpt lat="43.3928717" lon="11.2095734"><ele>191.6</ele><time>2026-04-19T09:12:08.118Z</time></trkpt><trkpt lat="43.3928836" lon="11.20944"><ele>191.8</ele><time>2026-04-19T09:12:10.126Z</time></trkpt><trkpt lat="43.3928847" lon="11.2092872"><ele>192.0</ele><time>2026-04-19T09:12:12.191Z</time></trkpt><trkpt lat="43.3928918" lon="11.2091406"><ele>192.0</ele><time>2026-04-19T09:12:14.12Z</time></trkpt><trkpt lat="43.3928929" lon="11.2089823"><ele>192.0</ele><time>2026-04-19T09:12:16.11Z</time></trkpt><trkpt lat="43.3928907" lon="11.2088293"><ele>192.0</ele><time>2026-04-19T09:12:18.111Z</time></trkpt><trkpt lat="43.3928875" lon="11.2086759"><ele>192.0</ele><time>2026-04-19T09:12:20.126Z</time></trkpt><trkpt lat="43.3928857" lon="11.2085267"><ele>192.0</ele><time>2026-04-19T09:12:22.109Z</time></trkpt><trkpt lat="43.392892" lon="11.2083811"><ele>192.0</ele><time>2026-04-19T09:12:24.13Z</time></trkpt><trkpt lat="43.3928919" lon="11.2082358"><ele>192.0</ele><time>2026-04-19T09:12:26.132Z</time></trkpt><trkpt lat="43.3928895" lon="11.2080932"><ele>192.0</ele><time>2026-04-19T09:12:28.132Z</time></trkpt><trkpt lat="43.3928876" lon="11.2079414"><ele>192.0</ele><time>2026-04-19T09:12:30.127Z</time></trkpt><trkpt lat="43.3928909" lon="11.2077843"><ele>192.0</ele><time>2026-04-19T09:12:32.127Z</time></trkpt><trkpt lat="43.3928942" lon="11.2076345"><ele>192.2</ele><time>2026-04-19T09:12:34.123Z</time></trkpt><trkpt lat="43.3929012" lon="11.2074893"><ele>192.39999999999998</ele><time>2026-04-19T09:12:36.128Z</time></trkpt><trkpt lat="43.3929069" lon="11.2073455"><ele>192.60000000000002</ele><time>2026-04-19T09:12:38.126Z</time></trkpt><trkpt lat="43.3929119" lon="11.2071967"><ele>192.8</ele><time>2026-04-19T09:12:40.129Z</time></trkpt><trkpt lat="43.3929208" lon="11.2070481"><ele>193.0</ele><time>2026-04-19T09:12:42.197Z</time></trkpt><trkpt lat="43.3929272" lon="11.2069016"><ele>193.4</ele><time>2026-04-19T09:12:44.117Z</time></trkpt><trkpt lat="43.3929314" lon="11.2067499"><ele>193.8</ele><time>2026-04-19T09:12:46.207Z</time></trkpt><trkpt lat="43.3929323" lon="11.2066063"><ele>194.2</ele><time>2026-04-19T09:12:48.132Z</time></trkpt><trkpt lat="43.3929334" lon="11.2064601"><ele>194.6</ele><time>2026-04-19T09:12:50.137Z</time></trkpt><trkpt lat="43.3929384" lon="11.2063249"><ele>195.0</ele><time>2026-04-19T09:12:52.191Z</time></trkpt><trkpt lat="43.3929397" lon="11.2062124"><ele>195.0</ele><time>2026-04-19T09:12:54.127Z</time></trkpt><trkpt lat="43.3929439" lon="11.2060926"><ele>195.0</ele><time>2026-04-19T09:12:56.105Z</time></trkpt><trkpt lat="43.3929634" lon="11.20594"><ele>195.0</ele><time>2026-04-19T09:12:58.195Z</time></trkpt><trkpt lat="43.3929865" lon="11.2057869"><ele>195.0</ele><time>2026-04-19T09:13:00.116Z</time></trkpt><trkpt lat="43.3929825" lon="11.2056113"><ele>195.0</ele><time>2026-04-19T09:13:02.128Z</time></trkpt><trkpt lat="43.392976" lon="11.2054563"><ele>195.4</ele><time>2026-04-19T09:13:04.118Z</time></trkpt><trkpt lat="43.392978" lon="11.2053116"><ele>195.8</ele><time>2026-04-19T09:13:06.118Z</time></trkpt><trkpt lat="43.3929709" lon="11.2051688"><ele>196.2</ele><time>2026-04-19T09:13:08.138Z</time></trkpt><trkpt lat="43.3929728" lon="11.2050287"><ele>196.6</ele><time>2026-04-19T09:13:10.124Z</time></trkpt><trkpt lat="43.3929796" lon="11.2048889"><ele>197.0</ele><time>2026-04-19T09:13:12.115Z</time></trkpt><trkpt lat="43.3929809" lon="11.2047526"><ele>197.2</ele><time>2026-04-19T09:13:14.12Z</time></trkpt><trkpt lat="43.3929812" lon="11.2046107"><ele>197.39999999999998</ele><time>2026-04-19T09:13:16.119Z</time></trkpt><trkpt lat="43.3929786" lon="11.2044641"><ele>197.60000000000002</ele><time>2026-04-19T09:13:18.099Z</time></trkpt><trkpt lat="43.3929839" lon="11.204326"><ele>197.8</ele><time>2026-04-19T09:13:20.13Z</time></trkpt><trkpt lat="43.3929818" lon="11.2041866"><ele>198.0</ele><time>2026-04-19T09:13:22.125Z</time></trkpt><trkpt lat="43.3929833" lon="11.2040536"><ele>197.60000000000002</ele><time>2026-04-19T09:13:24.114Z</time></trkpt><trkpt lat="43.3929836" lon="11.2039111"><ele>197.20000000000002</ele><time>2026-04-19T09:13:26.126Z</time></trkpt><trkpt lat="43.3929863" lon="11.2037719"><ele>196.8</ele><time>2026-04-19T09:13:28.177Z</time></trkpt><trkpt lat="43.3929982" lon="11.2036315"><ele>196.4</ele><time>2026-04-19T09:13:30.122Z</time></trkpt><trkpt lat="43.3929849" lon="11.2034887"><ele>196.0</ele><time>2026-04-19T09:13:32.124Z</time></trkpt><trkpt lat="43.3929873" lon="11.2033425"><ele>196.0</ele><time>2026-04-19T09:13:34.116Z</time></trkpt><trkpt lat="43.3930013" lon="11.2031999"><ele>196.0</ele><time>2026-04-19T09:13:36.128Z</time></trkpt><trkpt lat="43.393011" lon="11.2030629"><ele>196.0</ele><time>2026-04-19T09:13:38.126Z</time></trkpt><trkpt lat="43.393017" lon="11.2029212"><ele>196.0</ele><time>2026-04-19T09:13:40.118Z</time></trkpt><trkpt lat="43.3930223" lon="11.2027758"><ele>196.0</ele><time>2026-04-19T09:13:42.116Z</time></trkpt><trkpt lat="43.3930254" lon="11.2026348"><ele>196.4</ele><time>2026-04-19T09:13:44.125Z</time></trkpt><trkpt lat="43.3930254" lon="11.202491"><ele>196.8</ele><time>2026-04-19T09:13:46.105Z</time></trkpt><trkpt lat="43.3930623" lon="11.2023652"><ele>197.20000000000002</ele><time>2026-04-19T09:13:48.116Z</time></trkpt><trkpt lat="43.3930913" lon="11.2022424"><ele>197.60000000000002</ele><time>2026-04-19T09:13:50.121Z</time></trkpt><trkpt lat="43.3930755" lon="11.2020894"><ele>198.0</ele><time>2026-04-19T09:13:52.111Z</time></trkpt><trkpt lat="43.3930647" lon="11.2019379"><ele>198.60000000000002</ele><time>2026-04-19T09:13:54.143Z</time></trkpt><trkpt lat="43.3930643" lon="11.2017865"><ele>199.20000000000002</ele><time>2026-04-19T09:13:56.116Z</time></trkpt><trkpt lat="43.3930561" lon="11.2016349"><ele>199.8</ele><time>2026-04-19T09:13:58.12Z</time></trkpt><trkpt lat="43.3930511" lon="11.2014928"><ele>200.4</ele><time>2026-04-19T09:14:00.128Z</time></trkpt><trkpt lat="43.3930474" lon="11.201357"><ele>201.0</ele><time>2026-04-19T09:14:02.102Z</time></trkpt><trkpt lat="43.3930484" lon="11.2012169"><ele>201.0</ele><time>2026-04-19T09:14:04.11Z</time></trkpt><trkpt lat="43.3930495" lon="11.2010687"><ele>201.0</ele><time>2026-04-19T09:14:06.119Z</time></trkpt><trkpt lat="43.3930494" lon="11.200915"><ele>201.0</ele><time>2026-04-19T09:14:08.206Z</time></trkpt><trkpt lat="43.3930548" lon="11.200766"><ele>201.0</ele><time>2026-04-19T09:14:10.127Z</time></trkpt><trkpt lat="43.3930548" lon="11.2006145"><ele>201.0</ele><time>2026-04-19T09:14:12.131Z</time></trkpt><trkpt lat="43.3930456" lon="11.2004661"><ele>200.4</ele><time>2026-04-19T09:14:14.127Z</time></trkpt><trkpt lat="43.3930272" lon="11.2003218"><ele>199.8</ele><time>2026-04-19T09:14:16.121Z</time></trkpt><trkpt lat="43.3930079" lon="11.2001797"><ele>199.20000000000002</ele><time>2026-04-19T09:14:18.123Z</time></trkpt><trkpt lat="43.3929632" lon="11.2000534"><ele>198.60000000000002</ele><time>2026-04-19T09:14:20.117Z</time></trkpt><trkpt lat="43.3928588" lon="11.1999885"><ele>198.0</ele><time>2026-04-19T09:14:22.123Z</time></trkpt><trkpt lat="43.3927435" lon="11.1999741"><ele>198.0</ele><time>2026-04-19T09:14:24.129Z</time></trkpt><trkpt lat="43.3926278" lon="11.1999426"><ele>198.0</ele><time>2026-04-19T09:14:26.11Z</time></trkpt><trkpt lat="43.3925146" lon="11.1999044"><ele>198.0</ele><time>2026-04-19T09:14:28.187Z</time></trkpt><trkpt lat="43.3924484" lon="11.1998907"><ele>198.0</ele><time>2026-04-19T09:14:29.129Z</time></trkpt><trkpt lat="43.392372" lon="11.1998641"><ele>198.0</ele><time>2026-04-19T09:14:30.127Z</time></trkpt><trkpt lat="43.3922731" lon="11.1998239"><ele>198.2</ele><time>2026-04-19T09:14:32.113Z</time></trkpt><trkpt lat="43.3921773" lon="11.1997883"><ele>198.4</ele><time>2026-04-19T09:14:34.132Z</time></trkpt><trkpt lat="43.39208" lon="11.1997544"><ele>198.6</ele><time>2026-04-19T09:14:36.124Z</time></trkpt><trkpt lat="43.3919889" lon="11.1997194"><ele>198.79999999999998</ele><time>2026-04-19T09:14:38.128Z</time></trkpt><trkpt lat="43.391898" lon="11.1996784"><ele>199.0</ele><time>2026-04-19T09:14:40.125Z</time></trkpt><trkpt lat="43.3917995" lon="11.1996417"><ele>199.0</ele><time>2026-04-19T09:14:42.124Z</time></trkpt><trkpt lat="43.3916938" lon="11.1996044"><ele>199.0</ele><time>2026-04-19T09:14:44.112Z</time></trkpt><trkpt lat="43.3915919" lon="11.1995685"><ele>199.0</ele><time>2026-04-19T09:14:46.128Z</time></trkpt><trkpt lat="43.391491" lon="11.1995313"><ele>199.0</ele><time>2026-04-19T09:14:48.123Z</time></trkpt><trkpt lat="43.3913913" lon="11.1994938"><ele>199.0</ele><time>2026-04-19T09:14:50.127Z</time></trkpt><trkpt lat="43.3912901" lon="11.1994594"><ele>199.79999999999998</ele><time>2026-04-19T09:14:52.129Z</time></trkpt><trkpt lat="43.3911896" lon="11.1994244"><ele>200.6</ele><time>2026-04-19T09:14:54.129Z</time></trkpt><trkpt lat="43.3910921" lon="11.1993832"><ele>201.4</ele><time>2026-04-19T09:14:56.118Z</time></trkpt><trkpt lat="43.3909965" lon="11.1993478"><ele>202.2</ele><time>2026-04-19T09:14:58.13Z</time></trkpt><trkpt lat="43.3909018" lon="11.1993133"><ele>203.0</ele><time>2026-04-19T09:15:00.101Z</time></trkpt><trkpt lat="43.3908089" lon="11.1992765"><ele>203.0</ele><time>2026-04-19T09:15:02.125Z</time></trkpt><trkpt lat="43.3907124" lon="11.199248"><ele>203.0</ele><time>2026-04-19T09:15:04.125Z</time></trkpt><trkpt lat="43.3906126" lon="11.1992134"><ele>203.0</ele><time>2026-04-19T09:15:06.124Z</time></trkpt><trkpt lat="43.390513" lon="11.1991765"><ele>203.0</ele><time>2026-04-19T09:15:08.127Z</time></trkpt><trkpt lat="43.3904135" lon="11.1991387"><ele>203.0</ele><time>2026-04-19T09:15:10.121Z</time></trkpt><trkpt lat="43.3903135" lon="11.1991005"><ele>202.60000000000002</ele><time>2026-04-19T09:15:12.127Z</time></trkpt><trkpt lat="43.3902138" lon="11.1990666"><ele>202.20000000000002</ele><time>2026-04-19T09:15:14.134Z</time></trkpt><trkpt lat="43.3901151" lon="11.1990322"><ele>201.8</ele><time>2026-04-19T09:15:16.129Z</time></trkpt><trkpt lat="43.3900103" lon="11.198995"><ele>201.4</ele><time>2026-04-19T09:15:18.132Z</time></trkpt><trkpt lat="43.3899039" lon="11.1989577"><ele>201.0</ele><time>2026-04-19T09:15:20.139Z</time></trkpt><trkpt lat="43.3898022" lon="11.1989213"><ele>201.0</ele><time>2026-04-19T09:15:22.13Z</time></trkpt><trkpt lat="43.3897103" lon="11.1988589"><ele>201.0</ele><time>2026-04-19T09:15:24.131Z</time></trkpt><trkpt lat="43.3896289" lon="11.1987732"><ele>201.0</ele><time>2026-04-19T09:15:26.144Z</time></trkpt><trkpt lat="43.3895611" lon="11.1986631"><ele>201.0</ele><time>2026-04-19T09:15:28.119Z</time></trkpt><trkpt lat="43.3895086" lon="11.1985394"><ele>201.0</ele><time>2026-04-19T09:15:30.117Z</time></trkpt><trkpt lat="43.3894651" lon="11.1984054"><ele>200.8</ele><time>2026-04-19T09:15:32.143Z</time></trkpt><trkpt lat="43.3894178" lon="11.198275"><ele>200.60000000000002</ele><time>2026-04-19T09:15:34.139Z</time></trkpt><trkpt lat="43.3893751" lon="11.1981403"><ele>200.4</ele><time>2026-04-19T09:15:36.129Z</time></trkpt><trkpt lat="43.3893384" lon="11.1980004"><ele>200.2</ele><time>2026-04-19T09:15:38.124Z</time></trkpt><trkpt lat="43.3893109" lon="11.1978585"><ele>200.0</ele><time>2026-04-19T09:15:40.115Z</time></trkpt><trkpt lat="43.3892974" lon="11.1977128"><ele>199.8</ele><time>2026-04-19T09:15:42.129Z</time></trkpt><trkpt lat="43.3892868" lon="11.1975687"><ele>199.6</ele><time>2026-04-19T09:15:44.118Z</time></trkpt><trkpt lat="43.3892757" lon="11.1974177"><ele>199.39999999999998</ele><time>2026-04-19T09:15:46.115Z</time></trkpt><trkpt lat="43.3892664" lon="11.1972659"><ele>199.2</ele><time>2026-04-19T09:15:48.115Z</time></trkpt><trkpt lat="43.3892618" lon="11.1971102"><ele>199.0</ele><time>2026-04-19T09:15:50.133Z</time></trkpt><trkpt lat="43.3892515" lon="11.1969579"><ele>199.0</ele><time>2026-04-19T09:15:52.111Z</time></trkpt><trkpt lat="43.3892407" lon="11.1968019"><ele>199.0</ele><time>2026-04-19T09:15:54.126Z</time></trkpt><trkpt lat="43.3892427" lon="11.1966387"><ele>199.0</ele><time>2026-04-19T09:15:56.127Z</time></trkpt><trkpt lat="43.3892769" lon="11.1964831"><ele>199.0</ele><time>2026-04-19T09:15:58.127Z</time></trkpt><trkpt lat="43.3893371" lon="11.1963525"><ele>199.2</ele><time>2026-04-19T09:16:00.115Z</time></trkpt><trkpt lat="43.3894016" lon="11.196237"><ele>199.39999999999998</ele><time>2026-04-19T09:16:02.122Z</time></trkpt><trkpt lat="43.3894515" lon="11.1961279"><ele>199.6</ele><time>2026-04-19T09:16:04.127Z</time></trkpt><trkpt lat="43.3895046" lon="11.1960233"><ele>199.8</ele><time>2026-04-19T09:16:06.106Z</time></trkpt><trkpt lat="43.3895537" lon="11.195925"><ele>200.0</ele><time>2026-04-19T09:16:08.199Z</time></trkpt><trkpt lat="43.3896298" lon="11.1957503"><ele>200.50000000000003</ele><time>2026-04-19T09:16:12.192Z</time></trkpt><trkpt lat="43.3896853" lon="11.1956708"><ele>201.0</ele><time>2026-04-19T09:16:14.108Z</time></trkpt><trkpt lat="43.3897509" lon="11.1955735"><ele>201.5</ele><time>2026-04-19T09:16:16.21Z</time></trkpt><trkpt lat="43.3898132" lon="11.1954849"><ele>202.0</ele><time>2026-04-19T09:16:18.182Z</time></trkpt><trkpt lat="43.389865" lon="11.195435"><ele>202.50000000000003</ele><time>2026-04-19T09:16:20.097Z</time></trkpt><trkpt lat="43.3899155" lon="11.1953217"><ele>203.0</ele><time>2026-04-19T09:16:22.175Z</time></trkpt><trkpt lat="43.3899362" lon="11.1951847"><ele>203.0</ele><time>2026-04-19T09:16:24.125Z</time></trkpt><trkpt lat="43.389978" lon="11.1950841"><ele>203.0</ele><time>2026-04-19T09:16:26.173Z</time></trkpt><trkpt lat="43.3900775" lon="11.1949914"><ele>203.0</ele><time>2026-04-19T09:16:28.201Z</time></trkpt><trkpt lat="43.3901594" lon="11.1948871"><ele>203.0</ele><time>2026-04-19T09:16:30.116Z</time></trkpt><trkpt lat="43.3901965" lon="11.1948018"><ele>203.0</ele><time>2026-04-19T09:16:32.116Z</time></trkpt><trkpt lat="43.3902432" lon="11.1947054"><ele>203.0</ele><time>2026-04-19T09:16:34.121Z</time></trkpt><trkpt lat="43.3902965" lon="11.1946038"><ele>203.0</ele><time>2026-04-19T09:16:36.111Z</time></trkpt><trkpt lat="43.39035" lon="11.1944941"><ele>203.0</ele><time>2026-04-19T09:16:38.118Z</time></trkpt><trkpt lat="43.3904082" lon="11.1943894"><ele>203.0</ele><time>2026-04-19T09:16:40.12Z</time></trkpt><trkpt lat="43.3904574" lon="11.1942789"><ele>203.0</ele><time>2026-04-19T09:16:42.119Z</time></trkpt><trkpt lat="43.3905022" lon="11.194177"><ele>203.16666666666669</ele><time>2026-04-19T09:16:44.113Z</time></trkpt><trkpt lat="43.3905473" lon="11.1940699"><ele>203.33333333333334</ele><time>2026-04-19T09:16:46.181Z</time></trkpt><trkpt lat="43.3905939" lon="11.1939554"><ele>203.5</ele><time>2026-04-19T09:16:48.1Z</time></trkpt><trkpt lat="43.3906369" lon="11.1938403"><ele>203.66666666666669</ele><time>2026-04-19T09:16:50.105Z</time></trkpt><trkpt lat="43.3906826" lon="11.1937417"><ele>203.83333333333334</ele><time>2026-04-19T09:16:52.174Z</time></trkpt><trkpt lat="43.3907271" lon="11.1936477"><ele>204.0</ele><time>2026-04-19T09:16:54.099Z</time></trkpt><trkpt lat="43.3907844" lon="11.1935449"><ele>204.0</ele><time>2026-04-19T09:16:56.083Z</time></trkpt><trkpt lat="43.3908267" lon="11.1934235"><ele>204.0</ele><time>2026-04-19T09:16:58.115Z</time></trkpt><trkpt lat="43.3908706" lon="11.193298"><ele>204.0</ele><time>2026-04-19T09:17:00.121Z</time></trkpt><trkpt lat="43.3909193" lon="11.1932029"><ele>204.0</ele><time>2026-04-19T09:17:02.114Z</time></trkpt><trkpt lat="43.3909618" lon="11.1931215"><ele>204.0</ele><time>2026-04-19T09:17:04.101Z</time></trkpt><trkpt lat="43.3909946" lon="11.193015"><ele>204.0</ele><time>2026-04-19T09:17:06.118Z</time></trkpt><trkpt lat="43.3910346" lon="11.1928891"><ele>204.0</ele><time>2026-04-19T09:17:08.123Z</time></trkpt><trkpt lat="43.3910918" lon="11.192785"><ele>204.0</ele><time>2026-04-19T09:17:10.112Z</time></trkpt><trkpt lat="43.3911345" lon="11.1926742"><ele>204.0</ele><time>2026-04-19T09:17:12.12Z</time></trkpt><trkpt lat="43.3911783" lon="11.1925601"><ele>204.0</ele><time>2026-04-19T09:17:14.125Z</time></trkpt><trkpt lat="43.3912182" lon="11.192447"><ele>204.0</ele><time>2026-04-19T09:17:16.114Z</time></trkpt><trkpt lat="43.3912603" lon="11.1923317"><ele>204.39999999999998</ele><time>2026-04-19T09:17:18.112Z</time></trkpt><trkpt lat="43.3913105" lon="11.1922278"><ele>204.8</ele><time>2026-04-19T09:17:20.112Z</time></trkpt><trkpt lat="43.391356" lon="11.1921138"><ele>205.2</ele><time>2026-04-19T09:17:22.102Z</time></trkpt><trkpt lat="43.3914023" lon="11.1920099"><ele>205.60000000000002</ele><time>2026-04-19T09:17:24.11Z</time></trkpt><trkpt lat="43.3914484" lon="11.1918951"><ele>206.0</ele><time>2026-04-19T09:17:26.122Z</time></trkpt><trkpt lat="43.3914984" lon="11.1917902"><ele>206.0</ele><time>2026-04-19T09:17:28.19Z</time></trkpt><trkpt lat="43.3915458" lon="11.1916843"><ele>206.0</ele><time>2026-04-19T09:17:30.118Z</time></trkpt><trkpt lat="43.3915937" lon="11.1915804"><ele>206.0</ele><time>2026-04-19T09:17:32.184Z</time></trkpt><trkpt lat="43.3916628" lon="11.191474"><ele>206.0</ele><time>2026-04-19T09:17:34.101Z</time></trkpt><trkpt lat="43.3917255" lon="11.1913526"><ele>206.0</ele><time>2026-04-19T09:17:36.178Z</time></trkpt><trkpt lat="43.3917773" lon="11.1912407"><ele>206.4</ele><time>2026-04-19T09:17:38.18Z</time></trkpt><trkpt lat="43.3918061" lon="11.1911549"><ele>206.8</ele><time>2026-04-19T09:17:39.097Z</time></trkpt><trkpt lat="43.3918422" lon="11.1910293"><ele>207.20000000000002</ele><time>2026-04-19T09:17:40.114Z</time></trkpt><trkpt lat="43.3918845" lon="11.190883"><ele>207.60000000000002</ele><time>2026-04-19T09:17:41.187Z</time></trkpt><trkpt lat="43.3919382" lon="11.190774"><ele>208.0</ele><time>2026-04-19T09:17:45.115Z</time></trkpt><trkpt lat="43.3919711" lon="11.1906848"><ele>207.99999999999997</ele><time>2026-04-19T09:17:47.103Z</time></trkpt><trkpt lat="43.3920154" lon="11.1905882"><ele>208.0</ele><time>2026-04-19T09:17:49.113Z</time></trkpt><trkpt lat="43.3920585" lon="11.190495"><ele>208.0</ele><time>2026-04-19T09:17:51.122Z</time></trkpt><trkpt lat="43.3920968" lon="11.1904001"><ele>208.0</ele><time>2026-04-19T09:17:53.12Z</time></trkpt><trkpt lat="43.3921412" lon="11.1902982"><ele>207.99999999999997</ele><time>2026-04-19T09:17:55.119Z</time></trkpt><trkpt lat="43.3921905" lon="11.1901844"><ele>208.0</ele><time>2026-04-19T09:17:57.184Z</time></trkpt><trkpt lat="43.392225" lon="11.1900853"><ele>208.2</ele><time>2026-04-19T09:17:59.104Z</time></trkpt><trkpt lat="43.392279" lon="11.1899802"><ele>208.4</ele><time>2026-04-19T09:18:01.111Z</time></trkpt><trkpt lat="43.3923357" lon="11.1898755"><ele>208.6</ele><time>2026-04-19T09:18:03.111Z</time></trkpt><trkpt lat="43.3923865" lon="11.1897688"><ele>208.79999999999998</ele><time>2026-04-19T09:18:05.113Z</time></trkpt><trkpt lat="43.3924352" lon="11.1896665"><ele>209.0</ele><time>2026-04-19T09:18:07.103Z</time></trkpt><trkpt lat="43.3924794" lon="11.1895677"><ele>209.00000000000003</ele><time>2026-04-19T09:18:09.105Z</time></trkpt><trkpt lat="43.3925229" lon="11.1894705"><ele>209.0</ele><time>2026-04-19T09:18:11.115Z</time></trkpt><trkpt lat="43.3925747" lon="11.1893597"><ele>209.0</ele><time>2026-04-19T09:18:13.199Z</time></trkpt><trkpt lat="43.3926253" lon="11.1892486"><ele>209.0</ele><time>2026-04-19T09:18:15.112Z</time></trkpt><trkpt lat="43.3926589" lon="11.1891585"><ele>209.00000000000003</ele><time>2026-04-19T09:18:17.183Z</time></trkpt><trkpt lat="43.3926796" lon="11.189065"><ele>209.0</ele><time>2026-04-19T09:18:19.088Z</time></trkpt><trkpt lat="43.3927161" lon="11.1889734"><ele>209.0</ele><time>2026-04-19T09:18:21.096Z</time></trkpt><trkpt lat="43.3927685" lon="11.1888946"><ele>209.0</ele><time>2026-04-19T09:18:23.114Z</time></trkpt><trkpt lat="43.3928522" lon="11.1888656"><ele>209.0</ele><time>2026-04-19T09:18:25.11Z</time></trkpt><trkpt lat="43.3929423" lon="11.1889127"><ele>209.0</ele><time>2026-04-19T09:18:27.106Z</time></trkpt><trkpt lat="43.393023" lon="11.1889855"><ele>209.0</ele><time>2026-04-19T09:18:29.113Z</time></trkpt><trkpt lat="43.3931062" lon="11.1890545"><ele>209.00000000000003</ele><time>2026-04-19T09:18:31.134Z</time></trkpt><trkpt lat="43.3931837" lon="11.1890843"><ele>209.0</ele><time>2026-04-19T09:18:33.192Z</time></trkpt><trkpt lat="43.3932606" lon="11.1890451"><ele>209.0</ele><time>2026-04-19T09:18:36.119Z</time></trkpt><trkpt lat="43.3933095" lon="11.1889066"><ele>209.0</ele><time>2026-04-19T09:18:39.109Z</time></trkpt><trkpt lat="43.393309" lon="11.1887939"><ele>209.00000000000003</ele><time>2026-04-19T09:18:41.088Z</time></trkpt><trkpt lat="43.3933313" lon="11.1886767"><ele>209.0</ele><time>2026-04-19T09:18:44.117Z</time></trkpt><trkpt lat="43.3933526" lon="11.188553"><ele>209.33333333333334</ele><time>2026-04-19T09:18:47.186Z</time></trkpt><trkpt lat="43.3933739" lon="11.1884078"><ele>209.66666666666669</ele><time>2026-04-19T09:18:50.105Z</time></trkpt><trkpt lat="43.3933693" lon="11.1883168"><ele>210.0</ele><time>2026-04-19T09:18:52.194Z</time></trkpt><trkpt lat="43.3933824" lon="11.1882043"><ele>210.33333333333331</ele><time>2026-04-19T09:18:55.106Z</time></trkpt><trkpt lat="43.3934108" lon="11.188077"><ele>210.66666666666666</ele><time>2026-04-19T09:18:58.094Z</time></trkpt><trkpt lat="43.393426" lon="11.1879872"><ele>211.0</ele><time>2026-04-19T09:19:00.105Z</time></trkpt><trkpt lat="43.3934413" lon="11.1878691"><ele>211.33333333333331</ele><time>2026-04-19T09:19:03.132Z</time></trkpt><trkpt lat="43.3934603" lon="11.1877583"><ele>211.66666666666666</ele><time>2026-04-19T09:19:06.185Z</time></trkpt><trkpt lat="43.3934691" lon="11.1876442"><ele>212.0</ele><time>2026-04-19T09:19:08.193Z</time></trkpt><trkpt lat="43.3934867" lon="11.1875167"><ele>212.33333333333331</ele><time>2026-04-19T09:19:10.107Z</time></trkpt><trkpt lat="43.3934986" lon="11.1874313"><ele>212.66666666666666</ele><time>2026-04-19T09:19:12.182Z</time></trkpt><trkpt lat="43.3935141" lon="11.1873442"><ele>213.0</ele><time>2026-04-19T09:19:15.103Z</time></trkpt><trkpt lat="43.3935295" lon="11.187257"><ele>213.5</ele><time>2026-04-19T09:19:18.173Z</time></trkpt><trkpt lat="43.3935623" lon="11.1871564"><ele>214.0</ele><time>2026-04-19T09:19:22.18Z</time></trkpt><trkpt lat="43.3936364" lon="11.1870504"><ele>214.5</ele><time>2026-04-19T09:19:25.113Z</time></trkpt><trkpt lat="43.3936926" lon="11.1869499"><ele>215.0</ele><time>2026-04-19T09:19:27.179Z</time></trkpt><trkpt lat="43.3937132" lon="11.1868402"><ele>215.5</ele><time>2026-04-19T09:19:30.111Z</time></trkpt><trkpt lat="43.3937301" lon="11.1867463"><ele>216.0</ele><time>2026-04-19T09:19:34.098Z</time></trkpt><trkpt lat="43.3937561" lon="11.1866445"><ele>216.0</ele><time>2026-04-19T09:19:38.111Z</time></trkpt><trkpt lat="43.3937708" lon="11.1865351"><ele>216.0</ele><time>2026-04-19T09:19:42.115Z</time></trkpt><trkpt lat="43.3938149" lon="11.1864457"><ele>216.0</ele><time>2026-04-19T09:19:48.191Z</time></trkpt><trkpt lat="43.3938702" lon="11.1863878"><ele>216.0</ele><time>2026-04-19T09:19:51.185Z</time></trkpt><trkpt lat="43.3939199" lon="11.1862977"><ele>216.0</ele><time>2026-04-19T09:19:54.103Z</time></trkpt><trkpt lat="43.3939721" lon="11.1861947"><ele>216.0</ele><time>2026-04-19T09:19:56.107Z</time></trkpt><trkpt lat="43.3939856" lon="11.1860901"><ele>217.28571428571428</ele><time>2026-04-19T09:20:00.083Z</time></trkpt><trkpt lat="43.3939987" lon="11.1859819"><ele>218.57142857142856</ele><time>2026-04-19T09:20:04.093Z</time></trkpt><trkpt lat="43.3940197" lon="11.1858954"><ele>219.8571428571429</ele><time>2026-04-19T09:20:07.11Z</time></trkpt><trkpt lat="43.3940532" lon="11.1858146"><ele>221.14285714285717</ele><time>2026-04-19T09:20:10.113Z</time></trkpt><trkpt lat="43.3940889" lon="11.1857427"><ele>222.42857142857144</ele><time>2026-04-19T09:20:13.101Z</time></trkpt><trkpt lat="43.3941312" lon="11.1856492"><ele>223.71428571428575</ele><time>2026-04-19T09:20:17.115Z</time></trkpt><trkpt lat="43.3941712" lon="11.1855678"><ele>225.00000000000003</ele><time>2026-04-19T09:20:20.094Z</time></trkpt><trkpt lat="43.3942195" lon="11.1854902"><ele>225.33333333333334</ele><time>2026-04-19T09:20:23.18Z</time></trkpt><trkpt lat="43.3942563" lon="11.1853884"><ele>225.66666666666669</ele><time>2026-04-19T09:20:27.177Z</time></trkpt><trkpt lat="43.3943072" lon="11.1852939"><ele>226.0</ele><time>2026-04-19T09:20:31.193Z</time></trkpt><trkpt lat="43.3943614" lon="11.1851681"><ele>226.33333333333334</ele><time>2026-04-19T09:20:34.087Z</time></trkpt><trkpt lat="43.3943844" lon="11.185078"><ele>226.66666666666669</ele><time>2026-04-19T09:20:36.089Z</time></trkpt><trkpt lat="43.394419" lon="11.184963"><ele>227.0</ele><time>2026-04-19T09:20:39.086Z</time></trkpt><trkpt lat="43.3944721" lon="11.1848542"><ele>226.83333333333334</ele><time>2026-04-19T09:20:42.107Z</time></trkpt><trkpt lat="43.3945079" lon="11.1847734"><ele>226.66666666666669</ele><time>2026-04-19T09:20:44.104Z</time></trkpt><trkpt lat="43.3945424" lon="11.1846924"><ele>226.5</ele><time>2026-04-19T09:20:46.101Z</time></trkpt><trkpt lat="43.3945838" lon="11.184595"><ele>226.33333333333331</ele><time>2026-04-19T09:20:48.101Z</time></trkpt><trkpt lat="43.3946207" lon="11.1844872"><ele>226.16666666666666</ele><time>2026-04-19T09:20:50.106Z</time></trkpt><trkpt lat="43.3946576" lon="11.184378"><ele>226.0</ele><time>2026-04-19T09:20:52.11Z</time></trkpt><trkpt lat="43.3946944" lon="11.1842732"><ele>225.60000000000002</ele><time>2026-04-19T09:20:54.105Z</time></trkpt><trkpt lat="43.3947347" lon="11.184162"><ele>225.20000000000002</ele><time>2026-04-19T09:20:56.179Z</time></trkpt><trkpt lat="43.394819" lon="11.1840484"><ele>224.79999999999998</ele><time>2026-04-19T09:20:58.191Z</time></trkpt><trkpt lat="43.3948828" lon="11.1839324"><ele>224.39999999999998</ele><time>2026-04-19T09:21:00.113Z</time></trkpt><trkpt lat="43.3949053" lon="11.1838209"><ele>224.0</ele><time>2026-04-19T09:21:02.179Z</time></trkpt><trkpt lat="43.3949384" lon="11.1837063"><ele>223.79999999999998</ele><time>2026-04-19T09:21:04.115Z</time></trkpt><trkpt lat="43.3949757" lon="11.183577"><ele>223.59999999999997</ele><time>2026-04-19T09:21:06.112Z</time></trkpt><trkpt lat="43.3949966" lon="11.1834621"><ele>223.4</ele><time>2026-04-19T09:21:08.179Z</time></trkpt><trkpt lat="43.39502" lon="11.1833569"><ele>223.2</ele><time>2026-04-19T09:21:10.096Z</time></trkpt><trkpt lat="43.3950781" lon="11.1832238"><ele>223.0</ele><time>2026-04-19T09:21:12.177Z</time></trkpt><trkpt lat="43.3951343" lon="11.1830954"><ele>223.0</ele><time>2026-04-19T09:21:14.122Z</time></trkpt><trkpt lat="43.3952032" lon="11.1829758"><ele>223.0</ele><time>2026-04-19T09:21:16.174Z</time></trkpt><trkpt lat="43.3952719" lon="11.182852"><ele>223.0</ele><time>2026-04-19T09:21:18.106Z</time></trkpt><trkpt lat="43.3953308" lon="11.1827322"><ele>223.0</ele><time>2026-04-19T09:21:20.111Z</time></trkpt><trkpt lat="43.3953847" lon="11.1826139"><ele>223.0</ele><time>2026-04-19T09:21:22.094Z</time></trkpt><trkpt lat="43.3954396" lon="11.182494"><ele>223.0</ele><time>2026-04-19T09:21:24.106Z</time></trkpt><trkpt lat="43.395495" lon="11.1823707"><ele>223.0</ele><time>2026-04-19T09:21:26.186Z</time></trkpt><trkpt lat="43.3955719" lon="11.1822322"><ele>223.0</ele><time>2026-04-19T09:21:28.178Z</time></trkpt><trkpt lat="43.3956223" lon="11.1821059"><ele>223.0</ele><time>2026-04-19T09:21:30.106Z</time></trkpt><trkpt lat="43.3956773" lon="11.1819935"><ele>223.0</ele><time>2026-04-19T09:21:32.105Z</time></trkpt><trkpt lat="43.395741" lon="11.1818738"><ele>222.60000000000002</ele><time>2026-04-19T09:21:34.121Z</time></trkpt><trkpt lat="43.395774" lon="11.1817365"><ele>222.20000000000002</ele><time>2026-04-19T09:21:36.196Z</time></trkpt><trkpt lat="43.3957867" lon="11.1816224"><ele>221.8</ele><time>2026-04-19T09:21:38.185Z</time></trkpt><trkpt lat="43.3958247" lon="11.1814931"><ele>221.4</ele><time>2026-04-19T09:21:40.11Z</time></trkpt><trkpt lat="43.3958764" lon="11.1813681"><ele>221.0</ele><time>2026-04-19T09:21:42.183Z</time></trkpt><trkpt lat="43.3959121" lon="11.1812886"><ele>221.0</ele><time>2026-04-19T09:21:43.178Z</time></trkpt><trkpt lat="43.3959526" lon="11.1812045"><ele>221.00000000000003</ele><time>2026-04-19T09:21:44.099Z</time></trkpt><trkpt lat="43.3959873" lon="11.1811192"><ele>221.00000000000003</ele><time>2026-04-19T09:21:45.115Z</time></trkpt><trkpt lat="43.3960489" lon="11.180991"><ele>221.0</ele><time>2026-04-19T09:21:47.183Z</time></trkpt><trkpt lat="43.3960986" lon="11.1808714"><ele>221.0</ele><time>2026-04-19T09:21:49.112Z</time></trkpt><trkpt lat="43.3961692" lon="11.1807387"><ele>221.0</ele><time>2026-04-19T09:21:51.112Z</time></trkpt><trkpt lat="43.3962198" lon="11.1806036"><ele>221.00000000000003</ele><time>2026-04-19T09:21:53.121Z</time></trkpt><trkpt lat="43.3962662" lon="11.1804564"><ele>221.00000000000003</ele><time>2026-04-19T09:21:55.106Z</time></trkpt><trkpt lat="43.3962932" lon="11.1803775"><ele>221.0</ele><time>2026-04-19T09:21:56.112Z</time></trkpt><trkpt lat="43.3963473" lon="11.1802441"><ele>221.0</ele><time>2026-04-19T09:21:58.111Z</time></trkpt><trkpt lat="43.3964048" lon="11.180116"><ele>221.33333333333334</ele><time>2026-04-19T09:22:00.11Z</time></trkpt><trkpt lat="43.3964654" lon="11.1799813"><ele>221.66666666666669</ele><time>2026-04-19T09:22:02.178Z</time></trkpt><trkpt lat="43.3964987" lon="11.1799059"><ele>222.0</ele><time>2026-04-19T09:22:03.188Z</time></trkpt><trkpt lat="43.3965326" lon="11.1798276"><ele>222.33333333333331</ele><time>2026-04-19T09:22:04.106Z</time></trkpt><trkpt lat="43.3965665" lon="11.1796768"><ele>222.66666666666666</ele><time>2026-04-19T09:22:06.128Z</time></trkpt><trkpt lat="43.39661" lon="11.1795858"><ele>223.0</ele><time>2026-04-19T09:22:08.197Z</time></trkpt><trkpt lat="43.396681" lon="11.1795046"><ele>223.0</ele><time>2026-04-19T09:22:10.095Z</time></trkpt><trkpt lat="43.3967299" lon="11.1793819"><ele>223.0</ele><time>2026-04-19T09:22:12.186Z</time></trkpt><trkpt lat="43.3967705" lon="11.1792382"><ele>223.0</ele><time>2026-04-19T09:22:14.104Z</time></trkpt><trkpt lat="43.3968368" lon="11.1790988"><ele>223.0</ele><time>2026-04-19T09:22:16.179Z</time></trkpt><trkpt lat="43.396923" lon="11.1789997"><ele>223.0</ele><time>2026-04-19T09:22:18.108Z</time></trkpt><trkpt lat="43.3970063" lon="11.1789114"><ele>223.2</ele><time>2026-04-19T09:22:20.127Z</time></trkpt><trkpt lat="43.3970824" lon="11.1787661"><ele>223.4</ele><time>2026-04-19T09:22:22.088Z</time></trkpt><trkpt lat="43.3971411" lon="11.1786899"><ele>223.59999999999997</ele><time>2026-04-19T09:22:23.177Z</time></trkpt><trkpt lat="43.3972099" lon="11.1785722"><ele>223.79999999999998</ele><time>2026-04-19T09:22:25.123Z</time></trkpt><trkpt lat="43.3972905" lon="11.1784532"><ele>224.0</ele><time>2026-04-19T09:22:27.097Z</time></trkpt><trkpt lat="43.3973369" lon="11.1783931"><ele>223.39999999999998</ele><time>2026-04-19T09:22:28.098Z</time></trkpt><trkpt lat="43.397445" lon="11.1782926"><ele>222.79999999999998</ele><time>2026-04-19T09:22:30.115Z</time></trkpt><trkpt lat="43.3975059" lon="11.1782383"><ele>222.20000000000002</ele><time>2026-04-19T09:22:31.102Z</time></trkpt><trkpt lat="43.3975646" lon="11.178189"><ele>221.60000000000002</ele><time>2026-04-19T09:22:32.117Z</time></trkpt><trkpt lat="43.3976937" lon="11.1780923"><ele>221.0</ele><time>2026-04-19T09:22:34.121Z</time></trkpt><trkpt lat="43.3977633" lon="11.1780402"><ele>220.71428571428572</ele><time>2026-04-19T09:22:35.121Z</time></trkpt><trkpt lat="43.3978308" lon="11.177985"><ele>220.42857142857144</ele><time>2026-04-19T09:22:36.126Z</time></trkpt><trkpt lat="43.3978947" lon="11.1779346"><ele>220.14285714285717</ele><time>2026-04-19T09:22:37.128Z</time></trkpt><trkpt lat="43.3979515" lon="11.1778788"><ele>219.85714285714286</ele><time>2026-04-19T09:22:38.103Z</time></trkpt><trkpt lat="43.39801" lon="11.1778248"><ele>219.57142857142856</ele><time>2026-04-19T09:22:39.119Z</time></trkpt><trkpt lat="43.3980659" lon="11.1777733"><ele>219.2857142857143</ele><time>2026-04-19T09:22:40.115Z</time></trkpt><trkpt lat="43.3981222" lon="11.1777186"><ele>219.0</ele><time>2026-04-19T09:22:41.12Z</time></trkpt><trkpt lat="43.3981782" lon="11.1776654"><ele>219.0</ele><time>2026-04-19T09:22:42.103Z</time></trkpt><trkpt lat="43.3982316" lon="11.1776108"><ele>219.0</ele><time>2026-04-19T09:22:43.11Z</time></trkpt><trkpt lat="43.3982819" lon="11.1775549"><ele>219.0</ele><time>2026-04-19T09:22:44.094Z</time></trkpt><trkpt lat="43.3983349" lon="11.1775034"><ele>219.0</ele><time>2026-04-19T09:22:45.11Z</time></trkpt><trkpt lat="43.3984368" lon="11.1774087"><ele>219.0</ele><time>2026-04-19T09:22:47.099Z</time></trkpt><trkpt lat="43.3985378" lon="11.1773129"><ele>219.0</ele><time>2026-04-19T09:22:49.098Z</time></trkpt><trkpt lat="43.3986407" lon="11.1772043"><ele>218.85714285714286</ele><time>2026-04-19T09:22:51.091Z</time></trkpt><trkpt lat="43.3986986" lon="11.1771494"><ele>218.7142857142857</ele><time>2026-04-19T09:22:52.104Z</time></trkpt><trkpt lat="43.3987568" lon="11.1770948"><ele>218.57142857142856</ele><time>2026-04-19T09:22:53.108Z</time></trkpt><trkpt lat="43.398817" lon="11.177041"><ele>218.42857142857144</ele><time>2026-04-19T09:22:54.108Z</time></trkpt><trkpt lat="43.3988754" lon="11.1769784"><ele>218.28571428571428</ele><time>2026-04-19T09:22:55.09Z</time></trkpt><trkpt lat="43.3989317" lon="11.1769156"><ele>218.14285714285714</ele><time>2026-04-19T09:22:56.098Z</time></trkpt><trkpt lat="43.3989899" lon="11.1768508"><ele>218.0</ele><time>2026-04-19T09:22:57.116Z</time></trkpt><trkpt lat="43.3990491" lon="11.1767899"><ele>218.0</ele><time>2026-04-19T09:22:58.103Z</time></trkpt><trkpt lat="43.3991114" lon="11.1767324"><ele>218.0</ele><time>2026-04-19T09:22:59.115Z</time></trkpt><trkpt lat="43.3991726" lon="11.1766705"><ele>218.0</ele><time>2026-04-19T09:23:00.109Z</time></trkpt><trkpt lat="43.3992311" lon="11.1766052"><ele>218.0</ele><time>2026-04-19T09:23:01.111Z</time></trkpt><trkpt lat="43.3992872" lon="11.1765411"><ele>218.0</ele><time>2026-04-19T09:23:02.109Z</time></trkpt><trkpt lat="43.3993478" lon="11.176482"><ele>218.0</ele><time>2026-04-19T09:23:03.116Z</time></trkpt><trkpt lat="43.3994078" lon="11.1764206"><ele>218.0</ele><time>2026-04-19T09:23:04.105Z</time></trkpt><trkpt lat="43.3994674" lon="11.1763599"><ele>218.0</ele><time>2026-04-19T09:23:05.11Z</time></trkpt><trkpt lat="43.3995267" lon="11.1763069"><ele>218.0</ele><time>2026-04-19T09:23:06.106Z</time></trkpt><trkpt lat="43.3995856" lon="11.1762521"><ele>218.0</ele><time>2026-04-19T09:23:07.101Z</time></trkpt><trkpt lat="43.3996443" lon="11.1761973"><ele>218.0</ele><time>2026-04-19T09:23:08.1Z</time></trkpt><trkpt lat="43.3997005" lon="11.176142"><ele>218.0</ele><time>2026-04-19T09:23:09.107Z</time></trkpt><trkpt lat="43.399757" lon="11.1760869"><ele>218.0</ele><time>2026-04-19T09:23:10.113Z</time></trkpt><trkpt lat="43.3998118" lon="11.1760348"><ele>218.0</ele><time>2026-04-19T09:23:11.097Z</time></trkpt><trkpt lat="43.3998657" lon="11.1759833"><ele>217.83333333333334</ele><time>2026-04-19T09:23:12.104Z</time></trkpt><trkpt lat="43.399919" lon="11.1759368"><ele>217.66666666666669</ele><time>2026-04-19T09:23:13.111Z</time></trkpt><trkpt lat="43.3999741" lon="11.1758885"><ele>217.5</ele><time>2026-04-19T09:23:14.102Z</time></trkpt><trkpt lat="43.4000265" lon="11.1758381"><ele>217.33333333333331</ele><time>2026-04-19T09:23:15.097Z</time></trkpt><trkpt lat="43.4001232" lon="11.1757327"><ele>217.16666666666666</ele><time>2026-04-19T09:23:17.096Z</time></trkpt><trkpt lat="43.40022" lon="11.1756295"><ele>217.0</ele><time>2026-04-19T09:23:19.124Z</time></trkpt><trkpt lat="43.400319" lon="11.1755311"><ele>217.0</ele><time>2026-04-19T09:23:21.099Z</time></trkpt><trkpt lat="43.4004129" lon="11.1754389"><ele>217.0</ele><time>2026-04-19T09:23:23.098Z</time></trkpt><trkpt lat="43.4005054" lon="11.1753439"><ele>217.0</ele><time>2026-04-19T09:23:25.102Z</time></trkpt><trkpt lat="43.4006043" lon="11.1752546"><ele>217.0</ele><time>2026-04-19T09:23:27.117Z</time></trkpt><trkpt lat="43.4007031" lon="11.1751701"><ele>216.99999999999997</ele><time>2026-04-19T09:23:29.107Z</time></trkpt><trkpt lat="43.40076" lon="11.1751318"><ele>217.0</ele><time>2026-04-19T09:23:30.098Z</time></trkpt><trkpt lat="43.4008552" lon="11.1750341"><ele>217.0</ele><time>2026-04-19T09:23:32.1Z</time></trkpt><trkpt lat="43.4009508" lon="11.17494"><ele>217.0</ele><time>2026-04-19T09:23:34.097Z</time></trkpt><trkpt lat="43.4010008" lon="11.1748823"><ele>216.99999999999997</ele><time>2026-04-19T09:23:35.103Z</time></trkpt><trkpt lat="43.4010528" lon="11.1748297"><ele>217.0</ele><time>2026-04-19T09:23:36.099Z</time></trkpt><trkpt lat="43.4011519" lon="11.1747336"><ele>217.0</ele><time>2026-04-19T09:23:38.106Z</time></trkpt><trkpt lat="43.4012515" lon="11.1746416"><ele>217.0</ele><time>2026-04-19T09:23:40.107Z</time></trkpt><trkpt lat="43.4013564" lon="11.1745452"><ele>217.0</ele><time>2026-04-19T09:23:42.119Z</time></trkpt><trkpt lat="43.4014605" lon="11.1744471"><ele>217.0</ele><time>2026-04-19T09:23:44.097Z</time></trkpt><trkpt lat="43.4015106" lon="11.1743915"><ele>217.0</ele><time>2026-04-19T09:23:45.114Z</time></trkpt><trkpt lat="43.4016" lon="11.174284"><ele>217.2</ele><time>2026-04-19T09:23:47.113Z</time></trkpt><trkpt lat="43.4016767" lon="11.1741532"><ele>217.39999999999998</ele><time>2026-04-19T09:23:49.095Z</time></trkpt><trkpt lat="43.4017081" lon="11.1740762"><ele>217.60000000000002</ele><time>2026-04-19T09:23:50.109Z</time></trkpt><trkpt lat="43.4017628" lon="11.1739337"><ele>217.8</ele><time>2026-04-19T09:23:52.116Z</time></trkpt><trkpt lat="43.401813" lon="11.1738092"><ele>218.0</ele><time>2026-04-19T09:23:54.117Z</time></trkpt><trkpt lat="43.4018614" lon="11.1736886"><ele>218.0</ele><time>2026-04-19T09:23:56.112Z</time></trkpt><trkpt lat="43.4019034" lon="11.1735623"><ele>218.0</ele><time>2026-04-19T09:23:58.108Z</time></trkpt><trkpt lat="43.4019477" lon="11.1734453"><ele>218.0</ele><time>2026-04-19T09:24:00.103Z</time></trkpt><trkpt lat="43.4019873" lon="11.1733302"><ele>218.0</ele><time>2026-04-19T09:24:02.095Z</time></trkpt><trkpt lat="43.4020316" lon="11.1732143"><ele>218.0</ele><time>2026-04-19T09:24:04.105Z</time></trkpt><trkpt lat="43.4020769" lon="11.1731062"><ele>218.16666666666669</ele><time>2026-04-19T09:24:06.119Z</time></trkpt><trkpt lat="43.4021205" lon="11.1730028"><ele>218.33333333333334</ele><time>2026-04-19T09:24:08.1Z</time></trkpt><trkpt lat="43.4021693" lon="11.1728999"><ele>218.5</ele><time>2026-04-19T09:24:10.107Z</time></trkpt><trkpt lat="43.4022223" lon="11.1728022"><ele>218.66666666666669</ele><time>2026-04-19T09:24:12.097Z</time></trkpt><trkpt lat="43.4022723" lon="11.1726992"><ele>218.83333333333334</ele><time>2026-04-19T09:24:14.101Z</time></trkpt><trkpt lat="43.4023144" lon="11.1726008"><ele>219.0</ele><time>2026-04-19T09:24:16.098Z</time></trkpt><trkpt lat="43.4023628" lon="11.1725057"><ele>219.0</ele><time>2026-04-19T09:24:18.132Z</time></trkpt><trkpt lat="43.402414" lon="11.1724089"><ele>219.0</ele><time>2026-04-19T09:24:20.099Z</time></trkpt><trkpt lat="43.4024601" lon="11.1723161"><ele>219.0</ele><time>2026-04-19T09:24:22.181Z</time></trkpt><trkpt lat="43.4025118" lon="11.1722264"><ele>219.0</ele><time>2026-04-19T09:24:24.123Z</time></trkpt><trkpt lat="43.402565" lon="11.1721347"><ele>219.0</ele><time>2026-04-19T09:24:26.113Z</time></trkpt><trkpt lat="43.4026155" lon="11.1720374"><ele>219.0</ele><time>2026-04-19T09:24:28.178Z</time></trkpt><trkpt lat="43.4026629" lon="11.1719487"><ele>219.0</ele><time>2026-04-19T09:24:30.105Z</time></trkpt><trkpt lat="43.4027153" lon="11.1718768"><ele>219.0</ele><time>2026-04-19T09:24:32.174Z</time></trkpt><trkpt lat="43.4027746" lon="11.171796"><ele>219.0</ele><time>2026-04-19T09:24:34.151Z</time></trkpt><trkpt lat="43.4028327" lon="11.1717087"><ele>219.0</ele><time>2026-04-19T09:24:36.124Z</time></trkpt><trkpt lat="43.4028911" lon="11.1716207"><ele>219.0</ele><time>2026-04-19T09:24:38.178Z</time></trkpt><trkpt lat="43.4029402" lon="11.1715271"><ele>219.0</ele><time>2026-04-19T09:24:40.106Z</time></trkpt><trkpt lat="43.4029896" lon="11.1714293"><ele>219.39999999999998</ele><time>2026-04-19T09:24:42.114Z</time></trkpt><trkpt lat="43.4030422" lon="11.1713261"><ele>219.79999999999998</ele><time>2026-04-19T09:24:44.096Z</time></trkpt><trkpt lat="43.403097" lon="11.1712252"><ele>220.20000000000002</ele><time>2026-04-19T09:24:46.127Z</time></trkpt><trkpt lat="43.4031492" lon="11.1711225"><ele>220.60000000000002</ele><time>2026-04-19T09:24:48.111Z</time></trkpt><trkpt lat="43.4032002" lon="11.1710143"><ele>221.0</ele><time>2026-04-19T09:24:50.117Z</time></trkpt><trkpt lat="43.40326" lon="11.1709126"><ele>221.0</ele><time>2026-04-19T09:24:52.191Z</time></trkpt><trkpt lat="43.4033295" lon="11.170824"><ele>221.00000000000003</ele><time>2026-04-19T09:24:54.094Z</time></trkpt><trkpt lat="43.4033953" lon="11.1707301"><ele>221.00000000000003</ele><time>2026-04-19T09:24:56.19Z</time></trkpt><trkpt lat="43.4034658" lon="11.1706463"><ele>221.0</ele><time>2026-04-19T09:24:58.119Z</time></trkpt><trkpt lat="43.4035386" lon="11.1705616"><ele>221.0</ele><time>2026-04-19T09:25:00.124Z</time></trkpt><trkpt lat="43.4035986" lon="11.1704838"><ele>221.20000000000002</ele><time>2026-04-19T09:25:02.108Z</time></trkpt><trkpt lat="43.4036495" lon="11.1703968"><ele>221.40000000000003</ele><time>2026-04-19T09:25:04.092Z</time></trkpt><trkpt lat="43.4037154" lon="11.1702989"><ele>221.6</ele><time>2026-04-19T09:25:06.18Z</time></trkpt><trkpt lat="43.4038033" lon="11.1702429"><ele>221.8</ele><time>2026-04-19T09:25:08.178Z</time></trkpt><trkpt lat="43.4038706" lon="11.1701747"><ele>222.0</ele><time>2026-04-19T09:25:10.109Z</time></trkpt><trkpt lat="43.4039721" lon="11.1700882"><ele>222.39999999999998</ele><time>2026-04-19T09:25:12.173Z</time></trkpt><trkpt lat="43.404067" lon="11.1699912"><ele>222.79999999999998</ele><time>2026-04-19T09:25:14.114Z</time></trkpt><trkpt lat="43.4041578" lon="11.1699195"><ele>223.2</ele><time>2026-04-19T09:25:16.095Z</time></trkpt><trkpt lat="43.4042461" lon="11.1698348"><ele>223.6</ele><time>2026-04-19T09:25:18.112Z</time></trkpt><trkpt lat="43.4043315" lon="11.1697587"><ele>224.0</ele><time>2026-04-19T09:25:20.085Z</time></trkpt><trkpt lat="43.4044154" lon="11.1696943"><ele>224.0</ele><time>2026-04-19T09:25:22.119Z</time></trkpt><trkpt lat="43.4044922" lon="11.1696359"><ele>223.99999999999997</ele><time>2026-04-19T09:25:24.113Z</time></trkpt><trkpt lat="43.4045684" lon="11.1695755"><ele>223.99999999999997</ele><time>2026-04-19T09:25:26.115Z</time></trkpt><trkpt lat="43.4046474" lon="11.1695075"><ele>224.0</ele><time>2026-04-19T09:25:28.187Z</time></trkpt><trkpt lat="43.404724" lon="11.1694339"><ele>224.0</ele><time>2026-04-19T09:25:30.098Z</time></trkpt><trkpt lat="43.4047955" lon="11.1693535"><ele>224.2</ele><time>2026-04-19T09:25:32.089Z</time></trkpt><trkpt lat="43.4048678" lon="11.1692598"><ele>224.39999999999998</ele><time>2026-04-19T09:25:34.109Z</time></trkpt><trkpt lat="43.4049232" lon="11.1692118"><ele>224.6</ele><time>2026-04-19T09:25:35.113Z</time></trkpt><trkpt lat="43.4050095" lon="11.1691329"><ele>224.8</ele><time>2026-04-19T09:25:37.18Z</time></trkpt><trkpt lat="43.4050954" lon="11.1690266"><ele>225.0</ele><time>2026-04-19T09:25:39.199Z</time></trkpt><trkpt lat="43.4051922" lon="11.1689085"><ele>225.16666666666666</ele><time>2026-04-19T09:25:41.103Z</time></trkpt><trkpt lat="43.4052618" lon="11.1688392"><ele>225.33333333333331</ele><time>2026-04-19T09:25:43.18Z</time></trkpt><trkpt lat="43.4053254" lon="11.1687625"><ele>225.5</ele><time>2026-04-19T09:25:45.105Z</time></trkpt><trkpt lat="43.4053946" lon="11.1686808"><ele>225.66666666666666</ele><time>2026-04-19T09:25:47.104Z</time></trkpt><trkpt lat="43.4054681" lon="11.1686009"><ele>225.83333333333331</ele><time>2026-04-19T09:25:49.125Z</time></trkpt><trkpt lat="43.4055346" lon="11.1685236"><ele>226.0</ele><time>2026-04-19T09:25:51.106Z</time></trkpt><trkpt lat="43.4055984" lon="11.1684457"><ele>225.8</ele><time>2026-04-19T09:25:53.096Z</time></trkpt><trkpt lat="43.4056666" lon="11.1683662"><ele>225.60000000000002</ele><time>2026-04-19T09:25:55.103Z</time></trkpt><trkpt lat="43.4057368" lon="11.1682919"><ele>225.4</ele><time>2026-04-19T09:25:57.105Z</time></trkpt><trkpt lat="43.4058091" lon="11.1682245"><ele>225.2</ele><time>2026-04-19T09:25:59.107Z</time></trkpt><trkpt lat="43.4058852" lon="11.1681412"><ele>225.0</ele><time>2026-04-19T09:26:01.11Z</time></trkpt><trkpt lat="43.4059583" lon="11.1680588"><ele>225.0</ele><time>2026-04-19T09:26:03.186Z</time></trkpt><trkpt lat="43.4060355" lon="11.1679609"><ele>225.0</ele><time>2026-04-19T09:26:05.105Z</time></trkpt><trkpt lat="43.4061091" lon="11.1678698"><ele>225.0</ele><time>2026-04-19T09:26:07.194Z</time></trkpt><trkpt lat="43.4061809" lon="11.1677986"><ele>225.0</ele><time>2026-04-19T09:26:09.096Z</time></trkpt><trkpt lat="43.4062627" lon="11.1677252"><ele>225.0</ele><time>2026-04-19T09:26:11.19Z</time></trkpt><trkpt lat="43.4063212" lon="11.1676587"><ele>224.8</ele><time>2026-04-19T09:26:13.183Z</time></trkpt><trkpt lat="43.4063726" lon="11.1676061"><ele>224.6</ele><time>2026-04-19T09:26:15.117Z</time></trkpt><trkpt lat="43.406465" lon="11.1675197"><ele>224.39999999999998</ele><time>2026-04-19T09:26:17.188Z</time></trkpt><trkpt lat="43.4065584" lon="11.1674458"><ele>224.2</ele><time>2026-04-19T09:26:19.098Z</time></trkpt><trkpt lat="43.4066208" lon="11.1674223"><ele>224.0</ele><time>2026-04-19T09:26:20.105Z</time></trkpt><trkpt lat="43.4067307" lon="11.167381"><ele>224.79999999999998</ele><time>2026-04-19T09:26:22.183Z</time></trkpt><trkpt lat="43.406837" lon="11.1673467"><ele>225.59999999999997</ele><time>2026-04-19T09:26:24.117Z</time></trkpt><trkpt lat="43.4069253" lon="11.1672651"><ele>226.4</ele><time>2026-04-19T09:26:26.105Z</time></trkpt><trkpt lat="43.4069878" lon="11.1671414"><ele>227.2</ele><time>2026-04-19T09:26:28.116Z</time></trkpt><trkpt lat="43.4070509" lon="11.1670063"><ele>228.0</ele><time>2026-04-19T09:26:30.11Z</time></trkpt><trkpt lat="43.4071117" lon="11.1668893"><ele>228.0</ele><time>2026-04-19T09:26:32.119Z</time></trkpt><trkpt lat="43.4071668" lon="11.1667869"><ele>228.0</ele><time>2026-04-19T09:26:34.125Z</time></trkpt><trkpt lat="43.4072312" lon="11.1667054"><ele>228.0</ele><time>2026-04-19T09:26:36.193Z</time></trkpt><trkpt lat="43.4072896" lon="11.1666265"><ele>228.0</ele><time>2026-04-19T09:26:38.102Z</time></trkpt><trkpt lat="43.4073527" lon="11.1665546"><ele>228.0</ele><time>2026-04-19T09:26:40.115Z</time></trkpt><trkpt lat="43.4074184" lon="11.1664856"><ele>228.0</ele><time>2026-04-19T09:26:42.172Z</time></trkpt><trkpt lat="43.4075154" lon="11.1664221"><ele>228.83333333333334</ele><time>2026-04-19T09:26:44.109Z</time></trkpt><trkpt lat="43.4076003" lon="11.1663279"><ele>229.66666666666669</ele><time>2026-04-19T09:26:46.108Z</time></trkpt><trkpt lat="43.407663" lon="11.1662369"><ele>230.5</ele><time>2026-04-19T09:26:48.201Z</time></trkpt><trkpt lat="43.4077208" lon="11.166158"><ele>231.33333333333334</ele><time>2026-04-19T09:26:50.117Z</time></trkpt><trkpt lat="43.4077727" lon="11.1660849"><ele>232.16666666666669</ele><time>2026-04-19T09:26:52.11Z</time></trkpt><trkpt lat="43.4078214" lon="11.1660093"><ele>233.0</ele><time>2026-04-19T09:26:54.125Z</time></trkpt><trkpt lat="43.4078788" lon="11.1659387"><ele>233.00000000000003</ele><time>2026-04-19T09:26:56.092Z</time></trkpt><trkpt lat="43.4079343" lon="11.1658592"><ele>233.0</ele><time>2026-04-19T09:26:58.185Z</time></trkpt><trkpt lat="43.4079979" lon="11.1657866"><ele>233.0</ele><time>2026-04-19T09:27:00.112Z</time></trkpt><trkpt lat="43.4080546" lon="11.1657031"><ele>233.0</ele><time>2026-04-19T09:27:02.13Z</time></trkpt><trkpt lat="43.4081179" lon="11.1656218"><ele>233.00000000000003</ele><time>2026-04-19T09:27:04.113Z</time></trkpt><trkpt lat="43.4081776" lon="11.165548"><ele>233.0</ele><time>2026-04-19T09:27:06.118Z</time></trkpt><trkpt lat="43.4082458" lon="11.1654716"><ele>233.4</ele><time>2026-04-19T09:27:08.113Z</time></trkpt><trkpt lat="43.4083102" lon="11.1653868"><ele>233.8</ele><time>2026-04-19T09:27:10.132Z</time></trkpt><trkpt lat="43.4083696" lon="11.1653045"><ele>234.2</ele><time>2026-04-19T09:27:12.188Z</time></trkpt><trkpt lat="43.4084759" lon="11.1651739"><ele>234.6</ele><time>2026-04-19T09:27:15.107Z</time></trkpt><trkpt lat="43.4085534" lon="11.1650763"><ele>235.0</ele><time>2026-04-19T09:27:17.095Z</time></trkpt><trkpt lat="43.4086294" lon="11.1649748"><ele>235.0</ele><time>2026-04-19T09:27:19.114Z</time></trkpt><trkpt lat="43.408704" lon="11.1648741"><ele>235.0</ele><time>2026-04-19T09:27:21.098Z</time></trkpt><trkpt lat="43.4087778" lon="11.1647794"><ele>235.0</ele><time>2026-04-19T09:27:23.12Z</time></trkpt><trkpt lat="43.408853" lon="11.1646909"><ele>235.0</ele><time>2026-04-19T09:27:25.103Z</time></trkpt><trkpt lat="43.4089244" lon="11.1646019"><ele>235.0</ele><time>2026-04-19T09:27:27.203Z</time></trkpt><trkpt lat="43.4089882" lon="11.1645117"><ele>234.8</ele><time>2026-04-19T09:27:29.105Z</time></trkpt><trkpt lat="43.4090547" lon="11.1644193"><ele>234.6</ele><time>2026-04-19T09:27:31.105Z</time></trkpt><trkpt lat="43.4091276" lon="11.1643298"><ele>234.39999999999998</ele><time>2026-04-19T09:27:33.126Z</time></trkpt><trkpt lat="43.409191" lon="11.1642318"><ele>234.2</ele><time>2026-04-19T09:27:35.118Z</time></trkpt><trkpt lat="43.409251" lon="11.1641303"><ele>234.0</ele><time>2026-04-19T09:27:37.096Z</time></trkpt><trkpt lat="43.4093166" lon="11.1640249"><ele>234.39999999999998</ele><time>2026-04-19T09:27:39.102Z</time></trkpt><trkpt lat="43.4093864" lon="11.1639253"><ele>234.79999999999998</ele><time>2026-04-19T09:27:41.108Z</time></trkpt><trkpt lat="43.4094563" lon="11.1638213"><ele>235.20000000000002</ele><time>2026-04-19T09:27:43.121Z</time></trkpt><trkpt lat="43.4095221" lon="11.1637137"><ele>235.60000000000002</ele><time>2026-04-19T09:27:45.084Z</time></trkpt><trkpt lat="43.4096013" lon="11.1636025"><ele>236.0</ele><time>2026-04-19T09:27:47.111Z</time></trkpt><trkpt lat="43.4096534" lon="11.1635343"><ele>235.0</ele><time>2026-04-19T09:27:48.104Z</time></trkpt><trkpt lat="43.4097044" lon="11.1634732"><ele>234.00000000000003</ele><time>2026-04-19T09:27:49.104Z</time></trkpt><trkpt lat="43.4097799" lon="11.1633562"><ele>233.00000000000003</ele><time>2026-04-19T09:27:51.186Z</time></trkpt><trkpt lat="43.4098467" lon="11.1632415"><ele>232.0</ele><time>2026-04-19T09:27:53.178Z</time></trkpt><trkpt lat="43.4099036" lon="11.1631345"><ele>231.0</ele><time>2026-04-19T09:27:55.12Z</time></trkpt><trkpt lat="43.4099743" lon="11.1630034"><ele>231.0</ele><time>2026-04-19T09:27:57.187Z</time></trkpt><trkpt lat="43.4100587" lon="11.1628794"><ele>231.00000000000003</ele><time>2026-04-19T09:27:59.121Z</time></trkpt><trkpt lat="43.4100987" lon="11.1628122"><ele>231.00000000000003</ele><time>2026-04-19T09:28:00.11Z</time></trkpt><trkpt lat="43.4101396" lon="11.1627391"><ele>231.0</ele><time>2026-04-19T09:28:01.118Z</time></trkpt><trkpt lat="43.4102165" lon="11.1626182"><ele>231.0</ele><time>2026-04-19T09:28:03.202Z</time></trkpt><trkpt lat="43.4103039" lon="11.1624904"><ele>231.0</ele><time>2026-04-19T09:28:05.111Z</time></trkpt><trkpt lat="43.4103822" lon="11.1623678"><ele>231.0</ele><time>2026-04-19T09:28:07.181Z</time></trkpt><trkpt lat="43.4104651" lon="11.1622444"><ele>231.0</ele><time>2026-04-19T09:28:09.112Z</time></trkpt><trkpt lat="43.4105063" lon="11.1621787"><ele>231.0</ele><time>2026-04-19T09:28:10.112Z</time></trkpt><trkpt lat="43.4105532" lon="11.1621179"><ele>231.0</ele><time>2026-04-19T09:28:11.114Z</time></trkpt><trkpt lat="43.410599" lon="11.1620543"><ele>231.0</ele><time>2026-04-19T09:28:12.113Z</time></trkpt><trkpt lat="43.410646" lon="11.1619905"><ele>230.71428571428572</ele><time>2026-04-19T09:28:13.114Z</time></trkpt><trkpt lat="43.4106923" lon="11.1619288"><ele>230.42857142857144</ele><time>2026-04-19T09:28:14.112Z</time></trkpt><trkpt lat="43.4107387" lon="11.1618661"><ele>230.14285714285714</ele><time>2026-04-19T09:28:15.098Z</time></trkpt><trkpt lat="43.4107868" lon="11.1618027"><ele>229.85714285714286</ele><time>2026-04-19T09:28:16.105Z</time></trkpt><trkpt lat="43.4108335" lon="11.1617373"><ele>229.57142857142858</ele><time>2026-04-19T09:28:17.102Z</time></trkpt><trkpt lat="43.4108817" lon="11.1616713"><ele>229.28571428571428</ele><time>2026-04-19T09:28:18.106Z</time></trkpt><trkpt lat="43.4109308" lon="11.1616039"><ele>229.0</ele><time>2026-04-19T09:28:19.109Z</time></trkpt><trkpt lat="43.4109767" lon="11.1615359"><ele>229.0</ele><time>2026-04-19T09:28:20.106Z</time></trkpt><trkpt lat="43.4110237" lon="11.1614704"><ele>229.0</ele><time>2026-04-19T09:28:21.089Z</time></trkpt><trkpt lat="43.4110729" lon="11.1614049"><ele>229.0</ele><time>2026-04-19T09:28:22.174Z</time></trkpt><trkpt lat="43.4111241" lon="11.1613392"><ele>229.0</ele><time>2026-04-19T09:28:23.169Z</time></trkpt><trkpt lat="43.4111785" lon="11.1612672"><ele>229.0</ele><time>2026-04-19T09:28:24.11Z</time></trkpt><trkpt lat="43.41123" lon="11.1611955"><ele>229.0</ele><time>2026-04-19T09:28:25.097Z</time></trkpt><trkpt lat="43.4112748" lon="11.1611214"><ele>229.0</ele><time>2026-04-19T09:28:26.176Z</time></trkpt><trkpt lat="43.411326" lon="11.1610562"><ele>228.99999999999997</ele><time>2026-04-19T09:28:27.178Z</time></trkpt><trkpt lat="43.4113795" lon="11.160985"><ele>229.0</ele><time>2026-04-19T09:28:28.097Z</time></trkpt><trkpt lat="43.4114389" lon="11.1609055"><ele>229.0</ele><time>2026-04-19T09:28:29.101Z</time></trkpt><trkpt lat="43.4114947" lon="11.1608273"><ele>229.0</ele><time>2026-04-19T09:28:30.104Z</time></trkpt><trkpt lat="43.4115517" lon="11.1607577"><ele>228.99999999999997</ele><time>2026-04-19T09:28:31.188Z</time></trkpt><trkpt lat="43.4116113" lon="11.1606898"><ele>229.0</ele><time>2026-04-19T09:28:32.203Z</time></trkpt><trkpt lat="43.4116668" lon="11.1606179"><ele>228.99999999999997</ele><time>2026-04-19T09:28:33.182Z</time></trkpt><trkpt lat="43.4117117" lon="11.1605553"><ele>229.0</ele><time>2026-04-19T09:28:34.101Z</time></trkpt><trkpt lat="43.4117604" lon="11.1604977"><ele>229.0</ele><time>2026-04-19T09:28:35.117Z</time></trkpt><trkpt lat="43.4118491" lon="11.1603919"><ele>229.0</ele><time>2026-04-19T09:28:37.195Z</time></trkpt><trkpt lat="43.4119471" lon="11.1602893"><ele>228.99999999999997</ele><time>2026-04-19T09:28:39.125Z</time></trkpt><trkpt lat="43.4119984" lon="11.1602338"><ele>229.0</ele><time>2026-04-19T09:28:40.111Z</time></trkpt><trkpt lat="43.4121062" lon="11.1601253"><ele>228.83333333333331</ele><time>2026-04-19T09:28:42.182Z</time></trkpt><trkpt lat="43.4121723" lon="11.1600745"><ele>228.66666666666666</ele><time>2026-04-19T09:28:43.186Z</time></trkpt><trkpt lat="43.412238" lon="11.1600225"><ele>228.5</ele><time>2026-04-19T09:28:44.109Z</time></trkpt><trkpt lat="43.412302" lon="11.1599626"><ele>228.33333333333331</ele><time>2026-04-19T09:28:45.122Z</time></trkpt><trkpt lat="43.4123557" lon="11.1599008"><ele>228.16666666666666</ele><time>2026-04-19T09:28:46.098Z</time></trkpt><trkpt lat="43.4124013" lon="11.1598404"><ele>228.0</ele><time>2026-04-19T09:28:47.113Z</time></trkpt><trkpt lat="43.4124717" lon="11.159723"><ele>228.0</ele><time>2026-04-19T09:28:49.11Z</time></trkpt><trkpt lat="43.4125584" lon="11.1596119"><ele>228.0</ele><time>2026-04-19T09:28:51.116Z</time></trkpt><trkpt lat="43.4126354" lon="11.1595003"><ele>228.0</ele><time>2026-04-19T09:28:53.108Z</time></trkpt><trkpt lat="43.4127207" lon="11.1593871"><ele>228.0</ele><time>2026-04-19T09:28:55.127Z</time></trkpt><trkpt lat="43.4128077" lon="11.15928"><ele>228.0</ele><time>2026-04-19T09:28:57.175Z</time></trkpt><trkpt lat="43.4128977" lon="11.1591745"><ele>228.0</ele><time>2026-04-19T09:28:59.115Z</time></trkpt><trkpt lat="43.4129913" lon="11.1590623"><ele>228.0</ele><time>2026-04-19T09:29:01.177Z</time></trkpt><trkpt lat="43.4131016" lon="11.1589853"><ele>228.0</ele><time>2026-04-19T09:29:03.187Z</time></trkpt><trkpt lat="43.4131644" lon="11.1589705"><ele>228.0</ele><time>2026-04-19T09:29:04.118Z</time></trkpt><trkpt lat="43.4132316" lon="11.1589791"><ele>227.83333333333334</ele><time>2026-04-19T09:29:05.099Z</time></trkpt><trkpt lat="43.4132914" lon="11.1590096"><ele>227.66666666666669</ele><time>2026-04-19T09:29:06.105Z</time></trkpt><trkpt lat="43.4134024" lon="11.1590531"><ele>227.5</ele><time>2026-04-19T09:29:08.104Z</time></trkpt><trkpt lat="43.4134632" lon="11.1590829"><ele>227.33333333333334</ele><time>2026-04-19T09:29:09.188Z</time></trkpt><trkpt lat="43.4135714" lon="11.1591667"><ele>227.16666666666669</ele><time>2026-04-19T09:29:11.09Z</time></trkpt><trkpt lat="43.4136188" lon="11.1592238"><ele>227.0</ele><time>2026-04-19T09:29:12.185Z</time></trkpt><trkpt lat="43.4136671" lon="11.1592887"><ele>227.0</ele><time>2026-04-19T09:29:13.182Z</time></trkpt><trkpt lat="43.4137173" lon="11.1593516"><ele>227.0</ele><time>2026-04-19T09:29:14.106Z</time></trkpt><trkpt lat="43.413787" lon="11.1594834"><ele>227.0</ele><time>2026-04-19T09:29:16.137Z</time></trkpt><trkpt lat="43.4138199" lon="11.1595588"><ele>227.0</ele><time>2026-04-19T09:29:17.111Z</time></trkpt><trkpt lat="43.4138797" lon="11.1596809"><ele>227.0</ele><time>2026-04-19T09:29:19.118Z</time></trkpt><trkpt lat="43.4139566" lon="11.1598024"><ele>227.39999999999998</ele><time>2026-04-19T09:29:21.115Z</time></trkpt><trkpt lat="43.4140378" lon="11.159911"><ele>227.79999999999998</ele><time>2026-04-19T09:29:23.109Z</time></trkpt><trkpt lat="43.41411" lon="11.1600142"><ele>228.2</ele><time>2026-04-19T09:29:25.119Z</time></trkpt><trkpt lat="43.4141756" lon="11.1601094"><ele>228.6</ele><time>2026-04-19T09:29:27.102Z</time></trkpt><trkpt lat="43.4142493" lon="11.1602045"><ele>229.0</ele><time>2026-04-19T09:29:29.121Z</time></trkpt><trkpt lat="43.4143206" lon="11.1602999"><ele>229.0</ele><time>2026-04-19T09:29:31.114Z</time></trkpt><trkpt lat="43.4143917" lon="11.1603928"><ele>228.99999999999997</ele><time>2026-04-19T09:29:33.195Z</time></trkpt><trkpt lat="43.4144957" lon="11.1604702"><ele>228.99999999999997</ele><time>2026-04-19T09:29:36.12Z</time></trkpt><trkpt lat="43.4145645" lon="11.1605665"><ele>229.0</ele><time>2026-04-19T09:29:38.125Z</time></trkpt><trkpt lat="43.414581" lon="11.1606569"><ele>229.0</ele><time>2026-04-19T09:29:39.117Z</time></trkpt><trkpt lat="43.4146395" lon="11.1607332"><ele>229.6</ele><time>2026-04-19T09:29:41.092Z</time></trkpt><trkpt lat="43.4147051" lon="11.160816"><ele>230.2</ele><time>2026-04-19T09:29:43.178Z</time></trkpt><trkpt lat="43.4147864" lon="11.1608933"><ele>230.79999999999998</ele><time>2026-04-19T09:29:45.126Z</time></trkpt><trkpt lat="43.4148904" lon="11.1609398"><ele>231.39999999999998</ele><time>2026-04-19T09:29:47.109Z</time></trkpt><trkpt lat="43.4149543" lon="11.1609444"><ele>232.0</ele><time>2026-04-19T09:29:48.208Z</time></trkpt><trkpt lat="43.4150475" lon="11.1609234"><ele>232.0</ele><time>2026-04-19T09:29:50.123Z</time></trkpt><trkpt lat="43.4151395" lon="11.1608824"><ele>232.0</ele><time>2026-04-19T09:29:52.178Z</time></trkpt><trkpt lat="43.415225" lon="11.1608276"><ele>232.0</ele><time>2026-04-19T09:29:54.108Z</time></trkpt><trkpt lat="43.4153116" lon="11.1607623"><ele>232.0</ele><time>2026-04-19T09:29:56.113Z</time></trkpt><trkpt lat="43.4153979" lon="11.160696"><ele>232.0</ele><time>2026-04-19T09:29:58.104Z</time></trkpt><trkpt lat="43.4154762" lon="11.1606201"><ele>232.0</ele><time>2026-04-19T09:30:00.125Z</time></trkpt><trkpt lat="43.4155564" lon="11.1605462"><ele>232.0</ele><time>2026-04-19T09:30:02.116Z</time></trkpt><trkpt lat="43.4156372" lon="11.1604727"><ele>232.0</ele><time>2026-04-19T09:30:04.109Z</time></trkpt><trkpt lat="43.4157133" lon="11.1604106"><ele>232.0</ele><time>2026-04-19T09:30:06.106Z</time></trkpt><trkpt lat="43.4157864" lon="11.1603424"><ele>232.0</ele><time>2026-04-19T09:30:08.117Z</time></trkpt><trkpt lat="43.415864" lon="11.1602777"><ele>232.0</ele><time>2026-04-19T09:30:10.111Z</time></trkpt><trkpt lat="43.4159474" lon="11.1602109"><ele>232.0</ele><time>2026-04-19T09:30:12.178Z</time></trkpt><trkpt lat="43.4160356" lon="11.1601832"><ele>232.0</ele><time>2026-04-19T09:30:14.11Z</time></trkpt><trkpt lat="43.4161209" lon="11.1601331"><ele>232.0</ele><time>2026-04-19T09:30:16.113Z</time></trkpt><trkpt lat="43.4162002" lon="11.1600789"><ele>232.0</ele><time>2026-04-19T09:30:18.09Z</time></trkpt><trkpt lat="43.4162778" lon="11.160006"><ele>232.33333333333331</ele><time>2026-04-19T09:30:20.101Z</time></trkpt><trkpt lat="43.4163529" lon="11.159929"><ele>232.66666666666666</ele><time>2026-04-19T09:30:22.191Z</time></trkpt><trkpt lat="43.4164217" lon="11.1598446"><ele>233.0</ele><time>2026-04-19T09:30:24.093Z</time></trkpt><trkpt lat="43.4164967" lon="11.1597876"><ele>233.33333333333331</ele><time>2026-04-19T09:30:26.196Z</time></trkpt><trkpt lat="43.416554" lon="11.1597341"><ele>233.66666666666666</ele><time>2026-04-19T09:30:27.182Z</time></trkpt><trkpt lat="43.4166273" lon="11.159658"><ele>234.0</ele><time>2026-04-19T09:30:28.175Z</time></trkpt><trkpt lat="43.4167143" lon="11.1595634"><ele>234.16666666666666</ele><time>2026-04-19T09:30:30.104Z</time></trkpt><trkpt lat="43.4167848" lon="11.1595179"><ele>234.33333333333331</ele><time>2026-04-19T09:30:34.101Z</time></trkpt><trkpt lat="43.4168502" lon="11.1594636"><ele>234.5</ele><time>2026-04-19T09:30:36.124Z</time></trkpt><trkpt lat="43.4169177" lon="11.1594287"><ele>234.66666666666666</ele><time>2026-04-19T09:30:38.107Z</time></trkpt><trkpt lat="43.4169885" lon="11.1593702"><ele>234.83333333333331</ele><time>2026-04-19T09:30:40.1Z</time></trkpt><trkpt lat="43.4170629" lon="11.1593202"><ele>235.0</ele><time>2026-04-19T09:30:42.177Z</time></trkpt><trkpt lat="43.4171435" lon="11.1592733"><ele>235.83333333333331</ele><time>2026-04-19T09:30:44.1Z</time></trkpt><trkpt lat="43.4172162" lon="11.1592335"><ele>236.66666666666666</ele><time>2026-04-19T09:30:46.196Z</time></trkpt><trkpt lat="43.4172839" lon="11.1591817"><ele>237.5</ele><time>2026-04-19T09:30:48.172Z</time></trkpt><trkpt lat="43.4173611" lon="11.1591507"><ele>238.33333333333331</ele><time>2026-04-19T09:30:50.112Z</time></trkpt><trkpt lat="43.4174349" lon="11.1591262"><ele>239.16666666666666</ele><time>2026-04-19T09:30:52.198Z</time></trkpt><trkpt lat="43.4175008" lon="11.1591025"><ele>240.0</ele><time>2026-04-19T09:30:54.109Z</time></trkpt><trkpt lat="43.4175943" lon="11.1591057"><ele>240.0</ele><time>2026-04-19T09:30:57.187Z</time></trkpt><trkpt lat="43.4176943" lon="11.1591236"><ele>240.0</ele><time>2026-04-19T09:30:59.1Z</time></trkpt><trkpt lat="43.4177588" lon="11.1591426"><ele>240.0</ele><time>2026-04-19T09:31:00.105Z</time></trkpt><trkpt lat="43.4178462" lon="11.1592128"><ele>240.0</ele><time>2026-04-19T09:31:02.11Z</time></trkpt><trkpt lat="43.4178951" lon="11.1592863"><ele>240.0</ele><time>2026-04-19T09:31:04.109Z</time></trkpt><trkpt lat="43.4179253" lon="11.1593667"><ele>240.0</ele><time>2026-04-19T09:31:06.11Z</time></trkpt><trkpt lat="43.4179562" lon="11.1594686"><ele>240.0</ele><time>2026-04-19T09:31:08.112Z</time></trkpt><trkpt lat="43.4180128" lon="11.159559"><ele>240.0</ele><time>2026-04-19T09:31:10.104Z</time></trkpt><trkpt lat="43.4180649" lon="11.1596564"><ele>240.0</ele><time>2026-04-19T09:31:12.106Z</time></trkpt><trkpt lat="43.4181106" lon="11.1597392"><ele>240.0</ele><time>2026-04-19T09:31:14.114Z</time></trkpt><trkpt lat="43.4181546" lon="11.1598344"><ele>240.0</ele><time>2026-04-19T09:31:16.18Z</time></trkpt><trkpt lat="43.4181522" lon="11.1599256"><ele>240.0</ele><time>2026-04-19T09:31:17.088Z</time></trkpt><trkpt lat="43.4181698" lon="11.1600521"><ele>240.0</ele><time>2026-04-19T09:31:19.097Z</time></trkpt><trkpt lat="43.418235" lon="11.1601229"><ele>240.0</ele><time>2026-04-19T09:31:21.13Z</time></trkpt><trkpt lat="43.4182982" lon="11.1602173"><ele>240.0</ele><time>2026-04-19T09:31:24.101Z</time></trkpt><trkpt lat="43.4183477" lon="11.1603016"><ele>240.0</ele><time>2026-04-19T09:31:26.092Z</time></trkpt><trkpt lat="43.4183939" lon="11.1603863"><ele>240.0</ele><time>2026-04-19T09:31:28.094Z</time></trkpt><trkpt lat="43.4184336" lon="11.1604749"><ele>240.0</ele><time>2026-04-19T09:31:30.097Z</time></trkpt><trkpt lat="43.4184757" lon="11.1605676"><ele>240.0</ele><time>2026-04-19T09:31:32.096Z</time></trkpt><trkpt lat="43.4185234" lon="11.1606562"><ele>240.0</ele><time>2026-04-19T09:31:34.107Z</time></trkpt><trkpt lat="43.4185603" lon="11.1607436"><ele>240.0</ele><time>2026-04-19T09:31:36.111Z</time></trkpt><trkpt lat="43.4185945" lon="11.1608337"><ele>240.0</ele><time>2026-04-19T09:31:38.119Z</time></trkpt><trkpt lat="43.4186312" lon="11.1609302"><ele>240.0</ele><time>2026-04-19T09:31:40.098Z</time></trkpt><trkpt lat="43.4186725" lon="11.1610284"><ele>240.0</ele><time>2026-04-19T09:31:42.097Z</time></trkpt><trkpt lat="43.418705" lon="11.1611265"><ele>240.0</ele><time>2026-04-19T09:31:44.103Z</time></trkpt><trkpt lat="43.4187275" lon="11.1612222"><ele>240.0</ele><time>2026-04-19T09:31:46.087Z</time></trkpt><trkpt lat="43.418749" lon="11.1613259"><ele>240.0</ele><time>2026-04-19T09:31:48.096Z</time></trkpt><trkpt lat="43.4187739" lon="11.1614299"><ele>240.0</ele><time>2026-04-19T09:31:50.1Z</time></trkpt><trkpt lat="43.4188008" lon="11.1615441"><ele>240.0</ele><time>2026-04-19T09:31:52.104Z</time></trkpt><trkpt lat="43.4188245" lon="11.1616694"><ele>240.0</ele><time>2026-04-19T09:31:54.099Z</time></trkpt><trkpt lat="43.4188541" lon="11.1617959"><ele>240.2</ele><time>2026-04-19T09:31:56.096Z</time></trkpt><trkpt lat="43.4188891" lon="11.1619309"><ele>240.4</ele><time>2026-04-19T09:31:58.096Z</time></trkpt><trkpt lat="43.4189245" lon="11.1620717"><ele>240.60000000000002</ele><time>2026-04-19T09:32:00.103Z</time></trkpt><trkpt lat="43.4189512" lon="11.1622162"><ele>240.8</ele><time>2026-04-19T09:32:02.111Z</time></trkpt><trkpt lat="43.4189789" lon="11.1623599"><ele>241.0</ele><time>2026-04-19T09:32:04.106Z</time></trkpt><trkpt lat="43.4190073" lon="11.1624955"><ele>241.0</ele><time>2026-04-19T09:32:06.113Z</time></trkpt><trkpt lat="43.4190323" lon="11.1626257"><ele>241.00000000000003</ele><time>2026-04-19T09:32:08.119Z</time></trkpt><trkpt lat="43.4190599" lon="11.1627636"><ele>241.00000000000003</ele><time>2026-04-19T09:32:10.091Z</time></trkpt><trkpt lat="43.419093" lon="11.1629131"><ele>241.0</ele><time>2026-04-19T09:32:12.101Z</time></trkpt><trkpt lat="43.4191247" lon="11.1630554"><ele>241.0</ele><time>2026-04-19T09:32:14.106Z</time></trkpt><trkpt lat="43.4191519" lon="11.163194"><ele>241.0</ele><time>2026-04-19T09:32:16.119Z</time></trkpt><trkpt lat="43.4191791" lon="11.1633302"><ele>241.00000000000003</ele><time>2026-04-19T09:32:18.091Z</time></trkpt><trkpt lat="43.4192095" lon="11.1634664"><ele>241.00000000000003</ele><time>2026-04-19T09:32:20.104Z</time></trkpt><trkpt lat="43.4192408" lon="11.1636063"><ele>241.0</ele><time>2026-04-19T09:32:22.099Z</time></trkpt><trkpt lat="43.4192672" lon="11.1637511"><ele>241.0</ele><time>2026-04-19T09:32:24.12Z</time></trkpt><trkpt lat="43.4192859" lon="11.1638859"><ele>240.75</ele><time>2026-04-19T09:32:26.124Z</time></trkpt><trkpt lat="43.4193134" lon="11.1640392"><ele>240.5</ele><time>2026-04-19T09:32:28.104Z</time></trkpt><trkpt lat="43.4193331" lon="11.1641982"><ele>240.25</ele><time>2026-04-19T09:32:30.104Z</time></trkpt><trkpt lat="43.4193517" lon="11.1643533"><ele>240.0</ele><time>2026-04-19T09:32:32.108Z</time></trkpt><trkpt lat="43.4193643" lon="11.164506"><ele>240.0</ele><time>2026-04-19T09:32:34.104Z</time></trkpt><trkpt lat="43.4193834" lon="11.1646665"><ele>240.0</ele><time>2026-04-19T09:32:36.098Z</time></trkpt><trkpt lat="43.4193967" lon="11.1648272"><ele>240.0</ele><time>2026-04-19T09:32:38.089Z</time></trkpt><trkpt lat="43.4194088" lon="11.1649836"><ele>240.0</ele><time>2026-04-19T09:32:40.083Z</time></trkpt><trkpt lat="43.4194281" lon="11.1651573"><ele>240.0</ele><time>2026-04-19T09:32:42.095Z</time></trkpt><trkpt lat="43.4194429" lon="11.1653226"><ele>240.0</ele><time>2026-04-19T09:32:44.084Z</time></trkpt><trkpt lat="43.4194586" lon="11.1654818"><ele>240.0</ele><time>2026-04-19T09:32:46.113Z</time></trkpt><trkpt lat="43.4194699" lon="11.165648"><ele>240.0</ele><time>2026-04-19T09:32:48.11Z</time></trkpt><trkpt lat="43.4194817" lon="11.1658089"><ele>240.0</ele><time>2026-04-19T09:32:50.101Z</time></trkpt><trkpt lat="43.4194943" lon="11.1659771"><ele>240.0</ele><time>2026-04-19T09:32:52.095Z</time></trkpt><trkpt lat="43.4195089" lon="11.1661476"><ele>240.0</ele><time>2026-04-19T09:32:54.097Z</time></trkpt><trkpt lat="43.4195152" lon="11.1662353"><ele>240.0</ele><time>2026-04-19T09:32:55.112Z</time></trkpt><trkpt lat="43.4195216" lon="11.1663231"><ele>240.0</ele><time>2026-04-19T09:32:56.113Z</time></trkpt><trkpt lat="43.419529" lon="11.1664109"><ele>240.0</ele><time>2026-04-19T09:32:57.1Z</time></trkpt><trkpt lat="43.4195364" lon="11.1664997"><ele>239.5</ele><time>2026-04-19T09:32:58.1Z</time></trkpt><trkpt lat="43.419557" lon="11.1666674"><ele>239.0</ele><time>2026-04-19T09:33:00.102Z</time></trkpt><trkpt lat="43.4195677" lon="11.1668249"><ele>238.5</ele><time>2026-04-19T09:33:02.088Z</time></trkpt><trkpt lat="43.4195788" lon="11.1669858"><ele>238.0</ele><time>2026-04-19T09:33:04.091Z</time></trkpt><trkpt lat="43.4195924" lon="11.1671388"><ele>238.0</ele><time>2026-04-19T09:33:06.097Z</time></trkpt><trkpt lat="43.4196071" lon="11.1672868"><ele>238.0</ele><time>2026-04-19T09:33:08.102Z</time></trkpt><trkpt lat="43.4196092" lon="11.1673762"><ele>238.0</ele><time>2026-04-19T09:33:09.103Z</time></trkpt><trkpt lat="43.4196131" lon="11.1674636"><ele>238.0</ele><time>2026-04-19T09:33:10.088Z</time></trkpt><trkpt lat="43.4196253" lon="11.1676293"><ele>238.0</ele><time>2026-04-19T09:33:12.105Z</time></trkpt><trkpt lat="43.4196416" lon="11.1677959"><ele>238.5</ele><time>2026-04-19T09:33:14.103Z</time></trkpt><trkpt lat="43.4196609" lon="11.1679549"><ele>239.0</ele><time>2026-04-19T09:33:16.115Z</time></trkpt><trkpt lat="43.4196803" lon="11.1681028"><ele>239.5</ele><time>2026-04-19T09:33:18.103Z</time></trkpt><trkpt lat="43.4196999" lon="11.1682688"><ele>240.0</ele><time>2026-04-19T09:33:20.096Z</time></trkpt><trkpt lat="43.4197067" lon="11.1684221"><ele>240.0</ele><time>2026-04-19T09:33:22.108Z</time></trkpt><trkpt lat="43.4197143" lon="11.1685752"><ele>240.0</ele><time>2026-04-19T09:33:24.089Z</time></trkpt><trkpt lat="43.419724" lon="11.1687218"><ele>240.0</ele><time>2026-04-19T09:33:26.107Z</time></trkpt><trkpt lat="43.4197312" lon="11.1688621"><ele>240.0</ele><time>2026-04-19T09:33:28.111Z</time></trkpt><trkpt lat="43.4197454" lon="11.1689981"><ele>240.0</ele><time>2026-04-19T09:33:30.119Z</time></trkpt><trkpt lat="43.4197571" lon="11.1691316"><ele>240.2</ele><time>2026-04-19T09:33:32.108Z</time></trkpt><trkpt lat="43.4197696" lon="11.1692674"><ele>240.4</ele><time>2026-04-19T09:33:34.095Z</time></trkpt><trkpt lat="43.4197852" lon="11.1694028"><ele>240.60000000000002</ele><time>2026-04-19T09:33:36.096Z</time></trkpt><trkpt lat="43.4198011" lon="11.1695356"><ele>240.8</ele><time>2026-04-19T09:33:38.12Z</time></trkpt><trkpt lat="43.4198291" lon="11.1696555"><ele>241.0</ele><time>2026-04-19T09:33:40.113Z</time></trkpt><trkpt lat="43.4198595" lon="11.1697831"><ele>241.0</ele><time>2026-04-19T09:33:42.104Z</time></trkpt><trkpt lat="43.419886" lon="11.1699251"><ele>241.0</ele><time>2026-04-19T09:33:44.11Z</time></trkpt><trkpt lat="43.4199146" lon="11.1700805"><ele>241.0</ele><time>2026-04-19T09:33:46.091Z</time></trkpt><trkpt lat="43.4199383" lon="11.1702408"><ele>241.0</ele><time>2026-04-19T09:33:48.096Z</time></trkpt><trkpt lat="43.4199619" lon="11.1703869"><ele>241.0</ele><time>2026-04-19T09:33:50.098Z</time></trkpt><trkpt lat="43.4199729" lon="11.1705276"><ele>241.00000000000003</ele><time>2026-04-19T09:33:52.11Z</time></trkpt><trkpt lat="43.4199889" lon="11.1706613"><ele>241.00000000000003</ele><time>2026-04-19T09:33:54.089Z</time></trkpt><trkpt lat="43.4200096" lon="11.1707912"><ele>241.0</ele><time>2026-04-19T09:33:56.102Z</time></trkpt><trkpt lat="43.4200295" lon="11.170921"><ele>241.0</ele><time>2026-04-19T09:33:58.1Z</time></trkpt><trkpt lat="43.420053" lon="11.1710667"><ele>241.20000000000002</ele><time>2026-04-19T09:34:00.11Z</time></trkpt><trkpt lat="43.4200797" lon="11.1712192"><ele>241.40000000000003</ele><time>2026-04-19T09:34:02.101Z</time></trkpt><trkpt lat="43.420111" lon="11.1713811"><ele>241.6</ele><time>2026-04-19T09:34:04.113Z</time></trkpt><trkpt lat="43.4201405" lon="11.1715566"><ele>241.8</ele><time>2026-04-19T09:34:06.099Z</time></trkpt><trkpt lat="43.4201559" lon="11.1716495"><ele>242.0</ele><time>2026-04-19T09:34:07.102Z</time></trkpt><trkpt lat="43.4201681" lon="11.1717476"><ele>242.00000000000003</ele><time>2026-04-19T09:34:08.102Z</time></trkpt><trkpt lat="43.4201777" lon="11.171846"><ele>242.0</ele><time>2026-04-19T09:34:09.102Z</time></trkpt><trkpt lat="43.4201892" lon="11.1719512"><ele>242.0</ele><time>2026-04-19T09:34:10.101Z</time></trkpt><trkpt lat="43.4202022" lon="11.1720661"><ele>242.0</ele><time>2026-04-19T09:34:11.105Z</time></trkpt><trkpt lat="43.4202122" lon="11.1721851"><ele>242.00000000000003</ele><time>2026-04-19T09:34:12.09Z</time></trkpt><trkpt lat="43.420222" lon="11.1723084"><ele>242.0</ele><time>2026-04-19T09:34:13.103Z</time></trkpt><trkpt lat="43.4202298" lon="11.1724305"><ele>241.6</ele><time>2026-04-19T09:34:14.103Z</time></trkpt><trkpt lat="43.4202364" lon="11.1725574"><ele>241.2</ele><time>2026-04-19T09:34:15.083Z</time></trkpt><trkpt lat="43.420242" lon="11.1726958"><ele>240.8</ele><time>2026-04-19T09:34:16.09Z</time></trkpt><trkpt lat="43.4202434" lon="11.1728306"><ele>240.4</ele><time>2026-04-19T09:34:17.108Z</time></trkpt><trkpt lat="43.4202435" lon="11.1729671"><ele>240.0</ele><time>2026-04-19T09:34:18.087Z</time></trkpt><trkpt lat="43.4202403" lon="11.173103"><ele>238.8</ele><time>2026-04-19T09:34:19.113Z</time></trkpt><trkpt lat="43.4202387" lon="11.1732375"><ele>237.6</ele><time>2026-04-19T09:34:20.09Z</time></trkpt><trkpt lat="43.4202341" lon="11.1733765"><ele>236.39999999999998</ele><time>2026-04-19T09:34:21.094Z</time></trkpt><trkpt lat="43.4202219" lon="11.1735222"><ele>235.2</ele><time>2026-04-19T09:34:22.095Z</time></trkpt><trkpt lat="43.4202091" lon="11.1736725"><ele>234.0</ele><time>2026-04-19T09:34:23.093Z</time></trkpt><trkpt lat="43.4202039" lon="11.1738216"><ele>234.0</ele><time>2026-04-19T09:34:24.096Z</time></trkpt><trkpt lat="43.4202034" lon="11.1739679"><ele>233.99999999999997</ele><time>2026-04-19T09:34:25.103Z</time></trkpt><trkpt lat="43.4202038" lon="11.1741151"><ele>233.99999999999997</ele><time>2026-04-19T09:34:26.104Z</time></trkpt><trkpt lat="43.4202071" lon="11.1742543"><ele>234.0</ele><time>2026-04-19T09:34:27.095Z</time></trkpt><trkpt lat="43.4202159" lon="11.1743969"><ele>234.0</ele><time>2026-04-19T09:34:28.101Z</time></trkpt><trkpt lat="43.42023" lon="11.1745443"><ele>232.25</ele><time>2026-04-19T09:34:29.109Z</time></trkpt><trkpt lat="43.4202509" lon="11.1746971"><ele>230.5</ele><time>2026-04-19T09:34:30.108Z</time></trkpt><trkpt lat="43.4202788" lon="11.1748502"><ele>228.75</ele><time>2026-04-19T09:34:31.077Z</time></trkpt><trkpt lat="43.4203162" lon="11.1750097"><ele>227.0</ele><time>2026-04-19T09:34:32.098Z</time></trkpt><trkpt lat="43.4203608" lon="11.1751677"><ele>225.5</ele><time>2026-04-19T09:34:33.094Z</time></trkpt><trkpt lat="43.4204111" lon="11.175326"><ele>224.0</ele><time>2026-04-19T09:34:34.096Z</time></trkpt><trkpt lat="43.4204681" lon="11.1754788"><ele>222.5</ele><time>2026-04-19T09:34:35.097Z</time></trkpt><trkpt lat="43.4205283" lon="11.1756361"><ele>221.0</ele><time>2026-04-19T09:34:36.094Z</time></trkpt><trkpt lat="43.4205909" lon="11.1758007"><ele>218.5</ele><time>2026-04-19T09:34:37.121Z</time></trkpt><trkpt lat="43.4206534" lon="11.1759619"><ele>216.0</ele><time>2026-04-19T09:34:38.084Z</time></trkpt><trkpt lat="43.4207138" lon="11.1761289"><ele>213.5</ele><time>2026-04-19T09:34:39.112Z</time></trkpt><trkpt lat="43.4207712" lon="11.1762885"><ele>211.0</ele><time>2026-04-19T09:34:40.094Z</time></trkpt><trkpt lat="43.4208185" lon="11.1764506"><ele>207.75</ele><time>2026-04-19T09:34:41.09Z</time></trkpt><trkpt lat="43.420856" lon="11.1766145"><ele>204.5</ele><time>2026-04-19T09:34:42.102Z</time></trkpt><trkpt lat="43.420888" lon="11.1767761"><ele>201.25</ele><time>2026-04-19T09:34:43.109Z</time></trkpt><trkpt lat="43.4209138" lon="11.1769382"><ele>198.0</ele><time>2026-04-19T09:34:44.098Z</time></trkpt><trkpt lat="43.4209321" lon="11.1771043"><ele>198.0</ele><time>2026-04-19T09:34:45.094Z</time></trkpt><trkpt lat="43.4209404" lon="11.1772785"><ele>198.0</ele><time>2026-04-19T09:34:46.098Z</time></trkpt><trkpt lat="43.4209434" lon="11.1774582"><ele>198.0</ele><time>2026-04-19T09:34:47.09Z</time></trkpt><trkpt lat="43.4209437" lon="11.1776414"><ele>198.0</ele><time>2026-04-19T09:34:48.097Z</time></trkpt><trkpt lat="43.420944" lon="11.1778244"><ele>196.25</ele><time>2026-04-19T09:34:49.101Z</time></trkpt><trkpt lat="43.4209438" lon="11.1780125"><ele>194.5</ele><time>2026-04-19T09:34:50.085Z</time></trkpt><trkpt lat="43.4209438" lon="11.1781959"><ele>192.75</ele><time>2026-04-19T09:34:51.088Z</time></trkpt><trkpt lat="43.4209476" lon="11.1783786"><ele>191.0</ele><time>2026-04-19T09:34:52.086Z</time></trkpt><trkpt lat="43.4209561" lon="11.1785646"><ele>190.0</ele><time>2026-04-19T09:34:53.095Z</time></trkpt><trkpt lat="43.4209784" lon="11.1787481"><ele>189.0</ele><time>2026-04-19T09:34:54.088Z</time></trkpt><trkpt lat="43.4210154" lon="11.1789281"><ele>188.0</ele><time>2026-04-19T09:34:55.106Z</time></trkpt><trkpt lat="43.4210654" lon="11.1791016"><ele>187.0</ele><time>2026-04-19T09:34:56.089Z</time></trkpt><trkpt lat="43.4211199" lon="11.1792732"><ele>186.25</ele><time>2026-04-19T09:34:57.1Z</time></trkpt><trkpt lat="43.4211764" lon="11.1794354"><ele>185.5</ele><time>2026-04-19T09:34:58.108Z</time></trkpt><trkpt lat="43.4212198" lon="11.1795919"><ele>184.75</ele><time>2026-04-19T09:34:59.117Z</time></trkpt><trkpt lat="43.4212336" lon="11.1797407"><ele>184.0</ele><time>2026-04-19T09:35:00.114Z</time></trkpt><trkpt lat="43.4212313" lon="11.1798823"><ele>183.33333333333334</ele><time>2026-04-19T09:35:01.101Z</time></trkpt><trkpt lat="43.4212332" lon="11.1800164"><ele>182.66666666666669</ele><time>2026-04-19T09:35:02.089Z</time></trkpt><trkpt lat="43.4212519" lon="11.1801227"><ele>182.0</ele><time>2026-04-19T09:35:03.094Z</time></trkpt><trkpt lat="43.4212895" lon="11.1802122"><ele>181.33333333333334</ele><time>2026-04-19T09:35:04.127Z</time></trkpt><trkpt lat="43.4213463" lon="11.1802832"><ele>180.66666666666666</ele><time>2026-04-19T09:35:05.11Z</time></trkpt><trkpt lat="43.4214052" lon="11.180356"><ele>180.0</ele><time>2026-04-19T09:35:06.101Z</time></trkpt><trkpt lat="43.4214552" lon="11.1804301"><ele>179.14285714285714</ele><time>2026-04-19T09:35:07.103Z</time></trkpt><trkpt lat="43.4214966" lon="11.1805027"><ele>178.2857142857143</ele><time>2026-04-19T09:35:08.118Z</time></trkpt><trkpt lat="43.4215455" lon="11.1806273"><ele>177.42857142857144</ele><time>2026-04-19T09:35:10.082Z</time></trkpt><trkpt lat="43.4215569" lon="11.1807222"><ele>176.57142857142856</ele><time>2026-04-19T09:35:12.083Z</time></trkpt><trkpt lat="43.4215686" lon="11.1808136"><ele>175.71428571428572</ele><time>2026-04-19T09:35:15.116Z</time></trkpt><trkpt lat="43.4216156" lon="11.1807274"><ele>174.85714285714286</ele><time>2026-04-19T09:35:20.096Z</time></trkpt><trkpt lat="43.4216645" lon="11.1806726"><ele>174.0</ele><time>2026-04-19T09:35:23.082Z</time></trkpt><trkpt lat="43.4217346" lon="11.1806122"><ele>173.85714285714286</ele><time>2026-04-19T09:35:26.097Z</time></trkpt><trkpt lat="43.4217971" lon="11.1805484"><ele>173.71428571428572</ele><time>2026-04-19T09:35:29.112Z</time></trkpt><trkpt lat="43.421852" lon="11.1804929"><ele>173.57142857142856</ele><time>2026-04-19T09:35:32.09Z</time></trkpt><trkpt lat="43.4219122" lon="11.1804562"><ele>173.42857142857144</ele><time>2026-04-19T09:35:35.101Z</time></trkpt><trkpt lat="43.4219859" lon="11.1804142"><ele>173.2857142857143</ele><time>2026-04-19T09:35:39.098Z</time></trkpt><trkpt lat="43.4220356" lon="11.1803548"><ele>173.14285714285714</ele><time>2026-04-19T09:35:42.105Z</time></trkpt><trkpt lat="43.4221013" lon="11.1803546"><ele>173.0</ele><time>2026-04-19T09:35:46.108Z</time></trkpt><trkpt lat="43.4221367" lon="11.1804555"><ele>173.0</ele><time>2026-04-19T09:35:50.1Z</time></trkpt><trkpt lat="43.4221353" lon="11.1805531"><ele>173.0</ele><time>2026-04-19T09:35:54.09Z</time></trkpt><trkpt lat="43.4221477" lon="11.1806508"><ele>173.0</ele><time>2026-04-19T09:35:59.089Z</time></trkpt><trkpt lat="43.422145" lon="11.1807416"><ele>173.0</ele><time>2026-04-19T09:37:04.102Z</time></trkpt><trkpt lat="43.422178" lon="11.1808604"><ele>173.0</ele><time>2026-04-19T09:37:07.084Z</time></trkpt><trkpt lat="43.42219" lon="11.1809515"><ele>173.0</ele><time>2026-04-19T09:37:09.106Z</time></trkpt><trkpt lat="43.4222086" lon="11.1810505"><ele>173.0</ele><time>2026-04-19T09:37:12.089Z</time></trkpt><trkpt lat="43.4221737" lon="11.1811321"><ele>170.0</ele><time>2026-04-19T09:37:16.09Z</time></trkpt><trkpt lat="43.4221182" lon="11.1811942"><ele>174.0</ele><time>2026-04-19T09:37:20.108Z</time></trkpt><trkpt lat="43.4220623" lon="11.1812451"><ele>174.0</ele><time>2026-04-19T09:37:53.087Z</time></trkpt></trkseg></trk></gpx>